BA196 / G-VIIJ 7700 Squawk Report (13th of November, 2017)

Aircraft B772 Reg No. G-VIIJ Age 19 years old
Model 777 Jet engines 2 First flight 11-12-97
Registered 30-12-97 Rollout N/A Delivered 29-12-97
Construction No. 27492 Line No. 0111 Series 236(ER)
ADSHEX 400610 Airline name British Airways Owner N/A
Airfield based Heathrow~Gtr London~G First tracked 2011-04-01 18:07:02
Time Lat Lon Altitude Heading Speed Vertical Rate
2017-11-13 13:05:21 GMT 51.47770 -0.43152 -225 270 126 -704
2017-11-13 13:05:13 GMT 51.47770 -0.42442 -125 270 125 -576
2017-11-13 13:05:04 GMT 51.47777 -0.41503 0 270 125 -640
2017-11-13 13:04:52 GMT 51.47779 -0.40489 125 270 123 -704
2017-11-13 13:04:46 GMT 51.47777 -0.39959 175 270 123 -640
2017-11-13 13:04:42 GMT 51.47781 -0.39632 225 270 124 -640
2017-11-13 13:04:37 GMT 51.47781 -0.39120 275 270 124 -640
2017-11-13 13:04:33 GMT 51.47786 -0.38682 325 270 124 -576
2017-11-13 13:04:31 GMT 51.47786 -0.38645 350 270 124 -576
2017-11-13 13:04:27 GMT 51.47784 -0.38147 400 270 124 -576
2017-11-13 13:04:21 GMT 51.47786 -0.37650 475 270 125 -704
2017-11-13 13:04:17 GMT 51.47788 -0.37262 525 270 126 -640
2017-11-13 13:04:15 GMT 51.47788 -0.37071 525 270 125 -640
2017-11-13 13:04:13 GMT 51.47786 -0.36908 550 270 125 -640
2017-11-13 13:04:10 GMT 51.47790 -0.36685 575 270 125 -704
2017-11-13 13:04:06 GMT 51.47790 -0.36240 650 270 124 -768
2017-11-13 13:04:03 GMT 51.47790 -0.35980 675 270 124 -512
2017-11-13 13:04:01 GMT 51.47790 -0.35802 700 270 125 -640
2017-11-13 13:03:57 GMT 51.47793 -0.35492 725 270 123 -704
2017-11-13 13:03:54 GMT 51.47793 -0.35126 775 270 127 -704
2017-11-13 13:03:51 GMT 51.47790 -0.34882 800 270 127 -704
2017-11-13 13:03:49 GMT 51.47793 -0.34752 825 270 127 -640
2017-11-13 13:03:45 GMT 51.47793 -0.34332 875 270 134 -576
2017-11-13 13:03:41 GMT 51.47795 -0.33954 900 270 138 -704
2017-11-13 13:03:39 GMT 51.47795 -0.33753 925 270 141 -896
2017-11-13 13:03:37 GMT 51.47793 -0.33524 975 270 144 -960
2017-11-13 13:03:34 GMT 51.47795 -0.33196 1,025 270 149 -768
2017-11-13 13:03:31 GMT 51.47795 -0.32848 1,050 270 150 -768
2017-11-13 13:03:29 GMT 51.47795 -0.32625 1,075 270 152 -896
2017-11-13 13:03:27 GMT 51.47798 -0.32463 1,100 270 154 -896
2017-11-13 13:03:24 GMT 51.47798 -0.32059 1,150 270 156 -896
2017-11-13 13:03:19 GMT 51.47802 -0.31509 1,250 270 157 -832
2017-11-13 13:03:17 GMT 51.47804 -0.31252 1,275 270 158 -896
2017-11-13 13:03:14 GMT 51.47802 -0.30945 1,325 270 159 -896
2017-11-13 13:03:12 GMT 51.47804 -0.30688 1,350 270 161 -832
2017-11-13 13:03:10 GMT 51.47804 -0.30405 1,375 270 163 -832
2017-11-13 13:03:08 GMT 51.47802 -0.30190 1,425 270 164 -768
2017-11-13 13:03:06 GMT 51.47804 -0.30019 1,425 270 165 -768
2017-11-13 13:03:03 GMT 51.47807 -0.29602 1,475 270 169 -896
2017-11-13 13:03:03 GMT 51.47807 -0.29549 1,475 270 167 -832
2017-11-13 13:02:59 GMT 51.47804 -0.29129 1,525 270 170 -896
2017-11-13 13:02:57 GMT 51.47804 -0.28876 1,550 270 171 -896
2017-11-13 13:02:54 GMT 51.47804 -0.28520 1,600 270 173 -832
2017-11-13 13:02:51 GMT 51.47807 -0.28137 1,625 270 175 -896
2017-11-13 13:02:49 GMT 51.47809 -0.27688 1,675 270 180 -1024
2017-11-13 13:02:45 GMT 51.47812 -0.27237 1,750 270 181 -1088
2017-11-13 13:02:42 GMT 51.47812 -0.26916 1,800 270 182 -960
2017-11-13 13:02:40 GMT 51.47812 -0.26703 1,825 270 183 -896
2017-11-13 13:02:38 GMT 51.47812 -0.26375 1,875 270 183 -960
2017-11-13 13:02:36 GMT 51.47812 -0.26108 1,900 270 183 -960
2017-11-13 13:02:34 GMT 51.47813 -0.25810 1,950 270 183 -960
2017-11-13 13:02:32 GMT 51.47816 -0.25345 2,000 270 183 -960
2017-11-13 13:02:30 GMT 51.47816 -0.25238 2,000 270 183 -960
2017-11-13 13:02:28 GMT 51.47816 -0.24963 2,050 270 184 -960
2017-11-13 13:02:26 GMT 51.47818 -0.24667 2,075 270 184 -960
2017-11-13 13:02:23 GMT 51.47816 -0.24262 2,125 271 184 -1024
2017-11-13 13:02:21 GMT 51.47816 -0.24040 2,150 271 184 -1024
2017-11-13 13:02:18 GMT 51.47816 -0.23552 2,225 271 184 -1024
2017-11-13 13:02:15 GMT 51.47816 -0.23277 2,250 271 184 -1024
2017-11-13 13:02:13 GMT 51.47813 -0.22760 2,325 271 184 -1152
2017-11-13 13:02:10 GMT 51.47812 -0.22629 2,350 271 184 -1152
2017-11-13 13:02:07 GMT 51.47812 -0.22194 2,400 270 183 -1152
2017-11-13 13:02:05 GMT 51.47813 -0.21839 2,450 270 182 -1152
2017-11-13 13:02:03 GMT 51.47813 -0.21572 2,500 270 182 -1088
2017-11-13 13:02:01 GMT 51.47812 -0.21385 2,525 270 182 -1024
2017-11-13 13:01:59 GMT 51.47812 -0.21004 2,575 270 181 -896
2017-11-13 13:01:57 GMT 51.47812 -0.20844 2,600 270 181 -640
2017-11-13 13:01:55 GMT 51.47812 -0.20523 2,625 270 181 -576
2017-11-13 13:01:53 GMT 51.47813 -0.20124 2,650 270 181 -576
2017-11-13 13:01:50 GMT 51.47816 -0.19829 2,675 270 181 -512
2017-11-13 13:01:47 GMT 51.47816 -0.19348 2,700 271 181 -512
2017-11-13 13:01:43 GMT 51.47816 -0.18974 2,725 271 181 -512
2017-11-13 13:01:41 GMT 51.47812 -0.18700 2,750 272 181 -512
2017-11-13 13:01:39 GMT 51.47807 -0.18433 2,775 272 181 -448
2017-11-13 13:01:37 GMT 51.47802 -0.18112 2,775 273 181 -448
2017-11-13 13:01:35 GMT 51.47793 -0.17792 2,800 272 182 -448
2017-11-13 13:01:33 GMT 51.47790 -0.17548 2,825 272 182 -448
2017-11-13 13:01:30 GMT 51.47779 -0.17143 2,850 271 183 -448
2017-11-13 13:01:28 GMT 51.47774 -0.16708 2,850 271 185 -384
2017-11-13 13:01:25 GMT 51.47777 -0.16353 2,875 270 186 -384
2017-11-13 13:01:22 GMT 51.47777 -0.15967 2,900 271 187 -448
2017-11-13 13:01:18 GMT 51.47770 -0.15495 2,925 272 188 -512
2017-11-13 13:01:16 GMT 51.47763 -0.15136 2,950 274 187 -512
2017-11-13 13:01:14 GMT 51.47758 -0.14913 2,950 276 186 -512
2017-11-13 13:01:12 GMT 51.47747 -0.14717 2,975 276 186 -512
2017-11-13 13:01:10 GMT 51.47733 -0.14442 2,975 278 186 -512
2017-11-13 13:01:07 GMT 51.47676 -0.13815 3,025 281 186 -512
2017-11-13 13:01:05 GMT 51.47658 -0.13680 3,025 283 186 -512
2017-11-13 13:01:03 GMT 51.47626 -0.13436 3,050 304 182 -512
2017-11-13 13:01:00 GMT 51.47571 -0.13065 3,075 286 185 -512
2017-11-13 13:00:57 GMT 51.47516 -0.12746 3,100 288 185 -448
2017-11-13 13:00:57 GMT 51.47516 -0.12746 3,100 288 185 -448
2017-11-13 13:00:55 GMT 51.47415 -0.12278 3,125 305 183 -448
2017-11-13 13:00:53 GMT 51.47383 -0.12154 3,125 295 183 -576
2017-11-13 13:00:51 GMT 51.47313 -0.11910 3,150 299 181 -576
2017-11-13 13:00:51 GMT 51.47313 -0.11910 3,150 301 181 -576
2017-11-13 13:00:49 GMT 51.47234 -0.11673 3,150 299 181 -576
2017-11-13 13:00:47 GMT 51.47109 -0.11320 3,200 302 182 -640
2017-11-13 13:00:45 GMT 51.47011 -0.11070 3,225 304 182 -512
2017-11-13 13:00:43 GMT 51.46941 -0.10880 3,225 304 182 -512
2017-11-13 13:00:41 GMT 51.46885 -0.10750 3,250 305 183 -448
2017-11-13 13:00:39 GMT 51.46779 -0.10496 3,250 309 184 -384
2017-11-13 13:00:37 GMT 51.46666 -0.10262 3,275 311 184 -320
2017-11-13 13:00:35 GMT 51.46550 -0.10029 3,275 315 185 -320
2017-11-13 13:00:33 GMT 51.46404 -0.09791 3,300 318 186 -320
2017-11-13 13:00:31 GMT 51.46364 -0.09735 3,300 321 186 -320
2017-11-13 13:00:29 GMT 51.46173 -0.09499 3,300 326 186 -320
2017-11-13 13:00:26 GMT 51.46029 -0.09354 3,325 334 188 -384
2017-11-13 13:00:24 GMT 51.45790 -0.09175 3,350 353 192 -768
2017-11-13 13:00:22 GMT 51.45657 -0.09101 3,375 344 190 -576
2017-11-13 13:00:22 GMT 51.45708 -0.09125 3,350 344 190 -576
2017-11-13 13:00:19 GMT 51.45351 -0.08982 3,400 353 192 -768
2017-11-13 13:00:16 GMT 51.45116 -0.08942 3,425 359 196 -768
2017-11-13 13:00:14 GMT 51.44865 -0.08919 3,475 359 197 -768
2017-11-13 13:00:11 GMT 51.44721 -0.08911 3,500 0 198 -768
2017-11-13 13:00:11 GMT 51.44721 -0.08911 3,500 0 197 -768
2017-11-13 13:00:09 GMT 51.44502 -0.08911 3,525 0 199 -832
2017-11-13 13:00:06 GMT 51.44241 -0.08911 3,575 0 201 -896
2017-11-13 13:00:04 GMT 51.44037 -0.08915 3,600 0 203 -896
2017-11-13 13:00:02 GMT 51.43831 -0.08919 3,650 0 204 -896
2017-11-13 13:00:00 GMT 51.43698 -0.08915 3,650 0 207 -768
2017-11-13 12:59:58 GMT 51.43469 -0.08915 3,700 0 212 -960
2017-11-13 12:59:55 GMT 51.43184 -0.08919 3,725 0 211 -896
2017-11-13 12:59:53 GMT 51.42856 -0.08915 3,775 0 211 -832
2017-11-13 12:59:51 GMT 51.42815 -0.08915 3,775 0 211 -896
2017-11-13 12:59:49 GMT 51.42581 -0.08908 3,825 0 213 -1088
2017-11-13 12:59:49 GMT 51.42581 -0.08908 3,825 0 213 -1088
2017-11-13 12:59:47 GMT 51.42402 -0.08904 3,850 359 215 -1408
2017-11-13 12:59:45 GMT 51.42105 -0.08900 3,900 359 214 -1408
2017-11-13 12:59:42 GMT 51.41789 -0.08886 4,000 359 215 -1472
2017-11-13 12:59:40 GMT 51.41753 -0.08886 4,000 359 215 -1472
2017-11-13 12:59:38 GMT 51.41515 -0.08878 4,050 359 215 -1536
2017-11-13 12:59:38 GMT 51.41515 -0.08878 4,050 359 215 -1536
2017-11-13 12:59:36 GMT 51.41354 -0.08871 4,100 359 215 -1536
2017-11-13 12:59:34 GMT 51.40878 -0.08856 4,225 0 214 -1600
2017-11-13 12:59:32 GMT 51.40878 -0.08856 4,225 0 214 -1600
2017-11-13 12:59:30 GMT 51.40682 -0.08856 4,275 0 214 -1536
2017-11-13 12:59:27 GMT 51.40424 -0.08858 4,350 1 213 -1408
2017-11-13 12:59:25 GMT 51.40228 -0.08873 4,400 3 213 -1344
2017-11-13 12:59:23 GMT 51.39949 -0.08904 4,475 7 213 -1216
2017-11-13 12:59:21 GMT 51.39833 -0.08926 4,500 8 214 -1216
2017-11-13 12:59:19 GMT 51.39578 -0.08997 4,550 13 215 -1152
2017-11-13 12:59:17 GMT 51.39483 -0.09033 4,550 16 215 -1152
2017-11-13 12:59:15 GMT 51.39293 -0.09125 4,600 20 215 -1088
2017-11-13 12:59:13 GMT 51.39052 -0.09286 4,650 25 216 -1088
2017-11-13 12:59:11 GMT 51.38873 -0.09428 4,700 29 218 -1088
2017-11-13 12:59:09 GMT 51.38715 -0.09582 4,725 36 219 -1152
2017-11-13 12:59:07 GMT 51.38552 -0.09766 4,750 42 220 -1088
2017-11-13 12:59:05 GMT 51.38394 -0.09979 4,800 42 220 -1088
2017-11-13 12:59:03 GMT 51.38278 -0.10155 4,825 47 222 -1024
2017-11-13 12:59:01 GMT 51.38045 -0.10571 4,900 52 224 -832
2017-11-13 12:58:59 GMT 51.37894 -0.10890 4,925 55 225 -704
2017-11-13 12:58:57 GMT 51.37812 -0.11086 4,950 57 227 -576
2017-11-13 12:58:55 GMT 51.37747 -0.11253 4,950 58 227 -576
2017-11-13 12:58:53 GMT 51.37640 -0.11543 4,975 59 229 -576
2017-11-13 12:58:50 GMT 51.37449 -0.12077 5,000 60 230 -640
2017-11-13 12:58:47 GMT 51.37282 -0.12550 5,050 60 232 -576
2017-11-13 12:58:45 GMT 51.37198 -0.12794 5,050 60 233 -576
2017-11-13 12:58:42 GMT 51.37060 -0.13184 5,075 60 235 -576
2017-11-13 12:58:40 GMT 51.36951 -0.13488 5,100 60 237 -576
2017-11-13 12:58:38 GMT 51.36845 -0.13792 5,125 60 237 -576
2017-11-13 12:58:36 GMT 51.36704 -0.14191 5,150 60 241 -640
2017-11-13 12:58:34 GMT 51.36630 -0.14401 5,150 60 240 -640
2017-11-13 12:58:32 GMT 51.36532 -0.14679 5,175 60 241 -640
2017-11-13 12:58:30 GMT 51.36411 -0.15024 5,200 60 243 -640
2017-11-13 12:58:28 GMT 51.36313 -0.15305 5,225 61 245 -704
2017-11-13 12:58:26 GMT 51.36172 -0.15715 5,250 61 247 -768
2017-11-13 12:58:24 GMT 51.36071 -0.16006 5,275 61 248 -832
2017-11-13 12:58:20 GMT 51.35884 -0.16554 5,325 61 250 -896
2017-11-13 12:58:18 GMT 51.35728 -0.17006 5,350 61 252 -896
2017-11-13 12:58:16 GMT 51.35582 -0.17433 5,400 62 253 -832
2017-11-13 12:58:13 GMT 51.35471 -0.17769 5,425 62 255 -768
2017-11-13 12:58:11 GMT 51.35330 -0.18202 5,450 63 258 -640
2017-11-13 12:58:09 GMT 51.35202 -0.18610 5,475 65 262 -576
2017-11-13 12:58:07 GMT 51.35097 -0.18959 5,500 65 263 -640
2017-11-13 12:58:05 GMT 51.35024 -0.19203 5,525 66 263 -768
2017-11-13 12:58:03 GMT 51.34907 -0.19630 5,550 68 264 -896
2017-11-13 12:58:01 GMT 51.34863 -0.19812 5,575 69 265 -960
2017-11-13 12:57:59 GMT 51.34768 -0.20218 5,600 71 266 -1024
2017-11-13 12:57:57 GMT 51.34698 -0.20555 5,625 73 267 -1088
2017-11-13 12:57:55 GMT 51.34619 -0.20966 5,675 74 268 -1088
2017-11-13 12:57:53 GMT 51.34567 -0.21271 5,700 74 269 -1152
2017-11-13 12:57:51 GMT 51.34488 -0.21736 5,750 74 269 -1216
2017-11-13 12:57:49 GMT 51.34442 -0.22002 5,775 74 269 -1216
2017-11-13 12:57:47 GMT 51.34378 -0.22388 5,825 74 270 -1280
2017-11-13 12:57:45 GMT 51.34293 -0.22888 5,875 74 270 -1408
2017-11-13 12:57:43 GMT 51.34214 -0.23346 5,925 74 270 -1472
2017-11-13 12:57:41 GMT 51.34154 -0.23695 5,975 74 269 -1536
2017-11-13 12:57:39 GMT 51.34090 -0.24081 6,025 74 269 -1664
2017-11-13 12:57:37 GMT 51.34027 -0.24422 6,075 74 269 -1600
2017-11-13 12:57:36 GMT 51.33957 -0.24845 6,125 74 268 -1664
2017-11-13 12:57:35 GMT 51.33957 -0.24845 6,125 74 268 -1664
2017-11-13 12:57:33 GMT 51.33855 -0.25421 6,225 74 269 -1664
2017-11-13 12:57:31 GMT 51.33783 -0.25840 6,275 74 268 -1664
2017-11-13 12:57:29 GMT 51.33748 -0.26032 6,300 74 268 -1664
2017-11-13 12:57:27 GMT 51.33697 -0.26337 6,350 74 267 -1664
2017-11-13 12:57:25 GMT 51.33581 -0.26976 6,450 74 266 -1664
2017-11-13 12:57:23 GMT 51.33562 -0.27092 6,475 74 266 -1344
2017-11-13 12:57:21 GMT 51.33472 -0.27585 6,550 74 266 -1600
2017-11-13 12:57:19 GMT 51.33413 -0.27924 6,600 74 266 -1536
2017-11-13 12:57:19 GMT 51.33413 -0.27924 6,600 74 266 -1536
2017-11-13 12:57:17 GMT 51.33348 -0.28305 6,650 74 266 -1472
2017-11-13 12:57:15 GMT 51.33289 -0.28646 6,675 74 266 -1408
2017-11-13 12:57:14 GMT 51.33269 -0.28763 6,700 74 266 -1408
2017-11-13 12:57:14 GMT 51.33269 -0.28763 6,700 74 266 -1408
2017-11-13 12:57:12 GMT 51.33197 -0.29181 6,750 74 266 -1280
2017-11-13 12:57:10 GMT 51.33133 -0.29559 6,800 74 266 -1088
2017-11-13 12:57:08 GMT 51.33073 -0.29900 6,825 74 266 -1024
2017-11-13 12:57:08 GMT 51.33073 -0.29900 6,825 74 266 -1024
2017-11-13 12:57:06 GMT 51.32952 -0.30579 6,900 74 267 -832
2017-11-13 12:57:03 GMT 51.32867 -0.31074 6,925 74 267 -640
2017-11-13 12:57:03 GMT 51.32867 -0.31074 6,925 74 267 -576
2017-11-13 12:57:00 GMT 51.32771 -0.31608 6,950 74 267 -512
2017-11-13 12:56:58 GMT 51.32729 -0.31876 6,975 74 266 -256
2017-11-13 12:56:56 GMT 51.32659 -0.32257 6,975 74 266 -256
2017-11-13 12:56:54 GMT 51.32588 -0.32670 7,000 74 267 -64
2017-11-13 12:56:52 GMT 51.32533 -0.32974 7,000 74 267 0
2017-11-13 12:56:50 GMT 51.32431 -0.33546 7,000 74 267 0
2017-11-13 12:56:48 GMT 51.32389 -0.33775 7,000 74 267 0
2017-11-13 12:56:46 GMT 51.32318 -0.34191 7,000 74 267 -64
2017-11-13 12:56:44 GMT 51.32254 -0.34531 7,000 74 267 -64
2017-11-13 12:56:42 GMT 51.32161 -0.35065 7,000 74 266 -64
2017-11-13 12:56:39 GMT 51.32082 -0.35515 7,000 74 266 -64
2017-11-13 12:56:37 GMT 51.31988 -0.36049 7,000 74 266 -64
2017-11-13 12:56:34 GMT 51.31923 -0.36430 7,000 74 265 -64
2017-11-13 12:56:33 GMT 51.31872 -0.36728 7,000 74 265 -64
2017-11-13 12:56:31 GMT 51.31807 -0.37109 7,000 74 265 -64
2017-11-13 12:56:29 GMT 51.31746 -0.37483 7,000 74 265 -64
2017-11-13 12:56:27 GMT 51.31714 -0.37673 7,000 74 265 -64
2017-11-13 12:56:25 GMT 51.31602 -0.38315 7,000 74 266 0
2017-11-13 12:56:23 GMT 51.31558 -0.38586 7,000 74 270 -64
2017-11-13 12:56:22 GMT 51.31558 -0.38586 7,000 74 267 0
2017-11-13 12:56:20 GMT 51.31467 -0.39113 7,000 74 267 0
2017-11-13 12:56:18 GMT 51.31397 -0.39536 7,000 74 271 -64
2017-11-13 12:56:16 GMT 51.31332 -0.39917 7,000 74 272 -64
2017-11-13 12:56:14 GMT 51.31256 -0.40345 7,000 74 273 -64
2017-11-13 12:56:12 GMT 51.31211 -0.40619 7,000 74 276 -64
2017-11-13 12:56:10 GMT 51.31165 -0.40894 7,000 75 277 -64
2017-11-13 12:56:07 GMT 51.31050 -0.41607 7,000 77 281 0
2017-11-13 12:56:07 GMT 51.31050 -0.41607 7,000 77 279 0
2017-11-13 12:56:05 GMT 51.30991 -0.42008 7,000 77 282 0
2017-11-13 12:56:03 GMT 51.30936 -0.42416 7,000 79 285 64
2017-11-13 12:56:03 GMT 51.30936 -0.42416 7,000 79 287 64
2017-11-13 12:56:01 GMT 51.30876 -0.42914 7,000 80 289 64
2017-11-13 12:55:57 GMT 51.30798 -0.43678 7,000 81 292 64
2017-11-13 12:55:57 GMT 51.30798 -0.43678 7,000 81 292 64
2017-11-13 12:55:55 GMT 51.30764 -0.44060 7,000 83 295 64
2017-11-13 12:55:53 GMT 51.30732 -0.44495 7,000 84 298 64
2017-11-13 12:55:51 GMT 51.30704 -0.44930 7,000 86 302 64
2017-11-13 12:55:48 GMT 51.30666 -0.45682 6,975 87 306 64
2017-11-13 12:55:46 GMT 51.30653 -0.46089 6,975 88 308 64
2017-11-13 12:55:45 GMT 51.30652 -0.46224 6,975 88 308 64
2017-11-13 12:55:43 GMT 51.30643 -0.46766 6,975 89 310 0
2017-11-13 12:55:41 GMT 51.30643 -0.47226 6,975 91 313 -64
2017-11-13 12:55:39 GMT 51.30648 -0.47638 7,000 92 314 -64
2017-11-13 12:55:37 GMT 51.30666 -0.48332 7,000 93 315 -64
2017-11-13 12:55:35 GMT 51.30676 -0.48569 7,000 93 315 0
2017-11-13 12:55:33 GMT 51.30702 -0.49171 7,000 93 315 0
2017-11-13 12:55:33 GMT 51.30708 -0.49309 7,000 93 315 0
2017-11-13 12:55:31 GMT 51.30727 -0.49774 7,000 94 317 -64
2017-11-13 12:55:29 GMT 51.30732 -0.49866 7,000 93 315 0
2017-11-13 12:55:27 GMT 51.30755 -0.50423 7,000 93 315 0
2017-11-13 12:55:25 GMT 51.30783 -0.51079 7,000 93 316 0
2017-11-13 12:55:23 GMT 51.30798 -0.51406 7,000 93 316 0
2017-11-13 12:55:21 GMT 51.30817 -0.51873 7,000 93 316 0
2017-11-13 12:55:19 GMT 51.30839 -0.52334 7,000 93 316 0
2017-11-13 12:55:18 GMT 51.30843 -0.52475 7,000 93 316 0
2017-11-13 12:55:16 GMT 51.30881 -0.53269 7,000 93 316 0
2017-11-13 12:55:14 GMT 51.30890 -0.53505 7,000 93 316 0
2017-11-13 12:55:11 GMT 51.30922 -0.54197 7,000 93 316 0
2017-11-13 12:55:09 GMT 51.30941 -0.54619 7,000 93 315 0
2017-11-13 12:55:07 GMT 51.30963 -0.55132 7,000 93 315 0
2017-11-13 12:55:04 GMT 51.31004 -0.56060 7,000 93 315 0
2017-11-13 12:55:02 GMT 51.31016 -0.56297 7,000 93 315 0
2017-11-13 12:55:00 GMT 51.31032 -0.56713 7,000 94 316 0
2017-11-13 12:54:58 GMT 51.31050 -0.57084 7,000 94 316 0
2017-11-13 12:54:56 GMT 51.31076 -0.57694 7,000 94 317 -64
2017-11-13 12:54:54 GMT 51.31095 -0.58159 7,000 94 317 -64
2017-11-13 12:54:52 GMT 51.31123 -0.58762 7,000 94 317 -64
2017-11-13 12:54:50 GMT 51.31146 -0.59326 7,000 94 317 0
2017-11-13 12:54:48 GMT 51.31160 -0.59563 7,000 94 317 0
2017-11-13 12:54:46 GMT 51.31179 -0.60028 7,000 94 316 0
2017-11-13 12:54:43 GMT 51.31206 -0.60585 7,000 94 315 64
2017-11-13 12:54:41 GMT 51.31239 -0.61325 7,000 94 315 0
2017-11-13 12:54:38 GMT 51.31258 -0.61791 7,000 94 315 0
2017-11-13 12:54:36 GMT 51.31286 -0.62347 7,000 94 316 -64
2017-11-13 12:54:34 GMT 51.31316 -0.63053 7,000 94 317 -128
2017-11-13 12:54:31 GMT 51.31346 -0.63660 7,000 94 318 -320
2017-11-13 12:54:28 GMT 51.31370 -0.64174 7,000 94 318 -384
2017-11-13 12:54:28 GMT 51.31370 -0.64174 7,000 93 317 -768
2017-11-13 12:54:28 GMT 51.31370 -0.64174 7,000 93 318 -640
2017-11-13 12:54:26 GMT 51.31393 -0.64690 7,025 94 318 -512
2017-11-13 12:54:23 GMT 51.31421 -0.65346 7,050 93 317 -960
2017-11-13 12:54:23 GMT 51.31421 -0.65346 7,050 93 318 -704
2017-11-13 12:54:20 GMT 51.31471 -0.66519 7,125 93 316 -1408
2017-11-13 12:54:20 GMT 51.31453 -0.66052 7,075 93 317 -960
2017-11-13 12:54:20 GMT 51.31453 -0.66052 7,075 93 317 -960
2017-11-13 12:54:18 GMT 51.31480 -0.66705 7,125 93 317 -1216
2017-11-13 12:54:16 GMT 51.31490 -0.66987 7,150 93 316 -1280
2017-11-13 12:54:13 GMT 51.31518 -0.67680 7,225 93 316 -1536
2017-11-13 12:54:10 GMT 51.31558 -0.68568 7,325 93 317 -1728
2017-11-13 12:54:08 GMT 51.31572 -0.68947 7,350 93 318 -1664
2017-11-13 12:54:06 GMT 51.31590 -0.69318 7,400 93 318 -1600
2017-11-13 12:54:06 GMT 51.31586 -0.69221 7,400 93 318 -1664
2017-11-13 12:54:04 GMT 51.31616 -0.69931 7,475 93 319 -1536
2017-11-13 12:54:03 GMT 51.31621 -0.70023 7,500 94 319 -1536
2017-11-13 12:54:02 GMT 51.31627 -0.70164 7,500 94 319 -1536
2017-11-13 12:54:00 GMT 51.31658 -0.70961 7,600 94 320 -1408
2017-11-13 12:53:58 GMT 51.31673 -0.71292 7,625 93 321 -1280
2017-11-13 12:53:56 GMT 51.31700 -0.71864 7,675 93 322 -1152
2017-11-13 12:53:54 GMT 51.31714 -0.72197 7,700 93 322 -1088
2017-11-13 12:53:52 GMT 51.31728 -0.72525 7,725 93 323 -960
2017-11-13 12:53:48 GMT 51.31782 -0.73772 7,800 93 325 -896
2017-11-13 12:53:46 GMT 51.31805 -0.74343 7,850 93 326 -832
2017-11-13 12:53:45 GMT 51.31801 -0.74247 7,850 94 326 -768
2017-11-13 12:53:43 GMT 51.31840 -0.75066 7,900 93 327 -704
2017-11-13 12:53:41 GMT 51.31847 -0.75308 7,900 93 327 -704
2017-11-13 12:53:39 GMT 51.31869 -0.75791 7,925 93 327 -704
2017-11-13 12:53:37 GMT 51.31888 -0.76273 7,950 93 327 -640
2017-11-13 12:53:35 GMT 51.31914 -0.76904 7,975 93 327 -320
2017-11-13 12:53:33 GMT 51.31937 -0.77385 8,000 93 327 -192
2017-11-13 12:53:31 GMT 51.31947 -0.77624 8,000 93 327 -192
2017-11-13 12:53:28 GMT 51.31979 -0.78396 8,000 94 326 -64
2017-11-13 12:53:26 GMT 51.32012 -0.79117 8,000 94 326 -64
2017-11-13 12:53:23 GMT 51.32030 -0.79554 8,000 94 326 -64
2017-11-13 12:53:21 GMT 51.32048 -0.79933 8,000 94 326 -64
2017-11-13 12:53:19 GMT 51.32077 -0.80658 8,000 94 326 -64
2017-11-13 12:53:17 GMT 51.32100 -0.81230 8,000 94 326 0
2017-11-13 12:53:15 GMT 51.32112 -0.81470 8,000 93 326 0
2017-11-13 12:53:13 GMT 51.32135 -0.82049 8,000 93 326 0
2017-11-13 12:53:11 GMT 51.32156 -0.82481 8,000 93 326 0
2017-11-13 12:53:09 GMT 51.32181 -0.83110 8,000 93 326 0
2017-11-13 12:53:07 GMT 51.32203 -0.83542 8,000 93 326 -64
2017-11-13 12:53:05 GMT 51.32231 -0.84261 8,000 93 327 -64
2017-11-13 12:53:02 GMT 51.32258 -0.84892 8,000 93 327 0
2017-11-13 12:53:00 GMT 51.32263 -0.84984 8,000 93 327 0
2017-11-13 12:52:58 GMT 51.32295 -0.85708 8,000 93 327 0
2017-11-13 12:52:55 GMT 51.32327 -0.86480 8,000 93 327 0
2017-11-13 12:52:53 GMT 51.32342 -0.86914 8,000 93 327 0
2017-11-13 12:52:51 GMT 51.32364 -0.87349 8,000 93 328 0
2017-11-13 12:52:49 GMT 51.32396 -0.88121 8,000 93 328 0
2017-11-13 12:52:47 GMT 51.32403 -0.88272 8,000 93 328 0
2017-11-13 12:52:45 GMT 51.32426 -0.88852 8,000 93 328 0
2017-11-13 12:52:42 GMT 51.32459 -0.89722 8,000 93 328 0
2017-11-13 12:52:42 GMT 51.32454 -0.89623 8,000 93 328 0
2017-11-13 12:52:40 GMT 51.32463 -0.89813 8,000 93 328 0
2017-11-13 12:52:38 GMT 51.32492 -0.90541 8,000 93 328 0
2017-11-13 12:52:36 GMT 51.32515 -0.91120 8,000 93 327 0
2017-11-13 12:52:34 GMT 51.32529 -0.91461 8,000 93 327 0
2017-11-13 12:52:31 GMT 51.32570 -0.92422 8,000 93 327 0
2017-11-13 12:52:29 GMT 51.32575 -0.92522 8,000 93 327 0
2017-11-13 12:52:27 GMT 51.32598 -0.93102 8,000 93 326 0
2017-11-13 12:52:25 GMT 51.32617 -0.93582 8,000 93 326 0
2017-11-13 12:52:22 GMT 51.32652 -0.94401 8,000 93 326 0
2017-11-13 12:52:20 GMT 51.32675 -0.95076 8,000 93 326 0
2017-11-13 12:52:18 GMT 51.32687 -0.95314 8,000 93 326 0
2017-11-13 12:52:15 GMT 51.32721 -0.96130 8,000 93 327 0
2017-11-13 12:52:10 GMT 51.32771 -0.97385 8,000 93 327 -64
2017-11-13 12:52:07 GMT 51.32799 -0.98157 8,000 93 327 -128
2017-11-13 12:52:04 GMT 51.32812 -0.98496 8,000 93 327 -128
2017-11-13 12:52:01 GMT 51.32859 -0.99655 8,000 93 327 -256
2017-11-13 12:51:59 GMT 51.32878 -1.00136 8,000 93 327 -256
2017-11-13 12:51:57 GMT 51.32886 -1.00376 8,025 93 327 -320
2017-11-13 12:51:55 GMT 51.32909 -1.00955 8,025 93 327 -448
2017-11-13 12:51:51 GMT 51.32952 -1.02066 8,050 93 328 -768
2017-11-13 12:51:49 GMT 51.32959 -1.02306 8,075 93 328 -768
2017-11-13 12:51:47 GMT 51.32986 -1.02982 8,100 93 330 -1088
2017-11-13 12:51:44 GMT 51.33009 -1.03472 8,150 93 331 -1216
2017-11-13 12:51:42 GMT 51.33022 -1.03813 8,175 93 332 -1216
2017-11-13 12:51:40 GMT 51.33050 -1.04500 8,225 93 334 -1152
2017-11-13 12:51:38 GMT 51.33069 -1.04988 8,275 93 334 -1216
2017-11-13 12:51:36 GMT 51.33087 -1.05432 8,300 93 335 -1216
2017-11-13 12:51:33 GMT 51.33151 -1.07020 8,425 93 338 -1408
2017-11-13 12:51:29 GMT 51.33171 -1.07475 8,475 93 339 -1344
2017-11-13 12:51:27 GMT 51.33179 -1.07621 8,500 93 339 -1344
2017-11-13 12:51:25 GMT 51.33208 -1.08376 8,550 93 340 -1344
2017-11-13 12:51:23 GMT 51.33225 -1.08728 8,600 93 341 -1280
2017-11-13 12:51:19 GMT 51.33261 -1.09633 8,675 93 343 -1216
2017-11-13 12:51:17 GMT 51.33289 -1.10242 8,725 93 345 -1152
2017-11-13 12:51:15 GMT 51.33316 -1.10947 8,775 93 345 -1152
2017-11-13 12:51:12 GMT 51.33344 -1.11563 8,825 93 348 -1216
2017-11-13 12:51:11 GMT 51.33348 -1.11660 8,825 93 347 -1152
2017-11-13 12:51:09 GMT 51.33376 -1.12328 8,875 93 349 -1280
2017-11-13 12:51:07 GMT 51.33399 -1.12846 8,925 93 351 -1600
2017-11-13 12:51:05 GMT 51.33412 -1.13204 8,950 93 350 -1408
2017-11-13 12:51:03 GMT 51.33444 -1.13931 9,000 93 351 -1664
2017-11-13 12:51:00 GMT 51.33478 -1.14807 9,100 93 352 -1920
2017-11-13 12:50:57 GMT 51.33495 -1.15275 9,175 93 352 -2048
2017-11-13 12:50:55 GMT 51.33522 -1.15898 9,250 93 353 -2048
2017-11-13 12:50:53 GMT 51.33550 -1.16633 9,350 93 353 -2048
2017-11-13 12:50:50 GMT 51.33571 -1.17203 9,425 93 354 -1984
2017-11-13 12:50:48 GMT 51.33591 -1.17672 9,475 93 354 -1920
2017-11-13 12:50:46 GMT 51.33623 -1.18400 9,575 93 354 -1920
2017-11-13 12:50:44 GMT 51.33637 -1.18874 9,625 93 354 -1920
2017-11-13 12:50:44 GMT 51.33637 -1.18874 9,625 93 354 -1920
2017-11-13 12:50:42 GMT 51.33655 -1.19392 9,700 93 355 -2240
2017-11-13 12:50:40 GMT 51.33682 -1.20078 9,775 92 355 -2304
2017-11-13 12:50:37 GMT 51.33696 -1.20597 9,850 93 355 -2496
2017-11-13 12:50:37 GMT 51.33696 -1.20597 9,850 93 355 -2496
2017-11-13 12:50:35 GMT 51.33714 -1.21124 9,925 93 355 -2624
2017-11-13 12:50:33 GMT 51.33742 -1.21852 10,050 93 354 -2560
2017-11-13 12:50:31 GMT 51.33760 -1.22379 10,150 93 354 -2624
2017-11-13 12:50:29 GMT 51.33767 -1.22643 10,175 93 354 -2624
2017-11-13 12:50:27 GMT 51.33790 -1.23268 10,300 93 353 -2560
2017-11-13 12:50:24 GMT 51.33810 -1.23841 10,375 93 353 -2496
2017-11-13 12:50:22 GMT 51.33833 -1.24465 10,475 93 353 -2368
2017-11-13 12:50:20 GMT 51.33856 -1.25088 10,575 93 353 -2240
2017-11-13 12:50:18 GMT 51.33870 -1.25504 10,625 93 353 -2176
2017-11-13 12:50:16 GMT 51.33893 -1.26076 10,725 93 353 -2048
2017-11-13 12:50:14 GMT 51.33911 -1.26602 10,775 93 355 -1472
2017-11-13 12:50:12 GMT 51.33934 -1.27121 10,850 93 354 -1664
2017-11-13 12:50:10 GMT 51.33958 -1.27747 10,900 93 355 -1344
2017-11-13 12:50:08 GMT 51.33972 -1.28067 10,925 93 356 -1088
2017-11-13 12:50:06 GMT 51.34000 -1.28799 10,975 93 358 -832
2017-11-13 12:50:04 GMT 51.34012 -1.29171 11,000 93 359 -704
2017-11-13 12:50:02 GMT 51.34049 -1.30017 11,050 93 360 -768
2017-11-13 12:50:00 GMT 51.34055 -1.30279 11,050 93 360 -832
2017-11-13 12:49:58 GMT 51.34083 -1.30920 11,100 93 361 -1088
2017-11-13 12:49:55 GMT 51.34108 -1.31613 11,150 93 361 -1408
2017-11-13 12:49:53 GMT 51.34139 -1.32301 11,200 93 362 -1600
2017-11-13 12:49:51 GMT 51.34158 -1.32729 11,225 94 362 -1664
2017-11-13 12:49:49 GMT 51.34177 -1.33156 11,275 94 364 -1856
2017-11-13 12:49:46 GMT 51.34213 -1.33959 11,375 94 364 -2176
2017-11-13 12:49:43 GMT 51.34259 -1.34820 11,475 95 365 -2176
2017-11-13 12:49:41 GMT 51.34279 -1.35193 11,525 95 365 -2176
2017-11-13 12:49:39 GMT 51.34316 -1.35841 11,625 95 365 -2112
2017-11-13 12:49:34 GMT 51.34401 -1.37188 11,775 96 367 -1920
2017-11-13 12:49:32 GMT 51.34446 -1.37886 11,875 97 368 -1920
2017-11-13 12:49:29 GMT 51.34507 -1.38641 11,950 99 373 -2048
2017-11-13 12:49:27 GMT 51.34544 -1.39076 12,000 98 370 -1984
2017-11-13 12:49:24 GMT 51.34647 -1.40160 12,125 99 372 -2048
2017-11-13 12:49:22 GMT 51.34689 -1.40594 12,200 99 373 -2112
2017-11-13 12:49:20 GMT 51.34721 -1.40870 12,225 99 373 -2112
2017-11-13 12:49:18 GMT 51.34805 -1.41686 12,325 99 374 -2112
2017-11-13 12:49:15 GMT 51.34859 -1.42169 12,400 99 374 -2048
2017-11-13 12:49:13 GMT 51.34946 -1.42934 12,475 99 374 -2048
2017-11-13 12:49:13 GMT 51.34946 -1.42934 12,475 99 374 -2048
2017-11-13 12:49:11 GMT 51.35005 -1.43476 12,550 99 374 -2048
2017-11-13 12:49:09 GMT 51.35074 -1.44129 12,625 99 375 -1984
2017-11-13 12:49:07 GMT 51.35117 -1.44516 12,675 99 375 -1984
2017-11-13 12:49:03 GMT 51.35247 -1.45714 12,825 99 376 -1920
2017-11-13 12:49:00 GMT 51.35322 -1.46370 12,900 99 377 -1920
2017-11-13 12:48:58 GMT 51.35392 -1.47034 12,975 99 377 -1920
2017-11-13 12:48:56 GMT 51.35443 -1.47469 13,000 100 378 -2048
2017-11-13 12:48:54 GMT 51.35518 -1.48182 13,100 100 378 -1984
2017-11-13 12:48:52 GMT 51.35582 -1.48739 13,150 100 378 -2048
2017-11-13 12:48:50 GMT 51.35641 -1.49288 13,225 100 380 -2112
2017-11-13 12:48:47 GMT 51.35719 -1.49948 13,300 100 380 -2112
2017-11-13 12:48:45 GMT 51.35904 -1.51550 13,500 100 381 -2112
2017-11-13 12:48:42 GMT 51.35918 -1.51665 13,525 100 381 -2112
2017-11-13 12:48:40 GMT 51.35941 -1.51886 13,550 100 381 -2112
2017-11-13 12:48:40 GMT 51.35941 -1.51886 13,550 100 381 -2112
2017-11-13 12:48:38 GMT 51.36049 -1.52821 13,675 100 381 -2112
2017-11-13 12:48:35 GMT 51.36127 -1.53489 13,750 100 382 -2112
2017-11-13 12:48:33 GMT 51.36195 -1.54046 13,800 100 382 -2112
2017-11-13 12:48:31 GMT 51.36267 -1.54655 13,875 100 383 -2048
2017-11-13 12:48:29 GMT 51.36304 -1.54991 13,925 100 383 -2048
2017-11-13 12:48:29 GMT 51.36304 -1.54991 13,925 100 383 -2048
2017-11-13 12:48:27 GMT 51.36369 -1.55548 14,000 100 383 -2048
2017-11-13 12:48:25 GMT 51.36475 -1.56488 14,100 100 384 -1984
2017-11-13 12:48:22 GMT 51.36532 -1.56990 14,175 100 384 -1984
2017-11-13 12:48:20 GMT 51.36630 -1.57832 14,275 100 385 -1984
2017-11-13 12:48:18 GMT 51.36648 -1.57997 14,275 100 385 -2048
2017-11-13 12:48:16 GMT 51.36717 -1.58611 14,350 100 386 -2112
2017-11-13 12:48:16 GMT 51.36717 -1.58611 14,350 100 386 -2112
2017-11-13 12:48:16 GMT 51.36717 -1.58611 14,350 100 386 -2176
2017-11-13 12:48:13 GMT 51.36818 -1.59510 14,475 100 387 -1984
2017-11-13 12:48:11 GMT 51.36882 -1.60074 14,550 100 387 -2048
2017-11-13 12:48:11 GMT 51.36868 -1.59962 14,525 100 387 -2048
2017-11-13 12:48:09 GMT 51.36979 -1.60919 14,625 100 388 -1856
2017-11-13 12:48:07 GMT 51.37024 -1.61313 14,675 100 388 -1728
2017-11-13 12:48:05 GMT 51.37074 -1.61759 14,725 100 389 -1728
2017-11-13 12:48:02 GMT 51.37193 -1.62834 14,825 100 389 -1664
2017-11-13 12:48:00 GMT 51.37244 -1.63292 14,875 100 390 -1664
2017-11-13 12:48:00 GMT 51.37244 -1.63292 14,875 100 390 -1664
2017-11-13 12:47:58 GMT 51.37295 -1.63742 14,900 100 393 -1792
2017-11-13 12:47:56 GMT 51.37356 -1.64314 14,975 99 392 -1664
2017-11-13 12:47:54 GMT 51.37399 -1.64713 15,000 99 392 -1728
2017-11-13 12:47:52 GMT 51.37491 -1.65515 15,075 100 394 -1856
2017-11-13 12:47:50 GMT 51.37547 -1.66031 15,125 100 394 -1920
2017-11-13 12:47:48 GMT 51.37612 -1.66603 15,200 100 395 -2048
2017-11-13 12:47:46 GMT 51.37687 -1.67290 15,275 100 395 -2048
2017-11-13 12:47:44 GMT 51.37720 -1.67579 15,300 100 396 -2112
2017-11-13 12:47:44 GMT 51.37766 -1.67984 15,350 100 396 -2112
2017-11-13 12:47:44 GMT 51.37738 -1.67755 15,325 100 396 -2112
2017-11-13 12:47:42 GMT 51.37831 -1.68556 15,425 100 397 -1984
2017-11-13 12:47:40 GMT 51.37859 -1.68785 15,450 100 396 -2048
2017-11-13 12:47:38 GMT 51.37958 -1.69650 15,550 100 397 -1920
2017-11-13 12:47:36 GMT 51.37985 -1.69887 15,575 100 398 -1920
2017-11-13 12:47:34 GMT 51.38087 -1.70754 15,675 100 399 -1920
2017-11-13 12:47:32 GMT 51.38152 -1.71333 15,725 100 399 -1920
2017-11-13 12:47:30 GMT 51.38196 -1.71736 15,775 100 399 -1920
2017-11-13 12:47:30 GMT 51.38196 -1.71736 15,775 100 400 -1920
2017-11-13 12:47:28 GMT 51.38274 -1.72433 15,850 100 400 -1920
2017-11-13 12:47:25 GMT 51.38379 -1.73361 15,950 100 401 -2048
2017-11-13 12:47:24 GMT 51.38399 -1.73538 15,975 100 401 -2048
2017-11-13 12:47:22 GMT 51.38484 -1.74297 16,050 100 402 -2176
2017-11-13 12:47:22 GMT 51.38484 -1.74297 16,050 100 401 -2176
2017-11-13 12:47:19 GMT 51.38580 -1.75113 16,150 100 402 -2176
2017-11-13 12:47:19 GMT 51.38543 -1.74820 16,125 100 402 -2176
2017-11-13 12:47:17 GMT 51.38627 -1.75522 16,200 100 402 -2176
2017-11-13 12:47:15 GMT 51.38713 -1.76286 16,300 100 403 -2176
2017-11-13 12:47:12 GMT 51.38777 -1.76865 16,375 100 403 -2176
2017-11-13 12:47:10 GMT 51.38869 -1.77689 16,475 100 403 -2240
2017-11-13 12:47:08 GMT 51.38947 -1.78394 16,550 99 404 -2240
2017-11-13 12:47:06 GMT 51.39011 -1.78981 16,625 99 404 -2304
2017-11-13 12:47:04 GMT 51.39083 -1.79626 16,700 99 403 -2304
2017-11-13 12:47:01 GMT 51.39158 -1.80328 16,800 99 403 -2304
2017-11-13 12:46:58 GMT 51.39240 -1.81096 16,900 99 404 -2240
2017-11-13 12:46:56 GMT 51.39331 -1.81920 17,000 99 404 -2240
2017-11-13 12:46:53 GMT 51.39414 -1.82686 17,100 99 405 -2176
2017-11-13 12:46:51 GMT 51.39491 -1.83457 17,175 99 406 -2112
2017-11-13 12:46:48 GMT 51.39555 -1.84043 17,250 99 406 -2112
2017-11-13 12:46:46 GMT 51.39642 -1.84875 17,350 99 406 -2112
2017-11-13 12:46:43 GMT 51.39706 -1.85468 17,425 99 407 -2048
2017-11-13 12:46:41 GMT 51.39784 -1.86181 17,500 99 408 -2048
2017-11-13 12:46:39 GMT 51.39835 -1.86656 17,550 99 409 -2048
2017-11-13 12:46:37 GMT 51.39907 -1.87309 17,625 99 410 -1984
2017-11-13 12:46:34 GMT 51.39986 -1.88019 17,700 99 410 -1984
2017-11-13 12:46:32 GMT 51.40065 -1.88736 17,775 99 411 -1792
2017-11-13 12:46:30 GMT 51.40151 -1.89514 17,875 99 411 -1856
2017-11-13 12:46:30 GMT 51.40151 -1.89514 17,875 99 411 -1856
2017-11-13 12:46:28 GMT 51.40196 -1.89934 17,900 99 411 -1792
2017-11-13 12:46:26 GMT 51.40292 -1.90836 18,000 99 412 -1856
2017-11-13 12:46:24 GMT 51.40366 -1.91555 18,075 99 415 -1728
2017-11-13 12:46:22 GMT 51.40393 -1.91800 18,100 99 413 -1792
2017-11-13 12:46:20 GMT 51.40489 -1.92703 18,175 99 415 -1728
2017-11-13 12:46:18 GMT 51.40521 -1.93003 18,200 99 415 -1728
2017-11-13 12:46:16 GMT 51.40605 -1.93794 18,275 99 418 -1728
2017-11-13 12:46:14 GMT 51.40645 -1.94220 18,325 99 417 -1728
2017-11-13 12:46:12 GMT 51.40723 -1.94948 18,375 99 418 -1728
2017-11-13 12:46:10 GMT 51.40846 -1.96173 18,500 99 420 -1792
2017-11-13 12:46:08 GMT 51.40869 -1.96418 18,525 99 420 -1792
2017-11-13 12:46:05 GMT 51.40929 -1.97026 18,575 98 421 -1920
2017-11-13 12:46:03 GMT 51.40982 -1.97578 18,625 98 421 -1920
2017-11-13 12:46:01 GMT 51.41038 -1.98133 18,675 98 424 -1984
2017-11-13 12:45:58 GMT 51.41141 -1.99181 18,800 98 423 -2048
2017-11-13 12:45:56 GMT 51.41217 -1.99988 18,875 98 424 -1984
2017-11-13 12:45:54 GMT 51.41286 -2.00731 18,950 98 424 -1984
2017-11-13 12:45:52 GMT 51.41327 -2.01164 19,000 98 424 -1984
2017-11-13 12:45:49 GMT 51.41400 -2.01970 19,075 98 425 -1920
2017-11-13 12:45:47 GMT 51.41453 -2.02530 19,150 98 426 -1920
2017-11-13 12:45:45 GMT 51.41524 -2.03344 19,225 98 427 -1856
2017-11-13 12:45:43 GMT 51.41588 -2.04033 19,300 98 428 -1856
2017-11-13 12:45:41 GMT 51.41634 -2.04529 19,325 98 429 -1856
2017-11-13 12:45:39 GMT 51.41713 -2.05406 19,425 98 430 -1920
2017-11-13 12:45:37 GMT 51.41743 -2.05726 19,450 98 430 -1984
2017-11-13 12:45:35 GMT 51.41783 -2.06162 19,500 98 431 -2048
2017-11-13 12:45:33 GMT 51.41849 -2.06855 19,575 98 431 -2048
2017-11-13 12:45:31 GMT 51.41908 -2.07486 19,625 98 432 -2176
2017-11-13 12:45:29 GMT 51.42000 -2.08503 19,750 98 432 -2240
2017-11-13 12:45:27 GMT 51.42039 -2.08946 19,800 98 433 -2304
2017-11-13 12:45:27 GMT 51.42039 -2.08946 19,800 98 433 -2304
2017-11-13 12:45:23 GMT 51.42155 -2.10213 19,950 98 434 -2496
2017-11-13 12:45:21 GMT 51.42235 -2.11098 20,050 98 434 -2624
2017-11-13 12:45:21 GMT 51.42235 -2.11098 20,050 98 434 -2624
2017-11-13 12:45:18 GMT 51.42274 -2.11546 20,100 98 434 -2624
2017-11-13 12:45:18 GMT 51.42284 -2.11672 20,125 98 433 -2880
2017-11-13 12:45:16 GMT 51.42360 -2.12494 20,225 98 434 -2816
2017-11-13 12:45:14 GMT 51.42412 -2.13068 20,325 98 433 -2880
2017-11-13 12:45:12 GMT 51.42486 -2.13890 20,450 98 433 -3328
2017-11-13 12:45:11 GMT 51.42523 -2.14271 20,500 98 432 -3520
2017-11-13 12:45:10 GMT 51.42509 -2.14142 20,475 98 433 -3328
2017-11-13 12:45:07 GMT 51.42609 -2.15221 20,675 98 431 -3648
2017-11-13 12:45:05 GMT 51.42649 -2.15660 20,750 98 430 -3840
2017-11-13 12:45:03 GMT 51.42751 -2.16797 20,975 98 427 -4096
2017-11-13 12:45:02 GMT 51.42751 -2.16797 20,975 98 421 -3968
2017-11-13 12:45:00 GMT 51.42807 -2.17422 21,100 98 427 -4096
2017-11-13 12:44:58 GMT 51.42863 -2.18048 21,250 98 425 -4096
2017-11-13 12:44:56 GMT 51.42934 -2.18851 21,425 98 423 -4096
2017-11-13 12:44:54 GMT 51.42979 -2.19348 21,525 98 422 -3968
2017-11-13 12:44:52 GMT 51.43031 -2.19902 21,650 98 421 -3904
2017-11-13 12:44:50 GMT 51.43096 -2.20642 21,800 98 419 -3264
2017-11-13 12:44:50 GMT 51.43096 -2.20642 21,800 98 419 -3456
2017-11-13 12:44:50 GMT 51.43096 -2.20642 21,800 98 420 -3648
2017-11-13 12:44:50 GMT 51.43096 -2.20642 21,800 98 420 -3648
2017-11-13 12:44:50 GMT 51.43096 -2.20642 21,800 98 420 -3648
2017-11-13 12:44:50 GMT 51.43096 -2.20642 21,800 98 420 -3648
2017-11-13 12:44:47 GMT 51.43180 -2.21626 22,000 98 419 -3264
2017-11-13 12:44:45 GMT 51.43212 -2.21992 22,050 98 419 -2944
2017-11-13 12:44:43 GMT 51.43272 -2.22666 22,150 98 420 -2432
2017-11-13 12:44:41 GMT 51.43324 -2.23221 22,200 98 420 -2304
2017-11-13 12:44:39 GMT 51.43375 -2.23839 22,275 98 421 -2112
2017-11-13 12:44:37 GMT 51.43424 -2.24388 22,350 98 423 -1920
2017-11-13 12:44:37 GMT 51.43424 -2.24388 22,350 98 422 -2048
2017-11-13 12:44:35 GMT 51.43492 -2.25131 22,425 98 423 -1920
2017-11-13 12:44:33 GMT 51.43533 -2.25628 22,475 98 423 -1856
2017-11-13 12:44:30 GMT 51.43627 -2.26677 22,575 97 424 -1856
2017-11-13 12:44:27 GMT 51.43724 -2.27799 22,700 97 425 -1856
2017-11-13 12:44:27 GMT 51.43739 -2.27981 22,700 97 427 -1856
2017-11-13 12:44:27 GMT 51.43753 -2.28107 22,725 97 426 -1856
2017-11-13 12:44:25 GMT 51.43766 -2.28294 22,725 97 426 -1856
2017-11-13 12:44:23 GMT 51.43822 -2.28920 22,800 97 427 -1856
2017-11-13 12:44:21 GMT 51.43878 -2.29546 22,850 97 427 -1920
2017-11-13 12:44:19 GMT 51.43939 -2.30293 22,925 97 427 -1920
2017-11-13 12:44:19 GMT 51.43939 -2.30293 22,925 97 428 -1920
2017-11-13 12:44:19 GMT 51.43939 -2.30293 22,925 97 427 -1920
2017-11-13 12:44:17 GMT 51.43985 -2.30797 22,975 97 428 -1920
2017-11-13 12:44:15 GMT 51.44023 -2.31232 23,025 97 428 -1984
2017-11-13 12:44:13 GMT 51.44087 -2.31990 23,100 97 430 -1920
2017-11-13 12:44:11 GMT 51.44161 -2.32873 23,175 97 430 -1920
2017-11-13 12:44:10 GMT 51.44170 -2.32999 23,200 97 430 -1920
2017-11-13 12:44:08 GMT 51.44241 -2.33818 23,275 97 431 -1856
2017-11-13 12:44:06 GMT 51.44289 -2.34387 23,325 97 431 -1856
2017-11-13 12:44:04 GMT 51.44330 -2.34892 23,375 97 431 -1856
2017-11-13 12:44:02 GMT 51.44376 -2.35397 23,425 97 434 -1920
2017-11-13 12:44:00 GMT 51.44426 -2.36035 23,475 97 433 -1920
2017-11-13 12:44:00 GMT 51.44426 -2.36035 23,475 97 433 -1920
2017-11-13 12:43:57 GMT 51.44513 -2.37052 23,575 97 434 -1984
2017-11-13 12:43:55 GMT 51.44572 -2.37747 23,650 97 435 -1984
2017-11-13 12:43:53 GMT 51.44595 -2.38069 23,675 97 453 -2304
2017-11-13 12:43:50 GMT 51.44714 -2.39472 23,825 97 435 -2048
2017-11-13 12:43:48 GMT 51.44772 -2.40181 23,900 97 436 -2048
2017-11-13 12:43:46 GMT 51.44814 -2.40692 23,950 97 437 -2048
2017-11-13 12:43:46 GMT 51.44814 -2.40692 23,950 97 437 -2048
2017-11-13 12:43:44 GMT 51.44865 -2.41333 24,025 97 437 -2048
2017-11-13 12:43:40 GMT 51.44981 -2.42744 24,175 97 439 -2048
2017-11-13 12:43:38 GMT 51.45007 -2.43065 24,200 97 439 -2048
2017-11-13 12:43:36 GMT 51.45085 -2.43971 24,300 97 440 -2048
2017-11-13 12:43:34 GMT 51.45121 -2.44423 24,325 97 439 -2048
2017-11-13 12:43:34 GMT 51.45121 -2.44423 24,325 97 440 -2048
2017-11-13 12:43:32 GMT 51.45168 -2.45003 24,400 97 441 -1920
2017-11-13 12:43:29 GMT 51.45256 -2.46101 24,500 97 442 -1920
2017-11-13 12:43:27 GMT 51.45305 -2.46680 24,575 97 442 -1856
2017-11-13 12:43:25 GMT 51.45355 -2.47333 24,625 97 443 -1792
2017-11-13 12:43:23 GMT 51.45410 -2.48047 24,700 97 443 -1728
2017-11-13 12:43:21 GMT 51.45475 -2.48825 24,750 97 446 -1600
2017-11-13 12:43:18 GMT 51.45544 -2.49741 24,825 97 446 -1600
2017-11-13 12:43:18 GMT 51.45544 -2.49741 24,825 97 446 -1600
2017-11-13 12:43:16 GMT 51.45586 -2.50267 24,875 97 447 -1664
2017-11-13 12:43:14 GMT 51.45638 -2.50923 24,925 97 447 -1664
2017-11-13 12:43:11 GMT 51.45698 -2.51709 25,000 97 449 -1792
2017-11-13 12:43:08 GMT 51.45782 -2.52762 25,075 97 450 -1856
2017-11-13 12:43:07 GMT 51.45822 -2.53227 25,125 97 451 -1920
2017-11-13 12:43:06 GMT 51.45831 -2.53354 25,125 97 451 -1920
2017-11-13 12:43:05 GMT 51.45856 -2.53685 25,150 97 451 -1920
2017-11-13 12:43:03 GMT 51.45946 -2.54816 25,275 97 451 -1984
2017-11-13 12:43:01 GMT 51.45973 -2.55142 25,300 97 451 -1984
2017-11-13 12:42:59 GMT 51.46019 -2.55744 25,350 97 452 -2176
2017-11-13 12:42:57 GMT 51.46066 -2.56340 25,425 97 452 -2176
2017-11-13 12:42:55 GMT 51.46145 -2.57401 25,525 97 453 -2304
2017-11-13 12:42:53 GMT 51.46187 -2.57935 25,600 96 454 -2368
2017-11-13 12:42:51 GMT 51.46238 -2.58598 25,675 97 454 -2368
2017-11-13 12:42:49 GMT 51.46285 -2.59203 25,750 96 454 -2368
2017-11-13 12:42:47 GMT 51.46341 -2.59933 25,825 96 454 -2368
2017-11-13 12:42:47 GMT 51.46364 -2.60201 25,850 96 454 -2368
2017-11-13 12:42:45 GMT 51.46385 -2.60532 25,900 96 454 -2368
2017-11-13 12:42:43 GMT 51.46443 -2.61269 25,975 96 454 -2368
2017-11-13 12:42:41 GMT 51.46500 -2.62002 26,075 97 454 -2368
2017-11-13 12:42:39 GMT 51.46518 -2.62269 26,100 97 455 -2368
2017-11-13 12:42:37 GMT 51.46597 -2.63267 26,200 97 455 -2304
2017-11-13 12:42:37 GMT 51.46587 -2.63138 26,200 97 455 -2368
2017-11-13 12:42:35 GMT 51.46639 -2.63802 26,275 97 455 -2304
2017-11-13 12:42:33 GMT 51.46706 -2.64674 26,375 97 455 -2304
2017-11-13 12:42:30 GMT 51.46783 -2.65609 26,475 98 457 -2112
2017-11-13 12:42:27 GMT 51.46853 -2.66479 26,575 97 457 -2176
2017-11-13 12:42:25 GMT 51.46916 -2.67213 26,650 98 458 -1920
2017-11-13 12:42:23 GMT 51.47017 -2.68289 26,775 98 458 -1920
2017-11-13 12:42:21 GMT 51.47040 -2.68556 26,800 98 459 -1728
2017-11-13 12:42:19 GMT 51.47131 -2.69492 26,875 100 463 -256
2017-11-13 12:42:16 GMT 51.47207 -2.70233 26,925 99 460 -1024
2017-11-13 12:42:14 GMT 51.47301 -2.71102 26,975 100 461 -640
2017-11-13 12:42:12 GMT 51.47365 -2.71713 27,000 100 463 -256
2017-11-13 12:42:12 GMT 51.47365 -2.71713 27,000 100 463 -256
2017-11-13 12:42:10 GMT 51.47411 -2.72110 27,000 100 463 -128
2017-11-13 12:42:08 GMT 51.47539 -2.73122 27,000 101 463 64
2017-11-13 12:42:06 GMT 51.47616 -2.73727 27,000 102 464 64
2017-11-13 12:42:03 GMT 51.47731 -2.74599 27,000 102 464 64
2017-11-13 12:42:02 GMT 51.47779 -2.74933 26,975 102 464 64
2017-11-13 12:42:00 GMT 51.47849 -2.75475 26,975 102 465 0
2017-11-13 12:41:58 GMT 51.47969 -2.76351 26,975 102 465 -64
2017-11-13 12:41:58 GMT 51.47969 -2.76351 26,975 102 465 -64
2017-11-13 12:41:55 GMT 51.48105 -2.77359 26,975 102 466 -192
2017-11-13 12:41:53 GMT 51.48179 -2.77901 27,000 102 466 -256
2017-11-13 12:41:51 GMT 51.48268 -2.78572 27,000 102 467 -320
2017-11-13 12:41:49 GMT 51.48386 -2.79454 27,025 102 468 -640
2017-11-13 12:41:47 GMT 51.48431 -2.79793 27,025 102 468 -640
2017-11-13 12:41:45 GMT 51.48575 -2.80876 27,050 102 469 -960
2017-11-13 12:41:42 GMT 51.48660 -2.81487 27,075 102 469 -1024
2017-11-13 12:41:42 GMT 51.48660 -2.81487 27,075 102 469 -1024
2017-11-13 12:41:40 GMT 51.48807 -2.82571 27,125 102 469 -1216
2017-11-13 12:41:38 GMT 51.48880 -2.83113 27,175 102 471 -1216
2017-11-13 12:41:36 GMT 51.48994 -2.83930 27,225 102 471 -1280
2017-11-13 12:41:34 GMT 51.49072 -2.84472 27,250 102 471 -1280
2017-11-13 12:41:32 GMT 51.49164 -2.85155 27,300 102 471 -1280
2017-11-13 12:41:29 GMT 51.49306 -2.86171 27,350 102 471 -1280
2017-11-13 12:41:27 GMT 51.49404 -2.86858 27,400 102 472 -1280
2017-11-13 12:41:24 GMT 51.49553 -2.87949 27,450 102 472 -1344
2017-11-13 12:41:22 GMT 51.49617 -2.88421 27,500 102 472 -1280
2017-11-13 12:41:22 GMT 51.49617 -2.88421 27,500 102 472 -1344
2017-11-13 12:41:20 GMT 51.49725 -2.89177 27,525 102 473 -1344
2017-11-13 12:41:17 GMT 51.49864 -2.90202 27,600 102 473 -1408
2017-11-13 12:41:15 GMT 51.50009 -2.91222 27,675 102 473 -1344
2017-11-13 12:41:12 GMT 51.50093 -2.91836 27,700 102 473 -1280
2017-11-13 12:41:10 GMT 51.50212 -2.92659 27,750 102 473 -1216
2017-11-13 12:41:08 GMT 51.50297 -2.93274 27,800 102 474 -1280
2017-11-13 12:41:06 GMT 51.50395 -2.93961 27,825 102 474 -1280
2017-11-13 12:41:04 GMT 51.50493 -2.94647 27,875 102 474 -1280
2017-11-13 12:41:02 GMT 51.50591 -2.95326 27,925 102 474 -1280
2017-11-13 12:41:00 GMT 51.50707 -2.96150 27,975 102 475 -1280
2017-11-13 12:40:58 GMT 51.50775 -2.96631 28,000 102 476 -1344
2017-11-13 12:40:56 GMT 51.50921 -2.97661 28,050 103 476 -1280
2017-11-13 12:40:54 GMT 51.50972 -2.98004 28,075 103 476 -1280
2017-11-13 12:40:52 GMT 51.51114 -2.98969 28,150 103 476 -1280
2017-11-13 12:40:50 GMT 51.51163 -2.99309 28,150 103 476 -1280
2017-11-13 12:40:49 GMT 51.51243 -2.99858 28,200 103 477 -1344
2017-11-13 12:40:48 GMT 51.51424 -3.01102 28,275 103 477 -1344
2017-11-13 12:40:46 GMT 51.51424 -3.01102 28,275 103 477 -1344
2017-11-13 12:40:44 GMT 51.51522 -3.01788 28,325 103 477 -1344
2017-11-13 12:40:41 GMT 51.51624 -3.02475 28,350 103 478 -1344
2017-11-13 12:40:41 GMT 51.51624 -3.02475 28,350 103 477 -1344
2017-11-13 12:40:41 GMT 51.51624 -3.02475 28,350 103 477 -1344
2017-11-13 12:40:41 GMT 51.51624 -3.02475 28,350 103 478 -1344
2017-11-13 12:40:39 GMT 51.51722 -3.03162 28,400 103 478 -1344
2017-11-13 12:40:37 GMT 51.51885 -3.04268 28,475 103 478 -1344
2017-11-13 12:40:37 GMT 51.51855 -3.04061 28,450 103 478 -1344
2017-11-13 12:40:34 GMT 51.52006 -3.05092 28,525 102 479 -1408
2017-11-13 12:40:32 GMT 51.52057 -3.05442 28,550 103 478 -1408
2017-11-13 12:40:31 GMT 51.52153 -3.06133 28,600 103 478 -1408
2017-11-13 12:40:30 GMT 51.52235 -3.06682 28,625 103 479 -1472
2017-11-13 12:40:28 GMT 51.52267 -3.06892 28,650 103 479 -1472
2017-11-13 12:40:26 GMT 51.52425 -3.07991 28,725 103 479 -1472
2017-11-13 12:40:24 GMT 51.52473 -3.08337 28,750 103 479 -1472
2017-11-13 12:40:22 GMT 51.52597 -3.09169 28,800 102 479 -1472
2017-11-13 12:40:19 GMT 51.52723 -3.10066 28,875 102 479 -1472
2017-11-13 12:40:17 GMT 51.52862 -3.11035 28,925 102 479 -1472
2017-11-13 12:40:15 GMT 51.52960 -3.11729 28,975 102 479 -1408
2017-11-13 12:40:12 GMT 51.53105 -3.12769 29,050 102 480 -1472
2017-11-13 12:40:10 GMT 51.53151 -3.13118 29,075 102 479 -1408
2017-11-13 12:40:08 GMT 51.53316 -3.14291 29,150 102 480 -1472
2017-11-13 12:40:06 GMT 51.53375 -3.14706 29,175 102 480 -1472
2017-11-13 12:40:04 GMT 51.53458 -3.15338 29,225 102 480 -1472
2017-11-13 12:40:02 GMT 51.53575 -3.16170 29,275 102 480 -1536
2017-11-13 12:40:00 GMT 51.53641 -3.16651 29,325 102 480 -1536
2017-11-13 12:39:57 GMT 51.53784 -3.17696 29,400 102 480 -1536
2017-11-13 12:39:55 GMT 51.53919 -3.18665 29,450 102 480 -1536
2017-11-13 12:39:53 GMT 51.53989 -3.19153 29,500 102 481 -1472
2017-11-13 12:39:51 GMT 51.54089 -3.19851 29,550 103 481 -1408
2017-11-13 12:39:49 GMT 51.54241 -3.20892 29,625 103 482 -1408
2017-11-13 12:39:47 GMT 51.54332 -3.21513 29,650 103 482 -1408
2017-11-13 12:39:45 GMT 51.54437 -3.22211 29,700 104 483 -1408
2017-11-13 12:39:42 GMT 51.54534 -3.22830 29,750 104 483 -1408
2017-11-13 12:39:40 GMT 51.54692 -3.23799 29,825 105 485 -1408
2017-11-13 12:39:40 GMT 51.54692 -3.23799 29,825 105 485 -1408
2017-11-13 12:39:38 GMT 51.54753 -3.24149 29,850 106 485 -1408
2017-11-13 12:39:36 GMT 51.54915 -3.25043 29,900 107 486 -1408
2017-11-13 12:39:34 GMT 51.55064 -3.25804 29,950 109 487 -1408
2017-11-13 12:39:32 GMT 51.55190 -3.26416 30,000 109 488 -1344
2017-11-13 12:39:30 GMT 51.55367 -3.27240 30,050 110 489 -1408
2017-11-13 12:39:30 GMT 51.55367 -3.27240 30,050 110 489 -1408
2017-11-13 12:39:28 GMT 51.55541 -3.27986 30,075 110 489 -1408
2017-11-13 12:39:26 GMT 51.55749 -3.28865 30,150 110 490 -1408
2017-11-13 12:39:24 GMT 51.55829 -3.29204 30,175 111 490 -1408
2017-11-13 12:39:22 GMT 51.56026 -3.30020 30,225 111 491 -1408
2017-11-13 12:39:21 GMT 51.56026 -3.30020 30,225 111 491 -1408
2017-11-13 12:39:21 GMT 51.56107 -3.30360 30,250 111 491 -1408
2017-11-13 12:39:19 GMT 51.56205 -3.30765 30,275 111 491 -1408
2017-11-13 12:39:17 GMT 51.56433 -3.31718 30,350 111 491 -1408
2017-11-13 12:39:15 GMT 51.56479 -3.31921 30,350 111 491 -1408
2017-11-13 12:39:13 GMT 51.56694 -3.32802 30,425 111 491 -1408
2017-11-13 12:39:11 GMT 51.56873 -3.33554 30,475 111 491 -1408
2017-11-13 12:39:09 GMT 51.57020 -3.34160 30,525 111 492 -1408
2017-11-13 12:39:07 GMT 51.57298 -3.35321 30,600 111 492 -1344
2017-11-13 12:39:05 GMT 51.57350 -3.35526 30,600 111 492 -1344
2017-11-13 12:39:03 GMT 51.57546 -3.36342 30,650 111 493 -1344
2017-11-13 12:39:00 GMT 51.57839 -3.37570 30,725 111 494 -1280
2017-11-13 12:38:58 GMT 51.57953 -3.38052 30,775 111 494 -1280
2017-11-13 12:38:55 GMT 51.58165 -3.38936 30,825 111 495 -1280
2017-11-13 12:38:54 GMT 51.58214 -3.39144 30,825 111 495 -1280
2017-11-13 12:38:52 GMT 51.58479 -3.40242 30,900 111 495 -1280
2017-11-13 12:38:50 GMT 51.58593 -3.40721 30,925 111 496 -1280
2017-11-13 12:38:48 GMT 51.58841 -3.41749 31,000 111 496 -1280
2017-11-13 12:38:46 GMT 51.58924 -3.42094 31,000 110 496 -1280
2017-11-13 12:38:44 GMT 51.59119 -3.42918 31,050 110 496 -1280
2017-11-13 12:38:42 GMT 51.59299 -3.43672 31,100 110 496 -1344
2017-11-13 12:38:40 GMT 51.59417 -3.44154 31,150 110 497 -1344
2017-11-13 12:38:37 GMT 51.59645 -3.45116 31,200 110 497 -1408
2017-11-13 12:38:34 GMT 51.59943 -3.46359 31,275 110 498 -1536
2017-11-13 12:38:31 GMT 51.60204 -3.47465 31,350 110 498 -1472
2017-11-13 12:38:30 GMT 51.60432 -3.48434 31,425 110 499 -1408
2017-11-13 12:38:29 GMT 51.60352 -3.48088 31,400 110 498 -1472
2017-11-13 12:38:27 GMT 51.60469 -3.48572 31,450 110 498 -1408
2017-11-13 12:38:25 GMT 51.60681 -3.49469 31,500 110 499 -1280
2017-11-13 12:38:23 GMT 51.60777 -3.49885 31,525 110 499 -1216
2017-11-13 12:38:21 GMT 51.60991 -3.50784 31,575 110 500 -1088
2017-11-13 12:38:19 GMT 51.61203 -3.51689 31,625 110 501 -960
2017-11-13 12:38:17 GMT 51.61284 -3.52035 31,650 110 501 -960
2017-11-13 12:38:15 GMT 51.61479 -3.52867 31,675 110 501 -896
2017-11-13 12:38:13 GMT 51.61610 -3.53424 31,700 110 502 -832
2017-11-13 12:38:11 GMT 51.61821 -3.54331 31,750 110 503 -832
2017-11-13 12:38:09 GMT 51.61986 -3.55037 31,775 110 504 -768
2017-11-13 12:38:07 GMT 51.62289 -3.56369 31,825 110 505 -768
2017-11-13 12:38:05 GMT 51.62370 -3.56722 31,825 110 507 -832
2017-11-13 12:38:03 GMT 51.62452 -3.57071 31,850 110 506 -832
2017-11-13 12:38:01 GMT 51.62599 -3.57701 31,875 110 507 -832
2017-11-13 12:37:59 GMT 51.62823 -3.58696 31,900 110 508 -832
2017-11-13 12:37:57 GMT 51.62904 -3.59047 31,925 110 508 -832
2017-11-13 12:37:55 GMT 51.63016 -3.59542 31,925 110 508 -832
2017-11-13 12:37:55 GMT 51.63016 -3.59542 31,925 110 508 -832
2017-11-13 12:37:53 GMT 51.63272 -3.60678 31,975 109 510 -832
2017-11-13 12:37:53 GMT 51.63240 -3.60537 31,975 109 510 -832
2017-11-13 12:37:51 GMT 51.63481 -3.61603 32,000 109 510 -896
2017-11-13 12:37:49 GMT 51.63625 -3.62244 32,050 109 511 -896
2017-11-13 12:37:47 GMT 51.63753 -3.62809 32,075 109 512 -896
2017-11-13 12:37:47 GMT 51.63753 -3.62809 32,075 109 512 -896
2017-11-13 12:37:45 GMT 51.63965 -3.63739 32,100 109 513 -896
2017-11-13 12:37:43 GMT 51.64124 -3.64456 32,125 109 513 -896
2017-11-13 12:37:41 GMT 51.64174 -3.64672 32,150 109 513 -896
2017-11-13 12:37:41 GMT 51.64221 -3.64883 32,150 109 515 -1152
2017-11-13 12:37:39 GMT 51.64477 -3.66036 32,200 109 515 -1024
2017-11-13 12:37:38 GMT 51.64445 -3.65890 32,175 109 514 -960
2017-11-13 12:37:36 GMT 51.64590 -3.66535 32,225 109 515 -1088
2017-11-13 12:37:34 GMT 51.64819 -3.67545 32,275 110 516 -1152
2017-11-13 12:37:32 GMT 51.64934 -3.68050 32,300 110 517 -1216
2017-11-13 12:37:30 GMT 51.65129 -3.68912 32,350 110 517 -1216
2017-11-13 12:37:27 GMT 51.65373 -3.69994 32,400 110 518 -1216
2017-11-13 12:37:25 GMT 51.65492 -3.70506 32,425 110 518 -1216
2017-11-13 12:37:25 GMT 51.65557 -3.70789 32,450 110 518 -1216
2017-11-13 12:37:23 GMT 51.65720 -3.71513 32,500 110 519 -1216
2017-11-13 12:37:21 GMT 51.65803 -3.71880 32,500 110 520 -1152
2017-11-13 12:37:19 GMT 51.65986 -3.72673 32,550 110 520 -1216
2017-11-13 12:37:17 GMT 51.66149 -3.73398 32,575 110 520 -1152
2017-11-13 12:37:16 GMT 51.66234 -3.73758 32,600 110 520 -1152
2017-11-13 12:37:14 GMT 51.66431 -3.74634 32,650 110 521 -1152
2017-11-13 12:37:12 GMT 51.66600 -3.75354 32,700 110 521 -1088
2017-11-13 12:37:10 GMT 51.66749 -3.76007 32,725 110 521 -1024
2017-11-13 12:37:08 GMT 51.66982 -3.77029 32,775 110 521 -1024
2017-11-13 12:37:06 GMT 51.67112 -3.77609 32,800 110 521 -960
2017-11-13 12:37:04 GMT 51.67296 -3.78405 32,825 110 521 -896
2017-11-13 12:37:02 GMT 51.67508 -3.79356 32,875 110 521 -896
2017-11-13 12:37:00 GMT 51.67625 -3.79860 32,900 110 521 -768
2017-11-13 12:36:58 GMT 51.67726 -3.80298 32,900 110 521 -768
2017-11-13 12:36:56 GMT 51.67941 -3.81249 32,950 110 521 -640
2017-11-13 12:36:53 GMT 51.68189 -3.82339 32,975 110 521 -320
2017-11-13 12:36:51 GMT 51.68369 -3.83141 32,975 110 521 -256
2017-11-13 12:36:49 GMT 51.68582 -3.84084 33,000 110 521 -128
2017-11-13 12:36:47 GMT 51.68747 -3.84811 33,000 110 522 0
2017-11-13 12:36:46 GMT 51.68747 -3.84811 33,000 110 522 -64
2017-11-13 12:36:44 GMT 51.68912 -3.85546 33,000 110 522 0
2017-11-13 12:36:42 GMT 51.69076 -3.86273 33,000 110 522 0
2017-11-13 12:36:40 GMT 51.69273 -3.87149 33,000 110 522 0
2017-11-13 12:36:38 GMT 51.69406 -3.87728 33,000 110 522 -64
2017-11-13 12:36:36 GMT 51.69524 -3.88237 33,000 110 522 -64
2017-11-13 12:36:34 GMT 51.69784 -3.89404 33,000 109 522 -64
2017-11-13 12:36:32 GMT 51.69900 -3.89918 33,000 109 522 0
2017-11-13 12:36:30 GMT 51.70065 -3.90646 33,000 109 522 0
2017-11-13 12:36:28 GMT 51.70245 -3.91449 33,000 109 522 0
2017-11-13 12:36:26 GMT 51.70441 -3.92319 33,000 109 522 0
2017-11-13 12:36:23 GMT 51.70592 -3.92977 33,000 109 522 -64
2017-11-13 12:36:21 GMT 51.70821 -3.94001 33,000 109 522 -64
2017-11-13 12:36:19 GMT 51.70934 -3.94508 33,000 109 521 -64
2017-11-13 12:36:17 GMT 51.71097 -3.95241 33,000 109 521 -64
2017-11-13 12:36:17 GMT 51.71097 -3.95241 33,000 109 521 -64
2017-11-13 12:36:15 GMT 51.71343 -3.96332 33,000 109 521 0
2017-11-13 12:36:12 GMT 51.71539 -3.97208 33,000 109 521 0
2017-11-13 12:36:09 GMT 51.71753 -3.98155 33,000 109 521 0
2017-11-13 12:36:09 GMT 51.71753 -3.98155 33,000 109 521 0
2017-11-13 12:36:07 GMT 51.71997 -3.99249 33,000 109 521 0
2017-11-13 12:36:07 GMT 51.71997 -3.99249 33,000 109 521 0
2017-11-13 12:36:05 GMT 51.72145 -3.99910 33,000 109 521 0
2017-11-13 12:36:03 GMT 51.72258 -4.00422 33,000 109 521 0
2017-11-13 12:36:01 GMT 51.72470 -4.01367 33,000 109 520 0
2017-11-13 12:35:58 GMT 51.72620 -4.02025 33,000 109 521 0
2017-11-13 12:35:56 GMT 51.72913 -4.03339 33,000 109 521 0
2017-11-13 12:35:54 GMT 51.72945 -4.03480 33,000 109 520 0
2017-11-13 12:35:52 GMT 51.73174 -4.04505 33,000 109 520 0
2017-11-13 12:35:49 GMT 51.73448 -4.05746 33,000 109 520 0
2017-11-13 12:35:48 GMT 51.73448 -4.05746 33,000 109 520 0
2017-11-13 12:35:46 GMT 51.73681 -4.06761 33,000 109 520 0
2017-11-13 12:35:44 GMT 51.73792 -4.07274 33,000 109 520 0
2017-11-13 12:35:41 GMT 51.74121 -4.08728 33,000 109 520 0
2017-11-13 12:35:38 GMT 51.74281 -4.09463 33,000 109 520 0
2017-11-13 12:35:36 GMT 51.74463 -4.10263 33,000 109 520 0
2017-11-13 12:35:34 GMT 51.74626 -4.10996 33,000 109 520 0
2017-11-13 12:35:32 GMT 51.74854 -4.12010 33,000 109 521 0
2017-11-13 12:35:32 GMT 51.74854 -4.12010 33,000 109 520 0
2017-11-13 12:35:30 GMT 51.74936 -4.12373 33,000 109 520 0
2017-11-13 12:35:27 GMT 51.75201 -4.13546 33,000 109 520 0
2017-11-13 12:35:23 GMT 51.75494 -4.14853 33,000 109 520 0
2017-11-13 12:35:21 GMT 51.75687 -4.15729 33,000 109 520 0
2017-11-13 12:35:17 GMT 51.76012 -4.17191 33,000 109 521 0
2017-11-13 12:35:15 GMT 51.76157 -4.17847 33,000 109 521 0
2017-11-13 12:35:13 GMT 51.76353 -4.18724 33,000 109 520 0
2017-11-13 12:35:10 GMT 51.76576 -4.19746 33,000 109 520 -64
2017-11-13 12:35:09 GMT 51.76657 -4.20108 33,000 109 520 0
2017-11-13 12:35:07 GMT 51.76832 -4.20914 33,000 109 520 0
2017-11-13 12:35:03 GMT 51.77202 -4.22595 33,000 109 520 0
2017-11-13 12:35:00 GMT 51.77458 -4.23761 33,000 109 520 0
2017-11-13 12:34:59 GMT 51.77458 -4.23761 33,000 109 520 0
2017-11-13 12:34:56 GMT 51.77698 -4.24858 33,000 109 520 0
2017-11-13 12:34:56 GMT 51.77698 -4.24858 33,000 109 520 0
2017-11-13 12:34:54 GMT 51.77939 -4.25958 33,000 109 520 0
2017-11-13 12:34:52 GMT 51.77987 -4.26170 33,000 109 520 0
2017-11-13 12:34:52 GMT 51.77987 -4.26170 33,000 109 520 0
2017-11-13 12:34:50 GMT 51.78232 -4.27272 33,000 109 520 0
2017-11-13 12:34:47 GMT 51.78392 -4.27999 33,000 109 520 0
2017-11-13 12:34:45 GMT 51.78634 -4.29092 33,000 109 520 0
2017-11-13 12:34:43 GMT 51.78792 -4.29825 33,000 109 520 0
2017-11-13 12:34:41 GMT 51.78983 -4.30702 33,000 109 520 -64
2017-11-13 12:34:38 GMT 51.79225 -4.31800 33,000 109 520 -64
2017-11-13 12:34:36 GMT 51.79321 -4.32238 33,000 109 520 -64
2017-11-13 12:34:34 GMT 51.79435 -4.32747 33,000 109 520 -64
2017-11-13 12:34:34 GMT 51.79435 -4.32747 33,000 109 520 -64
2017-11-13 12:34:32 GMT 51.79610 -4.33552 33,000 109 520 -64
2017-11-13 12:34:30 GMT 51.79770 -4.34279 33,000 109 520 0
2017-11-13 12:34:27 GMT 51.80044 -4.35524 33,000 109 520 0
2017-11-13 12:34:24 GMT 51.80283 -4.36618 33,000 109 520 0
2017-11-13 12:34:21 GMT 51.80507 -4.37642 33,000 109 520 0
2017-11-13 12:34:17 GMT 51.80823 -4.39104 33,000 109 520 0
2017-11-13 12:34:13 GMT 51.81162 -4.40643 33,000 109 520 0
2017-11-13 12:34:11 GMT 51.81320 -4.41368 33,000 109 520 0
2017-11-13 12:34:09 GMT 51.81399 -4.41739 33,000 109 520 0
2017-11-13 12:34:06 GMT 51.81656 -4.42905 33,000 109 520 0
2017-11-13 12:34:04 GMT 51.81876 -4.43929 33,000 109 520 0
2017-11-13 12:34:02 GMT 51.82116 -4.45030 33,000 109 520 0
2017-11-13 12:34:00 GMT 51.82260 -4.45689 33,000 109 520 0
2017-11-13 12:33:56 GMT 51.82502 -4.46785 33,000 109 520 0
2017-11-13 12:33:54 GMT 51.82661 -4.47517 33,000 109 520 0
2017-11-13 12:33:52 GMT 51.82819 -4.48250 33,000 109 520 0
2017-11-13 12:33:49 GMT 51.83075 -4.49417 33,000 109 520 0
2017-11-13 12:33:46 GMT 51.83266 -4.50295 33,000 109 520 0
2017-11-13 12:33:44 GMT 51.83517 -4.51469 33,000 109 519 0
2017-11-13 12:33:42 GMT 51.83629 -4.51983 33,000 109 520 0
2017-11-13 12:33:40 GMT 51.83816 -4.52859 33,000 109 520 0
2017-11-13 12:33:39 GMT 51.83927 -4.53369 33,000 109 520 0
2017-11-13 12:33:37 GMT 51.83977 -4.53594 33,000 109 520 0
2017-11-13 12:33:35 GMT 51.84132 -4.54322 33,000 109 520 0
2017-11-13 12:33:35 GMT 51.84132 -4.54322 33,000 109 520 0
2017-11-13 12:33:33 GMT 51.84352 -4.55354 33,000 109 520 0
2017-11-13 12:33:31 GMT 51.84434 -4.55719 33,000 109 520 0
2017-11-13 12:33:31 GMT 51.84434 -4.55719 33,000 109 520 0
2017-11-13 12:33:28 GMT 51.84668 -4.56816 33,000 109 520 0
2017-11-13 12:33:25 GMT 51.84888 -4.57840 33,000 109 520 -64
2017-11-13 12:33:22 GMT 51.85263 -4.59600 33,000 109 520 -64
2017-11-13 12:33:20 GMT 51.85528 -4.60846 33,000 109 520 -64
2017-11-13 12:33:18 GMT 51.85561 -4.60998 33,000 109 520 -64
2017-11-13 12:33:18 GMT 51.85496 -4.60701 33,000 109 520 -64
2017-11-13 12:33:16 GMT 51.85670 -4.61507 33,000 109 520 -64
2017-11-13 12:33:16 GMT 51.85670 -4.61507 33,000 109 520 -64
2017-11-13 12:33:14 GMT 51.85858 -4.62391 33,000 109 520 -64
2017-11-13 12:33:12 GMT 51.86014 -4.63126 33,000 109 520 -64
2017-11-13 12:33:10 GMT 51.86142 -4.63712 33,000 109 520 -64
2017-11-13 12:33:07 GMT 51.86343 -4.64661 33,000 109 520 -64
2017-11-13 12:33:05 GMT 51.86485 -4.65323 33,000 109 520 -64
2017-11-13 12:33:03 GMT 51.86692 -4.66278 33,000 109 520 -64
2017-11-13 12:33:00 GMT 51.86878 -4.67155 33,000 109 519 -64
2017-11-13 12:32:57 GMT 51.87102 -4.68178 33,000 109 519 0
2017-11-13 12:32:55 GMT 51.87288 -4.69063 33,000 109 519 0
2017-11-13 12:32:53 GMT 51.87479 -4.69940 33,000 109 519 0
2017-11-13 12:32:50 GMT 51.87791 -4.71405 33,000 109 519 0
2017-11-13 12:32:47 GMT 51.88014 -4.72427 33,000 109 519 0
2017-11-13 12:32:45 GMT 51.88092 -4.72798 33,000 109 519 0
2017-11-13 12:32:43 GMT 51.88233 -4.73457 33,000 109 519 0
2017-11-13 12:32:41 GMT 51.88419 -4.74335 33,000 108 519 0
2017-11-13 12:32:39 GMT 51.88577 -4.75067 33,000 108 520 0
2017-11-13 12:32:36 GMT 51.88796 -4.76097 33,000 108 520 0
2017-11-13 12:32:33 GMT 51.89030 -4.77193 33,000 108 520 0
2017-11-13 12:32:31 GMT 51.89201 -4.78005 33,000 108 520 0
2017-11-13 12:32:29 GMT 51.89420 -4.79027 33,000 108 520 0
2017-11-13 12:32:26 GMT 51.89634 -4.80056 33,000 108 520 0
2017-11-13 12:32:24 GMT 51.89713 -4.80423 33,000 108 520 0
2017-11-13 12:32:22 GMT 51.89932 -4.81453 33,000 108 520 0
2017-11-13 12:32:20 GMT 51.90011 -4.81821 33,000 108 520 0
2017-11-13 12:32:17 GMT 51.90243 -4.82918 33,000 108 519 0
2017-11-13 12:32:17 GMT 51.90243 -4.82918 33,000 108 519 0
2017-11-13 12:32:15 GMT 51.90416 -4.83728 33,000 108 519 0
2017-11-13 12:32:13 GMT 51.90570 -4.84466 33,000 108 519 0
2017-11-13 12:32:11 GMT 51.90696 -4.85046 33,000 108 519 0
2017-11-13 12:32:09 GMT 51.90849 -4.85784 33,000 108 519 0
2017-11-13 12:32:06 GMT 51.91141 -4.87175 33,000 108 519 0
2017-11-13 12:32:04 GMT 51.91282 -4.87840 33,000 108 519 0
2017-11-13 12:32:02 GMT 51.91388 -4.88350 33,000 108 518 0
2017-11-13 12:32:00 GMT 51.91589 -4.89307 33,000 108 518 0
2017-11-13 12:31:56 GMT 51.91850 -4.90555 33,000 108 517 0
2017-11-13 12:31:54 GMT 51.92055 -4.91505 33,000 108 517 0
2017-11-13 12:31:52 GMT 51.92253 -4.92455 33,000 108 516 0
2017-11-13 12:31:49 GMT 51.92436 -4.93332 33,000 108 516 0
2017-11-13 12:31:47 GMT 51.92544 -4.93843 33,000 108 515 0
2017-11-13 12:31:45 GMT 51.92807 -4.95079 33,000 108 514 0
2017-11-13 12:31:43 GMT 51.92916 -4.95585 33,000 108 513 0
2017-11-13 12:31:40 GMT 51.93146 -4.96681 33,000 108 512 0
2017-11-13 12:31:37 GMT 51.93329 -4.97551 33,000 108 512 0
2017-11-13 12:31:35 GMT 51.93480 -4.98268 33,000 108 511 0
2017-11-13 12:31:33 GMT 51.93712 -4.99352 33,000 108 510 0
2017-11-13 12:31:29 GMT 51.93970 -5.00580 33,000 108 508 -64
2017-11-13 12:31:28 GMT 51.94272 -5.02014 33,000 108 506 -64
2017-11-13 12:31:24 GMT 51.94410 -5.02656 33,000 108 505 -64
2017-11-13 12:31:22 GMT 51.94482 -5.03014 33,000 108 504 -64
2017-11-13 12:31:19 GMT 51.94741 -5.04225 33,000 108 500 -64
2017-11-13 12:31:17 GMT 51.94844 -5.04723 33,000 108 494 -64
2017-11-13 12:31:14 GMT 51.95174 -5.06271 33,000 108 495 -64
2017-11-13 12:31:12 GMT 51.95248 -5.06627 33,000 108 495 -64
2017-11-13 12:31:09 GMT 51.95471 -5.07675 33,000 108 493 -64
2017-11-13 12:31:09 GMT 51.95471 -5.07675 33,000 108 492 0
2017-11-13 12:31:07 GMT 51.95635 -5.08439 33,000 108 492 0
2017-11-13 12:31:04 GMT 51.95824 -5.09346 33,000 108 489 0
2017-11-13 12:31:02 GMT 51.96002 -5.10178 33,000 108 488 0
2017-11-13 12:30:59 GMT 51.96208 -5.11139 33,000 109 487 0
2017-11-13 12:30:57 GMT 51.96355 -5.11833 33,000 109 487 0
2017-11-13 12:30:55 GMT 51.96482 -5.12449 33,000 108 486 0
2017-11-13 12:30:52 GMT 51.96762 -5.13756 33,000 108 487 0
2017-11-13 12:30:49 GMT 51.96948 -5.14647 33,000 108 487 0
2017-11-13 12:30:47 GMT 51.97124 -5.15479 33,000 108 487 0
2017-11-13 12:30:43 GMT 51.97371 -5.16647 33,000 108 487 0
2017-11-13 12:30:41 GMT 51.97469 -5.17126 33,000 108 487 0
2017-11-13 12:30:38 GMT 51.97687 -5.18166 33,000 108 487 0
2017-11-13 12:30:36 GMT 51.97888 -5.19127 33,000 108 487 0
2017-11-13 12:30:34 GMT 51.98051 -5.19881 33,000 108 487 0
2017-11-13 12:30:32 GMT 51.98195 -5.20571 33,000 108 487 0
2017-11-13 12:30:31 GMT 51.98236 -5.20782 33,000 108 487 0
2017-11-13 12:30:29 GMT 51.98410 -5.21606 33,000 108 487 0
2017-11-13 12:30:27 GMT 51.98512 -5.22086 33,000 108 487 0
2017-11-13 12:30:25 GMT 51.98628 -5.22643 33,000 108 487 0
2017-11-13 12:30:23 GMT 51.98817 -5.23537 33,000 108 487 0
2017-11-13 12:30:21 GMT 51.98977 -5.24291 33,000 108 487 0
2017-11-13 12:30:19 GMT 51.99182 -5.25256 33,000 108 486 0
2017-11-13 12:30:17 GMT 51.99252 -5.25604 33,000 108 486 0
2017-11-13 12:30:13 GMT 51.99499 -5.26771 33,000 108 486 0
2017-11-13 12:30:10 GMT 51.99759 -5.28011 33,000 108 486 0
2017-11-13 12:30:08 GMT 51.99876 -5.28560 33,000 108 486 0
2017-11-13 12:30:05 GMT 52.00149 -5.29869 33,000 108 486 0
2017-11-13 12:30:02 GMT 52.00323 -5.30701 33,000 108 486 0
2017-11-13 12:30:00 GMT 52.00470 -5.31387 33,000 108 486 0
2017-11-13 12:29:57 GMT 52.00686 -5.32421 33,000 108 486 0
2017-11-13 12:29:55 GMT 52.00868 -5.33318 33,000 108 486 0
2017-11-13 12:29:51 GMT 52.01198 -5.34901 33,000 108 486 0
2017-11-13 12:29:51 GMT 52.01142 -5.34626 33,000 108 486 0
2017-11-13 12:29:49 GMT 52.01271 -5.35248 33,000 108 486 0
2017-11-13 12:29:46 GMT 52.01570 -5.36698 33,000 108 486 0
2017-11-13 12:29:44 GMT 52.01614 -5.36903 33,000 108 486 0
2017-11-13 12:29:41 GMT 52.01831 -5.37938 33,000 108 486 0
2017-11-13 12:29:39 GMT 52.01971 -5.38628 33,000 108 486 0
2017-11-13 12:29:37 GMT 52.02072 -5.39108 33,000 108 486 0
2017-11-13 12:29:34 GMT 52.02329 -5.40352 33,000 108 486 0
2017-11-13 12:29:30 GMT 52.02667 -5.42007 33,000 108 486 0
2017-11-13 12:29:28 GMT 52.02809 -5.42702 33,000 108 486 0
2017-11-13 12:29:24 GMT 52.03011 -5.43671 33,000 108 485 0
2017-11-13 12:29:20 GMT 52.03294 -5.45052 33,000 108 485 0
2017-11-13 12:29:17 GMT 52.03563 -5.46358 33,000 108 485 0
2017-11-13 12:29:14 GMT 52.03715 -5.47119 33,000 108 485 0
2017-11-13 12:29:11 GMT 52.03954 -5.48296 33,000 108 485 0
2017-11-13 12:29:09 GMT 52.04169 -5.49332 33,000 108 485 -64
2017-11-13 12:29:06 GMT 52.04279 -5.49881 33,000 108 485 -64
2017-11-13 12:29:05 GMT 52.04405 -5.50501 33,000 108 485 -64
2017-11-13 12:29:04 GMT 52.04503 -5.50987 33,000 108 485 -64
2017-11-13 12:29:02 GMT 52.04590 -5.51399 33,000 108 485 -64
2017-11-13 12:29:00 GMT 52.04745 -5.52165 33,000 108 485 -64
2017-11-13 12:28:57 GMT 52.05024 -5.53546 33,000 108 485 0
2017-11-13 12:28:53 GMT 52.05220 -5.54511 33,000 108 485 0
2017-11-13 12:28:50 GMT 52.05420 -5.55477 33,000 108 485 0
2017-11-13 12:28:47 GMT 52.05629 -5.56511 33,000 108 485 0
2017-11-13 12:28:45 GMT 52.05783 -5.57274 33,000 108 485 -64
2017-11-13 12:28:43 GMT 52.05895 -5.57823 33,000 108 485 0
2017-11-13 12:28:40 GMT 52.06146 -5.59063 33,000 108 485 -64
2017-11-13 12:28:37 GMT 52.06329 -5.59959 33,000 108 485 0
2017-11-13 12:28:36 GMT 52.06499 -5.60791 33,000 108 485 0
2017-11-13 12:28:35 GMT 52.06458 -5.60585 33,000 108 485 0
2017-11-13 12:28:33 GMT 52.06626 -5.61417 33,000 108 485 0
2017-11-13 12:28:30 GMT 52.06933 -5.62932 33,000 108 485 0
2017-11-13 12:28:27 GMT 52.07101 -5.63763 33,000 108 485 0
2017-11-13 12:28:25 GMT 52.07189 -5.64171 33,000 108 485 0
2017-11-13 12:28:23 GMT 52.07357 -5.65003 33,000 108 485 0
2017-11-13 12:28:21 GMT 52.07468 -5.65553 33,000 108 485 0
2017-11-13 12:28:19 GMT 52.07608 -5.66243 33,000 108 485 0
2017-11-13 12:28:17 GMT 52.07849 -5.67421 33,000 108 485 0
2017-11-13 12:28:14 GMT 52.07991 -5.68115 33,000 108 485 0
2017-11-13 12:28:12 GMT 52.08128 -5.68802 33,000 108 485 0
2017-11-13 12:28:10 GMT 52.08215 -5.69214 33,000 108 485 0
2017-11-13 12:28:08 GMT 52.08371 -5.69979 33,000 108 485 0
2017-11-13 12:28:06 GMT 52.08495 -5.70602 33,000 108 485 0
2017-11-13 12:28:04 GMT 52.08719 -5.71709 33,000 108 485 0
2017-11-13 12:28:04 GMT 52.08679 -5.71501 33,000 108 485 0
2017-11-13 12:28:02 GMT 52.08833 -5.72258 33,000 108 485 0
2017-11-13 12:27:59 GMT 52.09018 -5.73157 33,000 108 485 0
2017-11-13 12:27:57 GMT 52.09158 -5.73847 33,000 108 485 0
2017-11-13 12:27:54 GMT 52.09382 -5.74954 33,000 108 485 0
2017-11-13 12:27:52 GMT 52.09534 -5.75714 33,000 108 485 0
2017-11-13 12:27:48 GMT 52.09786 -5.76958 33,000 108 486 0
2017-11-13 12:27:45 GMT 52.09968 -5.77857 33,000 108 486 0
2017-11-13 12:27:43 GMT 52.10152 -5.78758 33,000 108 486 0
2017-11-13 12:27:41 GMT 52.10303 -5.79521 33,000 108 486 0
2017-11-13 12:27:38 GMT 52.10471 -5.80353 33,000 107 485 0
2017-11-13 12:27:36 GMT 52.10690 -5.81459 33,000 107 485 0
2017-11-13 12:27:33 GMT 52.10898 -5.82497 33,000 107 485 0
2017-11-13 12:27:31 GMT 52.10997 -5.82982 33,000 107 485 0
2017-11-13 12:27:28 GMT 52.11205 -5.84023 33,000 107 485 0
2017-11-13 12:27:25 GMT 52.11411 -5.85061 33,000 107 485 0
2017-11-13 12:27:22 GMT 52.11644 -5.86243 33,000 107 485 0
2017-11-13 12:27:18 GMT 52.11868 -5.87349 33,000 107 485 0
2017-11-13 12:27:16 GMT 52.12100 -5.88530 33,000 107 485 0
2017-11-13 12:27:14 GMT 52.12253 -5.89294 33,000 107 485 0
2017-11-13 12:27:12 GMT 52.12296 -5.89503 33,000 107 485 0
2017-11-13 12:27:10 GMT 52.12390 -5.89981 33,000 107 485 0
2017-11-13 12:27:08 GMT 52.12626 -5.91167 33,000 107 486 0
2017-11-13 12:27:05 GMT 52.12794 -5.91998 33,000 107 486 0
2017-11-13 12:27:01 GMT 52.13041 -5.93246 33,000 107 486 0
2017-11-13 12:26:59 GMT 52.13164 -5.93872 33,000 107 486 0
2017-11-13 12:26:57 GMT 52.13329 -5.94704 33,000 107 486 0
2017-11-13 12:26:55 GMT 52.13427 -5.95192 33,000 107 486 0
2017-11-13 12:26:53 GMT 52.13631 -5.96230 33,000 107 486 0
2017-11-13 12:26:51 GMT 52.13702 -5.96581 33,000 107 486 0
2017-11-13 12:26:50 GMT 52.13768 -5.96924 33,000 107 486 0
2017-11-13 12:26:49 GMT 52.13944 -5.97829 33,000 107 486 0
2017-11-13 12:26:47 GMT 52.13988 -5.98038 33,000 107 486 0
2017-11-13 12:26:43 GMT 52.14258 -5.99426 33,000 107 485 0
2017-11-13 12:26:41 GMT 52.14450 -6.00403 33,000 107 485 0
2017-11-13 12:26:41 GMT 52.14450 -6.00403 33,000 107 485 0
2017-11-13 12:26:38 GMT 52.14587 -6.01097 33,000 107 485 0
2017-11-13 12:26:36 GMT 52.14748 -6.01929 33,000 107 485 0
2017-11-13 12:26:34 GMT 52.14977 -6.03110 33,000 107 485 -64
2017-11-13 12:26:30 GMT 52.15168 -6.04083 33,000 107 486 -64
2017-11-13 12:26:27 GMT 52.15331 -6.04923 33,000 107 486 -64
2017-11-13 12:26:25 GMT 52.15480 -6.05682 33,000 107 485 -64
2017-11-13 12:26:20 GMT 52.15888 -6.07773 33,000 107 486 -64
2017-11-13 12:26:18 GMT 52.15997 -6.08330 33,000 107 486 -64
2017-11-13 12:26:16 GMT 52.16094 -6.08815 33,000 107 486 0
2017-11-13 12:26:14 GMT 52.16295 -6.09856 33,000 107 486 0
2017-11-13 12:26:12 GMT 52.16432 -6.10558 33,000 107 486 -64
2017-11-13 12:26:09 GMT 52.16555 -6.11177 33,000 107 486 -64
2017-11-13 12:26:07 GMT 52.16679 -6.11809 33,000 107 486 0
2017-11-13 12:26:05 GMT 52.16817 -6.12503 33,000 107 486 0
2017-11-13 12:26:03 GMT 52.17081 -6.13822 33,000 107 486 0
2017-11-13 12:25:58 GMT 52.17371 -6.15280 33,000 107 486 0
2017-11-13 12:25:55 GMT 52.17551 -6.16184 33,000 107 486 0
2017-11-13 12:25:53 GMT 52.17691 -6.16882 33,000 107 486 0
2017-11-13 12:25:51 GMT 52.17826 -6.17573 33,000 107 486 0
2017-11-13 12:25:49 GMT 52.18045 -6.18687 33,000 107 486 0
2017-11-13 12:25:47 GMT 52.18085 -6.18896 33,000 107 486 0
2017-11-13 12:25:43 GMT 52.18366 -6.20359 33,000 106 486 0
2017-11-13 12:25:42 GMT 52.18460 -6.20850 33,000 106 485 0
2017-11-13 12:25:38 GMT 52.18689 -6.22109 33,000 106 485 0
2017-11-13 12:25:37 GMT 52.18753 -6.22462 33,000 106 485 0
2017-11-13 12:25:35 GMT 52.18886 -6.23230 33,000 104 485 0
2017-11-13 12:25:31 GMT 52.19083 -6.24424 33,000 104 485 0
2017-11-13 12:25:26 GMT 52.19353 -6.26119 33,000 104 485 0
2017-11-13 12:25:24 GMT 52.19476 -6.26892 33,000 104 485 0
2017-11-13 12:25:22 GMT 52.19577 -6.27531 33,000 104 485 0
2017-11-13 12:25:18 GMT 52.19888 -6.29509 33,000 104 485 0
2017-11-13 12:25:16 GMT 52.19943 -6.29860 33,000 104 485 0
2017-11-13 12:25:14 GMT 52.20058 -6.30570 33,000 104 485 0
2017-11-13 12:25:11 GMT 52.20236 -6.31699 33,000 104 485 0
2017-11-13 12:25:09 GMT 52.20392 -6.32683 33,000 104 485 0
2017-11-13 12:25:07 GMT 52.20489 -6.33323 33,000 104 485 0
2017-11-13 12:25:05 GMT 52.20535 -6.33605 33,000 104 485 0
2017-11-13 12:25:05 GMT 52.20535 -6.33605 33,000 104 485 0
2017-11-13 12:25:03 GMT 52.20666 -6.34453 33,000 104 485 0
2017-11-13 12:25:01 GMT 52.20767 -6.35086 33,000 104 485 0
2017-11-13 12:24:59 GMT 52.20900 -6.35933 33,000 104 485 0
2017-11-13 12:24:57 GMT 52.21001 -6.36571 33,000 104 485 0
2017-11-13 12:24:55 GMT 52.21120 -6.37344 33,000 104 485 0
2017-11-13 12:24:53 GMT 52.21211 -6.37909 33,000 104 485 0
2017-11-13 12:24:50 GMT 52.21355 -6.38831 33,000 104 485 0
2017-11-13 12:24:47 GMT 52.21555 -6.40103 33,000 104 485 0
2017-11-13 12:24:47 GMT 52.21555 -6.40103 33,000 104 485 0
2017-11-13 12:24:45 GMT 52.21643 -6.40668 33,000 104 485 0
2017-11-13 12:24:43 GMT 52.21783 -6.41586 33,000 104 485 0
2017-11-13 12:24:41 GMT 52.21916 -6.42433 33,000 104 485 0
2017-11-13 12:24:37 GMT 52.22146 -6.43916 33,000 104 484 0
2017-11-13 12:24:35 GMT 52.22205 -6.44264 33,000 104 484 0
2017-11-13 12:24:33 GMT 52.22337 -6.45111 33,000 104 484 0
2017-11-13 12:24:31 GMT 52.22488 -6.46103 33,000 104 484 0
2017-11-13 12:24:27 GMT 52.22677 -6.47299 33,000 104 484 0
2017-11-13 12:24:25 GMT 52.22765 -6.47864 33,000 104 484 0
2017-11-13 12:24:23 GMT 52.22872 -6.48570 33,000 104 484 0
2017-11-13 12:24:23 GMT 52.22854 -6.48429 33,000 104 484 0
2017-11-13 12:24:23 GMT 52.22872 -6.48570 33,000 104 484 0
2017-11-13 12:24:21 GMT 52.23003 -6.49418 33,000 104 484 0
2017-11-13 12:24:17 GMT 52.23189 -6.50619 33,000 104 483 0
2017-11-13 12:24:15 GMT 52.23310 -6.51395 33,000 104 483 0
2017-11-13 12:24:13 GMT 52.23431 -6.52176 33,000 104 483 0
2017-11-13 12:24:11 GMT 52.23541 -6.52878 33,000 104 484 -64
2017-11-13 12:24:06 GMT 52.23779 -6.54434 33,000 104 483 0
2017-11-13 12:24:04 GMT 52.23930 -6.55418 33,000 104 483 64
2017-11-13 12:24:02 GMT 52.24040 -6.56128 33,000 104 483 64
2017-11-13 12:24:00 GMT 52.24150 -6.56830 33,000 104 485 -384
2017-11-13 12:23:57 GMT 52.24301 -6.57822 33,000 104 484 64
2017-11-13 12:23:53 GMT 52.24506 -6.59164 33,000 104 484 0
2017-11-13 12:23:50 GMT 52.24683 -6.60294 33,000 104 484 -64
2017-11-13 12:23:47 GMT 52.24864 -6.61491 33,000 104 484 -192
2017-11-13 12:23:43 GMT 52.25084 -6.62910 33,000 104 485 -512
2017-11-13 12:23:42 GMT 52.25140 -6.63260 33,000 104 485 -512
2017-11-13 12:23:40 GMT 52.25217 -6.63757 33,025 104 485 -768
2017-11-13 12:23:37 GMT 52.25391 -6.64894 33,050 104 486 -896
2017-11-13 12:23:35 GMT 52.25489 -6.65528 33,100 104 486 -960
2017-11-13 12:23:33 GMT 52.25565 -6.66023 33,125 104 486 -960
2017-11-13 12:23:30 GMT 52.25773 -6.67380 33,175 104 487 -960
2017-11-13 12:23:26 GMT 52.26022 -6.69014 33,250 103 487 -896
2017-11-13 12:23:23 GMT 52.26140 -6.69797 33,275 103 487 -960
2017-11-13 12:23:21 GMT 52.26237 -6.70433 33,300 103 487 -960
2017-11-13 12:23:19 GMT 52.26336 -6.71076 33,350 103 487 -1024
2017-11-13 12:23:16 GMT 52.26508 -6.72222 33,400 103 488 -1024
2017-11-13 12:23:13 GMT 52.26695 -6.73431 33,450 104 488 -1024
2017-11-13 12:23:10 GMT 52.26867 -6.74498 33,500 105 488 -1024
2017-11-13 12:23:08 GMT 52.27043 -6.75560 33,550 105 489 -1024
2017-11-13 12:23:08 GMT 52.27043 -6.75560 33,550 105 489 -1024
2017-11-13 12:23:06 GMT 52.27104 -6.75918 33,575 105 489 -1024
2017-11-13 12:23:02 GMT 52.27387 -6.77544 33,650 106 490 -960
2017-11-13 12:23:00 GMT 52.27504 -6.78186 33,675 106 490 -1024
2017-11-13 12:22:59 GMT 52.27504 -6.78186 33,675 106 490 -1024
2017-11-13 12:22:54 GMT 52.27890 -6.80229 33,775 108 491 -896
2017-11-13 12:22:51 GMT 52.28072 -6.81144 33,825 108 491 -896
2017-11-13 12:22:49 GMT 52.28212 -6.81843 33,850 108 491 -832
2017-11-13 12:22:47 GMT 52.28328 -6.82408 33,875 109 492 -640
2017-11-13 12:22:44 GMT 52.28577 -6.83601 33,900 109 492 -640
2017-11-13 12:22:41 GMT 52.28815 -6.84723 33,925 109 493 -576
2017-11-13 12:22:38 GMT 52.29002 -6.85562 33,950 109 493 -576
2017-11-13 12:22:36 GMT 52.29394 -6.87305 34,000 111 495 -576
2017-11-13 12:22:32 GMT 52.29675 -6.88484 34,025 111 495 -576
2017-11-13 12:22:30 GMT 52.29758 -6.88835 34,050 111 496 -576
2017-11-13 12:22:28 GMT 52.29808 -6.89041 34,050 111 496 -576
2017-11-13 12:22:26 GMT 52.30065 -6.90083 34,075 112 497 -640
2017-11-13 12:22:23 GMT 52.30289 -6.90987 34,100 112 498 -640
2017-11-13 12:22:21 GMT 52.30541 -6.91956 34,125 113 498 -704
2017-11-13 12:22:18 GMT 52.30724 -6.92642 34,150 113 498 -768
2017-11-13 12:22:18 GMT 52.30724 -6.92642 34,150 113 498 -768
2017-11-13 12:22:16 GMT 52.31038 -6.93818 34,200 114 499 -832
2017-11-13 12:22:14 GMT 52.31172 -6.94298 34,225 114 499 -896
2017-11-13 12:22:11 GMT 52.31540 -6.95592 34,275 115 500 -896
2017-11-13 12:22:09 GMT 52.31578 -6.95733 34,300 115 500 -896
2017-11-13 12:22:07 GMT 52.31894 -6.96824 34,325 115 501 -896
2017-11-13 12:22:07 GMT 52.31894 -6.96824 34,325 115 501 -896
2017-11-13 12:22:04 GMT 52.32033 -6.97296 34,350 115 501 -896
2017-11-13 12:22:02 GMT 52.32271 -6.98120 34,400 115 501 -896
2017-11-13 12:22:00 GMT 52.32527 -6.99005 34,425 115 501 -960
2017-11-13 12:21:58 GMT 52.32690 -6.99547 34,450 115 501 -960
2017-11-13 12:21:56 GMT 52.32829 -7.00028 34,475 115 501 -960
2017-11-13 12:21:54 GMT 52.33067 -7.00844 34,525 115 501 -960
2017-11-13 12:21:52 GMT 52.33207 -7.01328 34,525 115 502 -1024
2017-11-13 12:21:50 GMT 52.33507 -7.02347 34,575 115 502 -1024
2017-11-13 12:21:47 GMT 52.33724 -7.03102 34,625 115 502 -960
2017-11-13 12:21:42 GMT 52.34221 -7.04811 34,700 115 503 -960
2017-11-13 12:21:39 GMT 52.34578 -7.06047 34,750 115 503 -960
2017-11-13 12:21:37 GMT 52.34738 -7.06596 34,775 115 504 -960
2017-11-13 12:21:35 GMT 52.35079 -7.07763 34,850 115 504 -960
2017-11-13 12:21:35 GMT 52.35079 -7.07763 34,850 115 504 -960
2017-11-13 12:21:32 GMT 52.35260 -7.08382 34,875 115 504 -960
2017-11-13 12:21:29 GMT 52.35600 -7.09544 34,925 115 504 -960
2017-11-13 12:21:27 GMT 52.35763 -7.10093 34,950 115 505 -960
2017-11-13 12:21:25 GMT 52.35963 -7.10784 34,975 115 505 -960
2017-11-13 12:21:23 GMT 52.36205 -7.11608 35,000 115 505 -960
2017-11-13 12:21:23 GMT 52.36205 -7.11608 35,000 115 505 -960
2017-11-13 12:21:22 GMT 52.36304 -7.11945 35,025 115 505 -1024
2017-11-13 12:21:21 GMT 52.36386 -7.12227 35,050 115 505 -1024
2017-11-13 12:21:17 GMT 52.36768 -7.13531 35,100 115 505 -1088
2017-11-13 12:21:15 GMT 52.36931 -7.14080 35,150 115 505 -1088
2017-11-13 12:21:13 GMT 52.37196 -7.14973 35,175 115 505 -1024
2017-11-13 12:21:13 GMT 52.37196 -7.14973 35,175 115 505 -1024
2017-11-13 12:21:11 GMT 52.37336 -7.15453 35,200 115 505 -1024
2017-11-13 12:21:09 GMT 52.37578 -7.16285 35,250 115 506 -960
2017-11-13 12:21:07 GMT 52.37820 -7.17109 35,275 115 506 -960
2017-11-13 12:21:05 GMT 52.37941 -7.17517 35,300 115 506 -960
2017-11-13 12:21:03 GMT 52.38142 -7.18208 35,350 115 506 -960
2017-11-13 12:21:01 GMT 52.38388 -7.19039 35,375 115 507 -960
2017-11-13 12:20:59 GMT 52.38668 -7.20005 35,425 115 507 -960
2017-11-13 12:20:57 GMT 52.38873 -7.20695 35,450 115 507 -960
2017-11-13 12:20:55 GMT 52.38952 -7.20970 35,475 115 507 -896
2017-11-13 12:20:53 GMT 52.39152 -7.21661 35,500 115 508 -896
2017-11-13 12:20:51 GMT 52.39375 -7.22420 35,525 115 508 -896
2017-11-13 12:20:48 GMT 52.39700 -7.23534 35,575 115 508 -896
2017-11-13 12:20:46 GMT 52.39920 -7.24289 35,600 115 508 -896
2017-11-13 12:20:43 GMT 52.40204 -7.25263 35,650 115 509 -1024
2017-11-13 12:20:40 GMT 52.40506 -7.26303 35,700 115 509 -1152
2017-11-13 12:20:37 GMT 52.40935 -7.27766 35,775 115 509 -1216
2017-11-13 12:20:35 GMT 52.41056 -7.28182 35,800 115 509 -1216
2017-11-13 12:20:33 GMT 52.41256 -7.28872 35,850 115 509 -1216
2017-11-13 12:20:30 GMT 52.41522 -7.29782 35,900 115 510 -1088
2017-11-13 12:20:30 GMT 52.41522 -7.29782 35,900 115 510 -1088
2017-11-13 12:20:28 GMT 52.41824 -7.30818 35,950 115 510 -1024
2017-11-13 12:20:26 GMT 52.41966 -7.31308 35,975 115 510 -1024
2017-11-13 12:20:24 GMT 52.42108 -7.31799 36,000 115 510 -1024
2017-11-13 12:20:22 GMT 52.42355 -7.32631 36,050 115 510 -1024
2017-11-13 12:20:20 GMT 52.42555 -7.33330 36,075 115 511 -1024
2017-11-13 12:20:16 GMT 52.43044 -7.35001 36,150 115 512 -1024
2017-11-13 12:20:14 GMT 52.43123 -7.35284 36,175 115 512 -1024
2017-11-13 12:20:12 GMT 52.43328 -7.35982 36,200 115 512 -1024
2017-11-13 12:20:09 GMT 52.43628 -7.37030 36,250 115 513 -960
2017-11-13 12:20:07 GMT 52.43891 -7.37944 36,300 115 513 -960
2017-11-13 12:20:06 GMT 52.43933 -7.38077 36,300 115 512 -960
2017-11-13 12:20:04 GMT 52.44196 -7.38991 36,350 115 513 -960
2017-11-13 12:20:02 GMT 52.44333 -7.39482 36,375 115 513 -1024
2017-11-13 12:19:59 GMT 52.44617 -7.40463 36,400 115 513 -1088
2017-11-13 12:19:57 GMT 52.44980 -7.41734 36,475 115 513 -1216
2017-11-13 12:19:54 GMT 52.45161 -7.42363 36,525 115 513 -1280
2017-11-13 12:19:52 GMT 52.45385 -7.43139 36,575 115 513 -1344
2017-11-13 12:19:49 GMT 52.45627 -7.43978 36,625 115 513 -1344
2017-11-13 12:19:45 GMT 52.46091 -7.45598 36,725 115 513 -1280
2017-11-13 12:19:43 GMT 52.46251 -7.46155 36,775 115 513 -1280
2017-11-13 12:19:41 GMT 52.46411 -7.46719 36,800 115 513 -1216
2017-11-13 12:19:39 GMT 52.46675 -7.47635 36,850 115 514 -1088
2017-11-13 12:19:36 GMT 52.46996 -7.48757 36,925 115 514 -960
2017-11-13 12:19:36 GMT 52.46996 -7.48757 36,925 115 514 -960
2017-11-13 12:19:33 GMT 52.47299 -7.49817 36,950 115 514 -768
2017-11-13 12:19:31 GMT 52.47501 -7.50519 36,975 115 514 -768
2017-11-13 12:19:29 GMT 52.47722 -7.51300 37,000 115 515 -576
2017-11-13 12:19:26 GMT 52.48122 -7.52713 37,050 115 515 -640
2017-11-13 12:19:24 GMT 52.48183 -7.52922 37,050 115 515 -896
2017-11-13 12:19:23 GMT 52.48327 -7.53419 37,075 115 515 -832
2017-11-13 12:19:23 GMT 52.48327 -7.53419 37,075 115 515 -832
2017-11-13 12:19:22 GMT 52.48365 -7.53560 37,075 115 515 -896
2017-11-13 12:19:20 GMT 52.48569 -7.54266 37,100 115 515 -1024
2017-11-13 12:19:18 GMT 52.48770 -7.54973 37,125 115 515 -1024
2017-11-13 12:19:15 GMT 52.49112 -7.56172 37,200 115 517 -1152
2017-11-13 12:19:13 GMT 52.49437 -7.57301 37,250 115 516 -1216
2017-11-13 12:19:13 GMT 52.49437 -7.57301 37,250 115 516 -1216
2017-11-13 12:19:11 GMT 52.49478 -7.57446 37,275 115 516 -1216
2017-11-13 12:19:08 GMT 52.49803 -7.58575 37,350 115 516 -1216
2017-11-13 12:19:06 GMT 52.49963 -7.59140 37,375 115 516 -1216
2017-11-13 12:19:04 GMT 52.50227 -7.60058 37,425 115 516 -1216
2017-11-13 12:19:01 GMT 52.50548 -7.61196 37,500 115 516 -1216
2017-11-13 12:18:57 GMT 52.50953 -7.62608 37,575 115 516 -1152
2017-11-13 12:18:54 GMT 52.51237 -7.63597 37,625 115 516 -1088
2017-11-13 12:18:52 GMT 52.51521 -7.64593 37,675 115 516 -1088
2017-11-13 12:18:50 GMT 52.51620 -7.64946 37,700 115 516 -1088
2017-11-13 12:18:48 GMT 52.51842 -7.65724 37,750 115 516 -1088
2017-11-13 12:18:46 GMT 52.52023 -7.66357 37,775 115 517 -1088
2017-11-13 12:18:44 GMT 52.52205 -7.66995 37,800 115 517 -1088
2017-11-13 12:18:44 GMT 52.52205 -7.66995 37,800 115 517 -1088
2017-11-13 12:18:42 GMT 52.52452 -7.67850 37,850 115 517 -1024
2017-11-13 12:18:40 GMT 52.52591 -7.68341 37,875 115 517 -1024
2017-11-13 12:18:38 GMT 52.52875 -7.69333 37,925 115 517 -1024
2017-11-13 12:18:33 GMT 52.53346 -7.70966 38,000 115 517 -1088
2017-11-13 12:18:31 GMT 52.53694 -7.72171 38,075 115 518 -1088
2017-11-13 12:18:30 GMT 52.53630 -7.71954 38,050 115 517 -1088
2017-11-13 12:18:27 GMT 52.54069 -7.73438 38,150 116 518 -1152
2017-11-13 12:18:23 GMT 52.54408 -7.74567 38,200 116 518 -1152
2017-11-13 12:18:21 GMT 52.54603 -7.75195 38,250 117 518 -1088
2017-11-13 12:18:19 GMT 52.54779 -7.75753 38,275 117 519 -1088
2017-11-13 12:18:16 GMT 52.55113 -7.76794 38,325 118 519 -1088
2017-11-13 12:18:13 GMT 52.55525 -7.78046 38,400 118 520 -1216
2017-11-13 12:18:11 GMT 52.55776 -7.78797 38,450 118 519 -1280
2017-11-13 12:18:09 GMT 52.55983 -7.79419 38,475 118 519 -1344
2017-11-13 12:18:07 GMT 52.56216 -7.80113 38,525 118 519 -1344
2017-11-13 12:18:03 GMT 52.56679 -7.81487 38,625 118 520 -1280
2017-11-13 12:18:01 GMT 52.56930 -7.82250 38,675 118 520 -1152
2017-11-13 12:17:58 GMT 52.57209 -7.83074 38,725 118 520 -1088
2017-11-13 12:17:56 GMT 52.57416 -7.83699 38,750 118 519 -1088
2017-11-13 12:17:53 GMT 52.57874 -7.85080 38,825 118 519 -960
2017-11-13 12:17:49 GMT 52.58331 -7.86461 38,900 118 519 -768
2017-11-13 12:17:46 GMT 52.58676 -7.87500 38,925 118 519 -704
2017-11-13 12:17:42 GMT 52.59043 -7.88607 38,975 118 519 -448
2017-11-13 12:17:39 GMT 52.59635 -7.90411 39,000 118 519 0
2017-11-13 12:17:36 GMT 52.59796 -7.90894 39,000 118 519 -64
2017-11-13 12:17:32 GMT 52.60231 -7.92208 39,000 118 519 0
2017-11-13 12:17:32 GMT 52.60231 -7.92208 39,000 118 519 0
2017-11-13 12:17:30 GMT 52.60459 -7.92907 39,000 118 519 0
2017-11-13 12:17:28 GMT 52.60733 -7.93739 39,000 118 520 0
2017-11-13 12:17:26 GMT 52.60849 -7.94083 39,000 118 520 0
2017-11-13 12:17:24 GMT 52.61078 -7.94777 39,000 118 520 0
2017-11-13 12:17:21 GMT 52.61422 -7.95810 39,000 118 519 0
2017-11-13 12:17:19 GMT 52.61723 -7.96715 39,000 118 519 0
2017-11-13 12:17:17 GMT 52.61930 -7.97333 39,000 118 519 0
2017-11-13 12:17:15 GMT 52.62116 -7.97890 39,000 118 519 0
2017-11-13 12:17:11 GMT 52.62619 -7.99404 39,000 118 520 0
2017-11-13 12:17:11 GMT 52.62619 -7.99404 39,000 118 520 0
2017-11-13 12:17:09 GMT 52.62852 -8.00095 39,000 118 520 0
2017-11-13 12:17:07 GMT 52.63106 -8.00858 39,000 118 518 0
2017-11-13 12:17:04 GMT 52.63380 -8.01689 39,000 118 518 0
2017-11-13 12:17:01 GMT 52.63773 -8.02865 39,000 118 518 0
2017-11-13 12:16:59 GMT 52.64048 -8.03689 39,000 118 519 0
2017-11-13 12:16:57 GMT 52.64276 -8.04380 39,000 118 519 0
2017-11-13 12:16:55 GMT 52.64504 -8.05070 39,000 118 519 0
2017-11-13 12:16:51 GMT 52.64960 -8.06451 39,000 118 518 0
2017-11-13 12:16:49 GMT 52.65188 -8.07150 39,000 118 518 0
2017-11-13 12:16:48 GMT 52.65188 -8.07150 39,000 118 518 0
2017-11-13 12:16:45 GMT 52.65645 -8.08531 39,000 118 518 0
2017-11-13 12:16:39 GMT 52.66347 -8.10677 39,000 118 517 0
2017-11-13 12:16:38 GMT 52.66347 -8.10677 39,000 118 517 0
2017-11-13 12:16:36 GMT 52.66667 -8.11638 39,000 118 517 0
2017-11-13 12:16:34 GMT 52.66827 -8.12125 39,000 118 517 0
2017-11-13 12:16:30 GMT 52.67345 -8.13713 39,000 118 517 0
2017-11-13 12:16:28 GMT 52.67507 -8.14197 39,000 118 517 0
2017-11-13 12:16:26 GMT 52.67777 -8.15029 39,000 118 516 0
2017-11-13 12:16:24 GMT 52.68027 -8.15788 39,000 118 516 0
2017-11-13 12:16:20 GMT 52.68480 -8.17169 39,000 118 516 0
2017-11-13 12:16:18 GMT 52.68704 -8.17856 39,000 118 516 0
2017-11-13 12:16:16 GMT 52.68820 -8.18199 39,000 118 516 0
2017-11-13 12:16:14 GMT 52.69131 -8.19172 39,000 118 516 0
2017-11-13 12:16:10 GMT 52.69560 -8.20480 39,000 118 516 0
2017-11-13 12:16:07 GMT 52.69853 -8.21385 39,000 118 516 -64
2017-11-13 12:16:04 GMT 52.70284 -8.22693 39,000 118 516 -64
2017-11-13 12:16:00 GMT 52.70710 -8.24006 39,000 118 516 -64
2017-11-13 12:15:57 GMT 52.71002 -8.24905 39,000 118 516 -64
2017-11-13 12:15:55 GMT 52.71384 -8.26078 39,000 118 516 -64
2017-11-13 12:15:53 GMT 52.71451 -8.26286 39,000 118 516 -64
2017-11-13 12:15:50 GMT 52.71858 -8.27530 39,000 118 516 -64
2017-11-13 12:15:47 GMT 52.72195 -8.28565 39,000 118 516 0
2017-11-13 12:15:43 GMT 52.72623 -8.29880 39,000 118 516 64
2017-11-13 12:15:40 GMT 52.73005 -8.31061 39,000 118 516 64
2017-11-13 12:15:36 GMT 52.73341 -8.32092 39,000 118 516 64
2017-11-13 12:15:34 GMT 52.73657 -8.33061 39,000 118 516 -64
2017-11-13 12:15:32 GMT 52.73886 -8.33756 39,000 118 516 -64
2017-11-13 12:15:29 GMT 52.74156 -8.34587 39,000 118 517 -192
2017-11-13 12:15:26 GMT 52.74472 -8.35556 39,000 118 517 -448
2017-11-13 12:15:22 GMT 52.74966 -8.37082 39,050 118 518 -704
2017-11-13 12:15:19 GMT 52.75351 -8.38265 39,100 118 518 -896
2017-11-13 12:15:16 GMT 52.75621 -8.39104 39,125 117 519 -960
2017-11-13 12:15:12 GMT 52.76134 -8.40706 39,200 117 520 -960
2017-11-13 12:15:09 GMT 52.76404 -8.41545 39,250 117 519 -960
2017-11-13 12:15:07 GMT 52.76674 -8.42392 39,300 117 520 -1024
2017-11-13 12:15:05 GMT 52.76826 -8.42879 39,300 117 520 -1024
2017-11-13 12:15:02 GMT 52.77231 -8.44142 39,375 117 520 -1152
2017-11-13 12:14:58 GMT 52.77632 -8.45406 39,450 117 521 -1152
2017-11-13 12:14:56 GMT 52.77855 -8.46104 39,500 117 521 -1152
2017-11-13 12:14:54 GMT 52.78079 -8.46810 39,525 117 521 -1152
2017-11-13 12:14:52 GMT 52.78395 -8.47791 39,575 117 522 -1088
2017-11-13 12:14:49 GMT 52.78754 -8.48914 39,650 117 522 -1088
2017-11-13 12:14:45 GMT 52.79091 -8.49968 39,700 117 522 -1152
2017-11-13 12:14:42 GMT 52.79494 -8.51234 39,775 117 522 -1216
2017-11-13 12:14:40 GMT 52.79672 -8.51799 39,800 117 522 -1216
2017-11-13 12:14:38 GMT 52.79942 -8.52646 39,850 117 522 -1216
2017-11-13 12:14:35 GMT 52.80258 -8.53630 39,925 117 522 -1216
2017-11-13 12:14:32 GMT 52.80779 -8.55246 40,000 117 522 -1216
2017-11-13 12:14:30 GMT 52.80936 -8.55736 40,025 117 522 -1216
2017-11-13 12:14:28 GMT 52.81049 -8.56086 40,050 117 522 -1216
2017-11-13 12:14:25 GMT 52.81389 -8.57140 40,125 117 522 -1216
2017-11-13 12:14:20 GMT 52.82087 -8.59327 40,250 117 522 -1280
2017-11-13 12:14:18 GMT 52.82199 -8.59680 40,275 117 522 -1280
2017-11-13 12:14:14 GMT 52.82556 -8.60809 40,350 117 523 -1408
2017-11-13 12:14:11 GMT 52.83000 -8.62221 40,450 116 522 -1408
2017-11-13 12:14:08 GMT 52.83302 -8.63220 40,525 116 522 -1408
2017-11-13 12:14:06 GMT 52.83497 -8.63863 40,550 116 523 -1408
2017-11-13 12:14:04 GMT 52.83646 -8.64357 40,600 115 523 -1344
2017-11-13 12:14:01 GMT 52.84205 -8.66303 40,725 114 522 -1280
2017-11-13 12:13:58 GMT 52.84401 -8.67033 40,750 113 523 -1216
2017-11-13 12:13:55 GMT 52.84570 -8.67691 40,800 112 523 -1088
2017-11-13 12:13:53 GMT 52.84753 -8.68431 40,825 111 523 -1024
2017-11-13 12:13:53 GMT 52.84753 -8.68431 40,825 111 522 -960
2017-11-13 12:13:49 GMT 52.85101 -8.69919 40,900 110 522 -768
2017-11-13 12:13:47 GMT 52.85298 -8.70819 40,950 109 523 -640
2017-11-13 12:13:44 GMT 52.85559 -8.72025 40,975 109 524 -384
2017-11-13 12:13:41 GMT 52.85802 -8.73146 41,000 109 524 -256
2017-11-13 12:13:39 GMT 52.85976 -8.73978 41,000 109 524 -128
2017-11-13 12:13:37 GMT 52.86123 -8.74653 41,000 109 524 -64
2017-11-13 12:13:34 GMT 52.86365 -8.75786 41,000 109 523 -64
2017-11-13 12:13:32 GMT 52.86477 -8.76317 41,000 109 523 0
2017-11-13 12:13:30 GMT 52.86749 -8.77594 41,000 109 524 0
2017-11-13 12:13:28 GMT 52.86863 -8.78121 41,000 109 524 0
2017-11-13 12:13:25 GMT 52.87070 -8.79105 41,000 109 524 0
2017-11-13 12:13:23 GMT 52.87230 -8.79860 41,000 109 524 0
2017-11-13 12:13:18 GMT 52.87631 -8.81747 41,000 109 524 0
2017-11-13 12:13:15 GMT 52.87920 -8.83105 41,000 109 524 0
2017-11-13 12:13:12 GMT 52.88083 -8.83858 41,000 109 524 0
2017-11-13 12:13:08 GMT 52.88437 -8.85514 41,000 109 524 0
2017-11-13 12:13:06 GMT 52.88562 -8.86118 41,000 109 524 0
2017-11-13 12:13:04 GMT 52.88773 -8.87100 41,000 109 524 0
2017-11-13 12:13:02 GMT 52.88901 -8.87703 41,000 109 524 0
2017-11-13 12:12:58 GMT 52.89253 -8.89366 41,000 109 524 0
2017-11-13 12:12:56 GMT 52.89400 -8.90042 41,000 109 524 -64
2017-11-13 12:12:55 GMT 52.89465 -8.90348 41,000 109 524 0
2017-11-13 12:12:53 GMT 52.89591 -8.90952 41,000 109 524 -64
2017-11-13 12:12:51 GMT 52.89771 -8.91785 41,000 109 524 -64
2017-11-13 12:12:48 GMT 52.90136 -8.93518 41,000 109 524 -64
2017-11-13 12:12:46 GMT 52.90219 -8.93898 41,000 109 524 -64
2017-11-13 12:12:43 GMT 52.90457 -8.95025 41,000 109 524 -64
2017-11-13 12:12:41 GMT 52.90567 -8.95561 41,000 109 524 -64
2017-11-13 12:12:37 GMT 52.90951 -8.97369 41,000 109 524 0
2017-11-13 12:12:35 GMT 52.91144 -8.98277 41,000 109 524 0
2017-11-13 12:12:32 GMT 52.91304 -8.99033 41,000 109 524 0
2017-11-13 12:12:30 GMT 52.91428 -8.99635 41,000 109 524 0
2017-11-13 12:12:28 GMT 52.91652 -9.00696 41,000 109 523 0
2017-11-13 12:12:26 GMT 52.91812 -9.01451 41,000 109 523 0
2017-11-13 12:12:24 GMT 52.91972 -9.02206 41,000 109 523 -64
2017-11-13 12:12:20 GMT 52.92256 -9.03565 41,000 109 523 0
2017-11-13 12:12:18 GMT 52.92448 -9.04465 41,000 109 523 0
2017-11-13 12:12:16 GMT 52.92594 -9.05148 41,000 109 523 0
2017-11-13 12:12:14 GMT 52.92769 -9.05975 41,000 109 523 0
2017-11-13 12:12:10 GMT 52.93069 -9.07408 41,000 109 523 0
2017-11-13 12:12:06 GMT 52.93483 -9.09370 41,000 109 523 0
2017-11-13 12:12:04 GMT 52.93576 -9.09825 41,000 109 523 0
2017-11-13 12:12:00 GMT 52.93865 -9.11182 41,000 109 524 0
2017-11-13 12:11:57 GMT 52.94051 -9.12093 41,000 109 524 0
2017-11-13 12:11:54 GMT 52.94417 -9.13834 41,000 109 523 0
2017-11-13 12:11:54 GMT 52.94367 -9.13599 41,000 109 523 0
2017-11-13 12:11:51 GMT 52.94591 -9.14659 41,000 109 523 0
2017-11-13 12:11:49 GMT 52.94701 -9.15192 41,000 109 523 0
2017-11-13 12:11:47 GMT 52.94893 -9.16099 41,000 109 523 0
2017-11-13 12:11:45 GMT 52.95145 -9.17305 41,000 109 523 0
2017-11-13 12:11:43 GMT 52.95177 -9.17458 41,000 109 523 0
2017-11-13 12:11:39 GMT 52.95540 -9.19195 41,000 109 523 0
2017-11-13 12:11:36 GMT 52.95727 -9.20105 41,000 109 523 0
2017-11-13 12:11:33 GMT 52.95996 -9.21394 41,000 109 523 0
2017-11-13 12:11:30 GMT 52.96202 -9.22373 41,000 109 523 0
2017-11-13 12:11:27 GMT 52.96518 -9.23887 41,000 109 523 0
2017-11-13 12:11:23 GMT 52.96769 -9.25104 41,000 109 523 0
2017-11-13 12:11:20 GMT 52.97008 -9.26239 41,000 109 524 0
2017-11-13 12:11:17 GMT 52.97244 -9.27372 41,000 109 524 0
2017-11-13 12:11:13 GMT 52.97607 -9.29115 41,000 109 524 0
2017-11-13 12:11:09 GMT 52.97827 -9.30176 41,000 109 524 0
2017-11-13 12:11:06 GMT 52.98143 -9.31694 41,000 109 524 0
2017-11-13 12:11:03 GMT 52.98473 -9.33281 41,000 109 524 0
2017-11-13 12:11:00 GMT 52.98550 -9.33662 41,000 109 524 0
2017-11-13 12:10:57 GMT 52.98850 -9.35101 41,000 109 524 0
2017-11-13 12:10:55 GMT 52.98976 -9.35713 41,000 109 524 0
2017-11-13 12:10:51 GMT 52.99338 -9.37454 41,000 109 524 0
2017-11-13 12:10:45 GMT 52.99795 -9.39653 41,000 109 524 0
2017-11-13 12:10:42 GMT 53.00125 -9.41246 41,000 108 525 0
2017-11-13 12:10:40 GMT 53.00205 -9.41630 41,000 108 525 0
2017-11-13 12:10:37 GMT 53.00456 -9.42847 41,000 108 525 0
2017-11-13 12:10:35 GMT 53.00569 -9.43375 41,000 108 525 0
2017-11-13 12:10:33 GMT 53.00773 -9.44369 41,000 108 525 0
2017-11-13 12:10:30 GMT 53.01009 -9.45503 41,000 108 525 0
2017-11-13 12:10:28 GMT 53.01105 -9.45961 41,000 108 525 0
2017-11-13 12:10:26 GMT 53.01243 -9.46645 41,000 108 525 0
2017-11-13 12:10:24 GMT 53.01401 -9.47406 41,000 108 525 0
2017-11-13 12:10:21 GMT 53.01764 -9.49158 41,000 108 526 0
2017-11-13 12:10:18 GMT 53.01872 -9.49690 41,000 108 526 0
2017-11-13 12:10:16 GMT 53.02063 -9.50608 41,000 108 526 0
2017-11-13 12:10:14 GMT 53.02203 -9.51294 41,000 108 526 -64
2017-11-13 12:10:11 GMT 53.02483 -9.52660 41,000 108 526 64
2017-11-13 12:10:08 GMT 53.02686 -9.53652 41,000 108 525 0
2017-11-13 12:10:05 GMT 53.02877 -9.54563 41,000 108 525 0
2017-11-13 12:10:02 GMT 53.03169 -9.56016 41,000 108 525 0
2017-11-13 12:10:00 GMT 53.03421 -9.57230 41,000 108 525 0
2017-11-13 12:09:57 GMT 53.03545 -9.57840 41,000 108 525 0
2017-11-13 12:09:55 GMT 53.03700 -9.58603 41,000 108 525 0
2017-11-13 12:09:51 GMT 53.03966 -9.59899 41,000 108 525 0
2017-11-13 12:09:48 GMT 53.04218 -9.61123 41,000 108 525 0
2017-11-13 12:09:45 GMT 53.04497 -9.62496 41,000 108 525 0
2017-11-13 12:09:43 GMT 53.04607 -9.63028 41,000 108 525 0
2017-11-13 12:09:41 GMT 53.04776 -9.63862 41,000 108 525 0
2017-11-13 12:09:37 GMT 53.05060 -9.65235 41,000 108 525 0
2017-11-13 12:09:35 GMT 53.05229 -9.66080 41,000 108 525 0
2017-11-13 12:09:33 GMT 53.05385 -9.66843 41,000 108 525 0
2017-11-13 12:09:31 GMT 53.05605 -9.67903 41,000 108 525 0
2017-11-13 12:09:27 GMT 53.05856 -9.69124 41,000 108 525 0
2017-11-13 12:09:25 GMT 53.06024 -9.69967 41,000 108 525 0
2017-11-13 12:09:23 GMT 53.06195 -9.70802 41,000 108 525 0
2017-11-13 12:09:20 GMT 53.06383 -9.71718 41,000 108 525 0
2017-11-13 12:09:17 GMT 53.06648 -9.73020 41,000 108 525 0
2017-11-13 12:09:14 GMT 53.06914 -9.74312 41,000 108 525 0
2017-11-13 12:09:12 GMT 53.07020 -9.74848 41,000 108 525 0
2017-11-13 12:09:10 GMT 53.07193 -9.75685 41,000 108 525 0
2017-11-13 12:09:07 GMT 53.07453 -9.76983 41,000 108 525 0
2017-11-13 12:09:04 GMT 53.07612 -9.77752 41,000 108 525 0
2017-11-13 12:09:02 GMT 53.07793 -9.78662 41,000 108 525 0
2017-11-13 12:08:56 GMT 53.08241 -9.80881 41,000 108 525 0
2017-11-13 12:08:54 GMT 53.08429 -9.81796 41,000 108 525 0
2017-11-13 12:08:52 GMT 53.08598 -9.82633 41,000 108 525 0
2017-11-13 12:08:47 GMT 53.09092 -9.85073 41,000 108 525 0
2017-11-13 12:08:44 GMT 53.09213 -9.85685 41,000 108 525 0
2017-11-13 12:08:42 GMT 53.09371 -9.86447 41,000 108 525 0
2017-11-13 12:08:40 GMT 53.09525 -9.87210 41,000 108 524 0
2017-11-13 12:08:36 GMT 53.09848 -9.88809 41,000 108 524 0
2017-11-13 12:08:31 GMT 53.10310 -9.91100 41,000 108 524 0
2017-11-13 12:08:26 GMT 53.10677 -9.92929 41,000 108 523 0
2017-11-13 12:08:23 GMT 53.10786 -9.93463 41,000 108 524 0
2017-11-13 12:08:21 GMT 53.10956 -9.94302 41,000 108 524 0
2017-11-13 12:08:15 GMT 53.11446 -9.96743 41,000 108 523 0
2017-11-13 12:08:13 GMT 53.11688 -9.97967 41,000 108 523 0
2017-11-13 12:08:11 GMT 53.11720 -9.98116 41,000 108 523 0
2017-11-13 12:08:05 GMT 53.12192 -10.00483 41,000 108 523 0
2017-11-13 12:08:03 GMT 53.12361 -10.01318 41,000 108 523 0
2017-11-13 12:08:01 GMT 53.12517 -10.02087 41,000 108 523 0
2017-11-13 12:07:54 GMT 53.13049 -10.04756 41,000 108 523 0
2017-11-13 12:07:51 GMT 53.13277 -10.05900 41,000 108 523 0
2017-11-13 12:07:45 GMT 53.13739 -10.08184 41,000 108 523 0
2017-11-13 12:07:43 GMT 53.13858 -10.08796 41,000 108 523 0
2017-11-13 12:07:41 GMT 53.14059 -10.09789 41,000 108 523 -64
2017-11-13 12:07:40 GMT 53.14059 -10.09789 41,000 108 523 -64
2017-11-13 12:07:34 GMT 53.14590 -10.12453 41,000 108 523 0
2017-11-13 12:07:31 GMT 53.14850 -10.13755 41,000 108 523 0
2017-11-13 12:07:29 GMT 53.14957 -10.14289 41,000 108 523 0
2017-11-13 12:07:25 GMT 53.15367 -10.16348 41,000 108 523 0
2017-11-13 12:07:23 GMT 53.15414 -10.16573 41,000 108 523 0
2017-11-13 12:07:20 GMT 53.15642 -10.17722 41,000 108 523 0
2017-11-13 12:07:20 GMT 53.15642 -10.17722 41,000 108 523 0
2017-11-13 12:07:14 GMT 53.16126 -10.20161 41,000 108 523 0
2017-11-13 12:07:12 GMT 53.16219 -10.20622 41,000 108 523 0
2017-11-13 12:07:09 GMT 53.16428 -10.21688 41,000 108 523 0
2017-11-13 12:07:09 GMT 53.16428 -10.21688 41,000 108 523 0
2017-11-13 12:07:04 GMT 53.16870 -10.23902 41,000 108 523 0
2017-11-13 12:06:59 GMT 53.17183 -10.25509 41,000 108 523 0
2017-11-13 12:06:55 GMT 53.17529 -10.27269 41,000 108 523 0
2017-11-13 12:06:53 GMT 53.17695 -10.28102 41,000 108 523 0
2017-11-13 12:06:51 GMT 53.17799 -10.28642 41,000 108 523 0
2017-11-13 12:06:48 GMT 53.18015 -10.29709 41,000 108 523 0
2017-11-13 12:06:43 GMT 53.18468 -10.32001 41,000 108 523 0
2017-11-13 12:06:39 GMT 53.18738 -10.33374 41,000 108 523 0
2017-11-13 12:06:35 GMT 53.19040 -10.34904 41,000 108 523 0
2017-11-13 12:06:33 GMT 53.19296 -10.36205 41,000 108 523 0
2017-11-13 12:06:28 GMT 53.19585 -10.37651 41,000 108 523 0
2017-11-13 12:06:22 GMT 53.20050 -10.40018 41,000 108 523 0
2017-11-13 12:06:18 GMT 53.20260 -10.41092 41,000 108 523 0
2017-11-13 12:06:12 GMT 53.20811 -10.43921 41,000 108 522 -64
2017-11-13 12:06:08 GMT 53.21126 -10.45527 41,000 108 522 -64
2017-11-13 12:06:04 GMT 53.21335 -10.46593 41,000 108 522 -64
2017-11-13 12:06:01 GMT 53.21590 -10.47892 41,000 108 523 0
2017-11-13 12:05:58 GMT 53.21903 -10.49501 41,000 108 523 0
2017-11-13 12:05:51 GMT 53.22350 -10.51796 41,000 108 523 0
2017-11-13 12:05:48 GMT 53.22574 -10.52945 41,000 108 523 0
2017-11-13 12:05:41 GMT 53.23160 -10.55931 41,000 108 523 0
2017-11-13 12:05:39 GMT 53.23248 -10.56392 41,000 108 523 0
2017-11-13 12:05:37 GMT 53.23397 -10.57151 41,000 108 523 0
2017-11-13 12:05:35 GMT 53.23531 -10.57842 41,000 108 523 0
2017-11-13 12:05:32 GMT 53.23816 -10.59300 41,000 107 524 0
2017-11-13 12:05:30 GMT 53.23920 -10.59835 41,000 107 524 0
2017-11-13 12:05:27 GMT 53.24086 -10.60681 41,000 107 524 0
2017-11-13 12:05:25 GMT 53.24249 -10.61530 41,000 107 524 0
2017-11-13 12:05:20 GMT 53.24710 -10.63905 41,000 107 524 0
2017-11-13 12:05:17 GMT 53.24892 -10.64834 41,000 107 524 0
2017-11-13 12:05:11 GMT 53.25334 -10.67136 41,000 107 524 0
2017-11-13 12:05:09 GMT 53.25471 -10.67824 41,000 107 524 0
2017-11-13 12:05:07 GMT 53.25632 -10.68671 41,000 107 524 -64
2017-11-13 12:05:02 GMT 53.25975 -10.70437 41,000 107 524 -64
2017-11-13 12:05:00 GMT 53.26139 -10.71280 41,000 107 524 -64
2017-11-13 12:04:58 GMT 53.26277 -10.71975 41,000 107 524 -64
2017-11-13 12:04:56 GMT 53.26381 -10.72508 41,000 107 524 -64
2017-11-13 12:04:51 GMT 53.26768 -10.74503 41,000 107 524 0
2017-11-13 12:04:49 GMT 53.27038 -10.75885 41,000 107 524 0
2017-11-13 12:04:46 GMT 53.27154 -10.76499 41,000 107 524 0
2017-11-13 12:04:42 GMT 53.27527 -10.78418 41,000 107 524 0
2017-11-13 12:04:40 GMT 53.27646 -10.79030 41,000 107 524 0
2017-11-13 12:04:36 GMT 53.27943 -10.80568 41,000 107 524 0
2017-11-13 12:04:28 GMT 53.28546 -10.83721 41,000 107 524 0
2017-11-13 12:04:25 GMT 53.28723 -10.84641 41,000 107 524 0
2017-11-13 12:04:19 GMT 53.29165 -10.86952 41,000 107 524 0
2017-11-13 12:04:17 GMT 53.29375 -10.88026 41,000 107 524 64
2017-11-13 12:04:14 GMT 53.29504 -10.88722 41,000 107 524 0
2017-11-13 12:04:11 GMT 53.29784 -10.90183 41,000 107 524 0
2017-11-13 12:04:09 GMT 53.29933 -10.90950 41,000 107 524 0
2017-11-13 12:04:07 GMT 53.30171 -10.92186 41,000 107 524 0
2017-11-13 12:04:04 GMT 53.30273 -10.92724 41,000 107 524 0
2017-11-13 12:04:00 GMT 53.30552 -10.94190 41,000 107 525 0
2017-11-13 12:03:58 GMT 53.30718 -10.95031 41,000 107 524 0
2017-11-13 12:03:56 GMT 53.30956 -10.96271 41,000 107 524 0
2017-11-13 12:03:54 GMT 53.30983 -10.96420 41,000 107 524 0
2017-11-13 12:03:51 GMT 53.31280 -10.97966 41,000 107 525 0
2017-11-13 12:03:49 GMT 53.31442 -10.98810 41,000 107 525 0
2017-11-13 12:03:46 GMT 53.31586 -10.99586 41,000 107 525 0
2017-11-13 12:03:44 GMT 53.31735 -11.00353 41,000 107 525 0
2017-11-13 12:03:38 GMT 53.32205 -11.02825 41,000 107 525 0
2017-11-13 12:03:35 GMT 53.32516 -11.04448 41,000 107 525 0
2017-11-13 12:03:28 GMT 53.32956 -11.06763 41,000 107 525 0
2017-11-13 12:03:26 GMT 53.33070 -11.07383 41,000 107 525 0
2017-11-13 12:03:24 GMT 53.33249 -11.08309 41,000 107 525 0
2017-11-13 12:03:18 GMT 53.33716 -11.10781 41,000 107 526 0
2017-11-13 12:03:16 GMT 53.33816 -11.11324 41,000 107 526 0
2017-11-13 12:03:14 GMT 53.33993 -11.12253 41,000 107 526 0
2017-11-13 12:03:07 GMT 53.34471 -11.14806 41,000 107 526 0
2017-11-13 12:03:05 GMT 53.34602 -11.15500 41,000 107 526 0
2017-11-13 12:03:03 GMT 53.34752 -11.16276 41,000 107 526 0
2017-11-13 12:02:55 GMT 53.35305 -11.19216 41,000 107 526 0
2017-11-13 12:02:52 GMT 53.35551 -11.20527 41,000 107 526 0
2017-11-13 12:02:45 GMT 53.36064 -11.23239 41,000 107 526 0
2017-11-13 12:02:42 GMT 53.36252 -11.24239 41,000 107 525 0
2017-11-13 12:02:37 GMT 53.36719 -11.26719 41,025 107 525 0
2017-11-13 12:02:35 GMT 53.36818 -11.27262 41,000 107 525 64
2017-11-13 12:02:32 GMT 53.37035 -11.28421 41,000 107 525 -64
2017-11-13 12:02:26 GMT 53.37442 -11.30595 41,000 107 525 0
2017-11-13 12:02:24 GMT 53.37540 -11.31131 41,000 107 525 0
2017-11-13 12:02:22 GMT 53.37773 -11.32375 41,000 107 525 0
2017-11-13 12:02:16 GMT 53.38193 -11.34621 41,000 107 525 0
2017-11-13 12:02:13 GMT 53.38410 -11.35784 41,000 107 525 0
2017-11-13 12:02:11 GMT 53.38555 -11.36560 41,000 107 525 0
2017-11-13 12:02:06 GMT 53.38943 -11.38647 41,000 107 525 0
2017-11-13 12:02:04 GMT 53.39016 -11.39040 41,000 107 526 0
2017-11-13 12:02:01 GMT 53.39276 -11.40429 41,000 107 526 0
2017-11-13 12:01:54 GMT 53.39758 -11.42994 41,000 107 526 -64
2017-11-13 12:01:51 GMT 53.39992 -11.44234 41,000 107 526 -64
2017-11-13 12:01:45 GMT 53.40427 -11.46557 41,000 107 526 0
2017-11-13 12:01:43 GMT 53.40524 -11.47102 41,000 107 526 0
2017-11-13 12:01:41 GMT 53.40743 -11.48268 41,000 107 526 -64
2017-11-13 12:01:35 GMT 53.41162 -11.50519 41,000 107 526 0
2017-11-13 12:01:33 GMT 53.41306 -11.51295 41,000 107 526 0
2017-11-13 12:01:30 GMT 53.41521 -11.52458 41,000 107 526 0
2017-11-13 12:01:25 GMT 53.41924 -11.54640 41,000 107 526 0
2017-11-13 12:01:23 GMT 53.41983 -11.54946 41,000 107 526 0
2017-11-13 12:01:20 GMT 53.42256 -11.56424 41,000 107 526 0
2017-11-13 12:01:14 GMT 53.42674 -11.58673 41,000 107 526 0
2017-11-13 12:01:09 GMT 53.43045 -11.60698 41,000 107 526 0
2017-11-13 12:01:03 GMT 53.43406 -11.62636 41,000 107 526 0
2017-11-13 12:00:59 GMT 53.43791 -11.64739 41,000 107 526 0
2017-11-13 12:00:54 GMT 53.44134 -11.66607 41,000 107 526 0
2017-11-13 12:00:52 GMT 53.44217 -11.67070 41,000 107 526 0
2017-11-13 12:00:48 GMT 53.44533 -11.68781 41,000 107 526 0
2017-11-13 12:00:42 GMT 53.44914 -11.70884 41,000 107 526 0
2017-11-13 12:00:39 GMT 53.45274 -11.72830 41,000 107 526 0
2017-11-13 12:00:31 GMT 53.45732 -11.75317 41,000 107 526 0
2017-11-13 12:00:28 GMT 53.45961 -11.76557 41,000 107 526 0
2017-11-13 12:00:23 GMT 53.46359 -11.78739 41,000 107 526 -64
2017-11-13 12:00:17 GMT 53.46739 -11.80845 41,000 106 527 0
2017-11-13 12:00:11 GMT 53.47124 -11.82945 41,000 107 526 0
2017-11-13 12:00:07 GMT 53.47435 -11.84656 41,000 107 526 0
2017-11-13 12:00:01 GMT 53.47819 -11.86758 41,000 107 526 0
2017-11-13 11:59:57 GMT 53.48159 -11.88624 41,000 107 526 0
2017-11-13 11:59:52 GMT 53.48554 -11.90805 41,000 106 525 0
2017-11-13 11:59:47 GMT 53.48936 -11.92903 41,000 106 525 0
2017-11-13 11:59:41 GMT 53.49275 -11.94771 41,000 106 525 0
2017-11-13 11:59:36 GMT 53.49669 -11.96953 41,000 106 525 -64
2017-11-13 11:59:31 GMT 53.49980 -11.98663 41,000 106 525 0
2017-11-13 11:59:26 GMT 53.50332 -12.00612 41,000 106 525 0
2017-11-13 11:59:20 GMT 53.50740 -12.02870 41,000 106 525 0
2017-11-13 11:59:20 GMT 53.50767 -12.03026 41,000 106 525 0
2017-11-13 11:59:16 GMT 53.51129 -12.05051 41,000 106 525 0
2017-11-13 11:59:10 GMT 53.51436 -12.06770 41,000 106 525 0
2017-11-13 11:59:05 GMT 53.51830 -12.08951 41,000 106 525 0
2017-11-13 11:59:00 GMT 53.52168 -12.10819 41,000 106 525 0
2017-11-13 11:59:00 GMT 53.52136 -12.10662 41,000 106 525 0
2017-11-13 11:58:57 GMT 53.52361 -12.11910 41,000 106 525 0
2017-11-13 11:58:55 GMT 53.52530 -12.12843 41,000 106 525 0
2017-11-13 11:58:50 GMT 53.52879 -12.14789 41,000 106 525 0
2017-11-13 11:58:46 GMT 53.53130 -12.16195 41,000 106 526 0
2017-11-13 11:58:44 GMT 53.53298 -12.17132 41,000 106 526 0
2017-11-13 11:58:39 GMT 53.53577 -12.18691 41,000 106 526 0
2017-11-13 11:58:36 GMT 53.53812 -12.20016 41,000 106 525 0
2017-11-13 11:58:34 GMT 53.54047 -12.21340 41,000 106 525 0
2017-11-13 11:58:29 GMT 53.54315 -12.22818 41,000 106 525 0
2017-11-13 11:58:25 GMT 53.54550 -12.24143 41,000 106 525 0
2017-11-13 11:58:23 GMT 53.54759 -12.25313 41,000 106 525 0
2017-11-13 11:58:19 GMT 53.55020 -12.26793 41,000 106 525 0
2017-11-13 11:58:15 GMT 53.55244 -12.28045 41,000 106 524 0
2017-11-13 11:58:13 GMT 53.55565 -12.29833 41,000 106 524 0
2017-11-13 11:58:09 GMT 53.55714 -12.30695 41,000 106 524 0
2017-11-13 11:58:05 GMT 53.55993 -12.32246 41,000 106 524 0
2017-11-13 11:58:02 GMT 53.56229 -12.33576 41,000 106 524 0
2017-11-13 11:57:59 GMT 53.56431 -12.34742 41,000 106 524 0
2017-11-13 11:57:54 GMT 53.56710 -12.36301 41,000 106 524 0
2017-11-13 11:57:51 GMT 53.56957 -12.37699 41,000 106 523 0
2017-11-13 11:57:48 GMT 53.57135 -12.38716 41,000 106 523 0
2017-11-13 11:57:41 GMT 53.57657 -12.41675 41,000 106 523 -64
2017-11-13 11:57:38 GMT 53.57832 -12.42683 41,000 106 523 -64
2017-11-13 11:57:33 GMT 53.58135 -12.44396 41,000 106 523 0
2017-11-13 11:57:30 GMT 53.58409 -12.45946 41,000 106 522 0
2017-11-13 11:57:28 GMT 53.58549 -12.46722 41,000 106 522 0
2017-11-13 11:57:24 GMT 53.58810 -12.48204 41,000 106 522 0
2017-11-13 11:57:20 GMT 53.59168 -12.50221 41,000 106 522 0
2017-11-13 11:57:18 GMT 53.59233 -12.50608 41,000 106 522 0
2017-11-13 11:57:11 GMT 53.59671 -12.53096 41,000 106 522 0
2017-11-13 11:57:09 GMT 53.59839 -12.54033 41,000 106 523 0
2017-11-13 11:57:07 GMT 53.60001 -12.54970 41,000 106 523 0
2017-11-13 11:56:59 GMT 53.60602 -12.58387 41,000 106 523 0
2017-11-13 11:56:57 GMT 53.60602 -12.58387 41,000 106 523 0
2017-11-13 11:56:54 GMT 53.60821 -12.59631 41,000 106 523 0
2017-11-13 11:56:52 GMT 53.60956 -12.60415 41,000 106 522 0
2017-11-13 11:56:48 GMT 53.61254 -12.62127 41,000 106 522 0
2017-11-13 11:56:46 GMT 53.61417 -12.63064 41,000 106 522 0
2017-11-13 11:56:41 GMT 53.61699 -12.64699 41,000 106 522 -64
2017-11-13 11:56:37 GMT 53.61984 -12.66336 41,000 106 522 -64
2017-11-13 11:56:28 GMT 53.62559 -12.69682 41,000 106 522 64
2017-11-13 11:56:24 GMT 53.62884 -12.71550 41,000 106 521 64
2017-11-13 11:56:17 GMT 53.63342 -12.74202 41,000 106 522 64
2017-11-13 11:56:13 GMT 53.63612 -12.75756 41,000 106 522 0
2017-11-13 11:56:05 GMT 53.64175 -12.79028 41,000 106 523 0
2017-11-13 11:55:57 GMT 53.64766 -12.82465 41,000 106 523 0
2017-11-13 11:55:54 GMT 53.64889 -12.83163 41,000 106 523 0
2017-11-13 11:55:46 GMT 53.65429 -12.86289 41,000 106 524 0
2017-11-13 11:55:44 GMT 53.65550 -12.86992 41,000 106 523 0
2017-11-13 11:55:36 GMT 53.66184 -12.90667 41,000 106 524 0
2017-11-13 11:55:34 GMT 53.66249 -12.91058 41,000 106 524 0
2017-11-13 11:55:24 GMT 53.66954 -12.95131 41,000 106 525 -64
2017-11-13 11:55:13 GMT 53.67627 -12.99044 41,000 106 524 0
2017-11-13 11:55:03 GMT 53.68332 -13.03198 41,000 105 525 0
2017-11-13 11:54:52 GMT 53.69000 -13.07114 41,000 105 525 0
2017-11-13 11:54:44 GMT 53.69554 -13.10410 41,000 105 525 0
2017-11-13 11:54:42 GMT 53.69664 -13.11038 41,000 105 525 0
2017-11-13 11:54:32 GMT 53.70364 -13.15201 41,000 105 525 0
2017-11-13 11:54:22 GMT 53.71030 -13.19127 41,000 106 525 -64
2017-11-13 11:54:14 GMT 53.71550 -13.22189 41,000 105 524 -64
2017-11-13 11:54:11 GMT 53.71746 -13.23368 41,000 105 524 0
2017-11-13 11:54:04 GMT 53.72209 -13.26113 41,000 105 524 0
2017-11-13 11:54:02 GMT 53.72392 -13.27211 41,000 105 524 0
2017-11-13 11:53:50 GMT 53.73106 -13.31449 41,000 105 524 0
2017-11-13 11:53:40 GMT 53.73804 -13.35614 41,000 105 524 0
2017-11-13 11:53:31 GMT 53.74460 -13.39540 41,000 105 524 0
2017-11-13 11:53:20 GMT 53.75145 -13.43636 41,000 105 524 0
2017-11-13 11:53:10 GMT 53.75812 -13.47646 41,000 105 524 0
2017-11-13 11:53:00 GMT 53.76540 -13.52048 41,000 105 524 0
2017-11-13 11:52:48 GMT 53.77179 -13.55907 41,000 105 524 0
2017-11-13 11:52:41 GMT 53.77673 -13.58896 41,000 105 524 0
2017-11-13 11:52:38 GMT 53.77854 -13.59994 41,000 105 524 0
2017-11-13 11:52:31 GMT 53.78292 -13.62668 41,000 105 524 0
2017-11-13 11:52:29 GMT 53.78462 -13.63694 41,000 105 524 0
2017-11-13 11:52:18 GMT 53.79153 -13.67939 41,000 105 522 0
2017-11-13 11:52:08 GMT 53.79799 -13.71871 41,000 105 522 -64
2017-11-13 11:51:58 GMT 53.80526 -13.76345 41,000 105 521 -64
2017-11-13 11:51:57 GMT 53.80463 -13.75951 41,000 105 521 -64
2017-11-13 11:51:47 GMT 53.81192 -13.80416 41,000 105 520 0
2017-11-13 11:51:37 GMT 53.81786 -13.84089 41,000 105 519 0
2017-11-13 11:51:27 GMT 53.82463 -13.88303 41,000 105 518 0
2017-11-13 11:51:17 GMT 53.83105 -13.92283 41,000 105 518 0
2017-11-13 11:51:15 GMT 53.83168 -13.92666 41,000 105 518 0
2017-11-13 11:51:05 GMT 53.83780 -13.96492 41,000 105 516 0
2017-11-13 11:50:55 GMT 53.84404 -14.00385 41,000 105 516 0
2017-11-13 11:50:45 GMT 53.85086 -14.04665 41,000 105 516 0
2017-11-13 11:50:34 GMT 53.85698 -14.08471 41,000 105 515 0
2017-11-13 11:50:24 GMT 53.86377 -14.12748 41,000 105 515 0
2017-11-13 11:50:13 GMT 53.87058 -14.17018 41,000 104 514 0
2017-11-13 11:50:05 GMT 53.87535 -14.20046 41,000 104 514 0
2017-11-13 11:50:03 GMT 53.87667 -14.20904 41,000 104 514 0
2017-11-13 11:49:53 GMT 53.88295 -14.24856 41,000 104 514 0
2017-11-13 11:49:44 GMT 53.88780 -14.27964 41,000 104 514 0
2017-11-13 11:49:41 GMT 53.88977 -14.29204 41,000 104 514 0
2017-11-13 11:49:32 GMT 53.89525 -14.32698 41,000 104 513 0
2017-11-13 11:49:23 GMT 53.90025 -14.35874 41,000 105 513 0
2017-11-13 11:49:21 GMT 53.90218 -14.37114 41,000 104 513 0
2017-11-13 11:49:13 GMT 53.90657 -14.39900 41,000 104 513 0
2017-11-13 11:49:11 GMT 53.90803 -14.40826 41,000 104 513 0
2017-11-13 11:49:02 GMT 53.91331 -14.44161 41,000 105 512 0
2017-11-13 11:49:00 GMT 53.91463 -14.45008 41,000 105 512 0
2017-11-13 11:48:53 GMT 53.91918 -14.47869 41,000 105 512 0
2017-11-13 11:48:50 GMT 53.92067 -14.48798 41,000 105 511 0
2017-11-13 11:48:42 GMT 53.92566 -14.51969 41,000 105 511 0
2017-11-13 11:48:40 GMT 53.92690 -14.52738 41,000 105 511 0
2017-11-13 11:48:32 GMT 53.93179 -14.55822 41,000 105 510 0
2017-11-13 11:48:30 GMT 53.93365 -14.56981 41,000 105 510 0
2017-11-13 11:48:21 GMT 53.93808 -14.59752 41,000 105 510 0
2017-11-13 11:48:19 GMT 53.93980 -14.60834 41,000 105 509 0
2017-11-13 11:48:12 GMT 53.94450 -14.63759 41,000 105 510 0
2017-11-13 11:48:09 GMT 53.94640 -14.64909 41,000 105 510 0
2017-11-13 11:48:01 GMT 53.95079 -14.67604 41,000 105 510 0
2017-11-13 11:47:59 GMT 53.95302 -14.68985 41,000 105 510 0
2017-11-13 11:47:51 GMT 53.95730 -14.71603 41,000 105 509 0
2017-11-13 11:47:48 GMT 53.95958 -14.72984 41,000 105 509 0
2017-11-13 11:47:40 GMT 53.96363 -14.75448 41,000 105 510 64
2017-11-13 11:47:38 GMT 53.96568 -14.76676 41,000 105 510 0
2017-11-13 11:47:30 GMT 53.97052 -14.79600 41,000 105 510 0
2017-11-13 11:47:25 GMT 53.97485 -14.82209 41,000 105 510 0
2017-11-13 11:47:20 GMT 53.97702 -14.83523 41,000 105 511 0
2017-11-13 11:47:13 GMT 53.98187 -14.86442 41,000 105 510 -64
2017-11-13 11:47:09 GMT 53.98370 -14.87517 41,000 106 510 0
2017-11-13 11:47:06 GMT 53.98682 -14.89362 41,000 105 510 0
2017-11-13 11:47:00 GMT 53.99020 -14.91527 41,000 103 511 -64
2017-11-13 11:46:56 GMT 53.99217 -14.92848 41,000 103 512 0
2017-11-13 11:46:49 GMT 53.99562 -14.95514 41,000 101 513 0
2017-11-13 11:46:46 GMT 53.99766 -14.97420 41,000 98 515 0
2017-11-13 11:46:38 GMT 53.99950 -14.99744 41,000 95 518 -64
2017-11-13 11:46:34 GMT 54.00032 -15.01682 41,000 92 519 -64
2017-11-13 11:46:29 GMT 54.00078 -15.03713 41,000 91 519 0
We lost coverage of the aircraft here for a total of 159 minutes
2017-11-13 09:07:24 GMT 48.52373 -51.90913 41,000 68 533 -64
2017-11-13 09:07:22 GMT 48.52214 -51.91539 41,000 68 533 -64
2017-11-13 09:07:12 GMT 48.51352 -51.94935 41,000 69 533 64
2017-11-13 09:06:30 GMT 48.47792 -52.10071 41,000 71 531 -64
2017-11-13 09:06:19 GMT 48.47052 -52.13439 41,000 71 531 0
2017-11-13 09:06:10 GMT 48.46294 -52.16872 41,000 71 531 0
2017-11-13 09:05:58 GMT 48.45446 -52.20725 41,000 71 530 0
2017-11-13 09:05:49 GMT 48.44673 -52.24223 41,000 71 530 0
2017-11-13 09:05:37 GMT 48.43807 -52.28148 41,000 71 531 -64
2017-11-13 09:05:28 GMT 48.43048 -52.31577 41,000 71 531 0
2017-11-13 09:05:17 GMT 48.42238 -52.35211 41,000 71 531 64
2017-11-13 09:05:04 GMT 48.41195 -52.39893 41,000 71 531 0
2017-11-13 09:04:51 GMT 48.40232 -52.44237 41,000 71 532 -64
2017-11-13 09:04:43 GMT 48.39608 -52.47034 41,000 71 532 -64
2017-11-13 09:04:36 GMT 48.38965 -52.49908 41,000 71 533 0
2017-11-13 09:04:23 GMT 48.38067 -52.53908 41,000 71 533 64
2017-11-13 09:04:15 GMT 48.37313 -52.57269 41,000 71 533 0
2017-11-13 09:04:03 GMT 48.36479 -52.60986 41,000 71 534 0
2017-11-13 09:03:54 GMT 48.35670 -52.64562 41,000 71 534 0
2017-11-13 09:03:43 GMT 48.34863 -52.68135 41,000 71 534 0
2017-11-13 09:03:34 GMT 48.34071 -52.71642 41,000 71 534 0
2017-11-13 09:03:31 GMT 48.33884 -52.72480 41,000 71 534 0
2017-11-13 09:03:22 GMT 48.33198 -52.75497 41,000 71 535 -64
2017-11-13 09:03:12 GMT 48.32387 -52.79079 41,000 71 535 0
2017-11-13 09:03:10 GMT 48.32146 -52.80130 41,000 71 535 0
2017-11-13 09:03:01 GMT 48.31522 -52.82867 41,000 71 536 0
2017-11-13 09:02:50 GMT 48.30693 -52.86530 41,000 71 537 0
2017-11-13 09:02:40 GMT 48.29841 -52.90264 41,000 71 538 0
2017-11-13 09:02:29 GMT 48.29018 -52.93861 41,000 71 539 -64
2017-11-13 09:02:18 GMT 48.28084 -52.97946 41,000 71 538 0
2017-11-13 09:02:08 GMT 48.27323 -53.01257 41,000 71 538 0
2017-11-13 09:01:59 GMT 48.26485 -53.04915 41,000 71 538 -64
2017-11-13 09:01:48 GMT 48.25647 -53.08579 41,000 71 538 -64
2017-11-13 09:01:38 GMT 48.24756 -53.12439 41,000 70 537 0
2017-11-13 09:01:27 GMT 48.23924 -53.16024 41,000 70 537 0
2017-11-13 09:01:17 GMT 48.23082 -53.19674 41,000 70 537 0
2017-11-13 09:01:05 GMT 48.22220 -53.23397 41,000 70 537 -64
2017-11-13 09:00:56 GMT 48.21378 -53.27045 41,000 70 537 -64
2017-11-13 09:00:44 GMT 48.20462 -53.30968 41,000 70 537 0
2017-11-13 09:00:34 GMT 48.19611 -53.34616 41,000 70 537 64
2017-11-13 09:00:23 GMT 48.18727 -53.38398 41,000 70 537 0
2017-11-13 09:00:13 GMT 48.17798 -53.42398 41,000 70 537 0
2017-11-13 09:00:03 GMT 48.17011 -53.45759 41,000 70 537 0
2017-11-13 08:59:50 GMT 48.16008 -53.50026 41,000 70 537 0
2017-11-13 08:59:41 GMT 48.15335 -53.52898 41,000 70 537 -64
2017-11-13 08:59:29 GMT 48.14251 -53.57518 41,000 70 537 -64
2017-11-13 08:59:20 GMT 48.13605 -53.60250 41,000 70 537 0
2017-11-13 08:59:10 GMT 48.12794 -53.63673 41,000 70 537 0
2017-11-13 08:58:58 GMT 48.11787 -53.67934 41,000 70 536 -64
2017-11-13 08:58:48 GMT 48.10931 -53.71566 41,000 70 536 0
2017-11-13 08:58:38 GMT 48.10154 -53.74843 41,000 70 536 0
2017-11-13 08:58:29 GMT 48.09343 -53.78261 41,000 70 537 0
2017-11-13 08:58:18 GMT 48.08362 -53.82385 41,000 70 537 0
2017-11-13 08:58:08 GMT 48.07599 -53.85590 41,000 70 537 0
2017-11-13 08:57:58 GMT 48.06700 -53.89357 41,000 70 537 0
2017-11-13 08:57:46 GMT 48.05834 -53.92977 41,000 70 537 -64
2017-11-13 08:57:36 GMT 48.04916 -53.96807 41,000 70 536 0
2017-11-13 08:57:25 GMT 48.04083 -54.00288 41,000 70 536 64
2017-11-13 08:57:16 GMT 48.03232 -54.03830 41,000 70 536 0
2017-11-13 08:57:04 GMT 48.02334 -54.07583 41,000 70 536 -64
2017-11-13 08:56:55 GMT 48.01479 -54.11124 41,000 70 536 -64
2017-11-13 08:56:44 GMT 48.00609 -54.14735 41,000 70 535 -64
2017-11-13 08:56:30 GMT 47.99332 -54.20009 41,000 70 535 0
2017-11-13 08:56:19 GMT 47.98489 -54.23470 41,000 70 535 0
2017-11-13 08:56:00 GMT 47.96901 -54.29986 41,000 70 536 0
2017-11-13 08:55:46 GMT 47.95679 -54.34978 41,000 69 537 192
2017-11-13 08:55:24 GMT 47.93828 -54.42542 40,825 69 537 448
2017-11-13 08:55:15 GMT 47.92981 -54.46007 40,750 69 537 512
2017-11-13 08:55:01 GMT 47.91892 -54.50444 40,625 69 537 512
2017-11-13 08:54:47 GMT 47.90680 -54.55364 40,500 69 536 512
2017-11-13 08:54:31 GMT 47.89284 -54.61043 40,375 69 536 448
2017-11-13 08:54:21 GMT 47.88480 -54.64297 40,275 69 536 448
2017-11-13 08:54:16 GMT 47.87947 -54.66440 40,225 69 536 512
2017-11-13 08:54:00 GMT 47.86675 -54.71549 40,075 69 535 576
2017-11-13 08:53:36 GMT 47.84639 -54.79762 39,900 69 535 320
2017-11-13 08:53:30 GMT 47.84006 -54.82308 39,850 69 534 448
2017-11-13 08:52:47 GMT 45.31670 -72.11670 38,000 197 450 0
2017-11-13 08:51:48 GMT 45.46670 -72.06670 38,000 198 450 0
2017-11-13 08:50:48 GMT 45.56670 -72.00000 38,000 199 450 0
2017-11-13 08:49:48 GMT 45.68330 -71.95000 38,000 200 450 0
2017-11-13 08:48:48 GMT 45.81670 -71.90000 38,000 202 450 0
2017-11-13 08:47:47 GMT 45.93330 -71.81670 38,000 198 450 0
2017-11-13 08:47:47 GMT 45.93330 -71.81670 38,000 198 450 0
2017-11-13 08:46:47 GMT 46.05000 -71.75000 38,000 198 450 0
2017-11-13 08:46:47 GMT 46.05000 -71.75000 38,000 198 450 0
2017-11-13 08:45:48 GMT 46.15000 -71.70000 38,000 197 460 0
2017-11-13 08:44:48 GMT 46.28330 -71.65000 38,000 199 460 0
2017-11-13 08:43:48 GMT 46.40000 -71.58330 38,000 200 460 0
2017-11-13 08:42:48 GMT 46.51670 -71.53330 38,000 200 480 0
2017-11-13 08:41:47 GMT 46.66670 -71.45000 37,900 204 440 0
We lost coverage of the aircraft here for a total of 15 minutes
2017-11-13 08:26:38 GMT 46.33525 -60.19704 39,000 65 542 0
2017-11-13 08:26:35 GMT 46.33319 -60.20360 39,000 65 542 0
2017-11-13 08:26:25 GMT 46.32124 -60.24186 39,000 65 542 0
2017-11-13 08:25:57 GMT 46.29294 -60.33197 39,000 65 542 0
2017-11-13 08:25:54 GMT 46.28984 -60.34187 39,000 65 542 0
2017-11-13 08:25:43 GMT 46.27867 -60.37738 39,000 65 542 0
2017-11-13 08:24:54 GMT 46.22639 -60.54338 39,000 65 543 -64
2017-11-13 08:24:51 GMT 46.22493 -60.54799 39,000 65 543 0
2017-11-13 08:24:41 GMT 46.21492 -60.57957 39,000 65 543 0
2017-11-13 08:24:32 GMT 46.20387 -60.61445 39,000 65 543 0
2017-11-13 08:24:21 GMT 46.19286 -60.64927 39,000 65 544 0
2017-11-13 08:24:09 GMT 46.18154 -60.68484 39,000 65 544 0
2017-11-13 08:23:34 GMT 46.14272 -60.80651 39,000 65 544 0
2017-11-13 08:23:29 GMT 46.13871 -60.81901 39,000 65 544 0
2017-11-13 08:23:17 GMT 46.12652 -60.85712 39,000 65 544 -64
2017-11-13 08:23:08 GMT 46.11575 -60.89065 39,000 65 544 -64
2017-11-13 08:22:58 GMT 46.10627 -60.92015 39,000 65 544 0
2017-11-13 08:22:47 GMT 46.09506 -60.95496 39,000 65 544 0
2017-11-13 08:22:38 GMT 46.08408 -60.98913 39,000 65 545 0
2017-11-13 08:22:26 GMT 46.07350 -61.02195 39,000 65 545 0
2017-11-13 08:22:16 GMT 46.06269 -61.05549 39,000 65 545 0
2017-11-13 08:22:06 GMT 46.05171 -61.08968 39,000 65 545 0
2017-11-13 08:21:53 GMT 46.03770 -61.13301 39,000 65 545 0
2017-11-13 08:21:46 GMT 46.02942 -61.15868 39,000 65 546 0
2017-11-13 08:21:35 GMT 46.01834 -61.19284 39,000 65 546 0
2017-11-13 08:21:24 GMT 46.00665 -61.22893 39,000 65 546 0
2017-11-13 08:21:14 GMT 45.99598 -61.26183 39,000 64 546 0
2017-11-13 08:21:03 GMT 45.98470 -61.29661 39,000 64 546 0
2017-11-13 08:20:54 GMT 45.97378 -61.33008 39,000 64 546 0
2017-11-13 08:20:43 GMT 45.96261 -61.36420 39,000 64 546 0
2017-11-13 08:20:30 GMT 45.94892 -61.40616 39,000 64 546 0
2017-11-13 08:20:23 GMT 45.94052 -61.43180 39,000 64 547 0
2017-11-13 08:20:12 GMT 45.92981 -61.46455 39,000 64 547 -64
2017-11-13 08:20:01 GMT 45.91864 -61.49865 39,000 64 547 -64
2017-11-13 08:19:51 GMT 45.90747 -61.53275 39,000 64 547 0
2017-11-13 08:19:40 GMT 45.89604 -61.56745 39,000 64 547 0
2017-11-13 08:19:31 GMT 45.88528 -61.60020 39,000 64 547 -64
2017-11-13 08:19:20 GMT 45.87407 -61.63419 39,000 64 546 -64
2017-11-13 08:19:00 GMT 45.85139 -61.70277 39,000 64 545 0
2017-11-13 08:18:45 GMT 45.83645 -61.74777 39,000 64 545 0
2017-11-13 08:18:38 GMT 45.82910 -61.76987 39,000 64 545 0
2017-11-13 08:18:28 GMT 45.81746 -61.80503 39,000 64 545 0
2017-11-13 08:18:17 GMT 45.80661 -61.83758 39,000 64 545 0
2017-11-13 08:18:04 GMT 45.78992 -61.88766 39,000 64 545 0
2017-11-13 08:17:46 GMT 45.77216 -61.94085 39,000 64 544 -64
2017-11-13 08:17:36 GMT 45.76155 -61.97264 39,000 64 544 0
2017-11-13 08:17:26 GMT 45.75005 -62.00704 39,000 64 545 0
2017-11-13 08:17:16 GMT 45.73855 -62.04144 39,000 64 544 0
2017-11-13 08:17:04 GMT 45.72707 -62.07577 39,000 64 544 -64
2017-11-13 08:16:54 GMT 45.71530 -62.11067 39,000 64 543 0
2017-11-13 08:16:44 GMT 45.70532 -62.14041 39,000 64 543 0
2017-11-13 08:16:33 GMT 45.69315 -62.17652 39,000 64 542 0
2017-11-13 08:16:23 GMT 45.68162 -62.21070 39,000 64 542 0
2017-11-13 08:16:12 GMT 45.67077 -62.24291 39,000 64 541 0
2017-11-13 08:16:02 GMT 45.65927 -62.27701 39,000 64 541 0
2017-11-13 08:15:52 GMT 45.64796 -62.31043 39,000 64 542 0
2017-11-13 08:15:41 GMT 45.63661 -62.34380 39,000 64 541 0
2017-11-13 08:15:31 GMT 45.62530 -62.37716 39,000 64 540 0
2017-11-13 08:15:20 GMT 45.61379 -62.41113 39,000 64 541 0
2017-11-13 08:15:10 GMT 45.60290 -62.44320 39,000 64 541 -64
2017-11-13 08:15:00 GMT 45.59129 -62.47717 39,000 64 540 -64
2017-11-13 08:14:49 GMT 45.57994 -62.51040 39,000 64 540 0
2017-11-13 08:14:39 GMT 45.56882 -62.54304 39,000 64 541 0
2017-11-13 08:14:29 GMT 45.55746 -62.57634 39,000 64 541 0
2017-11-13 08:14:18 GMT 45.54606 -62.60961 39,000 64 541 0
2017-11-13 08:14:08 GMT 45.53444 -62.64359 39,000 64 541 -64
2017-11-13 08:13:57 GMT 45.52345 -62.67556 39,000 64 541 0
2017-11-13 08:13:47 GMT 45.51184 -62.70949 39,000 63 542 0
2017-11-13 08:13:37 GMT 45.50039 -62.74279 39,000 63 542 0
2017-11-13 08:13:26 GMT 45.48898 -62.77608 39,000 63 542 0
2017-11-13 08:13:16 GMT 45.47749 -62.80931 39,000 63 542 0
2017-11-13 08:13:07 GMT 45.46645 -62.84126 39,000 63 542 0
2017-11-13 08:12:56 GMT 45.45537 -62.87322 39,000 63 543 0
2017-11-13 08:12:46 GMT 45.44362 -62.90719 39,000 63 544 0
2017-11-13 08:12:34 GMT 45.43204 -62.94048 39,000 63 545 0
2017-11-13 08:12:24 GMT 45.42087 -62.97259 39,000 63 545 0
2017-11-13 08:12:15 GMT 45.40929 -63.00600 39,000 63 546 -64
2017-11-13 08:12:03 GMT 45.39648 -63.04270 39,000 63 547 -64
2017-11-13 08:11:53 GMT 45.38507 -63.07558 39,000 63 547 0
2017-11-13 08:11:43 GMT 45.37363 -63.10842 39,000 63 547 0
2017-11-13 08:11:32 GMT 45.36236 -63.14057 39,000 63 547 0
2017-11-13 08:11:22 GMT 45.34979 -63.17661 39,000 63 547 0
2017-11-13 08:11:11 GMT 45.33879 -63.20814 39,000 63 547 0
2017-11-13 08:11:01 GMT 45.32731 -63.24092 39,000 63 547 -64
2017-11-13 08:10:52 GMT 45.31609 -63.27301 39,000 63 547 0
2017-11-13 08:10:41 GMT 45.30418 -63.30702 39,000 63 546 0
2017-11-13 08:10:31 GMT 45.29201 -63.34168 39,000 63 547 0
2017-11-13 08:10:19 GMT 45.28052 -63.37437 39,000 63 547 0
2017-11-13 08:10:09 GMT 45.26879 -63.40766 39,000 63 546 0
2017-11-13 08:10:00 GMT 45.25748 -63.43961 39,000 63 546 0
2017-11-13 08:09:47 GMT 45.24275 -63.48116 39,000 63 546 0
2017-11-13 08:09:38 GMT 45.23323 -63.50804 39,000 63 546 0
2017-11-13 08:09:28 GMT 45.22215 -63.53930 39,000 63 547 0
2017-11-13 08:09:17 GMT 45.20966 -63.57442 39,000 63 547 -64
2017-11-13 08:09:08 GMT 45.19830 -63.60639 39,000 63 547 0
2017-11-13 08:08:56 GMT 45.18626 -63.64025 39,000 63 547 0
2017-11-13 08:08:46 GMT 45.17468 -63.67277 39,000 63 547 0
2017-11-13 08:08:35 GMT 45.16242 -63.70723 39,000 63 547 0
2017-11-13 08:08:25 GMT 45.15032 -63.74107 39,000 63 547 0
2017-11-13 08:08:16 GMT 45.13957 -63.77106 39,000 63 547 0
2017-11-13 08:08:05 GMT 45.12772 -63.80421 39,000 63 547 0
2017-11-13 08:07:54 GMT 45.11540 -63.83868 39,000 63 547 0
2017-11-13 08:07:45 GMT 45.10304 -63.87314 39,000 63 548 0
2017-11-13 08:07:34 GMT 45.09201 -63.90374 39,000 63 548 0
2017-11-13 08:07:23 GMT 45.07965 -63.93814 39,000 63 547 -64
2017-11-13 08:07:13 GMT 45.06775 -63.97130 39,000 63 547 0
2017-11-13 08:07:02 GMT 45.05605 -64.00374 39,000 63 547 0
2017-11-13 08:06:53 GMT 45.04409 -64.03676 39,000 63 546 0
2017-11-13 08:06:41 GMT 45.03170 -64.07106 39,000 62 546 -64
2017-11-13 08:06:31 GMT 45.02025 -64.10281 39,000 62 546 0
2017-11-13 08:06:22 GMT 45.00897 -64.13387 39,000 62 546 -64
2017-11-13 08:06:11 GMT 44.99703 -64.16676 39,000 62 544 0
2017-11-13 08:06:00 GMT 44.98487 -64.20022 39,000 62 545 0
2017-11-13 08:05:50 GMT 44.97267 -64.23366 39,000 62 545 0
2017-11-13 08:05:39 GMT 44.96072 -64.26655 39,000 62 546 0
2017-11-13 08:05:30 GMT 44.94856 -64.30003 39,000 62 546 0
2017-11-13 08:05:18 GMT 44.93655 -64.33292 39,000 62 546 0
2017-11-13 08:05:08 GMT 44.92505 -64.36454 39,000 62 545 0
2017-11-13 08:04:58 GMT 44.91238 -64.39917 39,000 62 545 0
2017-11-13 08:04:48 GMT 44.90108 -64.43006 39,000 62 544 0
2017-11-13 08:04:38 GMT 44.88885 -64.46346 39,000 62 545 -64
2017-11-13 08:04:26 GMT 44.87659 -64.49685 39,000 62 545 -64
2017-11-13 08:04:16 GMT 44.86500 -64.52827 39,000 62 545 0
2017-11-13 08:04:06 GMT 44.85274 -64.56162 39,000 62 546 0
2017-11-13 08:03:56 GMT 44.84116 -64.59314 39,000 62 545 0
2017-11-13 08:03:46 GMT 44.82912 -64.62583 39,000 62 545 0
2017-11-13 08:03:34 GMT 44.81612 -64.66095 39,000 62 544 0
2017-11-13 08:03:24 GMT 44.80449 -64.69234 39,000 62 544 0
2017-11-13 08:03:15 GMT 44.79291 -64.72366 39,000 62 544 0
2017-11-13 08:03:03 GMT 44.78013 -64.75811 39,000 62 544 -64
2017-11-13 08:02:53 GMT 44.76823 -64.79004 39,000 62 544 0
2017-11-13 08:02:42 GMT 44.75635 -64.82202 39,000 62 543 0
2017-11-13 08:02:33 GMT 44.74443 -64.85386 39,000 62 544 0
2017-11-13 08:02:23 GMT 44.73230 -64.88643 39,000 62 543 -64
2017-11-13 08:02:12 GMT 44.71994 -64.91955 39,000 62 543 0
2017-11-13 08:02:01 GMT 44.70808 -64.95143 39,000 62 543 0
2017-11-13 08:01:50 GMT 44.69453 -64.98766 39,000 62 544 0
2017-11-13 08:01:41 GMT 44.68378 -65.01644 39,000 62 544 0
2017-11-13 08:01:31 GMT 44.67119 -65.05011 39,000 62 544 0
2017-11-13 08:01:20 GMT 44.65951 -65.08131 39,000 62 544 0
2017-11-13 08:01:09 GMT 44.64688 -65.11499 39,000 62 544 -64
2017-11-13 08:01:00 GMT 44.63494 -65.14678 39,000 62 543 0
2017-11-13 08:00:48 GMT 44.62253 -65.17979 39,000 62 543 0
2017-11-13 08:00:38 GMT 44.61081 -65.21085 39,000 62 543 0
2017-11-13 08:00:28 GMT 44.59886 -65.24251 39,000 62 542 0
2017-11-13 08:00:17 GMT 44.58620 -65.27594 39,000 62 542 0
2017-11-13 08:00:08 GMT 44.57493 -65.30568 39,000 62 541 -64
2017-11-13 07:59:57 GMT 44.56251 -65.33850 39,000 62 541 -64
2017-11-13 07:59:46 GMT 44.54993 -65.37192 39,000 62 540 0
2017-11-13 07:59:37 GMT 44.53729 -65.40527 39,000 62 540 -64
2017-11-13 07:59:25 GMT 44.52582 -65.43558 39,000 62 541 0
2017-11-13 07:59:15 GMT 44.51311 -65.46894 39,000 61 542 0
2017-11-13 07:59:05 GMT 44.50129 -65.49989 39,000 61 544 0
2017-11-13 07:58:55 GMT 44.48946 -65.53090 39,000 61 544 0
2017-11-13 07:58:45 GMT 44.47713 -65.56319 39,000 61 546 0
2017-11-13 07:58:33 GMT 44.46410 -65.59740 39,000 61 546 0
2017-11-13 07:58:23 GMT 44.45219 -65.62853 39,000 61 546 0
2017-11-13 07:58:14 GMT 44.43933 -65.66208 39,000 61 546 0
2017-11-13 07:58:03 GMT 44.42764 -65.69248 39,000 61 545 0
2017-11-13 07:57:52 GMT 44.41452 -65.72662 39,000 61 546 -64
2017-11-13 07:57:42 GMT 44.40232 -65.75826 39,000 61 546 -64
2017-11-13 07:57:31 GMT 44.39040 -65.78928 39,000 61 545 0
2017-11-13 07:57:22 GMT 44.37772 -65.82210 39,000 61 545 0
2017-11-13 07:57:11 GMT 44.36577 -65.85310 39,000 61 546 0
2017-11-13 07:57:00 GMT 44.35213 -65.88843 39,000 61 546 0
2017-11-13 07:56:53 GMT 44.34403 -65.90953 39,000 61 546 0
2017-11-13 07:56:51 GMT 44.34045 -65.91882 39,000 61 546 0
2017-11-13 07:56:42 GMT 44.33062 -65.94416 39,000 61 546 -64
2017-11-13 07:56:40 GMT 44.32846 -65.94975 39,000 61 546 0
2017-11-13 07:56:32 GMT 44.31985 -65.97205 39,000 61 545 0
2017-11-13 07:56:29 GMT 44.31624 -65.98127 39,000 61 545 0
2017-11-13 07:56:22 GMT 44.30618 -66.00727 39,000 61 545 -64
2017-11-13 07:56:18 GMT 44.30186 -66.01839 39,000 61 545 -64
2017-11-13 07:56:12 GMT 44.29491 -66.03627 39,000 61 545 -64
2017-11-13 07:56:08 GMT 44.29082 -66.04679 39,000 61 545 -64
2017-11-13 07:55:59 GMT 44.27856 -66.07832 39,000 61 545 -64
2017-11-13 07:55:57 GMT 44.27784 -66.08015 39,000 61 545 -64
2017-11-13 07:55:51 GMT 44.26845 -66.10421 39,000 61 545 -64
2017-11-13 07:55:48 GMT 44.26531 -66.11231 39,000 61 547 0
2017-11-13 07:55:41 GMT 44.25810 -66.13086 39,000 61 547 0
2017-11-13 07:55:37 GMT 44.25279 -66.14446 39,000 61 548 0
2017-11-13 07:55:30 GMT 44.24460 -66.16550 39,000 61 548 0
2017-11-13 07:55:28 GMT 44.24098 -66.17484 39,000 61 549 0
2017-11-13 07:55:26 GMT 44.24048 -66.17608 39,000 61 549 0
2017-11-13 07:55:19 GMT 44.23128 -66.19969 39,000 61 550 0
2017-11-13 07:55:17 GMT 44.22789 -66.20839 39,000 61 550 0
2017-11-13 07:55:09 GMT 44.21890 -66.23141 39,000 61 551 0
2017-11-13 07:55:07 GMT 44.21622 -66.23827 39,000 61 551 0
2017-11-13 07:55:05 GMT 44.21526 -66.24076 39,000 61 551 0
2017-11-13 07:55:00 GMT 44.20819 -66.25881 39,000 61 552 0
2017-11-13 07:54:57 GMT 44.20335 -66.27127 39,000 61 552 0
2017-11-13 07:54:55 GMT 44.20262 -66.27313 39,000 61 552 0
2017-11-13 07:54:46 GMT 44.19018 -66.30497 39,000 61 552 0
2017-11-13 07:54:35 GMT 44.17767 -66.33673 39,000 61 552 -64
2017-11-13 07:54:28 GMT 44.16914 -66.35853 39,000 61 552 -64
2017-11-13 07:54:24 GMT 44.16495 -66.36911 39,000 61 552 -64
2017-11-13 07:54:17 GMT 44.15566 -66.39274 39,000 61 551 -64
2017-11-13 07:54:15 GMT 44.15200 -66.40209 39,000 61 551 -64
2017-11-13 07:54:09 GMT 44.14511 -66.41948 39,000 61 551 -64
2017-11-13 07:54:04 GMT 44.13950 -66.43381 39,000 61 551 0
2017-11-13 07:53:58 GMT 44.13263 -66.45119 39,000 61 551 0
2017-11-13 07:53:53 GMT 44.12701 -66.46545 39,000 61 551 0
2017-11-13 07:53:46 GMT 44.11794 -66.48849 39,000 61 552 0
2017-11-13 07:53:44 GMT 44.11450 -66.49718 39,000 61 552 -64
2017-11-13 07:53:35 GMT 44.10298 -66.52640 39,000 61 552 0
2017-11-13 07:53:32 GMT 44.10123 -66.53078 39,000 61 553 0
2017-11-13 07:53:27 GMT 44.09386 -66.54936 39,000 61 552 0
2017-11-13 07:53:22 GMT 44.08896 -66.56182 39,000 61 552 0
2017-11-13 07:53:17 GMT 44.08180 -66.57983 39,000 61 552 0
2017-11-13 07:53:12 GMT 44.07640 -66.59343 39,000 61 552 -64
2017-11-13 07:53:06 GMT 44.06827 -66.61394 39,000 61 552 -64
2017-11-13 07:53:02 GMT 44.06360 -66.62574 39,000 61 552 -64
2017-11-13 07:52:55 GMT 44.05471 -66.64804 39,000 61 552 0
2017-11-13 07:52:51 GMT 44.05055 -66.65859 39,000 61 552 0
2017-11-13 07:52:45 GMT 44.04314 -66.67724 39,000 61 553 0
2017-11-13 07:52:41 GMT 44.03773 -66.69091 39,000 61 553 0
2017-11-13 07:52:35 GMT 44.03032 -66.70950 39,000 61 553 0
2017-11-13 07:52:31 GMT 44.02566 -66.72128 39,000 61 553 0
2017-11-13 07:52:26 GMT 44.01801 -66.74054 39,000 61 554 0
2017-11-13 07:52:20 GMT 44.01256 -66.75427 39,000 61 554 -64
2017-11-13 07:52:15 GMT 44.00510 -66.77292 39,000 61 555 0
2017-11-13 07:52:10 GMT 43.99941 -66.78720 39,000 61 555 0
2017-11-13 07:52:04 GMT 43.99196 -66.80583 39,000 61 555 0
2017-11-13 07:52:00 GMT 43.98698 -66.81826 39,000 60 555 0
2017-11-13 07:51:55 GMT 43.97974 -66.83635 39,000 60 555 -64
2017-11-13 07:51:50 GMT 43.97324 -66.85251 39,000 60 555 0
2017-11-13 07:51:49 GMT 43.97374 -66.85123 39,000 60 555 0
2017-11-13 07:51:44 GMT 43.96674 -66.86867 39,000 60 556 0
2017-11-13 07:51:39 GMT 43.96074 -66.88362 39,000 60 556 0
2017-11-13 07:51:29 GMT 43.94778 -66.91600 39,000 60 556 0
2017-11-13 07:51:19 GMT 43.93456 -66.94905 39,000 60 556 0
2017-11-13 07:51:13 GMT 43.92804 -66.96527 39,000 60 557 0
2017-11-13 07:51:08 GMT 43.92152 -66.98149 39,000 60 557 0
2017-11-13 07:51:03 GMT 43.91528 -66.99706 39,000 60 557 0
2017-11-13 07:51:00 GMT 43.91176 -67.00574 39,000 60 557 0
2017-11-13 07:50:58 GMT 43.90849 -67.01386 39,000 60 557 0
2017-11-13 07:50:53 GMT 43.90274 -67.02816 39,000 60 556 0
2017-11-13 07:50:51 GMT 43.90053 -67.03373 39,000 60 556 0
2017-11-13 07:50:47 GMT 43.89550 -67.04616 39,000 60 556 0
2017-11-13 07:50:43 GMT 43.89001 -67.05989 39,000 60 555 0
2017-11-13 07:50:41 GMT 43.88652 -67.06859 39,000 60 556 0
2017-11-13 07:50:36 GMT 43.88278 -67.07786 39,000 60 556 0
2017-11-13 07:50:31 GMT 43.87628 -67.09402 39,000 60 555 -64
2017-11-13 07:50:27 GMT 43.86901 -67.11201 39,000 60 555 -64
2017-11-13 07:50:18 GMT 43.85976 -67.13490 39,000 60 555 -64
2017-11-13 07:50:16 GMT 43.85628 -67.14358 39,000 60 554 -64
2017-11-13 07:50:12 GMT 43.85129 -67.15591 39,000 60 554 0
2017-11-13 07:50:05 GMT 43.84328 -67.17571 39,000 60 553 0
2017-11-13 07:50:00 GMT 43.83754 -67.18990 39,000 60 553 0
2017-11-13 07:49:57 GMT 43.83308 -67.20095 39,000 60 553 0
2017-11-13 07:49:55 GMT 43.83056 -67.20716 39,000 60 553 0
2017-11-13 07:49:50 GMT 43.82460 -67.22194 39,000 60 553 0
2017-11-13 07:49:46 GMT 43.81888 -67.23607 39,000 60 553 0
2017-11-13 07:49:44 GMT 43.81737 -67.23978 39,000 60 552 0
2017-11-13 07:49:40 GMT 43.81238 -67.25211 39,000 60 553 0
2017-11-13 07:49:35 GMT 43.80492 -67.27057 39,000 60 553 0
2017-11-13 07:49:29 GMT 43.79816 -67.28721 39,000 60 553 0
2017-11-13 07:49:24 GMT 43.79220 -67.30199 39,000 60 552 0
2017-11-13 07:49:19 GMT 43.78596 -67.31738 39,000 60 552 0
2017-11-13 07:49:14 GMT 43.77951 -67.33335 39,000 60 552 0
2017-11-13 07:49:09 GMT 43.77377 -67.34750 39,000 60 552 0
2017-11-13 07:49:04 GMT 43.76525 -67.36843 39,000 60 552 0
2017-11-13 07:48:59 GMT 43.75975 -67.38190 39,000 60 552 -64
2017-11-13 07:48:53 GMT 43.75324 -67.39785 39,000 60 552 -64
2017-11-13 07:48:49 GMT 43.74797 -67.41077 39,000 60 552 -64
2017-11-13 07:48:44 GMT 43.74174 -67.42610 39,000 60 551 -64
2017-11-13 07:48:42 GMT 43.74046 -67.42916 39,000 60 551 -64
2017-11-13 07:48:39 GMT 43.73547 -67.44143 39,000 60 551 -64
2017-11-13 07:48:35 GMT 43.73024 -67.45435 39,000 60 551 0
2017-11-13 07:48:32 GMT 43.72675 -67.46292 39,000 60 552 0
2017-11-13 07:48:29 GMT 43.72247 -67.47330 39,000 60 551 0
2017-11-13 07:48:27 GMT 43.72121 -67.47639 39,000 60 551 0
2017-11-13 07:48:23 GMT 43.71597 -67.48927 39,000 60 551 0
2017-11-13 07:48:21 GMT 43.71346 -67.49534 39,000 60 551 0
2017-11-13 07:48:18 GMT 43.70920 -67.50575 39,000 60 551 0
2017-11-13 07:48:12 GMT 43.70115 -67.52531 39,000 60 551 -64
2017-11-13 07:48:07 GMT 43.69612 -67.53754 39,000 60 551 0
2017-11-13 07:48:01 GMT 43.68862 -67.55585 39,000 60 551 0
2017-11-13 07:47:57 GMT 43.68262 -67.57056 39,000 60 550 -64
2017-11-13 07:47:50 GMT 43.67436 -67.59070 39,000 60 550 0
2017-11-13 07:47:47 GMT 43.67038 -67.60054 39,000 60 551 0
2017-11-13 07:47:40 GMT 43.66209 -67.62065 39,000 60 551 0
2017-11-13 07:47:36 GMT 43.65706 -67.63288 39,000 60 550 0
2017-11-13 07:47:32 GMT 43.65129 -67.64691 39,000 60 550 -64
2017-11-13 07:47:30 GMT 43.64901 -67.65243 39,000 60 550 -64
2017-11-13 07:47:26 GMT 43.64475 -67.66275 39,000 60 550 -64
2017-11-13 07:47:20 GMT 43.63546 -67.68533 39,000 60 550 -64
2017-11-13 07:47:16 GMT 43.63170 -67.69450 39,000 60 550 -64
2017-11-13 07:47:09 GMT 43.62294 -67.71580 39,000 60 549 0
2017-11-13 07:47:03 GMT 43.61613 -67.73225 39,000 60 549 0
2017-11-13 07:47:00 GMT 43.61237 -67.74137 39,000 60 549 0
2017-11-13 07:46:58 GMT 43.60986 -67.74745 39,000 60 549 0
2017-11-13 07:46:54 GMT 43.60483 -67.75955 39,000 60 549 0
2017-11-13 07:46:48 GMT 43.59678 -67.77904 39,000 60 549 0
2017-11-13 07:46:45 GMT 43.59302 -67.78814 39,000 60 549 0
2017-11-13 07:46:39 GMT 43.58621 -67.80454 39,000 60 549 0
2017-11-13 07:46:37 GMT 43.58323 -67.81180 39,000 60 549 0
2017-11-13 07:46:34 GMT 43.57918 -67.82155 39,000 60 549 0
2017-11-13 07:46:30 GMT 43.57364 -67.83489 39,000 60 549 0
2017-11-13 07:46:28 GMT 43.57066 -67.84215 39,000 60 549 0
2017-11-13 07:46:24 GMT 43.56563 -67.85431 39,000 60 549 0
2017-11-13 07:46:19 GMT 43.56033 -67.86702 39,000 60 549 0
2017-11-13 07:46:15 GMT 43.55429 -67.88158 39,000 60 549 0
2017-11-13 07:46:08 GMT 43.54729 -67.89851 39,000 60 549 0
2017-11-13 07:46:06 GMT 43.54427 -67.90579 39,000 60 549 0
2017-11-13 07:46:03 GMT 43.53901 -67.91853 39,000 60 549 0
2017-11-13 07:45:59 GMT 43.53449 -67.92945 39,000 60 549 0
2017-11-13 07:45:55 GMT 43.53021 -67.93971 39,000 60 549 0
2017-11-13 07:45:53 GMT 43.52820 -67.94456 39,000 60 549 0
2017-11-13 07:45:51 GMT 43.52495 -67.95247 39,000 60 549 0
2017-11-13 07:45:48 GMT 43.52141 -67.96090 39,000 60 549 0
2017-11-13 07:45:45 GMT 43.51792 -67.96940 39,000 60 549 0
2017-11-13 07:45:43 GMT 43.51489 -67.97666 39,000 60 549 0
2017-11-13 07:45:36 GMT 43.50458 -68.00147 39,000 60 548 0
2017-11-13 07:45:32 GMT 43.50079 -68.01054 39,000 60 548 0
2017-11-13 07:45:28 GMT 43.49529 -68.02381 39,000 60 548 0
2017-11-13 07:45:24 GMT 43.49124 -68.03349 39,000 60 548 0
2017-11-13 07:45:22 GMT 43.48947 -68.03776 39,000 60 548 0
2017-11-13 07:45:17 GMT 43.48268 -68.05409 39,000 60 548 0
2017-11-13 07:45:12 GMT 43.47638 -68.06918 39,000 60 548 0
2017-11-13 07:45:09 GMT 43.47235 -68.07883 39,000 60 547 0
2017-11-13 07:45:06 GMT 43.46883 -68.08726 39,000 60 547 0
2017-11-13 07:45:04 GMT 43.46554 -68.09509 39,000 60 547 0
2017-11-13 07:45:01 GMT 43.46201 -68.10353 39,000 60 547 0
2017-11-13 07:44:56 GMT 43.45619 -68.11741 39,000 60 547 0
2017-11-13 07:44:51 GMT 43.44814 -68.13663 39,000 60 546 0
2017-11-13 07:44:46 GMT 43.44334 -68.14806 39,000 60 546 0
2017-11-13 07:44:44 GMT 43.43957 -68.15714 39,000 60 546 0
2017-11-13 07:44:40 GMT 43.43655 -68.16435 39,000 60 546 0
2017-11-13 07:44:36 GMT 43.42975 -68.18056 39,000 60 546 0
2017-11-13 07:44:30 GMT 43.42323 -68.19619 39,000 60 546 0
2017-11-13 07:44:25 GMT 43.41692 -68.21117 39,000 60 546 0
2017-11-13 07:44:21 GMT 43.41188 -68.22325 39,000 60 546 0
2017-11-13 07:44:15 GMT 43.40410 -68.24184 39,000 60 546 -64
2017-11-13 07:44:13 GMT 43.40056 -68.25021 39,000 60 545 0
2017-11-13 07:44:11 GMT 43.39934 -68.25327 39,000 60 545 0
2017-11-13 07:44:08 GMT 43.39553 -68.26224 39,000 60 545 0
2017-11-13 07:44:05 GMT 43.39078 -68.27364 39,000 60 546 0
2017-11-13 07:44:02 GMT 43.38771 -68.28080 39,000 60 546 0
2017-11-13 07:44:00 GMT 43.38519 -68.28680 39,000 60 546 0
2017-11-13 07:43:56 GMT 43.38016 -68.29881 39,000 60 546 0
2017-11-13 07:43:53 GMT 43.37738 -68.30540 39,000 59 545 0
2017-11-13 07:43:51 GMT 43.37311 -68.31554 39,000 59 545 0
2017-11-13 07:43:49 GMT 43.37109 -68.32033 39,000 59 545 0
2017-11-13 07:43:43 GMT 43.36450 -68.33585 39,000 59 545 0
2017-11-13 07:43:39 GMT 43.35846 -68.35023 39,000 59 545 0
2017-11-13 07:43:34 GMT 43.35187 -68.36575 39,000 59 545 0
2017-11-13 07:43:29 GMT 43.34683 -68.37769 39,000 59 545 0
2017-11-13 07:43:27 GMT 43.34353 -68.38545 39,000 59 545 0
2017-11-13 07:43:22 GMT 43.33850 -68.39741 39,000 59 545 0
2017-11-13 07:43:20 GMT 43.33420 -68.40759 39,000 59 545 0
2017-11-13 07:43:18 GMT 43.33245 -68.41173 39,000 59 545 0
2017-11-13 07:43:12 GMT 43.32559 -68.42790 39,000 59 545 0
2017-11-13 07:43:08 GMT 43.31877 -68.44404 39,000 59 545 0
2017-11-13 07:43:03 GMT 43.31271 -68.45836 39,000 59 545 -64
2017-11-13 07:42:58 GMT 43.30717 -68.47150 39,000 59 545 -64
2017-11-13 07:42:52 GMT 43.29982 -68.48883 39,000 59 545 -64
2017-11-13 07:42:48 GMT 43.29428 -68.50199 39,000 59 545 -64
2017-11-13 07:42:41 GMT 43.28646 -68.52049 39,000 59 545 -64
2017-11-13 07:42:38 GMT 43.28092 -68.53363 39,000 59 545 0
2017-11-13 07:42:32 GMT 43.27359 -68.55092 39,000 59 544 0
2017-11-13 07:42:28 GMT 43.26877 -68.56227 39,000 59 544 0
2017-11-13 07:42:26 GMT 43.26626 -68.56822 39,000 59 544 0
2017-11-13 07:42:21 GMT 43.26096 -68.58075 39,000 59 544 0
2017-11-13 07:42:17 GMT 43.25537 -68.59384 39,000 59 544 0
2017-11-13 07:42:11 GMT 43.24777 -68.61173 39,000 59 544 0
2017-11-13 07:42:07 GMT 43.24274 -68.62361 39,000 59 544 0
2017-11-13 07:42:05 GMT 43.24047 -68.62898 39,000 59 544 0
2017-11-13 07:42:01 GMT 43.23463 -68.64264 39,000 59 544 0
2017-11-13 07:41:57 GMT 43.22980 -68.65396 39,000 59 544 0
2017-11-13 07:41:55 GMT 43.22729 -68.65997 39,000 59 544 0
2017-11-13 07:41:50 GMT 43.22145 -68.67362 39,000 59 544 0
2017-11-13 07:41:45 GMT 43.21463 -68.68973 39,000 59 544 0
2017-11-13 07:41:39 GMT 43.20802 -68.70523 39,000 59 545 0
2017-11-13 07:41:35 GMT 43.20294 -68.71713 39,000 59 545 0
2017-11-13 07:41:30 GMT 43.19531 -68.73498 39,000 59 545 0
2017-11-13 07:41:25 GMT 43.18890 -68.74982 39,000 59 545 -64
2017-11-13 07:41:19 GMT 43.18176 -68.76649 39,000 59 545 -64
2017-11-13 07:41:16 GMT 43.17668 -68.77837 39,000 59 545 -64
2017-11-13 07:41:14 GMT 43.17618 -68.77952 39,000 59 545 -64
2017-11-13 07:41:11 GMT 43.17236 -68.78847 39,000 59 545 -64
2017-11-13 07:41:08 GMT 43.16853 -68.79735 39,000 59 545 -64
2017-11-13 07:41:06 GMT 43.16421 -68.80750 39,000 59 545 -64
2017-11-13 07:41:03 GMT 43.16216 -68.81221 39,000 59 545 -64
2017-11-13 07:40:59 GMT 43.15555 -68.82765 39,000 59 545 -64
2017-11-13 07:40:55 GMT 43.15118 -68.83778 39,000 59 545 -64
2017-11-13 07:40:52 GMT 43.14787 -68.84550 39,000 59 545 -64
2017-11-13 07:40:48 GMT 43.14253 -68.85796 39,000 59 545 0
2017-11-13 07:40:44 GMT 43.13745 -68.86984 39,000 59 545 0
2017-11-13 07:40:42 GMT 43.13516 -68.87525 39,000 59 545 0
2017-11-13 07:40:38 GMT 43.12930 -68.88888 39,000 59 545 0
2017-11-13 07:40:35 GMT 43.12472 -68.89961 39,000 59 545 0
2017-11-13 07:40:32 GMT 43.12216 -68.90555 39,000 59 545 0
2017-11-13 07:40:28 GMT 43.11575 -68.92044 39,000 59 545 0
2017-11-13 07:40:24 GMT 43.11068 -68.93234 39,000 59 546 0
2017-11-13 07:40:21 GMT 43.10889 -68.93646 39,000 59 546 0
2017-11-13 07:40:17 GMT 43.10300 -68.95013 39,000 59 546 0
2017-11-13 07:40:14 GMT 43.09863 -68.96029 39,000 59 546 0
2017-11-13 07:40:11 GMT 43.09531 -68.96798 39,000 59 546 0
2017-11-13 07:40:06 GMT 43.08968 -68.98106 39,000 59 546 0
2017-11-13 07:40:02 GMT 43.08279 -68.99708 39,000 59 546 0
2017-11-13 07:40:00 GMT 43.08073 -69.00187 39,000 59 546 0
2017-11-13 07:39:56 GMT 43.07637 -69.01193 39,000 59 546 0
2017-11-13 07:39:53 GMT 43.07125 -69.02383 39,000 59 546 0
2017-11-13 07:39:51 GMT 43.06943 -69.02799 39,000 59 546 0
2017-11-13 07:39:46 GMT 43.06305 -69.04279 39,000 59 546 0
2017-11-13 07:39:43 GMT 43.05867 -69.05290 39,000 59 546 0
2017-11-13 07:39:41 GMT 43.05686 -69.05705 39,000 59 546 0
2017-11-13 07:39:36 GMT 43.04942 -69.07430 39,000 59 546 0
2017-11-13 07:39:32 GMT 43.04453 -69.08556 39,000 59 546 0
2017-11-13 07:39:25 GMT 43.03606 -69.10515 39,000 59 546 -64
2017-11-13 07:39:21 GMT 43.03117 -69.11643 39,000 59 547 0
2017-11-13 07:39:14 GMT 43.02274 -69.13607 39,000 59 547 0
2017-11-13 07:39:11 GMT 43.01734 -69.14854 39,000 59 546 0
2017-11-13 07:39:05 GMT 43.00987 -69.16577 39,000 59 546 0
2017-11-13 07:39:02 GMT 43.00603 -69.17463 39,000 59 546 0
2017-11-13 07:39:00 GMT 43.00500 -69.17705 39,000 59 546 -64
2017-11-13 07:38:54 GMT 42.99681 -69.19601 39,000 59 547 -64
2017-11-13 07:38:52 GMT 42.99294 -69.20493 39,000 59 547 -64
2017-11-13 07:38:50 GMT 42.99113 -69.20909 39,000 59 547 0
2017-11-13 07:38:43 GMT 42.98318 -69.22747 39,000 59 546 -64
2017-11-13 07:38:41 GMT 42.97879 -69.23761 39,000 59 547 0
2017-11-13 07:38:39 GMT 42.97700 -69.24172 39,000 59 547 0
2017-11-13 07:38:34 GMT 42.97004 -69.25775 39,000 59 547 0
2017-11-13 07:38:30 GMT 42.96515 -69.26899 39,000 59 547 0
2017-11-13 07:38:28 GMT 42.96359 -69.27257 39,000 59 547 0
2017-11-13 07:38:23 GMT 42.95664 -69.28855 39,000 59 547 0
2017-11-13 07:38:20 GMT 42.95198 -69.29921 39,000 59 546 0
2017-11-13 07:38:18 GMT 42.95096 -69.30156 39,000 59 546 0
2017-11-13 07:38:12 GMT 42.94267 -69.32053 39,000 59 546 0
2017-11-13 07:38:08 GMT 42.93778 -69.33178 39,000 59 547 0
2017-11-13 07:38:03 GMT 42.92954 -69.35068 39,000 59 547 0
2017-11-13 07:37:59 GMT 42.92410 -69.36316 39,000 59 547 0
2017-11-13 07:37:52 GMT 42.91637 -69.38089 39,000 59 547 -64
2017-11-13 07:37:49 GMT 42.91251 -69.38978 39,000 59 547 -64
2017-11-13 07:37:46 GMT 42.90864 -69.39867 39,000 59 547 -64
2017-11-13 07:37:42 GMT 42.90321 -69.41111 39,000 59 547 0
2017-11-13 07:37:39 GMT 42.89984 -69.41881 39,000 59 547 0
2017-11-13 07:37:37 GMT 42.89779 -69.42352 39,000 59 547 0
2017-11-13 07:37:34 GMT 42.89388 -69.43238 39,000 59 547 0
2017-11-13 07:37:32 GMT 42.88951 -69.44242 39,000 59 547 0
2017-11-13 07:37:29 GMT 42.88639 -69.44955 39,000 59 547 0
2017-11-13 07:37:27 GMT 42.88327 -69.45661 39,000 59 547 0
2017-11-13 07:37:20 GMT 42.87579 -69.47377 39,000 59 547 0
2017-11-13 07:37:18 GMT 42.87268 -69.48080 39,000 59 547 0
2017-11-13 07:37:16 GMT 42.87062 -69.48552 39,000 59 547 -64
2017-11-13 07:37:12 GMT 42.86469 -69.49912 39,000 59 547 -64
2017-11-13 07:37:09 GMT 42.85977 -69.51031 39,000 59 546 -64
2017-11-13 07:37:06 GMT 42.85767 -69.51503 39,000 59 546 -64
2017-11-13 07:36:57 GMT 42.84449 -69.54509 39,000 59 546 0
2017-11-13 07:36:53 GMT 42.84086 -69.55333 39,000 59 546 0
2017-11-13 07:36:50 GMT 42.83647 -69.56339 39,000 59 546 0
2017-11-13 07:36:47 GMT 42.83231 -69.57277 39,000 59 546 0
2017-11-13 07:36:44 GMT 42.82764 -69.58338 39,000 59 546 0
2017-11-13 07:36:39 GMT 42.82246 -69.59513 39,000 59 545 0
2017-11-13 07:36:37 GMT 42.81885 -69.60337 39,000 59 545 0
2017-11-13 07:36:34 GMT 42.81624 -69.60925 39,000 59 545 0
2017-11-13 07:36:32 GMT 42.81212 -69.61870 39,000 59 545 0
2017-11-13 07:36:30 GMT 42.80951 -69.62458 39,000 59 545 0
2017-11-13 07:36:26 GMT 42.80567 -69.63339 39,000 59 545 0
2017-11-13 07:36:24 GMT 42.80204 -69.64163 39,000 59 545 0
2017-11-13 07:36:19 GMT 42.79631 -69.65453 39,000 59 545 0
2017-11-13 07:36:17 GMT 42.79165 -69.66514 39,000 59 545 0
2017-11-13 07:36:15 GMT 42.79037 -69.66805 39,000 59 545 0
2017-11-13 07:36:12 GMT 42.78491 -69.68040 39,000 59 545 0
2017-11-13 07:36:08 GMT 42.78234 -69.68622 39,000 59 545 0
2017-11-13 07:36:06 GMT 42.77843 -69.69502 39,000 58 545 0
2017-11-13 07:36:01 GMT 42.77299 -69.70736 39,000 58 545 0
2017-11-13 07:35:58 GMT 42.76884 -69.71675 39,000 58 545 0
2017-11-13 07:35:55 GMT 42.76547 -69.72436 39,000 58 545 0
2017-11-13 07:35:48 GMT 42.75609 -69.74546 39,000 58 545 0
2017-11-13 07:35:46 GMT 42.75197 -69.75488 39,000 58 545 0
2017-11-13 07:35:43 GMT 42.75013 -69.75897 39,000 58 545 0
2017-11-13 07:35:37 GMT 42.74263 -69.77592 39,000 58 545 0
2017-11-13 07:35:35 GMT 42.73897 -69.78416 39,000 58 545 0
2017-11-13 07:35:33 GMT 42.73691 -69.78884 39,000 58 545 0
2017-11-13 07:35:30 GMT 42.73224 -69.79933 39,000 58 544 0
2017-11-13 07:35:28 GMT 42.72937 -69.80579 39,000 58 544 0
2017-11-13 07:35:26 GMT 42.72727 -69.81045 39,000 58 544 0
2017-11-13 07:35:24 GMT 42.72523 -69.81511 39,000 58 544 -64
2017-11-13 07:35:22 GMT 42.72108 -69.82450 39,000 58 545 0
2017-11-13 07:35:17 GMT 42.71562 -69.83678 39,000 59 544 0
2017-11-13 07:35:13 GMT 42.70809 -69.85376 39,000 58 545 0
2017-11-13 07:35:11 GMT 42.70809 -69.85376 39,000 58 545 0
2017-11-13 07:35:06 GMT 42.70212 -69.86718 39,000 58 545 0
2017-11-13 07:35:04 GMT 42.69900 -69.87423 39,000 58 545 0
2017-11-13 07:35:02 GMT 42.69539 -69.88241 39,000 58 545 0
2017-11-13 07:34:56 GMT 42.68840 -69.89821 39,000 58 545 0
2017-11-13 07:34:54 GMT 42.68500 -69.90582 39,000 58 545 0
2017-11-13 07:34:51 GMT 42.68007 -69.91693 39,000 59 545 0
2017-11-13 07:34:45 GMT 42.67410 -69.93041 39,000 59 545 0
2017-11-13 07:34:43 GMT 42.67229 -69.93456 39,000 58 545 0
2017-11-13 07:34:40 GMT 42.66713 -69.94625 39,000 58 545 0
2017-11-13 07:34:35 GMT 42.65904 -69.96437 39,000 59 545 0
2017-11-13 07:34:33 GMT 42.65721 -69.96847 39,000 59 545 0
2017-11-13 07:34:30 GMT 42.65307 -69.97786 39,000 58 545 0
2017-11-13 07:34:24 GMT 42.64525 -69.99543 39,000 58 545 0
2017-11-13 07:34:22 GMT 42.64398 -69.99833 39,000 58 545 0
2017-11-13 07:34:20 GMT 42.64008 -70.00712 39,000 58 545 0
2017-11-13 07:34:18 GMT 42.63876 -70.01006 39,000 58 545 0
2017-11-13 07:34:13 GMT 42.63226 -70.02468 39,000 58 545 0
2017-11-13 07:34:11 GMT 42.62993 -70.02991 39,000 58 545 0
2017-11-13 07:34:09 GMT 42.62705 -70.03637 39,000 58 545 0
2017-11-13 07:34:07 GMT 42.62526 -70.04046 39,000 58 545 0
2017-11-13 07:34:05 GMT 42.62160 -70.04864 39,000 58 545 0
2017-11-13 07:34:03 GMT 42.61743 -70.05794 39,000 58 545 0
2017-11-13 07:34:01 GMT 42.61588 -70.06144 39,000 58 545 0
2017-11-13 07:33:57 GMT 42.61094 -70.07252 39,000 58 544 0
2017-11-13 07:33:54 GMT 42.60809 -70.07898 39,000 58 544 0
2017-11-13 07:33:50 GMT 42.60287 -70.09065 39,000 58 544 0
2017-11-13 07:33:44 GMT 42.59454 -70.10931 39,000 58 544 -64
2017-11-13 07:33:42 GMT 42.59167 -70.11570 39,000 58 544 -64
2017-11-13 07:33:39 GMT 42.58933 -70.12099 39,000 58 544 -64
2017-11-13 07:33:37 GMT 42.58411 -70.13260 39,000 58 544 -64
2017-11-13 07:33:32 GMT 42.57858 -70.14483 39,000 58 544 0
2017-11-13 07:33:30 GMT 42.57547 -70.15179 39,000 58 544 0
2017-11-13 07:33:25 GMT 42.57021 -70.16342 39,000 58 543 0
2017-11-13 07:33:23 GMT 42.56755 -70.16923 39,000 58 544 0
2017-11-13 07:33:21 GMT 42.56439 -70.17619 39,000 58 544 0
2017-11-13 07:33:18 GMT 42.56094 -70.18366 39,000 58 543 0
2017-11-13 07:33:16 GMT 42.55563 -70.19527 39,000 58 543 0
2017-11-13 07:33:13 GMT 42.55458 -70.19758 39,000 58 543 0
2017-11-13 07:33:11 GMT 42.55087 -70.20563 39,000 58 543 0
2017-11-13 07:33:06 GMT 42.54506 -70.21837 39,000 58 543 -64
2017-11-13 07:33:03 GMT 42.53948 -70.23049 39,000 58 543 -64
2017-11-13 07:33:00 GMT 42.53709 -70.23572 39,000 58 543 -64
2017-11-13 07:32:57 GMT 42.53203 -70.24671 39,000 58 543 0
2017-11-13 07:32:54 GMT 42.52808 -70.25532 39,000 58 543 0
2017-11-13 07:32:52 GMT 42.52647 -70.25882 39,000 58 544 -64
2017-11-13 07:32:50 GMT 42.52249 -70.26747 39,000 58 544 -64
2017-11-13 07:32:48 GMT 42.52116 -70.27036 39,000 58 544 -64
2017-11-13 07:32:45 GMT 42.51746 -70.27848 39,000 58 544 -64
2017-11-13 07:32:43 GMT 42.51375 -70.28660 39,000 58 544 0
2017-11-13 07:32:41 GMT 42.51029 -70.29410 39,000 58 544 0
2017-11-13 07:32:39 GMT 42.50899 -70.29696 39,000 58 544 0
2017-11-13 07:32:37 GMT 42.50713 -70.30100 39,000 58 544 0
2017-11-13 07:32:35 GMT 42.50317 -70.30969 39,000 58 544 0
2017-11-13 07:32:32 GMT 42.49892 -70.31899 39,000 58 544 0
2017-11-13 07:32:29 GMT 42.49651 -70.32419 39,000 58 544 0
2017-11-13 07:32:26 GMT 42.49070 -70.33690 39,000 58 544 0
2017-11-13 07:32:24 GMT 42.49014 -70.33805 39,000 58 545 0
2017-11-13 07:32:22 GMT 42.48669 -70.34558 39,000 58 545 0
2017-11-13 07:32:20 GMT 42.48244 -70.35482 39,000 58 545 0
2017-11-13 07:32:17 GMT 42.48003 -70.36002 39,000 58 545 0
2017-11-13 07:32:14 GMT 42.47498 -70.37099 39,000 58 545 0
2017-11-13 07:32:12 GMT 42.47337 -70.37449 39,000 58 545 0
2017-11-13 07:32:09 GMT 42.46861 -70.38491 39,000 58 545 0
2017-11-13 07:32:05 GMT 42.46351 -70.39586 39,000 58 545 0
2017-11-13 07:32:03 GMT 42.46166 -70.39995 39,000 58 545 0
2017-11-13 07:32:01 GMT 42.45820 -70.40748 39,000 58 545 0
2017-11-13 07:31:59 GMT 42.45580 -70.41269 39,000 58 546 0
2017-11-13 07:31:57 GMT 42.45234 -70.42019 39,000 58 546 0
2017-11-13 07:31:55 GMT 42.44968 -70.42594 39,000 58 546 -64
2017-11-13 07:31:51 GMT 42.44568 -70.43466 39,000 58 546 -64
2017-11-13 07:31:49 GMT 42.44167 -70.44331 39,000 58 546 -64
2017-11-13 07:31:47 GMT 42.43872 -70.44970 39,000 58 546 0
2017-11-13 07:31:44 GMT 42.43552 -70.45663 39,000 58 546 0
2017-11-13 07:31:40 GMT 42.42915 -70.47055 39,000 58 546 0
2017-11-13 07:31:36 GMT 42.42408 -70.48157 39,000 58 546 0
2017-11-13 07:31:34 GMT 42.42194 -70.48617 39,000 58 546 0
2017-11-13 07:31:31 GMT 42.41924 -70.49199 39,000 58 546 0
2017-11-13 07:31:29 GMT 42.41658 -70.49780 39,000 58 546 0
2017-11-13 07:31:27 GMT 42.41230 -70.50706 39,000 58 546 0
2017-11-13 07:31:25 GMT 42.40913 -70.51402 39,000 58 546 0
2017-11-13 07:31:23 GMT 42.40858 -70.51517 39,000 58 547 0
2017-11-13 07:31:21 GMT 42.40592 -70.52092 39,000 58 547 0
2017-11-13 07:31:19 GMT 42.40271 -70.52788 39,000 58 547 0
2017-11-13 07:31:17 GMT 42.40006 -70.53370 39,000 58 547 0
2017-11-13 07:31:13 GMT 42.39363 -70.54762 39,000 58 547 0
2017-11-13 07:31:11 GMT 42.39098 -70.55343 39,000 58 547 0
2017-11-13 07:31:09 GMT 42.38695 -70.56213 39,000 58 547 0
2017-11-13 07:31:06 GMT 42.38563 -70.56499 39,000 58 547 0
2017-11-13 07:31:03 GMT 42.38109 -70.57486 39,000 58 547 0
2017-11-13 07:31:01 GMT 42.37788 -70.58185 39,000 58 547 0
2017-11-13 07:30:59 GMT 42.37523 -70.58766 39,000 58 547 0
2017-11-13 07:30:56 GMT 42.37120 -70.59636 39,000 58 547 0
2017-11-13 07:30:51 GMT 42.36346 -70.61313 39,000 58 547 0
2017-11-13 07:30:48 GMT 42.36131 -70.61781 39,000 58 547 0
2017-11-13 07:30:46 GMT 42.35839 -70.62421 39,000 58 547 0
2017-11-13 07:30:44 GMT 42.35569 -70.62995 39,000 58 547 0
2017-11-13 07:30:42 GMT 42.35197 -70.63807 39,000 58 547 0
2017-11-13 07:30:40 GMT 42.34932 -70.64388 39,000 58 547 0
2017-11-13 07:30:36 GMT 42.34529 -70.65258 39,000 58 547 0
2017-11-13 07:30:33 GMT 42.34182 -70.66010 39,000 58 547 0
2017-11-13 07:30:31 GMT 42.33833 -70.66768 39,000 58 547 0
2017-11-13 07:30:29 GMT 42.33433 -70.67633 39,000 58 548 0
2017-11-13 07:30:26 GMT 42.33163 -70.68214 39,000 58 548 0
2017-11-13 07:30:23 GMT 42.32683 -70.69261 39,000 58 548 0
2017-11-13 07:30:21 GMT 42.32469 -70.69728 39,000 58 548 0
2017-11-13 07:30:18 GMT 42.32016 -70.70713 39,000 58 548 0
2017-11-13 07:30:16 GMT 42.31691 -70.71406 39,000 58 548 0
2017-11-13 07:30:14 GMT 42.31454 -70.71931 39,000 58 548 -64
2017-11-13 07:30:11 GMT 42.31050 -70.72804 39,000 58 549 -64
2017-11-13 07:30:08 GMT 42.30624 -70.73735 39,000 58 549 -64
2017-11-13 07:30:06 GMT 42.30383 -70.74256 39,000 58 549 0
2017-11-13 07:30:02 GMT 42.30034 -70.75014 39,000 58 550 64
2017-11-13 07:30:00 GMT 42.29578 -70.76000 39,000 58 550 128
2017-11-13 07:29:57 GMT 42.29068 -70.77112 39,000 58 550 384
2017-11-13 07:29:55 GMT 42.29013 -70.77224 38,975 58 550 384
2017-11-13 07:29:50 GMT 42.28422 -70.78510 38,950 58 551 704
2017-11-13 07:29:48 GMT 42.28130 -70.79156 38,925 58 551 768
2017-11-13 07:29:46 GMT 42.27860 -70.79737 38,900 58 551 896
2017-11-13 07:29:44 GMT 42.27483 -70.80554 38,850 58 551 960
2017-11-13 07:29:42 GMT 42.27269 -70.81021 38,825 58 552 960
2017-11-13 07:29:40 GMT 42.27004 -70.81608 38,800 58 552 960
2017-11-13 07:29:38 GMT 42.26816 -70.82018 38,775 58 552 960
2017-11-13 07:29:35 GMT 42.26225 -70.83304 38,700 58 553 896
2017-11-13 07:29:31 GMT 42.25770 -70.84297 38,650 58 552 832
2017-11-13 07:29:29 GMT 42.25474 -70.84946 38,625 58 553 832
2017-11-13 07:29:26 GMT 42.25076 -70.85824 38,575 58 553 768
2017-11-13 07:29:24 GMT 42.24806 -70.86412 38,550 58 553 768
2017-11-13 07:29:22 GMT 42.24541 -70.86999 38,525 58 553 704
2017-11-13 07:29:20 GMT 42.24271 -70.87587 38,500 58 553 640
2017-11-13 07:29:18 GMT 42.23872 -70.88473 38,475 58 553 640
2017-11-13 07:29:15 GMT 42.23662 -70.88941 38,450 58 553 576
2017-11-13 07:29:13 GMT 42.23396 -70.89534 38,425 58 553 576
2017-11-13 07:29:10 GMT 42.22996 -70.90417 38,400 58 554 704
2017-11-13 07:29:08 GMT 42.22705 -70.91063 38,375 58 553 768
2017-11-13 07:29:04 GMT 42.22046 -70.92537 38,300 59 553 1088
2017-11-13 07:29:01 GMT 42.21729 -70.93246 38,250 59 553 1216
2017-11-13 07:28:58 GMT 42.21176 -70.94484 38,175 59 555 1280
2017-11-13 07:28:55 GMT 42.20911 -70.95077 38,125 59 555 1280
2017-11-13 07:28:53 GMT 42.20780 -70.95373 38,100 59 555 1344
2017-11-13 07:28:51 GMT 42.20494 -70.96026 38,050 59 556 1344
2017-11-13 07:28:49 GMT 42.20202 -70.96683 38,000 59 555 1344
2017-11-13 07:28:47 GMT 42.19968 -70.97218 37,975 59 556 1344
2017-11-13 07:28:44 GMT 42.19601 -70.98048 37,900 59 556 1408
2017-11-13 07:28:42 GMT 42.19262 -70.98829 37,850 59 557 1408
2017-11-13 07:28:40 GMT 42.19080 -70.99247 37,800 59 557 1408
2017-11-13 07:28:38 GMT 42.18874 -70.99721 37,775 59 557 1408
2017-11-13 07:28:36 GMT 42.18587 -71.00381 37,725 59 558 1408
2017-11-13 07:28:34 GMT 42.18146 -71.01406 37,650 60 560 1536
2017-11-13 07:28:32 GMT 42.17963 -71.01824 37,600 60 560 1536
2017-11-13 07:28:29 GMT 42.17498 -71.02910 37,500 60 560 1664
2017-11-13 07:28:26 GMT 42.17139 -71.03760 37,425 60 562 1664
2017-11-13 07:28:24 GMT 42.16883 -71.04367 37,375 60 562 1600
2017-11-13 07:28:22 GMT 42.16627 -71.04973 37,300 60 563 1536
2017-11-13 07:28:18 GMT 42.15990 -71.06500 37,200 60 564 1280
2017-11-13 07:28:16 GMT 42.15935 -71.06625 37,175 60 564 1280
2017-11-13 07:28:13 GMT 42.15532 -71.07605 37,100 61 564 1088
2017-11-13 07:28:11 GMT 42.15331 -71.08098 37,075 61 564 960
2017-11-13 07:28:09 GMT 42.15079 -71.08710 37,050 61 565 576
2017-11-13 07:28:07 GMT 42.14877 -71.09203 37,025 61 565 448
2017-11-13 07:28:04 GMT 42.14407 -71.10377 37,000 61 565 0
2017-11-13 07:28:02 GMT 42.14062 -71.11246 37,000 62 565 0
2017-11-13 07:28:00 GMT 42.13871 -71.11744 37,000 62 565 0
2017-11-13 07:27:58 GMT 42.13701 -71.12180 37,000 62 565 0
2017-11-13 07:27:56 GMT 42.13362 -71.13054 37,000 62 566 0
2017-11-13 07:27:53 GMT 42.13078 -71.13804 37,000 63 566 0
2017-11-13 07:27:51 GMT 42.12861 -71.14369 37,000 63 566 0
2017-11-13 07:27:47 GMT 42.12465 -71.15433 37,000 63 566 0
2017-11-13 07:27:45 GMT 42.12181 -71.16188 37,000 63 566 0
2017-11-13 07:27:43 GMT 42.11902 -71.16943 37,000 63 566 0
2017-11-13 07:27:41 GMT 42.11664 -71.17574 37,000 63 566 0
2017-11-13 07:27:39 GMT 42.11311 -71.18515 37,000 63 566 0
2017-11-13 07:27:36 GMT 42.11197 -71.18828 37,000 63 566 0
2017-11-13 07:27:32 GMT 42.10583 -71.20464 37,000 63 566 0
2017-11-13 07:27:29 GMT 42.10208 -71.21469 37,000 63 566 0
2017-11-13 07:27:27 GMT 42.10091 -71.21785 37,000 63 566 0
2017-11-13 07:27:25 GMT 42.09668 -71.22916 37,000 63 566 -64
2017-11-13 07:27:21 GMT 42.09311 -71.23860 37,000 63 566 -64
2017-11-13 07:27:19 GMT 42.09078 -71.24484 37,000 63 566 -64
2017-11-13 07:27:16 GMT 42.08794 -71.25239 37,000 63 566 0
2017-11-13 07:27:14 GMT 42.08510 -71.25995 37,000 63 566 0
2017-11-13 07:27:11 GMT 42.08180 -71.26875 37,000 63 566 0
2017-11-13 07:27:09 GMT 42.07896 -71.27624 37,000 63 566 0
2017-11-13 07:27:06 GMT 42.07663 -71.28254 37,000 63 566 0
2017-11-13 07:27:04 GMT 42.07191 -71.29509 37,000 63 566 0
2017-11-13 07:27:01 GMT 42.06884 -71.30325 37,000 63 566 0
2017-11-13 07:26:58 GMT 42.06720 -71.30764 37,000 63 566 0
2017-11-13 07:26:56 GMT 42.06340 -71.31769 37,000 63 566 -64
2017-11-13 07:26:54 GMT 42.06107 -71.32399 37,000 63 566 -64
2017-11-13 07:26:51 GMT 42.05823 -71.33154 37,000 63 566 -64
2017-11-13 07:26:49 GMT 42.05469 -71.34094 37,000 63 566 0
2017-11-13 07:26:49 GMT 42.05351 -71.34409 37,000 63 566 0
2017-11-13 07:26:45 GMT 42.04998 -71.35352 37,000 63 566 0
2017-11-13 07:26:42 GMT 42.04761 -71.35978 37,000 63 566 0
2017-11-13 07:26:40 GMT 42.04524 -71.36604 37,000 63 567 0
2017-11-13 07:26:38 GMT 42.04240 -71.37358 37,000 63 567 0
2017-11-13 07:26:36 GMT 42.03956 -71.38111 37,000 63 567 0
2017-11-13 07:26:33 GMT 42.03718 -71.38744 37,000 63 567 0
2017-11-13 07:26:31 GMT 42.03388 -71.39619 37,000 63 567 0
2017-11-13 07:26:29 GMT 42.03202 -71.40123 37,000 63 567 0
2017-11-13 07:26:27 GMT 42.03011 -71.40628 37,000 63 567 0
2017-11-13 07:26:25 GMT 42.02680 -71.41503 37,000 63 567 0
2017-11-13 07:26:23 GMT 42.02467 -71.42075 37,000 63 567 0
2017-11-13 07:26:20 GMT 42.02042 -71.43204 37,000 63 567 0
2017-11-13 07:26:18 GMT 42.01828 -71.43770 37,000 63 567 0
2017-11-13 07:26:16 GMT 42.01662 -71.44209 37,000 63 567 0
2017-11-13 07:26:14 GMT 42.01424 -71.44840 37,000 63 567 0
2017-11-13 07:26:11 GMT 42.01044 -71.45845 37,000 63 567 0
2017-11-13 07:26:09 GMT 42.00760 -71.46600 37,000 63 567 0
2017-11-13 07:26:07 GMT 42.00572 -71.47106 37,000 63 567 0
2017-11-13 07:26:04 GMT 42.00238 -71.47986 37,000 63 569 0
2017-11-13 07:26:00 GMT 41.99812 -71.49116 37,000 63 569 0
2017-11-13 07:25:58 GMT 41.99529 -71.49871 37,000 63 569 0
2017-11-13 07:25:56 GMT 41.99221 -71.50688 37,000 63 569 0
2017-11-13 07:25:54 GMT 41.98984 -71.51320 37,000 63 569 0
2017-11-13 07:25:51 GMT 41.98649 -71.52195 37,000 63 569 0
2017-11-13 07:25:49 GMT 41.98411 -71.52828 37,000 63 569 0
2017-11-13 07:25:47 GMT 41.98293 -71.53142 37,000 63 569 0
2017-11-13 07:25:45 GMT 41.98054 -71.53772 37,000 63 569 0
2017-11-13 07:25:43 GMT 41.97583 -71.55027 37,000 63 569 0
2017-11-13 07:25:40 GMT 41.97317 -71.55721 37,000 63 569 0
2017-11-13 07:25:38 GMT 41.97033 -71.56475 37,000 63 569 -64
2017-11-13 07:25:34 GMT 41.96652 -71.57484 37,000 63 568 0
2017-11-13 07:25:32 GMT 41.96414 -71.58110 37,000 63 568 0
2017-11-13 07:25:30 GMT 41.96228 -71.58615 37,000 63 568 0
2017-11-13 07:25:27 GMT 41.95871 -71.59553 37,000 63 568 0
2017-11-13 07:25:25 GMT 41.95628 -71.60183 37,000 63 568 0
2017-11-13 07:25:22 GMT 41.95320 -71.61004 37,000 63 568 0
2017-11-13 07:25:20 GMT 41.95036 -71.61757 37,000 63 568 0
2017-11-13 07:25:17 GMT 41.94676 -71.62699 37,000 63 568 0
2017-11-13 07:25:14 GMT 41.94226 -71.63891 37,000 63 568 0
2017-11-13 07:25:12 GMT 41.94031 -71.64395 37,000 62 569 0
2017-11-13 07:25:10 GMT 41.93770 -71.65084 37,000 63 568 0
2017-11-13 07:25:07 GMT 41.93481 -71.65839 37,000 62 569 0
2017-11-13 07:25:05 GMT 41.93147 -71.66719 37,000 62 569 0
2017-11-13 07:25:03 GMT 41.92909 -71.67343 37,000 62 569 0
2017-11-13 07:25:01 GMT 41.92767 -71.67724 37,000 62 569 0
2017-11-13 07:24:59 GMT 41.92575 -71.68223 37,000 62 569 0
2017-11-13 07:24:57 GMT 41.92117 -71.69416 37,000 62 569 0
2017-11-13 07:24:54 GMT 41.91927 -71.69921 37,000 62 569 0
2017-11-13 07:24:52 GMT 41.91664 -71.70608 37,000 62 569 0
2017-11-13 07:24:50 GMT 41.91330 -71.71488 37,000 62 569 0
2017-11-13 07:24:48 GMT 41.91184 -71.71869 37,000 62 569 0
2017-11-13 07:24:46 GMT 41.90968 -71.72431 37,000 62 569 0
2017-11-13 07:24:44 GMT 41.90730 -71.73063 37,000 62 569 0
2017-11-13 07:24:41 GMT 41.90251 -71.74315 37,000 62 570 0
2017-11-13 07:24:39 GMT 41.90153 -71.74571 37,000 62 570 0
2017-11-13 07:24:37 GMT 41.89746 -71.75633 37,000 62 570 0
2017-11-13 07:24:35 GMT 41.89673 -71.75822 37,000 62 570 0
2017-11-13 07:24:32 GMT 41.89220 -71.77019 37,000 62 570 0
2017-11-13 07:24:30 GMT 41.88982 -71.77649 37,000 62 570 -64
2017-11-13 07:24:28 GMT 41.88835 -71.78024 37,000 62 570 0
2017-11-13 07:24:26 GMT 41.88430 -71.79093 37,000 62 570 0
2017-11-13 07:24:23 GMT 41.88142 -71.79846 37,000 62 570 -64
2017-11-13 07:24:21 GMT 41.87974 -71.80283 37,000 62 570 -64
2017-11-13 07:24:18 GMT 41.87616 -71.81226 37,000 62 570 0
2017-11-13 07:24:15 GMT 41.87256 -71.82168 37,000 62 570 0
2017-11-13 07:24:12 GMT 41.86899 -71.83110 37,000 62 569 0
2017-11-13 07:24:09 GMT 41.86537 -71.84054 37,000 62 569 0
2017-11-13 07:24:07 GMT 41.86299 -71.84684 37,000 62 569 0
2017-11-13 07:24:05 GMT 41.86061 -71.85308 37,000 62 569 0
2017-11-13 07:24:03 GMT 41.85698 -71.86247 37,000 62 569 0
2017-11-13 07:24:01 GMT 41.85484 -71.86813 37,000 62 569 0
2017-11-13 07:23:59 GMT 41.85388 -71.87062 37,000 62 569 0
2017-11-13 07:23:57 GMT 41.85121 -71.87754 37,000 62 569 0
2017-11-13 07:23:54 GMT 41.84739 -71.88757 37,000 62 569 0
2017-11-13 07:23:52 GMT 41.84446 -71.89511 37,000 62 569 0
2017-11-13 07:23:50 GMT 41.84280 -71.89946 37,000 62 569 0
2017-11-13 07:23:47 GMT 41.83822 -71.91139 37,000 62 569 0
2017-11-13 07:23:44 GMT 41.83557 -71.91831 37,000 62 569 0
2017-11-13 07:23:41 GMT 41.83198 -71.92768 37,000 62 569 0
2017-11-13 07:23:39 GMT 41.83002 -71.93273 37,000 62 569 0
2017-11-13 07:23:36 GMT 41.82621 -71.94276 37,000 62 569 0
2017-11-13 07:23:34 GMT 41.82307 -71.95090 37,000 62 570 0
2017-11-13 07:23:32 GMT 41.81923 -71.96095 37,000 62 570 0
2017-11-13 07:23:30 GMT 41.81802 -71.96403 37,000 62 570 0
2017-11-13 07:23:27 GMT 41.81342 -71.97593 37,000 62 570 0
2017-11-13 07:23:25 GMT 41.81220 -71.97910 37,000 62 570 0
2017-11-13 07:23:23 GMT 41.81053 -71.98348 37,000 62 570 0
2017-11-13 07:23:21 GMT 41.80714 -71.99222 37,000 62 570 0
2017-11-13 07:23:19 GMT 41.80518 -71.99728 37,000 62 570 0
2017-11-13 07:23:16 GMT 41.80158 -72.00663 37,000 62 570 0
2017-11-13 07:23:14 GMT 41.79794 -72.01607 37,000 62 570 0
2017-11-13 07:23:12 GMT 41.79698 -72.01856 37,000 62 570 0
2017-11-13 07:23:10 GMT 41.79456 -72.02481 37,000 62 570 0
2017-11-13 07:23:08 GMT 41.79263 -72.02986 37,000 62 570 0
2017-11-13 07:23:06 GMT 41.78778 -72.04241 37,000 62 570 0
2017-11-13 07:23:03 GMT 41.78586 -72.04740 37,000 62 570 0
2017-11-13 07:23:01 GMT 41.78151 -72.05870 37,000 62 570 0
2017-11-13 07:22:58 GMT 41.77862 -72.06619 37,000 62 570 -64
2017-11-13 07:22:54 GMT 41.77377 -72.07874 37,000 62 570 -64
2017-11-13 07:22:52 GMT 41.77281 -72.08124 37,000 62 570 -64
2017-11-13 07:22:50 GMT 41.76897 -72.09122 37,000 62 570 -64
2017-11-13 07:22:47 GMT 41.76629 -72.09816 37,000 62 570 -64
2017-11-13 07:22:43 GMT 41.76027 -72.11376 37,000 62 570 -64
2017-11-13 07:22:40 GMT 41.75857 -72.11815 37,000 62 570 -64
2017-11-13 07:22:38 GMT 41.75542 -72.12631 37,000 62 569 0
2017-11-13 07:22:35 GMT 41.75084 -72.13815 37,000 62 569 0
2017-11-13 07:22:33 GMT 41.74795 -72.14568 37,000 62 569 0
2017-11-13 07:22:31 GMT 41.74698 -72.14817 37,000 62 569 0
2017-11-13 07:22:29 GMT 41.74333 -72.15752 37,000 62 569 0
2017-11-13 07:22:27 GMT 41.74287 -72.15877 37,000 62 569 0
2017-11-13 07:22:25 GMT 41.74023 -72.16568 37,000 62 569 0
2017-11-13 07:22:23 GMT 41.73610 -72.17631 37,000 62 569 0
2017-11-13 07:22:21 GMT 41.73514 -72.17880 37,000 62 569 0
2017-11-13 07:22:17 GMT 41.73029 -72.19129 37,000 62 569 0
2017-11-13 07:22:15 GMT 41.72690 -72.20003 37,000 62 569 0
2017-11-13 07:22:12 GMT 41.72259 -72.21126 37,000 62 569 0
2017-11-13 07:22:10 GMT 41.72184 -72.21313 37,000 62 569 -64
2017-11-13 07:22:08 GMT 41.71774 -72.22375 37,000 62 569 -64
2017-11-13 07:22:05 GMT 41.71653 -72.22687 37,000 62 569 -64
2017-11-13 07:22:02 GMT 41.71122 -72.24060 37,000 62 569 -64
2017-11-13 07:22:00 GMT 41.70931 -72.24558 37,000 62 568 -64
2017-11-13 07:21:58 GMT 41.70667 -72.25246 37,000 62 568 -64
2017-11-13 07:21:56 GMT 41.70424 -72.25870 37,000 62 569 0
2017-11-13 07:21:52 GMT 41.69893 -72.27244 37,000 62 569 0
2017-11-13 07:21:49 GMT 41.69679 -72.27803 37,000 62 568 0
2017-11-13 07:21:47 GMT 41.69463 -72.28367 37,000 62 568 0
2017-11-13 07:21:45 GMT 41.69149 -72.29176 37,000 62 568 0
2017-11-13 07:21:40 GMT 41.68376 -72.31169 37,000 62 568 0
2017-11-13 07:21:38 GMT 41.68180 -72.31668 37,000 62 568 0
2017-11-13 07:21:35 GMT 41.67961 -72.32231 37,000 62 568 0
2017-11-13 07:21:31 GMT 41.67384 -72.33723 37,000 62 568 0
2017-11-13 07:21:29 GMT 41.67334 -72.33848 37,000 62 568 0
2017-11-13 07:21:27 GMT 41.66945 -72.34840 37,000 62 568 0
2017-11-13 07:21:24 GMT 41.66537 -72.35902 37,000 62 568 0
2017-11-13 07:21:22 GMT 41.66295 -72.36522 37,000 62 568 0
2017-11-13 07:21:20 GMT 41.66125 -72.36956 37,000 62 568 0
2017-11-13 07:21:18 GMT 41.65933 -72.37456 37,000 62 568 0
2017-11-13 07:21:16 GMT 41.65691 -72.38080 37,000 62 568 0
2017-11-13 07:21:14 GMT 41.65373 -72.38885 37,000 62 568 0
2017-11-13 07:21:11 GMT 41.65109 -72.39572 37,000 62 568 0
2017-11-13 07:21:09 GMT 41.64889 -72.40131 37,000 62 568 0
2017-11-13 07:21:07 GMT 41.64478 -72.41189 37,000 62 568 0
2017-11-13 07:21:04 GMT 41.64285 -72.41688 37,000 62 568 0
2017-11-13 07:21:01 GMT 41.63823 -72.42865 37,000 62 568 0
2017-11-13 07:20:59 GMT 41.63632 -72.43363 37,000 62 568 0
2017-11-13 07:20:57 GMT 41.63195 -72.44481 37,000 62 568 0
2017-11-13 07:20:55 GMT 41.63123 -72.44672 37,000 62 568 0
2017-11-13 07:20:53 GMT 41.62953 -72.45106 37,000 62 568 0
2017-11-13 07:20:51 GMT 41.62587 -72.46039 37,000 62 568 0
2017-11-13 07:20:48 GMT 41.62175 -72.47093 37,000 62 568 0
2017-11-13 07:20:46 GMT 41.62006 -72.47531 37,000 62 568 0
2017-11-13 07:20:44 GMT 41.61763 -72.48149 37,000 62 568 0
2017-11-13 07:20:39 GMT 41.61156 -72.49699 37,000 62 568 0
2017-11-13 07:20:37 GMT 41.60909 -72.50325 37,000 62 568 0
2017-11-13 07:20:34 GMT 41.60425 -72.51564 37,000 62 568 0
2017-11-13 07:20:34 GMT 41.60500 -72.51376 37,000 62 568 0
2017-11-13 07:20:32 GMT 41.60378 -72.51686 37,000 62 567 0
2017-11-13 07:20:30 GMT 41.60060 -72.52493 37,000 62 567 0
2017-11-13 07:20:28 GMT 41.59817 -72.53111 37,000 62 567 0
2017-11-13 07:20:26 GMT 41.59647 -72.53551 37,000 62 567 0
2017-11-13 07:20:24 GMT 41.59256 -72.54541 37,000 62 567 0
2017-11-13 07:20:22 GMT 41.59065 -72.55033 37,000 62 567 0
2017-11-13 07:20:21 GMT 41.58746 -72.55839 37,000 62 567 0
2017-11-13 07:20:19 GMT 41.58628 -72.56150 37,000 62 567 -64
2017-11-13 07:20:17 GMT 41.58577 -72.56278 37,000 62 567 0
2017-11-13 07:20:15 GMT 41.58088 -72.57517 37,000 62 567 -64
2017-11-13 07:20:13 GMT 41.57897 -72.58009 37,000 62 567 0
2017-11-13 07:20:11 GMT 41.57675 -72.58567 37,000 62 567 0
2017-11-13 07:20:08 GMT 41.57433 -72.59185 37,000 62 567 -64
2017-11-13 07:20:06 GMT 41.57166 -72.59868 37,000 62 567 0
2017-11-13 07:20:04 GMT 41.56677 -72.61107 37,000 62 567 0
2017-11-13 07:20:02 GMT 41.56677 -72.61107 37,000 62 568 0
2017-11-13 07:19:58 GMT 41.56188 -72.62346 37,000 62 567 0
2017-11-13 07:19:56 GMT 41.55900 -72.63087 37,000 62 567 0
2017-11-13 07:19:55 GMT 41.55776 -72.63399 37,000 62 568 0
2017-11-13 07:19:53 GMT 41.55483 -72.64141 37,000 62 568 0
2017-11-13 07:19:51 GMT 41.55262 -72.64697 37,000 62 568 0
2017-11-13 07:19:49 GMT 41.55144 -72.65003 37,000 62 568 0
2017-11-13 07:19:48 GMT 41.54825 -72.65808 37,000 62 568 0
2017-11-13 07:19:47 GMT 41.54778 -72.65936 37,000 62 568 0
2017-11-13 07:19:44 GMT 41.54531 -72.66549 37,000 62 568 0
2017-11-13 07:19:42 GMT 41.54068 -72.67724 37,000 62 568 0
2017-11-13 07:19:39 GMT 41.53825 -72.68342 37,000 62 568 0
2017-11-13 07:19:37 GMT 41.53583 -72.68960 37,000 62 568 0
2017-11-13 07:19:35 GMT 41.53336 -72.69585 37,000 62 568 0
2017-11-13 07:19:33 GMT 41.53214 -72.69890 37,000 62 568 0
2017-11-13 07:19:31 GMT 41.52925 -72.70631 37,000 62 568 0
2017-11-13 07:19:29 GMT 41.52654 -72.71314 37,000 62 568 0
2017-11-13 07:19:27 GMT 41.52411 -72.71932 37,000 62 568 0
2017-11-13 07:19:25 GMT 41.52092 -72.72738 37,000 62 568 0
2017-11-13 07:19:22 GMT 41.51729 -72.73667 37,000 62 568 0
2017-11-13 07:19:20 GMT 41.51603 -72.73971 37,000 62 568 0
2017-11-13 07:19:17 GMT 41.51068 -72.75332 37,000 62 568 0
2017-11-13 07:19:14 GMT 41.50774 -72.76079 37,000 62 568 0
2017-11-13 07:19:12 GMT 41.50507 -72.76757 37,000 62 568 0
2017-11-13 07:19:10 GMT 41.50360 -72.77132 37,000 62 568 0
2017-11-13 07:19:07 GMT 41.49946 -72.78181 37,000 62 568 0
2017-11-13 07:19:07 GMT 41.49946 -72.78181 37,000 62 568 0
2017-11-13 07:19:05 GMT 41.49699 -72.78800 37,000 62 568 0
2017-11-13 07:19:03 GMT 41.49481 -72.79354 37,000 62 568 0
2017-11-13 07:19:01 GMT 41.49061 -72.80410 37,000 62 568 0
2017-11-13 07:18:59 GMT 41.49061 -72.80410 37,000 62 568 0
2017-11-13 07:18:56 GMT 41.48648 -72.81457 37,000 62 568 0
2017-11-13 07:18:54 GMT 41.48233 -72.82511 37,000 62 568 0
2017-11-13 07:18:52 GMT 41.48084 -72.82882 37,000 62 568 0
2017-11-13 07:18:49 GMT 41.47669 -72.83935 37,000 62 568 0
2017-11-13 07:18:46 GMT 41.47399 -72.84613 37,000 62 568 0
2017-11-13 07:18:44 GMT 41.47229 -72.85047 37,000 62 568 0
2017-11-13 07:18:41 GMT 41.46790 -72.86158 37,000 62 568 0
2017-11-13 07:18:39 GMT 41.46520 -72.86842 37,000 62 568 0
2017-11-13 07:18:37 GMT 41.46199 -72.87643 37,000 62 568 0
2017-11-13 07:18:35 GMT 41.45952 -72.88261 37,000 62 568 0
2017-11-13 07:18:32 GMT 41.45659 -72.89004 37,000 62 568 0
2017-11-13 07:18:29 GMT 41.45291 -72.89933 37,000 62 568 0
2017-11-13 07:18:25 GMT 41.44848 -72.91045 37,000 62 568 0
2017-11-13 07:18:22 GMT 41.44360 -72.92284 37,000 62 568 0
2017-11-13 07:18:20 GMT 41.44139 -72.92843 37,000 62 568 0
2017-11-13 07:18:18 GMT 41.43968 -72.93274 37,000 62 569 0
2017-11-13 07:18:16 GMT 41.43722 -72.93894 37,000 62 569 0
2017-11-13 07:18:14 GMT 41.43498 -72.94447 37,000 62 569 0
2017-11-13 07:18:12 GMT 41.43109 -72.95440 37,000 62 569 0
2017-11-13 07:18:10 GMT 41.42786 -72.96244 37,000 62 569 0
2017-11-13 07:18:08 GMT 41.42739 -72.96365 37,000 62 569 0
2017-11-13 07:18:05 GMT 41.42271 -72.97544 37,000 62 569 0
2017-11-13 07:18:01 GMT 41.41902 -72.98473 37,000 62 569 0
2017-11-13 07:17:59 GMT 41.41484 -72.99522 37,000 62 569 0
2017-11-13 07:17:57 GMT 41.41388 -72.99772 37,000 62 569 0
2017-11-13 07:17:54 GMT 41.41017 -73.00702 37,000 62 569 0
2017-11-13 07:17:51 GMT 41.40477 -73.02063 37,000 62 570 -64
2017-11-13 07:17:49 GMT 41.40399 -73.02250 37,000 62 570 -64
2017-11-13 07:17:47 GMT 41.40157 -73.02868 37,000 62 570 -64
2017-11-13 07:17:45 GMT 41.39859 -73.03611 37,000 62 570 0
2017-11-13 07:17:43 GMT 41.39686 -73.04043 37,000 62 570 0
2017-11-13 07:17:40 GMT 41.39192 -73.05282 37,000 62 570 0
2017-11-13 07:17:38 GMT 41.38945 -73.05902 37,000 62 570 0
2017-11-13 07:17:36 GMT 41.38820 -73.06208 37,000 62 570 0
2017-11-13 07:17:34 GMT 41.38452 -73.07138 37,000 62 570 0
2017-11-13 07:17:31 GMT 41.38083 -73.08063 37,000 62 570 0
2017-11-13 07:17:29 GMT 41.37982 -73.08313 37,000 62 570 0
2017-11-13 07:17:27 GMT 41.37685 -73.09058 37,000 62 570 0
2017-11-13 07:17:25 GMT 41.37241 -73.10169 37,000 61 570 0
2017-11-13 07:17:23 GMT 41.37190 -73.10291 37,000 61 570 0
2017-11-13 07:17:20 GMT 41.36746 -73.11407 37,000 61 570 0
2017-11-13 07:17:18 GMT 41.36571 -73.11838 37,000 61 570 0
2017-11-13 07:17:16 GMT 41.36176 -73.12831 37,000 61 570 0
2017-11-13 07:17:14 GMT 41.36000 -73.13263 37,000 61 570 0
2017-11-13 07:17:12 GMT 41.35904 -73.13513 37,000 62 571 0
2017-11-13 07:17:08 GMT 41.35309 -73.14996 37,000 62 571 -64
2017-11-13 07:17:06 GMT 41.35133 -73.15434 37,000 62 571 0
2017-11-13 07:17:04 GMT 41.34737 -73.16420 37,000 62 571 -64
2017-11-13 07:17:02 GMT 41.34567 -73.16858 37,000 62 571 -64
2017-11-13 07:17:00 GMT 41.34219 -73.17725 37,000 62 571 -64
2017-11-13 07:16:58 GMT 41.33899 -73.18530 37,000 62 571 -64
2017-11-13 07:16:56 GMT 41.33750 -73.18898 37,000 62 571 -64
2017-11-13 07:16:54 GMT 41.33427 -73.19708 37,000 62 571 -64
2017-11-13 07:16:52 GMT 41.33308 -73.20016 37,000 62 571 -64
2017-11-13 07:16:49 GMT 41.32983 -73.20819 37,000 62 570 0
2017-11-13 07:16:47 GMT 41.32736 -73.21442 37,000 62 570 -64
2017-11-13 07:16:45 GMT 41.32563 -73.21870 37,000 62 570 0
2017-11-13 07:16:43 GMT 41.32070 -73.23112 37,000 61 570 0
2017-11-13 07:16:40 GMT 41.31949 -73.23419 37,000 61 570 0
2017-11-13 07:16:38 GMT 41.31651 -73.24158 37,000 61 570 -64
2017-11-13 07:16:36 GMT 41.31354 -73.24902 37,000 61 569 -64
2017-11-13 07:16:34 GMT 41.31102 -73.25519 37,000 61 569 0
2017-11-13 07:16:32 GMT 41.30831 -73.26196 37,000 61 569 0
2017-11-13 07:16:30 GMT 41.30708 -73.26502 37,000 61 569 0
2017-11-13 07:16:28 GMT 41.30333 -73.27431 37,000 61 569 0
2017-11-13 07:16:26 GMT 41.30159 -73.27863 37,000 61 569 0
2017-11-13 07:16:24 GMT 41.29861 -73.28601 37,000 61 569 0
2017-11-13 07:16:22 GMT 41.29564 -73.29340 37,000 61 569 0
2017-11-13 07:16:20 GMT 41.29440 -73.29647 37,000 61 569 0
2017-11-13 07:16:17 GMT 41.29019 -73.30695 37,000 61 569 0
2017-11-13 07:16:14 GMT 41.28374 -73.32300 37,000 61 569 0
2017-11-13 07:16:12 GMT 41.28299 -73.32488 37,000 61 569 0
2017-11-13 07:16:10 GMT 41.28177 -73.32794 37,000 61 569 0
2017-11-13 07:16:06 GMT 41.27605 -73.34211 37,000 61 569 0
2017-11-13 07:16:03 GMT 41.27284 -73.35016 37,000 61 569 0
2017-11-13 07:16:00 GMT 41.26912 -73.35940 37,000 61 570 0
2017-11-13 07:15:56 GMT 41.26316 -73.37419 37,000 61 570 0
2017-11-13 07:15:54 GMT 41.26190 -73.37726 37,000 61 570 0
2017-11-13 07:15:51 GMT 41.25720 -73.38898 37,000 61 570 0
2017-11-13 07:15:49 GMT 41.25545 -73.39331 37,000 61 570 0
2017-11-13 07:15:45 GMT 41.24995 -73.40686 37,000 61 571 0
2017-11-13 07:15:43 GMT 41.24626 -73.41614 37,000 61 571 0
2017-11-13 07:15:41 GMT 41.24400 -73.42169 37,000 61 571 0
2017-11-13 07:15:39 GMT 41.24277 -73.42475 37,000 61 571 0
2017-11-13 07:15:37 GMT 41.23928 -73.43343 37,000 61 571 0
2017-11-13 07:15:34 GMT 41.23705 -73.43896 37,000 61 571 0
2017-11-13 07:15:32 GMT 41.23503 -73.44391 37,000 61 571 0
2017-11-13 07:15:30 GMT 41.23178 -73.45197 37,000 61 571 0
2017-11-13 07:15:28 GMT 41.22983 -73.45690 37,000 61 571 0
2017-11-13 07:15:26 GMT 41.22582 -73.46676 37,000 61 571 0
2017-11-13 07:15:24 GMT 41.22336 -73.47294 37,000 61 571 0
2017-11-13 07:15:21 GMT 41.21884 -73.48405 37,000 61 571 0
2017-11-13 07:15:19 GMT 41.21764 -73.48712 37,000 61 571 0
2017-11-13 07:15:17 GMT 41.21562 -73.49206 37,000 61 571 0
2017-11-13 07:15:14 GMT 41.20739 -73.51246 37,000 61 571 0
2017-11-13 07:15:12 GMT 41.20739 -73.51246 37,000 61 571 0
2017-11-13 07:15:10 GMT 41.20539 -73.51739 37,000 61 571 0
2017-11-13 07:15:07 GMT 41.20390 -73.52107 37,000 61 571 0
2017-11-13 07:15:05 GMT 41.20065 -73.52911 37,000 61 571 0
2017-11-13 07:15:05 GMT 41.20065 -73.52911 37,000 61 571 0
2017-11-13 07:15:03 GMT 41.19768 -73.53650 37,000 61 571 0
2017-11-13 07:15:01 GMT 41.19640 -73.53961 37,000 61 571 0
2017-11-13 07:14:59 GMT 41.19291 -73.54822 37,000 61 571 0
2017-11-13 07:14:57 GMT 41.19091 -73.55322 37,000 61 571 0
2017-11-13 07:14:55 GMT 41.18916 -73.55750 37,000 61 571 0
2017-11-13 07:14:53 GMT 41.18619 -73.56494 37,000 61 572 0
2017-11-13 07:14:51 GMT 41.18367 -73.57111 37,000 61 572 0
2017-11-13 07:14:49 GMT 41.18015 -73.57971 37,000 61 572 0
2017-11-13 07:14:47 GMT 41.17792 -73.58530 37,000 61 572 0
2017-11-13 07:14:44 GMT 41.17415 -73.59454 37,000 61 572 0
2017-11-13 07:14:42 GMT 41.17163 -73.60071 37,000 61 572 0
2017-11-13 07:14:40 GMT 41.16740 -73.61121 37,000 61 572 0
2017-11-13 07:14:38 GMT 41.16614 -73.61426 37,000 61 572 0
2017-11-13 07:14:36 GMT 41.16437 -73.61864 37,000 61 572 0
2017-11-13 07:14:34 GMT 41.16088 -73.62725 37,000 61 572 -64
2017-11-13 07:14:31 GMT 41.15863 -73.63281 37,000 61 572 0
2017-11-13 07:14:29 GMT 41.15385 -73.64454 37,000 61 572 0
2017-11-13 07:14:29 GMT 41.15460 -73.64264 37,000 61 572 0
2017-11-13 07:14:27 GMT 41.15259 -73.64758 37,000 61 572 0
2017-11-13 07:14:25 GMT 41.15108 -73.65131 37,000 61 572 0
2017-11-13 07:14:23 GMT 41.14780 -73.65927 37,000 61 572 0
2017-11-13 07:14:21 GMT 41.14529 -73.66545 37,000 61 572 0
2017-11-13 07:14:18 GMT 41.14105 -73.67596 37,000 61 572 0
2017-11-13 07:14:18 GMT 41.14156 -73.67468 37,000 61 572 0
2017-11-13 07:14:16 GMT 41.13979 -73.67900 37,000 61 572 0
2017-11-13 07:14:14 GMT 41.13551 -73.68951 37,000 61 572 0
2017-11-13 07:14:11 GMT 41.13148 -73.69934 37,000 61 572 0
2017-11-13 07:14:09 GMT 41.13021 -73.70241 37,000 61 572 0
2017-11-13 07:14:07 GMT 41.12820 -73.70734 37,000 61 572 0
2017-11-13 07:14:05 GMT 41.12569 -73.71352 37,000 61 572 0
2017-11-13 07:14:03 GMT 41.12113 -73.72457 37,000 61 573 0
2017-11-13 07:14:01 GMT 41.11986 -73.72766 37,000 61 573 0
2017-11-13 07:13:59 GMT 41.11610 -73.73693 37,000 61 573 0
2017-11-13 07:13:57 GMT 41.11432 -73.74121 37,000 61 573 0
2017-11-13 07:13:54 GMT 41.11079 -73.74982 37,000 61 572 0
2017-11-13 07:13:52 GMT 41.10800 -73.75659 37,000 61 572 0
2017-11-13 07:13:50 GMT 41.10677 -73.75970 37,000 61 572 0
2017-11-13 07:13:47 GMT 41.10274 -73.76953 37,000 61 572 0
2017-11-13 07:13:44 GMT 41.09846 -73.78006 37,000 61 573 0
2017-11-13 07:13:42 GMT 41.09594 -73.78618 37,000 61 573 0
2017-11-13 07:13:40 GMT 41.09418 -73.79053 37,000 61 573 0
2017-11-13 07:13:38 GMT 41.09040 -73.79978 37,000 61 573 -64
2017-11-13 07:13:36 GMT 41.08784 -73.80597 37,000 61 573 0
2017-11-13 07:13:34 GMT 41.08584 -73.81090 37,000 61 573 0
2017-11-13 07:13:31 GMT 41.08205 -73.82013 37,000 61 573 0
2017-11-13 07:13:29 GMT 41.07953 -73.82629 37,000 61 574 0
2017-11-13 07:13:27 GMT 41.07600 -73.83496 37,000 61 574 0
2017-11-13 07:13:24 GMT 41.07399 -73.83991 37,000 61 574 0
2017-11-13 07:13:22 GMT 41.07198 -73.84479 37,000 61 574 0
2017-11-13 07:13:20 GMT 41.06717 -73.85653 37,000 61 573 0
2017-11-13 07:13:17 GMT 41.06466 -73.86271 37,000 61 573 0
2017-11-13 07:13:15 GMT 41.06210 -73.86882 37,000 61 573 0
2017-11-13 07:13:13 GMT 41.06035 -73.87317 37,000 61 573 0
2017-11-13 07:13:11 GMT 41.05754 -73.87994 37,000 61 573 0
2017-11-13 07:13:09 GMT 41.05476 -73.88672 37,000 61 573 0
2017-11-13 07:13:07 GMT 41.05069 -73.89655 37,000 61 573 0
2017-11-13 07:13:05 GMT 41.04918 -73.90027 37,000 61 573 0
2017-11-13 07:13:03 GMT 41.04716 -73.90515 37,000 61 573 0
2017-11-13 07:13:00 GMT 41.04259 -73.91626 37,000 61 573 0
2017-11-13 07:12:58 GMT 41.03957 -73.92364 37,000 61 573 0
2017-11-13 07:12:56 GMT 41.03729 -73.92919 37,000 61 573 -64
2017-11-13 07:12:54 GMT 41.03549 -73.93347 37,000 61 573 -64
2017-11-13 07:12:52 GMT 41.03348 -73.93842 37,000 61 573 -64
2017-11-13 07:12:50 GMT 41.03068 -73.94523 37,000 61 574 -64
2017-11-13 07:12:48 GMT 41.02840 -73.95074 37,000 61 574 -64
2017-11-13 07:12:46 GMT 41.02437 -73.96063 37,000 61 574 -64
2017-11-13 07:12:44 GMT 41.02258 -73.96489 37,000 61 574 -64
2017-11-13 07:12:42 GMT 41.02057 -73.96985 37,000 61 573 0
2017-11-13 07:12:39 GMT 41.01601 -73.98094 37,000 61 573 0
2017-11-13 07:12:36 GMT 41.01247 -73.98956 37,000 61 573 0
2017-11-13 07:12:34 GMT 41.00917 -73.99756 37,000 61 573 0
2017-11-13 07:12:31 GMT 41.00740 -74.00185 37,000 61 573 0
2017-11-13 07:12:29 GMT 41.00386 -74.01046 37,000 61 573 0
2017-11-13 07:12:27 GMT 41.00032 -74.01908 37,000 61 573 0
2017-11-13 07:12:25 GMT 40.99856 -74.02338 37,000 61 573 0
2017-11-13 07:12:23 GMT 40.99727 -74.02643 37,000 61 573 0
2017-11-13 07:12:21 GMT 40.99425 -74.03381 37,000 61 573 0
2017-11-13 07:12:19 GMT 40.98994 -74.04425 37,000 61 572 0
2017-11-13 07:12:17 GMT 40.98843 -74.04797 37,000 61 572 0
2017-11-13 07:12:14 GMT 40.98589 -74.05409 37,000 61 572 0
2017-11-13 07:12:12 GMT 40.98312 -74.06085 37,000 61 572 -64
2017-11-13 07:12:09 GMT 40.97905 -74.07068 37,000 61 572 0
2017-11-13 07:12:07 GMT 40.97598 -74.07806 37,000 61 572 0
2017-11-13 07:12:04 GMT 40.97272 -74.08605 37,000 61 572 -64
2017-11-13 07:12:02 GMT 40.97016 -74.09217 37,000 61 572 -64
2017-11-13 07:12:00 GMT 40.96637 -74.10138 37,000 61 572 -64
2017-11-13 07:11:58 GMT 40.96381 -74.10754 37,000 61 572 -64
2017-11-13 07:11:55 GMT 40.95927 -74.11859 37,000 61 572 -64
2017-11-13 07:11:53 GMT 40.95927 -74.11859 37,000 61 572 -64
2017-11-13 07:11:51 GMT 40.95570 -74.12714 37,000 61 572 0
2017-11-13 07:11:49 GMT 40.95264 -74.13452 37,000 61 572 0
2017-11-13 07:11:47 GMT 40.95062 -74.13940 37,000 61 573 0
2017-11-13 07:11:45 GMT 40.94684 -74.14866 37,000 61 573 0
2017-11-13 07:11:43 GMT 40.94604 -74.15045 37,000 61 573 0
2017-11-13 07:11:41 GMT 40.94376 -74.15597 37,000 61 573 0
2017-11-13 07:11:39 GMT 40.94224 -74.15967 37,000 61 573 0
2017-11-13 07:11:37 GMT 40.93664 -74.17313 37,000 61 573 0
2017-11-13 07:11:34 GMT 40.93362 -74.18050 37,000 61 573 0
2017-11-13 07:11:32 GMT 40.93259 -74.18298 37,000 61 573 0
2017-11-13 07:11:30 GMT 40.92773 -74.19464 37,000 61 573 0
2017-11-13 07:11:28 GMT 40.92572 -74.19952 37,000 61 573 0
2017-11-13 07:11:26 GMT 40.92444 -74.20260 37,000 61 573 0
2017-11-13 07:11:24 GMT 40.92137 -74.20996 37,000 61 573 0
2017-11-13 07:11:22 GMT 40.91963 -74.21423 37,000 61 573 0
2017-11-13 07:11:20 GMT 40.91579 -74.22345 37,000 61 573 0
2017-11-13 07:11:18 GMT 40.91299 -74.23016 37,000 61 573 0
2017-11-13 07:11:16 GMT 40.91122 -74.23443 37,000 61 573 0
2017-11-13 07:11:13 GMT 40.90662 -74.24548 37,000 61 573 0
2017-11-13 07:11:11 GMT 40.90535 -74.24854 37,000 61 573 0
2017-11-13 07:11:08 GMT 40.89876 -74.26447 37,000 61 573 0
2017-11-13 07:11:06 GMT 40.89744 -74.26758 37,000 61 573 0
2017-11-13 07:11:03 GMT 40.89464 -74.27429 37,000 61 573 0
2017-11-13 07:11:01 GMT 40.89212 -74.28046 37,000 61 573 0
2017-11-13 07:10:59 GMT 40.88956 -74.28656 37,000 61 574 0
2017-11-13 07:10:56 GMT 40.88649 -74.29394 37,000 61 574 -64
2017-11-13 07:10:54 GMT 40.88474 -74.29823 37,000 61 574 -64
2017-11-13 07:10:52 GMT 40.88013 -74.30928 37,000 61 574 0
2017-11-13 07:10:50 GMT 40.87839 -74.31360 37,000 61 574 0
2017-11-13 07:10:48 GMT 40.87380 -74.32463 37,000 61 574 0
2017-11-13 07:10:46 GMT 40.87328 -74.32582 37,000 61 574 0
2017-11-13 07:10:44 GMT 40.87024 -74.33319 37,000 61 574 0
2017-11-13 07:10:42 GMT 40.86768 -74.33935 37,000 61 574 0
2017-11-13 07:10:40 GMT 40.86537 -74.34486 37,000 61 574 0
2017-11-13 07:10:37 GMT 40.86234 -74.35222 37,000 61 573 0
2017-11-13 07:10:35 GMT 40.86030 -74.35715 37,000 61 573 0
2017-11-13 07:10:32 GMT 40.85494 -74.37001 37,000 61 573 0
2017-11-13 07:10:30 GMT 40.85289 -74.37494 37,000 61 573 0
2017-11-13 07:10:28 GMT 40.85061 -74.38044 37,000 61 573 0
2017-11-13 07:10:25 GMT 40.84730 -74.38837 37,000 61 573 0
2017-11-13 07:10:23 GMT 40.84298 -74.39879 37,000 61 573 0
2017-11-13 07:10:20 GMT 40.83916 -74.40802 37,000 61 573 0
2017-11-13 07:10:17 GMT 40.83408 -74.42023 37,000 61 573 0
2017-11-13 07:10:15 GMT 40.83408 -74.42023 37,000 61 573 0
2017-11-13 07:10:13 GMT 40.83227 -74.42451 37,000 61 573 0
2017-11-13 07:10:11 GMT 40.82771 -74.43556 37,000 61 573 0
2017-11-13 07:10:09 GMT 40.82487 -74.44226 37,000 61 573 0
2017-11-13 07:10:07 GMT 40.82437 -74.44348 37,000 61 573 0
2017-11-13 07:10:05 GMT 40.82080 -74.45209 37,000 61 573 0
2017-11-13 07:10:03 GMT 40.81773 -74.45941 37,000 61 572 0
2017-11-13 07:10:01 GMT 40.81522 -74.46551 37,000 61 572 0
2017-11-13 07:09:59 GMT 40.81265 -74.47162 37,000 61 572 0
2017-11-13 07:09:57 GMT 40.81086 -74.47594 37,000 61 572 0
2017-11-13 07:09:55 GMT 40.80702 -74.48511 37,000 61 573 0
2017-11-13 07:09:53 GMT 40.80652 -74.48633 37,000 61 573 0
2017-11-13 07:09:51 GMT 40.80266 -74.49548 37,000 61 573 0
2017-11-13 07:09:49 GMT 40.79883 -74.50464 37,000 61 573 0
2017-11-13 07:09:47 GMT 40.79805 -74.50647 37,000 61 573 0
2017-11-13 07:09:44 GMT 40.79396 -74.51621 37,000 61 573 0
2017-11-13 07:09:42 GMT 40.79140 -74.52232 37,000 61 573 0
2017-11-13 07:09:40 GMT 40.78935 -74.52719 37,000 61 573 0
2017-11-13 07:09:38 GMT 40.78679 -74.53331 37,000 61 573 0
2017-11-13 07:09:36 GMT 40.78445 -74.53882 37,000 61 573 0
2017-11-13 07:09:34 GMT 40.78060 -74.54798 37,000 61 573 0
2017-11-13 07:09:32 GMT 40.77983 -74.54981 37,000 61 573 64
2017-11-13 07:09:30 GMT 40.77727 -74.55591 37,000 61 573 64
2017-11-13 07:09:28 GMT 40.77370 -74.56445 37,000 61 573 0
2017-11-13 07:09:26 GMT 40.77109 -74.57056 37,000 61 573 0
2017-11-13 07:09:24 GMT 40.76802 -74.57794 37,000 61 574 0
2017-11-13 07:09:22 GMT 40.76416 -74.58706 37,000 61 574 0
2017-11-13 07:09:20 GMT 40.76239 -74.59137 37,000 61 574 0
2017-11-13 07:09:17 GMT 40.76033 -74.59625 37,000 61 574 0
2017-11-13 07:09:15 GMT 40.75648 -74.60541 37,000 61 574 0
2017-11-13 07:09:13 GMT 40.75465 -74.60968 37,000 61 574 0
2017-11-13 07:09:11 GMT 40.75132 -74.61764 37,000 61 573 0
2017-11-13 07:09:09 GMT 40.74927 -74.62251 37,000 61 573 0
2017-11-13 07:09:07 GMT 40.74490 -74.63294 37,000 61 573 -64
2017-11-13 07:09:03 GMT 40.74078 -74.64270 37,000 61 573 0
2017-11-13 07:09:01 GMT 40.73978 -74.64514 37,000 61 573 0
2017-11-13 07:08:59 GMT 40.73591 -74.65428 37,000 61 573 0
2017-11-13 07:08:57 GMT 40.73305 -74.66101 37,000 60 574 0
2017-11-13 07:08:55 GMT 40.73099 -74.66589 37,000 60 574 0
2017-11-13 07:08:53 GMT 40.72792 -74.67322 37,000 61 573 0
2017-11-13 07:08:51 GMT 40.72664 -74.67626 37,000 61 573 0
2017-11-13 07:08:49 GMT 40.72250 -74.68606 37,000 61 573 0
2017-11-13 07:08:46 GMT 40.71840 -74.69580 37,000 61 573 0
2017-11-13 07:08:44 GMT 40.71762 -74.69763 37,000 61 573 0
2017-11-13 07:08:42 GMT 40.71401 -74.70618 37,000 61 573 0
2017-11-13 07:08:40 GMT 40.71068 -74.71408 37,000 60 574 0
2017-11-13 07:08:38 GMT 40.70938 -74.71716 37,000 60 574 0
2017-11-13 07:08:37 GMT 40.70682 -74.72327 37,000 60 574 0
2017-11-13 07:08:35 GMT 40.70500 -74.72751 37,000 60 574 0
2017-11-13 07:08:33 GMT 40.70346 -74.73119 37,000 60 574 0
2017-11-13 07:08:31 GMT 40.70009 -74.73914 37,000 60 574 0
2017-11-13 07:08:29 GMT 40.69752 -74.74524 37,000 60 574 0
2017-11-13 07:08:27 GMT 40.69235 -74.75738 37,000 60 574 0
2017-11-13 07:08:24 GMT 40.69108 -74.76046 37,000 60 574 0
2017-11-13 07:08:22 GMT 40.68801 -74.76777 37,000 60 574 0
2017-11-13 07:08:19 GMT 40.68335 -74.77875 37,000 61 573 0
2017-11-13 07:08:17 GMT 40.68284 -74.78000 37,000 61 573 0
2017-11-13 07:08:14 GMT 40.67793 -74.79157 37,000 61 573 0
2017-11-13 07:08:12 GMT 40.67614 -74.79586 37,000 61 573 0
2017-11-13 07:08:10 GMT 40.67153 -74.80684 37,000 61 573 0
2017-11-13 07:08:07 GMT 40.66969 -74.81110 37,000 61 573 0
2017-11-13 07:08:07 GMT 40.66919 -74.81232 37,000 61 573 0
2017-11-13 07:08:05 GMT 40.66636 -74.81902 37,000 61 573 0
2017-11-13 07:08:03 GMT 40.66406 -74.82452 37,000 61 573 0
2017-11-13 07:08:01 GMT 40.66150 -74.83063 37,000 61 573 0
2017-11-13 07:07:59 GMT 40.65970 -74.83487 37,000 61 573 0
2017-11-13 07:07:57 GMT 40.65658 -74.84218 37,000 61 573 0
2017-11-13 07:07:55 GMT 40.65402 -74.84829 37,000 61 573 0
2017-11-13 07:07:53 GMT 40.65146 -74.85435 37,000 61 573 0
2017-11-13 07:07:51 GMT 40.64758 -74.86352 37,000 61 573 0
2017-11-13 07:07:49 GMT 40.64527 -74.86895 37,000 61 573 0
2017-11-13 07:07:47 GMT 40.64322 -74.87382 37,000 61 573 0
2017-11-13 07:07:44 GMT 40.64015 -74.88119 37,000 60 572 0
2017-11-13 07:07:42 GMT 40.63628 -74.89032 37,000 60 572 0
2017-11-13 07:07:39 GMT 40.63271 -74.89880 37,000 60 572 0
2017-11-13 07:07:37 GMT 40.63140 -74.90185 37,000 60 572 0
2017-11-13 07:07:35 GMT 40.62730 -74.91159 37,000 60 572 0
2017-11-13 07:07:33 GMT 40.62628 -74.91402 37,000 60 572 0
2017-11-13 07:07:31 GMT 40.62241 -74.92316 37,000 60 572 0
2017-11-13 07:07:29 GMT 40.62060 -74.92738 37,000 60 572 0
2017-11-13 07:07:26 GMT 40.61572 -74.93890 37,000 60 572 0
2017-11-13 07:07:22 GMT 40.61105 -74.94983 37,000 60 572 0
2017-11-13 07:07:20 GMT 40.60744 -74.95831 37,000 60 573 0
2017-11-13 07:07:18 GMT 40.60356 -74.96739 37,000 60 572 0
2017-11-13 07:07:15 GMT 40.60281 -74.96924 37,000 60 572 0
2017-11-13 07:07:12 GMT 40.59839 -74.97957 37,000 60 572 0
2017-11-13 07:07:10 GMT 40.59709 -74.98254 37,000 60 572 0
2017-11-13 07:07:07 GMT 40.59323 -74.99168 37,000 60 572 0
2017-11-13 07:07:05 GMT 40.58908 -75.00135 37,000 60 572 0
2017-11-13 07:07:02 GMT 40.58418 -75.01288 37,000 60 572 0
2017-11-13 07:06:59 GMT 40.58107 -75.02014 37,000 60 571 0
2017-11-13 07:06:56 GMT 40.57796 -75.02741 37,000 60 572 0
2017-11-13 07:06:54 GMT 40.57539 -75.03345 37,000 60 572 0
2017-11-13 07:06:51 GMT 40.57097 -75.04374 37,000 60 572 0
2017-11-13 07:06:49 GMT 40.56790 -75.05104 37,000 60 572 0
2017-11-13 07:06:47 GMT 40.56534 -75.05710 37,000 60 572 0
2017-11-13 07:06:44 GMT 40.56222 -75.06434 37,000 60 572 0
2017-11-13 07:06:40 GMT 40.55626 -75.07831 37,000 60 573 0
2017-11-13 07:06:38 GMT 40.55501 -75.08132 37,000 60 573 0
2017-11-13 07:06:37 GMT 40.55370 -75.08435 37,000 60 573 0
2017-11-13 07:06:35 GMT 40.54826 -75.09705 37,000 60 572 0
2017-11-13 07:06:33 GMT 40.54826 -75.09705 37,000 60 572 0
2017-11-13 07:06:30 GMT 40.54151 -75.11278 37,000 60 572 0
2017-11-13 07:06:28 GMT 40.54099 -75.11402 37,000 60 572 0
2017-11-13 07:06:25 GMT 40.53895 -75.11883 37,000 60 572 0
2017-11-13 07:06:22 GMT 40.53296 -75.13275 37,000 60 572 0
2017-11-13 07:06:20 GMT 40.53113 -75.13700 37,000 60 572 0
2017-11-13 07:06:18 GMT 40.52724 -75.14612 37,000 60 573 0
2017-11-13 07:06:16 GMT 40.52437 -75.15273 37,000 60 573 0
2017-11-13 07:06:13 GMT 40.52126 -75.16003 37,000 60 573 0
2017-11-13 07:06:11 GMT 40.51946 -75.16425 37,000 60 573 0
2017-11-13 07:06:09 GMT 40.51685 -75.17029 37,000 60 573 0
2017-11-13 07:06:07 GMT 40.51455 -75.17576 37,000 60 573 0
2017-11-13 07:06:05 GMT 40.51117 -75.18366 37,000 60 573 0
2017-11-13 07:06:04 GMT 40.50985 -75.18668 37,000 60 573 0
2017-11-13 07:06:03 GMT 40.50856 -75.18970 37,000 60 573 0
2017-11-13 07:06:01 GMT 40.50545 -75.19696 37,000 60 573 0
2017-11-13 07:05:59 GMT 40.50284 -75.20300 37,000 60 573 0
2017-11-13 07:05:55 GMT 40.49922 -75.21149 37,000 60 573 0
2017-11-13 07:05:53 GMT 40.49611 -75.21875 37,000 60 573 0
2017-11-13 07:05:51 GMT 40.49374 -75.22420 37,000 60 573 0
2017-11-13 07:05:48 GMT 40.48909 -75.23506 37,000 60 573 0
2017-11-13 07:05:45 GMT 40.48466 -75.24536 37,000 60 573 0
2017-11-13 07:05:43 GMT 40.48336 -75.24842 37,000 60 573 0
2017-11-13 07:05:41 GMT 40.48076 -75.25447 37,000 60 573 0
2017-11-13 07:05:37 GMT 40.47657 -75.26415 37,000 60 573 0
2017-11-13 07:05:35 GMT 40.47267 -75.27319 37,000 60 573 0
2017-11-13 07:05:33 GMT 40.46956 -75.28046 37,000 60 573 0
2017-11-13 07:05:32 GMT 40.46956 -75.28046 37,000 60 573 0
2017-11-13 07:05:30 GMT 40.46539 -75.29016 37,000 60 574 0
2017-11-13 07:05:28 GMT 40.46278 -75.29620 37,000 60 574 0
2017-11-13 07:05:25 GMT 40.45734 -75.30891 37,000 60 574 0
2017-11-13 07:05:22 GMT 40.45678 -75.31016 37,000 60 574 0
2017-11-13 07:05:20 GMT 40.45340 -75.31799 37,000 60 574 0
2017-11-13 07:05:17 GMT 40.44896 -75.32832 37,000 60 574 0
2017-11-13 07:05:14 GMT 40.44323 -75.34162 37,000 60 574 0
2017-11-13 07:05:12 GMT 40.44246 -75.34338 37,000 60 574 0
2017-11-13 07:05:10 GMT 40.43985 -75.34949 37,000 60 574 0
2017-11-13 07:05:07 GMT 40.43490 -75.36097 37,000 60 574 0
2017-11-13 07:05:04 GMT 40.43257 -75.36639 37,000 60 574 0
2017-11-13 07:05:01 GMT 40.42941 -75.37366 37,000 60 574 0
2017-11-13 07:04:59 GMT 40.42630 -75.38092 37,000 60 574 0
2017-11-13 07:04:57 GMT 40.42238 -75.38999 37,000 60 574 0
2017-11-13 07:04:54 GMT 40.41926 -75.39723 37,000 60 574 0
2017-11-13 07:04:52 GMT 40.41665 -75.40329 37,000 60 574 0
2017-11-13 07:04:50 GMT 40.41298 -75.41172 37,000 60 574 0
2017-11-13 07:04:47 GMT 40.40986 -75.41896 37,000 60 574 0
2017-11-13 07:04:45 GMT 40.40725 -75.42501 37,000 60 574 0
2017-11-13 07:04:43 GMT 40.40567 -75.42863 37,000 60 574 0
2017-11-13 07:04:41 GMT 40.40176 -75.43774 37,000 60 574 0
2017-11-13 07:04:39 GMT 40.39916 -75.44379 37,000 60 574 0
2017-11-13 07:04:36 GMT 40.39366 -75.45647 37,000 60 573 0
2017-11-13 07:04:34 GMT 40.39183 -75.46069 37,000 60 573 0
2017-11-13 07:04:32 GMT 40.39054 -75.46371 37,000 60 573 0
2017-11-13 07:04:30 GMT 40.38895 -75.46734 37,000 60 573 0
2017-11-13 07:04:27 GMT 40.38532 -75.47576 37,000 60 573 0
2017-11-13 07:04:24 GMT 40.37955 -75.48906 37,000 60 573 0
2017-11-13 07:04:22 GMT 40.37643 -75.49630 37,000 60 573 0
2017-11-13 07:04:20 GMT 40.37196 -75.50659 37,000 60 573 0
2017-11-13 07:04:18 GMT 40.37196 -75.50659 37,000 60 573 0
2017-11-13 07:04:16 GMT 40.36959 -75.51203 37,000 60 573 0
2017-11-13 07:04:13 GMT 40.36545 -75.52164 37,000 60 573 0
2017-11-13 07:04:11 GMT 40.36414 -75.52466 37,000 60 573 0
2017-11-13 07:04:08 GMT 40.36019 -75.53375 37,000 60 573 0
2017-11-13 07:04:06 GMT 40.35809 -75.53856 37,000 60 573 0
2017-11-13 07:04:04 GMT 40.35210 -75.55243 37,000 60 573 0
2017-11-13 07:04:02 GMT 40.35155 -75.55365 37,000 60 573 0
2017-11-13 07:03:59 GMT 40.34659 -75.56509 37,000 60 573 0
2017-11-13 07:03:57 GMT 40.34450 -75.56990 37,000 60 573 0
2017-11-13 07:03:55 GMT 40.34006 -75.58020 37,000 60 573 0
2017-11-13 07:03:53 GMT 40.33951 -75.58136 37,000 60 573 0
2017-11-13 07:03:51 GMT 40.33745 -75.58618 37,000 60 573 0
2017-11-13 07:03:49 GMT 40.33458 -75.59287 37,000 60 573 0
2017-11-13 07:03:46 GMT 40.33118 -75.60065 37,000 60 573 0
2017-11-13 07:03:43 GMT 40.32802 -75.60791 37,000 60 573 0
2017-11-13 07:03:41 GMT 40.32436 -75.61633 37,000 60 573 0
2017-11-13 07:03:39 GMT 40.32175 -75.62238 37,000 60 573 0
2017-11-13 07:03:36 GMT 40.31885 -75.62901 37,000 60 573 -64
2017-11-13 07:03:34 GMT 40.31522 -75.63744 37,000 60 573 -64
2017-11-13 07:03:32 GMT 40.31312 -75.64230 37,000 60 573 -64
2017-11-13 07:03:30 GMT 40.31076 -75.64771 37,000 60 573 -64
2017-11-13 07:03:27 GMT 40.30525 -75.66035 37,000 60 573 -64
2017-11-13 07:03:25 GMT 40.30372 -75.66397 37,000 60 573 -64
2017-11-13 07:03:23 GMT 40.29953 -75.67364 37,000 60 573 0
2017-11-13 07:03:21 GMT 40.29767 -75.67786 37,000 60 573 0
2017-11-13 07:03:19 GMT 40.29456 -75.68506 37,000 60 573 0
2017-11-13 07:03:16 GMT 40.29089 -75.69348 37,000 60 573 0
2017-11-13 07:03:14 GMT 40.28828 -75.69952 37,000 60 573 0
2017-11-13 07:03:11 GMT 40.28567 -75.70557 37,000 60 573 0
2017-11-13 07:03:09 GMT 40.28302 -75.71161 37,000 60 573 0
2017-11-13 07:03:07 GMT 40.27885 -75.72125 37,000 60 573 0
2017-11-13 07:03:04 GMT 40.27495 -75.73026 37,000 60 573 0
2017-11-13 07:03:02 GMT 40.27364 -75.73328 37,000 60 573 0
2017-11-13 07:03:00 GMT 40.27048 -75.74048 37,000 60 573 0
2017-11-13 07:02:58 GMT 40.26866 -75.74474 37,000 60 573 0
2017-11-13 07:02:56 GMT 40.26421 -75.75494 37,000 60 573 0
2017-11-13 07:02:53 GMT 40.26238 -75.75916 37,000 60 573 0
2017-11-13 07:02:51 GMT 40.25693 -75.77185 37,000 60 573 0
2017-11-13 07:02:49 GMT 40.25558 -75.77483 37,000 60 573 0
2017-11-13 07:02:47 GMT 40.25427 -75.77789 37,000 60 573 0
2017-11-13 07:02:45 GMT 40.25088 -75.78569 37,000 60 573 0
2017-11-13 07:02:43 GMT 40.24827 -75.79174 37,000 60 573 0
2017-11-13 07:02:41 GMT 40.24618 -75.79655 37,000 60 573 0
2017-11-13 07:02:39 GMT 40.24278 -75.80438 37,000 60 573 0
2017-11-13 07:02:37 GMT 40.24041 -75.80978 37,000 60 573 0
2017-11-13 07:02:34 GMT 40.23570 -75.82064 37,000 60 574 -64
2017-11-13 07:02:32 GMT 40.23333 -75.82608 37,000 60 573 0
2017-11-13 07:02:30 GMT 40.23123 -75.83088 37,000 60 573 0
2017-11-13 07:02:27 GMT 40.22708 -75.84051 37,000 60 573 0
2017-11-13 07:02:25 GMT 40.22209 -75.85199 37,000 60 573 0
2017-11-13 07:02:22 GMT 40.21974 -75.85741 37,000 60 573 0
2017-11-13 07:02:19 GMT 40.21531 -75.86765 37,000 60 573 0
2017-11-13 07:02:17 GMT 40.21345 -75.87183 37,000 60 573 0
2017-11-13 07:02:14 GMT 40.21111 -75.87726 37,000 60 573 0
2017-11-13 07:02:11 GMT 40.20642 -75.88806 37,000 60 573 0
2017-11-13 07:02:09 GMT 40.20456 -75.89231 37,000 60 573 0
2017-11-13 07:02:07 GMT 40.20093 -75.90073 37,000 60 572 0
2017-11-13 07:02:03 GMT 40.19540 -75.91333 37,000 60 572 0
2017-11-13 07:02:00 GMT 40.19073 -75.92414 37,000 60 572 0
2017-11-13 07:01:58 GMT 40.18808 -75.93018 37,000 60 572 0
2017-11-13 07:01:56 GMT 40.18757 -75.93132 37,000 60 572 0
2017-11-13 07:01:54 GMT 40.18236 -75.94336 37,000 60 571 0
2017-11-13 07:01:51 GMT 40.17920 -75.95056 37,000 60 571 0
2017-11-13 07:01:49 GMT 40.17709 -75.95532 37,000 60 571 -64
2017-11-13 07:01:47 GMT 40.17477 -75.96072 37,000 60 571 -64
2017-11-13 07:01:43 GMT 40.16900 -75.97389 37,000 60 571 -64
2017-11-13 07:01:40 GMT 40.16450 -75.98407 37,000 60 571 -64
2017-11-13 07:01:37 GMT 40.16135 -75.99121 37,000 60 571 0
2017-11-13 07:01:35 GMT 40.15950 -75.99543 37,000 60 571 0
2017-11-13 07:01:33 GMT 40.15553 -76.00433 37,000 59 571 0
2017-11-13 07:01:31 GMT 40.15317 -76.00972 37,000 59 571 0
2017-11-13 07:01:29 GMT 40.15051 -76.01565 37,000 59 570 0
2017-11-13 07:01:27 GMT 40.14784 -76.02161 37,000 59 570 0
2017-11-13 07:01:24 GMT 40.14516 -76.02751 37,000 59 570 -64
2017-11-13 07:01:21 GMT 40.13818 -76.04293 37,000 59 570 0
2017-11-13 07:01:18 GMT 40.13631 -76.04706 37,000 59 570 0
2017-11-13 07:01:16 GMT 40.13361 -76.05298 37,000 59 570 0
2017-11-13 07:01:13 GMT 40.12901 -76.06303 37,000 59 570 0
2017-11-13 07:01:11 GMT 40.12794 -76.06540 37,000 59 570 0
2017-11-13 07:01:09 GMT 40.12390 -76.07428 37,000 59 570 0
2017-11-13 07:01:06 GMT 40.11988 -76.08313 37,000 59 570 0
2017-11-13 07:01:04 GMT 40.11850 -76.08612 37,000 59 570 0
2017-11-13 07:01:02 GMT 40.11285 -76.09855 37,000 59 570 0
2017-11-13 07:01:00 GMT 40.11154 -76.10150 37,000 59 570 0
2017-11-13 07:00:58 GMT 40.10801 -76.10916 37,000 59 570 0
2017-11-13 07:00:56 GMT 40.10587 -76.11391 37,000 59 570 0
2017-11-13 07:00:54 GMT 40.10371 -76.11865 37,000 59 571 0
2017-11-13 07:00:51 GMT 40.09968 -76.12751 37,000 59 571 0
2017-11-13 07:00:48 GMT 40.09749 -76.13220 37,000 59 571 0
2017-11-13 07:00:46 GMT 40.09428 -76.13934 37,000 59 571 0
2017-11-13 07:00:44 GMT 40.08943 -76.14996 37,000 59 571 0
2017-11-13 07:00:42 GMT 40.08809 -76.15292 37,000 59 571 0
2017-11-13 07:00:40 GMT 40.08618 -76.15704 37,000 59 571 0
2017-11-13 07:00:38 GMT 40.08133 -76.16766 37,000 59 571 0
2017-11-13 07:00:36 GMT 40.08078 -76.16888 37,000 59 571 0
2017-11-13 07:00:34 GMT 40.07808 -76.17474 37,000 59 571 0
2017-11-13 07:00:32 GMT 40.07510 -76.18127 37,000 59 570 0
2017-11-13 07:00:30 GMT 40.07184 -76.18837 37,000 59 570 0
2017-11-13 07:00:28 GMT 40.06914 -76.19424 37,000 59 570 0
2017-11-13 07:00:26 GMT 40.06537 -76.20255 37,000 59 570 0
2017-11-13 07:00:24 GMT 40.06023 -76.21375 37,000 59 570 0
2017-11-13 07:00:21 GMT 40.05862 -76.21728 37,000 59 570 0
2017-11-13 07:00:18 GMT 40.05513 -76.22495 37,000 59 570 0
2017-11-13 07:00:16 GMT 40.05267 -76.23023 37,000 59 570 0
2017-11-13 07:00:14 GMT 40.04997 -76.23614 37,000 59 570 0
2017-11-13 07:00:11 GMT 40.04645 -76.24384 37,000 59 570 0
2017-11-13 07:00:09 GMT 40.04347 -76.25030 37,000 59 570 0
2017-11-13 07:00:07 GMT 40.04051 -76.25679 37,000 59 570 0
2017-11-13 07:00:05 GMT 40.03834 -76.26148 37,000 59 570 0
2017-11-13 07:00:03 GMT 40.03567 -76.26740 37,000 59 570 0
2017-11-13 07:00:00 GMT 40.03212 -76.27502 37,000 59 569 0
2017-11-13 06:59:58 GMT 40.02782 -76.28442 37,000 59 569 0
2017-11-13 06:59:56 GMT 40.02482 -76.29094 37,000 59 569 0
2017-11-13 06:59:53 GMT 40.02212 -76.29680 37,000 59 569 0
2017-11-13 06:59:50 GMT 40.01616 -76.30979 37,000 59 569 0
2017-11-13 06:59:47 GMT 40.01431 -76.31390 37,000 59 570 0
2017-11-13 06:59:45 GMT 40.01076 -76.32152 37,000 59 570 0
2017-11-13 06:59:43 GMT 40.00806 -76.32739 37,000 59 570 0
2017-11-13 06:59:39 GMT 40.00211 -76.34037 37,000 59 570 -64
2017-11-13 06:59:36 GMT 39.99778 -76.34974 37,000 59 570 0
2017-11-13 06:59:34 GMT 39.99641 -76.35272 37,000 59 570 0
2017-11-13 06:59:31 GMT 39.99182 -76.36266 37,000 59 569 -64
2017-11-13 06:59:27 GMT 39.98561 -76.37622 37,000 59 568 -64
2017-11-13 06:59:25 GMT 39.98291 -76.38208 37,000 59 568 -64
2017-11-13 06:59:23 GMT 39.98158 -76.38501 37,000 59 568 -64
2017-11-13 06:59:21 GMT 39.97911 -76.39026 37,000 59 568 -64
2017-11-13 06:59:18 GMT 39.97455 -76.40024 37,000 59 568 0
2017-11-13 06:59:16 GMT 39.97185 -76.40610 37,000 59 568 0
2017-11-13 06:59:16 GMT 39.97046 -76.40906 37,000 59 568 0
2017-11-13 06:59:14 GMT 39.96831 -76.41376 37,000 59 568 0
2017-11-13 06:59:12 GMT 39.96561 -76.41962 37,000 59 568 0
2017-11-13 06:59:09 GMT 39.96236 -76.42664 37,000 59 568 0
2017-11-13 06:59:07 GMT 39.95966 -76.43250 37,000 59 568 0
2017-11-13 06:59:06 GMT 39.95779 -76.43663 37,000 59 568 0
2017-11-13 06:59:05 GMT 39.95779 -76.43663 37,000 59 568 0
2017-11-13 06:59:03 GMT 39.95453 -76.44362 37,000 59 568 0
2017-11-13 06:58:56 GMT 39.94373 -76.46709 37,000 59 567 0
2017-11-13 06:58:56 GMT 39.94373 -76.46709 37,000 59 567 0
2017-11-13 06:58:54 GMT 39.94154 -76.47177 37,000 59 567 0
2017-11-13 06:58:52 GMT 39.94020 -76.47467 37,000 59 567 0
2017-11-13 06:58:47 GMT 39.93265 -76.49106 37,000 59 568 0
2017-11-13 06:58:45 GMT 39.93018 -76.49637 37,000 59 569 0
2017-11-13 06:58:45 GMT 39.93018 -76.49637 37,000 59 568 0
2017-11-13 06:58:42 GMT 39.92670 -76.50397 37,000 59 568 0
2017-11-13 06:58:40 GMT 39.92101 -76.51630 37,000 59 569 0
2017-11-13 06:58:37 GMT 39.91775 -76.52331 37,000 59 569 0
2017-11-13 06:58:35 GMT 39.91585 -76.52742 37,000 59 569 0
2017-11-13 06:58:34 GMT 39.91585 -76.52742 37,000 59 569 0
2017-11-13 06:58:32 GMT 39.91235 -76.53503 37,000 59 569 0
2017-11-13 06:58:30 GMT 39.90830 -76.54384 37,000 59 569 0
2017-11-13 06:58:28 GMT 39.90639 -76.54791 37,000 59 569 0
2017-11-13 06:58:25 GMT 39.90234 -76.55674 37,000 59 569 0
2017-11-13 06:58:23 GMT 39.89964 -76.56259 37,000 59 568 0
2017-11-13 06:58:21 GMT 39.89825 -76.56549 37,000 59 569 0
2017-11-13 06:58:15 GMT 39.88879 -76.58605 37,000 59 569 0
2017-11-13 06:58:13 GMT 39.88582 -76.59253 37,000 59 569 0
2017-11-13 06:58:11 GMT 39.88449 -76.59543 37,000 59 569 0
2017-11-13 06:58:08 GMT 39.87823 -76.60895 37,000 59 569 0
2017-11-13 06:58:05 GMT 39.87446 -76.61713 37,000 59 569 0
2017-11-13 06:58:03 GMT 39.87309 -76.62003 37,000 59 569 0
2017-11-13 06:58:01 GMT 39.87064 -76.62530 37,000 59 569 0
2017-11-13 06:57:53 GMT 39.85979 -76.64874 37,000 58 569 0
2017-11-13 06:57:50 GMT 39.85574 -76.65752 37,000 58 569 0
2017-11-13 06:57:45 GMT 39.84810 -76.67394 37,000 58 569 0
2017-11-13 06:57:43 GMT 39.84540 -76.67979 37,000 58 569 0
2017-11-13 06:57:40 GMT 39.84187 -76.68738 37,000 58 569 0
2017-11-13 06:57:36 GMT 39.83535 -76.70142 37,000 58 569 0
2017-11-13 06:57:33 GMT 39.83180 -76.70905 37,000 58 569 0
2017-11-13 06:57:30 GMT 39.82855 -76.71604 37,000 58 569 0
2017-11-13 06:57:28 GMT 39.82553 -76.72247 37,000 58 569 0
2017-11-13 06:57:25 GMT 39.82064 -76.73303 37,000 58 569 0
2017-11-13 06:57:23 GMT 39.81821 -76.73825 37,000 58 568 0
2017-11-13 06:57:21 GMT 39.81576 -76.74353 37,000 58 568 0
2017-11-13 06:57:19 GMT 39.81413 -76.74701 37,000 58 569 0
2017-11-13 06:57:17 GMT 39.81031 -76.75525 37,000 58 569 0
2017-11-13 06:57:15 GMT 39.80705 -76.76221 37,000 58 569 0
2017-11-13 06:57:12 GMT 39.80186 -76.77336 37,000 58 569 0
2017-11-13 06:57:09 GMT 39.79993 -76.77741 37,000 58 569 0
2017-11-13 06:57:07 GMT 39.79667 -76.78442 37,000 58 569 0
2017-11-13 06:57:03 GMT 39.79042 -76.79790 37,000 58 569 0
2017-11-13 06:57:01 GMT 39.78904 -76.80078 37,000 58 569 0
2017-11-13 06:56:59 GMT 39.78629 -76.80664 37,000 58 569 0
2017-11-13 06:56:57 GMT 39.78332 -76.81306 37,000 58 569 0
2017-11-13 06:56:54 GMT 39.77814 -76.82416 37,000 58 569 0
2017-11-13 06:56:51 GMT 39.77484 -76.83118 37,000 58 569 0
2017-11-13 06:56:49 GMT 39.77214 -76.83704 37,000 58 569 0
2017-11-13 06:56:44 GMT 39.76584 -76.85044 37,000 58 569 0
2017-11-13 06:56:42 GMT 39.76094 -76.86095 37,000 58 569 0
2017-11-13 06:56:40 GMT 39.76013 -76.86273 37,000 58 569 0
2017-11-13 06:56:38 GMT 39.75819 -76.86680 37,000 58 569 0
2017-11-13 06:56:36 GMT 39.75440 -76.87498 37,000 58 569 0
2017-11-13 06:56:32 GMT 39.74890 -76.88662 37,000 58 569 0
2017-11-13 06:56:30 GMT 39.74537 -76.89423 37,000 58 569 0
2017-11-13 06:56:29 GMT 39.74537 -76.89423 37,000 58 569 0
2017-11-13 06:56:27 GMT 39.74126 -76.90298 37,000 58 569 0
2017-11-13 06:56:24 GMT 39.73691 -76.91230 37,000 58 569 0
2017-11-13 06:56:21 GMT 39.73416 -76.91815 37,000 58 569 0
2017-11-13 06:56:19 GMT 39.73168 -76.92340 37,000 58 569 0
2017-11-13 06:56:17 GMT 39.73004 -76.92693 37,000 58 569 0
2017-11-13 06:56:13 GMT 39.72267 -76.94269 37,000 58 569 0
2017-11-13 06:56:11 GMT 39.71887 -76.95081 37,000 58 569 0
2017-11-13 06:56:09 GMT 39.71749 -76.95373 37,000 58 569 0
2017-11-13 06:56:07 GMT 39.71530 -76.95843 37,000 58 569 0
2017-11-13 06:56:05 GMT 39.71178 -76.96604 37,000 58 569 0
2017-11-13 06:56:02 GMT 39.70546 -76.97941 37,000 58 569 0
2017-11-13 06:55:58 GMT 39.70303 -76.98472 37,000 58 569 0
2017-11-13 06:55:56 GMT 39.69864 -76.99404 37,000 58 569 0
2017-11-13 06:55:53 GMT 39.69454 -77.00281 37,000 58 569 0
2017-11-13 06:55:49 GMT 39.68904 -77.01447 37,000 58 569 0
2017-11-13 06:55:47 GMT 39.68825 -77.01619 37,000 58 569 0
2017-11-13 06:55:45 GMT 39.68359 -77.02612 37,000 58 569 0
2017-11-13 06:55:42 GMT 39.68001 -77.03369 37,000 58 569 0
2017-11-13 06:55:39 GMT 39.67616 -77.04187 37,000 58 570 0
2017-11-13 06:55:37 GMT 39.67424 -77.04596 37,000 58 570 0
2017-11-13 06:55:35 GMT 39.67067 -77.05351 37,000 58 570 0
2017-11-13 06:55:31 GMT 39.66604 -77.06342 37,000 58 569 0
2017-11-13 06:55:29 GMT 39.66248 -77.07100 37,000 58 569 0
2017-11-13 06:55:27 GMT 39.65973 -77.07685 37,000 58 570 0
2017-11-13 06:55:25 GMT 39.65643 -77.08384 37,000 58 570 0
2017-11-13 06:55:22 GMT 39.65175 -77.09375 37,000 58 570 0
2017-11-13 06:55:20 GMT 39.64957 -77.09839 37,000 58 570 0
2017-11-13 06:55:18 GMT 39.64764 -77.10247 37,000 58 570 0
2017-11-13 06:55:16 GMT 39.64490 -77.10832 37,000 58 570 0
2017-11-13 06:55:14 GMT 39.64244 -77.11352 37,000 58 570 0
2017-11-13 06:55:08 GMT 39.63391 -77.13161 37,000 58 570 -64
2017-11-13 06:55:06 GMT 39.63061 -77.13859 37,000 58 570 0
2017-11-13 06:55:04 GMT 39.62759 -77.14502 37,000 58 571 0
2017-11-13 06:55:00 GMT 39.62378 -77.15320 37,000 58 570 0
2017-11-13 06:54:58 GMT 39.61963 -77.16194 37,000 58 571 0
2017-11-13 06:54:55 GMT 39.61661 -77.16833 37,000 58 571 0
2017-11-13 06:54:53 GMT 39.61441 -77.17304 37,000 58 571 0
2017-11-13 06:54:51 GMT 39.60974 -77.18296 37,000 58 571 0
2017-11-13 06:54:49 GMT 39.60585 -77.19110 37,000 58 571 0
2017-11-13 06:54:47 GMT 39.60425 -77.19460 37,000 58 571 0
2017-11-13 06:54:44 GMT 39.60204 -77.19928 37,000 58 571 0
2017-11-13 06:54:42 GMT 39.59926 -77.20511 37,000 58 571 0
2017-11-13 06:54:39 GMT 39.59403 -77.21619 37,000 58 571 0
2017-11-13 06:54:36 GMT 39.59016 -77.22437 37,000 58 571 0
2017-11-13 06:54:34 GMT 39.58742 -77.23016 37,000 58 571 0
2017-11-13 06:54:32 GMT 39.58493 -77.23544 37,000 58 571 0
2017-11-13 06:54:29 GMT 39.58054 -77.24475 37,000 58 571 0
2017-11-13 06:54:27 GMT 39.57724 -77.25174 37,000 58 571 0
2017-11-13 06:54:25 GMT 39.57394 -77.25872 37,000 58 571 0
2017-11-13 06:54:22 GMT 39.57120 -77.26458 37,000 58 571 0
2017-11-13 06:54:19 GMT 39.56566 -77.27622 37,000 58 571 0
2017-11-13 06:54:15 GMT 39.55986 -77.28851 37,000 58 571 0
2017-11-13 06:54:13 GMT 39.55930 -77.28967 37,000 58 571 0
2017-11-13 06:54:11 GMT 39.55573 -77.29724 37,000 58 571 0
2017-11-13 06:54:09 GMT 39.55078 -77.30775 37,000 58 571 0
2017-11-13 06:54:06 GMT 39.54883 -77.31183 37,000 58 571 0
2017-11-13 06:54:02 GMT 39.54304 -77.32405 37,000 58 572 0
2017-11-13 06:53:58 GMT 39.53724 -77.33630 37,000 58 571 0
2017-11-13 06:53:56 GMT 39.53449 -77.34210 37,000 58 571 0
2017-11-13 06:53:53 GMT 39.53062 -77.35028 37,000 58 571 0
2017-11-13 06:53:51 GMT 39.52727 -77.35724 37,000 58 571 0
2017-11-13 06:53:48 GMT 39.52313 -77.36596 37,000 58 571 0
2017-11-13 06:53:46 GMT 39.51899 -77.37470 37,000 58 571 0
2017-11-13 06:53:44 GMT 39.51680 -77.37933 37,000 58 571 0
2017-11-13 06:53:41 GMT 39.51428 -77.38458 37,000 58 571 0
2017-11-13 06:53:37 GMT 39.50876 -77.39623 37,000 58 571 0
2017-11-13 06:53:35 GMT 39.50597 -77.40202 37,000 58 571 0
2017-11-13 06:53:33 GMT 39.50130 -77.41193 37,000 58 571 0
2017-11-13 06:53:31 GMT 39.49988 -77.41480 37,000 58 571 0
2017-11-13 06:53:29 GMT 39.49878 -77.41718 37,000 58 571 0
2017-11-13 06:53:27 GMT 39.49434 -77.42645 37,000 58 571 0
2017-11-13 06:53:24 GMT 39.48880 -77.43809 37,000 58 571 0
2017-11-13 06:53:21 GMT 39.48546 -77.44501 37,000 58 571 0
2017-11-13 06:53:19 GMT 39.48407 -77.44794 37,000 58 571 0
2017-11-13 06:53:17 GMT 39.47937 -77.45779 37,000 58 571 0
2017-11-13 06:53:14 GMT 39.47607 -77.46478 37,000 58 571 -64
2017-11-13 06:53:12 GMT 39.47493 -77.46711 37,000 58 571 0
2017-11-13 06:53:10 GMT 39.47132 -77.47467 37,000 58 571 0
2017-11-13 06:53:08 GMT 39.46884 -77.47988 37,000 58 571 0
2017-11-13 06:53:06 GMT 39.46466 -77.48859 37,000 58 571 0
2017-11-13 06:53:04 GMT 39.46191 -77.49438 37,000 58 571 0
2017-11-13 06:53:01 GMT 39.45912 -77.50018 37,000 58 571 0
2017-11-13 06:52:58 GMT 39.45526 -77.50830 37,000 58 571 0
2017-11-13 06:52:55 GMT 39.45027 -77.51874 37,000 58 570 0
2017-11-13 06:52:53 GMT 39.44692 -77.52570 37,000 58 570 0
2017-11-13 06:52:51 GMT 39.44334 -77.53320 37,000 58 570 0
2017-11-13 06:52:48 GMT 39.44115 -77.53786 37,000 58 570 0
2017-11-13 06:52:46 GMT 39.43640 -77.54767 37,000 58 570 0
2017-11-13 06:52:42 GMT 39.43062 -77.55983 37,000 58 570 0
2017-11-13 06:52:40 GMT 39.42783 -77.56563 37,000 58 570 0
2017-11-13 06:52:38 GMT 39.42728 -77.56682 37,000 58 570 0
2017-11-13 06:52:35 GMT 39.42288 -77.57608 37,000 58 571 0
2017-11-13 06:52:33 GMT 39.41954 -77.58300 37,000 58 571 0
2017-11-13 06:52:30 GMT 39.41592 -77.59058 37,000 58 571 0
2017-11-13 06:52:28 GMT 39.41261 -77.59753 37,000 58 571 0
2017-11-13 06:52:25 GMT 39.40787 -77.60736 37,000 58 571 0
2017-11-13 06:52:22 GMT 39.40288 -77.61781 37,000 58 571 -64
2017-11-13 06:52:18 GMT 39.39903 -77.62593 37,000 58 571 -64
2017-11-13 06:52:14 GMT 39.39404 -77.63632 37,000 58 571 0
2017-11-13 06:52:10 GMT 39.38846 -77.64796 37,000 58 571 0
2017-11-13 06:52:08 GMT 39.38457 -77.65602 37,000 58 571 0
2017-11-13 06:52:06 GMT 39.38264 -77.66009 37,000 58 571 0
2017-11-13 06:52:04 GMT 39.37848 -77.66880 37,000 58 571 0
2017-11-13 06:52:00 GMT 39.37435 -77.67749 37,000 58 571 0
2017-11-13 06:51:58 GMT 39.37156 -77.68329 37,000 58 571 0
2017-11-13 06:51:56 GMT 39.36876 -77.68909 37,000 58 571 0
2017-11-13 06:51:53 GMT 39.36461 -77.69776 37,000 58 571 0
2017-11-13 06:51:51 GMT 39.36072 -77.70588 37,000 58 571 0
2017-11-13 06:51:49 GMT 39.35931 -77.70874 37,000 58 571 0
2017-11-13 06:51:49 GMT 39.35931 -77.70874 37,000 58 571 0
2017-11-13 06:51:47 GMT 39.35518 -77.71746 37,000 58 571 0
2017-11-13 06:51:44 GMT 39.35014 -77.72785 37,000 58 570 0
2017-11-13 06:51:40 GMT 39.34460 -77.73944 37,000 58 570 0
2017-11-13 06:51:39 GMT 39.34460 -77.73944 37,000 58 570 0
2017-11-13 06:51:38 GMT 39.34404 -77.74060 37,000 58 570 0
2017-11-13 06:51:36 GMT 39.33902 -77.75102 37,000 58 570 0
2017-11-13 06:51:33 GMT 39.33627 -77.75678 37,000 58 570 0
2017-11-13 06:51:30 GMT 39.33152 -77.76660 37,000 58 570 0
2017-11-13 06:51:28 GMT 39.33014 -77.76947 37,000 58 570 0
2017-11-13 06:51:26 GMT 39.32707 -77.77586 37,000 58 570 0
2017-11-13 06:51:23 GMT 39.32121 -77.78798 37,000 58 570 0
2017-11-13 06:51:20 GMT 39.31842 -77.79371 37,000 58 570 0
2017-11-13 06:51:18 GMT 39.31648 -77.79779 37,000 58 570 0
2017-11-13 06:51:16 GMT 39.31202 -77.80701 37,000 58 570 0
2017-11-13 06:51:11 GMT 39.30620 -77.81915 37,000 58 570 0
2017-11-13 06:51:09 GMT 39.30450 -77.82261 37,000 58 570 0
2017-11-13 06:51:07 GMT 39.29951 -77.83300 37,000 58 570 0
2017-11-13 06:51:03 GMT 39.29503 -77.84220 37,000 58 570 0
2017-11-13 06:51:01 GMT 39.29283 -77.84685 37,000 58 570 0
2017-11-13 06:50:57 GMT 39.28641 -77.86011 37,000 58 570 0
2017-11-13 06:50:55 GMT 39.28390 -77.86530 37,000 58 570 0
2017-11-13 06:50:52 GMT 39.27971 -77.87396 37,000 58 570 0
2017-11-13 06:50:50 GMT 39.27691 -77.87970 37,000 58 570 -64
2017-11-13 06:50:47 GMT 39.27305 -77.88782 37,000 58 570 -64
2017-11-13 06:50:45 GMT 39.26999 -77.89414 37,000 58 570 -64
2017-11-13 06:50:42 GMT 39.26579 -77.90277 37,000 58 570 -64
2017-11-13 06:50:40 GMT 39.26161 -77.91146 37,000 58 570 -64
2017-11-13 06:50:37 GMT 39.25882 -77.91725 37,000 58 570 -64
2017-11-13 06:50:35 GMT 39.25634 -77.92242 37,000 58 570 -64
2017-11-13 06:50:33 GMT 39.25186 -77.93164 37,000 58 570 -64
2017-11-13 06:50:29 GMT 39.24740 -77.94086 37,000 58 570 -64
2017-11-13 06:50:26 GMT 39.24326 -77.94949 37,000 58 570 0
2017-11-13 06:50:24 GMT 39.24046 -77.95528 37,000 58 569 0
2017-11-13 06:50:18 GMT 39.23181 -77.97315 37,000 58 569 0
2017-11-13 06:50:15 GMT 39.22738 -77.98236 37,000 58 569 0
2017-11-13 06:50:11 GMT 39.22261 -77.99212 37,000 58 569 0
2017-11-13 06:50:09 GMT 39.21927 -77.99905 37,000 58 569 0
2017-11-13 06:50:07 GMT 39.21707 -78.00365 37,000 58 569 0
2017-11-13 06:50:05 GMT 39.21258 -78.01284 37,000 58 569 0
2017-11-13 06:50:01 GMT 39.21011 -78.01801 37,000 58 569 0
2017-11-13 06:49:59 GMT 39.20453 -78.02954 37,000 58 570 0
2017-11-13 06:49:55 GMT 39.20117 -78.03644 37,000 58 570 0
2017-11-13 06:49:53 GMT 39.19812 -78.04282 37,000 58 570 0
2017-11-13 06:49:51 GMT 39.19335 -78.05255 37,000 58 570 0
2017-11-13 06:49:48 GMT 39.19002 -78.05947 37,000 58 570 0
2017-11-13 06:49:45 GMT 39.18636 -78.06700 37,000 58 570 0
2017-11-13 06:49:43 GMT 39.18356 -78.07273 37,000 58 570 0
2017-11-13 06:49:41 GMT 39.18105 -78.07792 37,000 58 570 0
2017-11-13 06:49:39 GMT 39.17633 -78.08772 37,000 58 570 0
2017-11-13 06:49:34 GMT 39.16933 -78.10205 37,000 58 570 0
2017-11-13 06:49:28 GMT 39.16232 -78.11643 37,000 58 570 0
2017-11-13 06:49:23 GMT 39.15505 -78.13142 37,000 58 570 0
2017-11-13 06:49:19 GMT 39.14836 -78.14521 37,000 57 569 0
2017-11-13 06:49:16 GMT 39.14557 -78.15095 37,000 57 569 0
2017-11-13 06:49:13 GMT 39.14135 -78.15955 37,000 57 569 0
2017-11-13 06:49:03 GMT 39.12653 -78.18994 37,000 57 568 0
2017-11-13 06:49:00 GMT 39.12433 -78.19453 37,000 57 568 -64
2017-11-13 06:48:57 GMT 39.11901 -78.20538 37,000 57 568 -64
2017-11-13 06:48:52 GMT 39.11119 -78.22144 37,000 57 568 0
2017-11-13 06:48:46 GMT 39.10419 -78.23567 37,000 57 567 0
2017-11-13 06:48:44 GMT 39.10002 -78.24426 37,000 57 567 0
2017-11-13 06:48:41 GMT 39.09722 -78.25000 37,000 57 567 0
2017-11-13 06:48:38 GMT 39.09247 -78.25968 37,000 57 567 0
2017-11-13 06:48:35 GMT 39.08853 -78.26768 37,000 57 567 0
2017-11-13 06:48:31 GMT 39.08158 -78.28192 37,000 57 567 0
2017-11-13 06:48:24 GMT 39.07209 -78.30133 37,000 57 567 0
2017-11-13 06:48:21 GMT 39.06929 -78.30707 37,000 57 567 0
2017-11-13 06:48:18 GMT 39.06509 -78.31562 37,000 57 567 0
2017-11-13 06:48:12 GMT 39.05644 -78.33330 37,000 57 567 0
2017-11-13 06:48:09 GMT 39.05309 -78.34015 37,000 57 567 0
2017-11-13 06:48:04 GMT 39.04385 -78.35903 37,000 57 567 -64
2017-11-13 06:48:00 GMT 39.04024 -78.36639 37,000 57 567 0
2017-11-13 06:47:58 GMT 39.03717 -78.37270 37,000 57 567 0
2017-11-13 06:47:53 GMT 39.02851 -78.39038 37,000 57 567 0
2017-11-13 06:47:51 GMT 39.02572 -78.39606 37,000 57 567 0
2017-11-13 06:47:48 GMT 39.02293 -78.40179 37,000 57 567 0
2017-11-13 06:47:39 GMT 39.00925 -78.42973 37,000 57 567 0
2017-11-13 06:47:34 GMT 39.00366 -78.44107 37,000 57 567 0
2017-11-13 06:47:30 GMT 38.99693 -78.45474 37,000 57 567 0
2017-11-13 06:47:26 GMT 38.99245 -78.46382 37,000 57 567 0
2017-11-13 06:47:23 GMT 38.98768 -78.47351 37,000 57 567 0
2017-11-13 06:47:20 GMT 38.98183 -78.48543 37,000 57 567 0
2017-11-13 06:47:17 GMT 38.97903 -78.49111 37,000 57 567 0
2017-11-13 06:47:12 GMT 38.97345 -78.50251 37,000 57 567 0
2017-11-13 06:47:10 GMT 38.97037 -78.50879 37,000 57 567 0
2017-11-13 06:47:08 GMT 38.96702 -78.51556 37,000 57 567 0
2017-11-13 06:47:06 GMT 38.96503 -78.51959 37,000 57 567 0
2017-11-13 06:47:02 GMT 38.95720 -78.53547 37,000 57 567 0
2017-11-13 06:46:59 GMT 38.95412 -78.54175 37,000 57 567 0
2017-11-13 06:46:54 GMT 38.94544 -78.55935 37,000 57 567 0
2017-11-13 06:46:48 GMT 38.93701 -78.57643 37,000 57 567 0
2017-11-13 06:46:43 GMT 38.93253 -78.58550 37,000 57 567 0
2017-11-13 06:46:41 GMT 38.92889 -78.59290 37,000 57 567 0
2017-11-13 06:46:38 GMT 38.92465 -78.60145 37,000 57 567 0
2017-11-13 06:46:35 GMT 38.92017 -78.61052 37,000 57 567 0
2017-11-13 06:46:25 GMT 38.90561 -78.64002 37,000 57 566 0
2017-11-13 06:46:23 GMT 38.90194 -78.64740 37,000 57 566 0
2017-11-13 06:46:17 GMT 38.89325 -78.66504 37,000 57 566 0
2017-11-13 06:46:14 GMT 38.89072 -78.67011 37,000 57 566 0
2017-11-13 06:46:12 GMT 38.88762 -78.67638 37,000 57 566 0
2017-11-13 06:46:03 GMT 38.87471 -78.70241 37,000 57 567 0
2017-11-13 06:46:01 GMT 38.87192 -78.70808 37,000 57 567 0
2017-11-13 06:45:57 GMT 38.86711 -78.71771 37,000 57 567 0
2017-11-13 06:45:52 GMT 38.85925 -78.73358 37,000 57 566 0
2017-11-13 06:45:46 GMT 38.85223 -78.74773 37,000 57 566 0
2017-11-13 06:45:42 GMT 38.84579 -78.76074 37,000 57 566 0
2017-11-13 06:45:40 GMT 38.84436 -78.76355 37,000 57 566 0
2017-11-13 06:45:32 GMT 38.83315 -78.78624 37,000 57 566 0
2017-11-13 06:45:29 GMT 38.82751 -78.79753 37,000 57 567 0
2017-11-13 06:45:25 GMT 38.82303 -78.80660 37,000 57 567 -64
2017-11-13 06:45:20 GMT 38.81346 -78.82583 37,000 57 567 -64
2017-11-13 06:45:16 GMT 38.80897 -78.83491 37,000 57 567 0
2017-11-13 06:45:10 GMT 38.80083 -78.85132 37,000 57 567 0
2017-11-13 06:45:08 GMT 38.79798 -78.85699 37,000 57 567 0
2017-11-13 06:45:05 GMT 38.79465 -78.86380 37,000 57 567 0
2017-11-13 06:44:57 GMT 38.78225 -78.88867 37,000 57 567 0
2017-11-13 06:44:54 GMT 38.77941 -78.89435 37,000 57 567 0
2017-11-13 06:44:49 GMT 38.77066 -78.91187 37,000 57 567 0
2017-11-13 06:44:44 GMT 38.76503 -78.92321 37,000 57 567 0
2017-11-13 06:44:34 GMT 38.75034 -78.95265 37,000 57 568 0
2017-11-13 06:44:23 GMT 38.73477 -78.98377 37,000 57 568 0
2017-11-13 06:44:17 GMT 38.72513 -79.00299 37,000 57 568 0
2017-11-13 06:44:14 GMT 38.72145 -79.01039 37,000 57 568 0
2017-11-13 06:44:06 GMT 38.71042 -79.03247 37,000 57 568 0
2017-11-13 06:44:03 GMT 38.70474 -79.04376 37,000 57 568 0
2017-11-13 06:43:51 GMT 38.68854 -79.07601 37,000 57 568 0
2017-11-13 06:43:47 GMT 38.68172 -79.08962 37,000 57 568 0
2017-11-13 06:43:41 GMT 38.67494 -79.10317 37,000 57 568 0
2017-11-13 06:43:32 GMT 38.66042 -79.13202 37,000 57 568 -64
2017-11-13 06:43:21 GMT 38.64652 -79.15972 37,000 57 568 -64
2017-11-13 06:42:59 GMT 38.61479 -79.22289 37,000 57 567 0
2017-11-13 06:42:43 GMT 38.58586 -79.28027 37,000 57 567 0
2017-11-13 06:42:30 GMT 38.57137 -79.30896 37,000 57.2 567.3 0
We lost coverage of the aircraft here for a total of 10 minutes
2017-11-13 06:32:59 GMT 37.75075 -80.89514 37,000 56 563 0
2017-11-13 06:32:50 GMT 37.73976 -80.91592 37,000 56 563 0
2017-11-13 06:32:37 GMT 37.71744 -80.95796 37,000 56 563 -64
2017-11-13 06:32:19 GMT 37.70064 -80.98963 37,000 56 563 0
2017-11-13 06:31:50 GMT 37.65079 -81.08319 37,000 56 562 0
2017-11-13 06:31:43 GMT 37.64759 -81.08919 37,000 56 562 0
2017-11-13 06:27:43 GMT 37.29932 -81.73606 37,000 55 559 0
2017-11-13 06:27:23 GMT 37.27048 -81.78912 37,000 55 559 0
2017-11-13 06:27:13 GMT 37.25794 -81.81208 37,000 55 559 0
2017-11-13 06:27:02 GMT 37.24017 -81.84470 37,000 55 559 0
2017-11-13 06:26:52 GMT 37.22587 -81.87089 37,000 55 558 0
2017-11-13 06:26:43 GMT 37.21216 -81.89595 37,000 55 558 0
2017-11-13 06:26:30 GMT 37.19463 -81.92797 37,000 55 559 0
2017-11-13 06:26:21 GMT 37.18062 -81.95363 37,000 55 559 0
2017-11-13 06:26:10 GMT 37.16544 -81.98141 37,000 55 559 0
2017-11-13 06:26:00 GMT 37.15027 -82.00914 37,000 55 558 0
2017-11-13 06:25:51 GMT 37.13567 -82.03579 37,000 55 558 0
2017-11-13 06:25:39 GMT 37.11987 -82.06460 37,000 55 558 0
2017-11-13 06:25:29 GMT 37.10437 -82.09283 37,000 55 558 0
2017-11-13 06:25:19 GMT 37.08915 -82.12053 37,000 55 559 0
2017-11-13 06:24:59 GMT 37.06128 -82.17113 37,000 55.5 559.5 -128
2017-11-13 06:24:29 GMT 36.99120 -82.29829 37,000 55.4 558.6 0
2017-11-13 06:24:00 GMT 36.97270 -82.33172 37,000 55 558 0
2017-11-13 06:23:49 GMT 36.95805 -82.35825 37,000 55 558 0
2017-11-13 06:23:41 GMT 36.94748 -82.37736 37,000 55 559 0
2017-11-13 06:23:18 GMT 36.91248 -82.44039 37,000 55 558 -64
2017-11-13 06:23:10 GMT 36.90102 -82.46104 37,000 55 558 -64
2017-11-13 06:23:01 GMT 36.88664 -82.48690 37,000 55 557 -64
2017-11-13 06:22:25 GMT 36.83381 -82.58183 37,000 55 557 0
2017-11-13 06:22:17 GMT 36.82352 -82.60031 37,000 55 557 0
2017-11-13 06:22:11 GMT 36.81409 -82.61719 37,000 55 557 0
2017-11-13 06:22:08 GMT 36.80997 -82.62457 37,000 55 557 0
2017-11-13 06:21:57 GMT 36.79289 -82.65512 37,000 55 558 0
2017-11-13 06:21:46 GMT 36.77669 -82.68410 37,000 55 558 0
2017-11-13 06:21:31 GMT 36.75572 -82.72144 37,000 55 557 0
2017-11-13 06:21:27 GMT 36.74773 -82.73564 37,000 55 557 -64
2017-11-13 06:21:14 GMT 36.72913 -82.76876 37,000 55 557 -64
2017-11-13 06:21:04 GMT 36.71617 -82.79188 37,000 55 557 0
2017-11-13 06:20:55 GMT 36.70053 -82.81973 37,000 55 557 0
2017-11-13 06:20:51 GMT 36.69638 -82.82710 37,000 55 557 0
2017-11-13 06:20:43 GMT 36.68491 -82.84756 37,000 55 557 0
2017-11-13 06:20:34 GMT 36.66924 -82.87537 37,000 55 556 0
2017-11-13 06:20:22 GMT 36.65364 -82.90312 37,000 55 555 0
2017-11-13 06:20:08 GMT 36.63214 -82.94140 37,000 55 555 0
2017-11-13 06:19:57 GMT 36.61656 -82.96909 37,000 55 555 0
2017-11-13 06:19:52 GMT 36.60773 -82.98483 37,000 55 556 0
2017-11-13 06:19:36 GMT 36.58559 -83.02403 37,000 55 556 0
2017-11-13 06:19:30 GMT 36.57646 -83.04028 37,000 55 556 0
2017-11-13 06:19:21 GMT 36.56138 -83.06693 37,000 54 557 0
2017-11-13 06:19:19 GMT 36.56138 -83.06693 37,000 54 557 0
2017-11-13 06:19:10 GMT 36.54658 -83.09311 37,000 54 557 0
2017-11-13 06:19:08 GMT 36.54391 -83.09778 37,000 54 557 0
2017-11-13 06:19:00 GMT 36.53122 -83.12028 37,000 54 556 0
2017-11-13 06:18:58 GMT 36.52972 -83.12290 37,000 54 556 0
2017-11-13 06:18:49 GMT 36.51375 -83.15105 37,000 54 556 0
2017-11-13 06:18:37 GMT 36.49686 -83.18076 37,000 54 556 0
2017-11-13 06:18:34 GMT 36.49420 -83.18544 37,000 54 556 0
2017-11-13 06:18:27 GMT 36.48387 -83.20367 37,000 54 556 0
2017-11-13 06:18:17 GMT 36.46846 -83.23079 37,000 54 555 0
2017-11-13 06:18:07 GMT 36.45366 -83.25679 37,000 54 555 -64
2017-11-13 06:17:56 GMT 36.43744 -83.28535 37,000 54 555 -64
2017-11-13 06:17:46 GMT 36.42261 -83.31133 37,000 54 554 0
2017-11-13 06:17:35 GMT 36.40668 -83.33937 37,000 54 554 0
2017-11-13 06:17:25 GMT 36.39216 -83.36478 37,000 54 554 0
2017-11-13 06:17:14 GMT 36.37615 -83.39283 37,000 54 555 0
2017-11-13 06:17:04 GMT 36.36044 -83.42033 37,000 54 556 0
2017-11-13 06:16:53 GMT 36.34529 -83.44677 37,000 54 556 0
2017-11-13 06:16:35 GMT 36.31619 -83.49761 37,000 54 556 0
2017-11-13 06:16:30 GMT 36.31023 -83.50802 37,000 54 556 -64
2017-11-13 06:16:23 GMT 36.29865 -83.52825 37,000 54 556 0
2017-11-13 06:16:11 GMT 36.28322 -83.55520 37,000 54 556 0
2017-11-13 06:15:57 GMT 36.26159 -83.59304 37,000 54 554 -64
2017-11-13 06:15:49 GMT 36.24790 -83.61683 37,000 54 554 -64
2017-11-13 06:15:47 GMT 36.24557 -83.62098 37,000 54 554 -64
2017-11-13 06:15:22 GMT 36.21021 -83.68235 37,000 54 553 0
2017-11-13 06:15:15 GMT 36.19921 -83.70145 37,000 54 553 0
2017-11-13 06:15:02 GMT 36.17812 -83.73802 37,000 54 553 0
2017-11-13 06:15:00 GMT 36.17723 -83.73955 37,000 54 553 0
2017-11-13 06:14:55 GMT 36.16890 -83.75398 37,000 54 553 0
2017-11-13 06:14:42 GMT 36.14986 -83.78688 37,000 54 554 0
2017-11-13 06:14:34 GMT 36.13794 -83.80745 37,000 54 554 -64
2017-11-13 06:14:24 GMT 36.12277 -83.83369 37,000 54 554 -64
2017-11-13 06:14:13 GMT 36.10670 -83.86145 37,000 54 553 -64
2017-11-13 06:14:02 GMT 36.09123 -83.88817 37,000 54 553 0
2017-11-13 06:13:53 GMT 36.07487 -83.91638 37,000 54 553 0
2017-11-13 06:13:42 GMT 36.06057 -83.94098 37,000 54 552 0
2017-11-13 06:13:33 GMT 36.04628 -83.96558 37,000 54 552 0
2017-11-13 06:13:31 GMT 36.04386 -83.96967 37,000 54 552 0
2017-11-13 06:13:25 GMT 36.03437 -83.98604 37,000 54 552 0
2017-11-13 06:13:23 GMT 36.03287 -83.98859 37,000 54 551 0
2017-11-13 06:13:20 GMT 36.02841 -83.99626 37,000 54 551 0
2017-11-13 06:13:14 GMT 36.01740 -84.01514 37,000 54 551 0
2017-11-13 06:13:11 GMT 36.01442 -84.02029 37,000 54 551 0
2017-11-13 06:13:03 GMT 36.00224 -84.04120 37,000 54 551 -64
2017-11-13 06:12:57 GMT 35.99275 -84.05756 37,000 54 551 0
2017-11-13 06:12:53 GMT 35.98683 -84.06779 37,000 54 551 0
2017-11-13 06:12:49 GMT 35.98238 -84.07539 37,000 54 551 0
2017-11-13 06:12:44 GMT 35.97315 -84.09122 37,000 54 551 0
2017-11-13 06:12:42 GMT 35.97166 -84.09376 37,000 54 550 0
2017-11-13 06:12:40 GMT 35.96724 -84.10139 37,000 54 550 0
2017-11-13 06:12:32 GMT 35.95505 -84.12226 37,000 54 550 0
2017-11-13 06:12:25 GMT 35.94643 -84.13704 37,000 54 550 0
2017-11-13 06:12:23 GMT 35.94228 -84.14417 37,000 54 550 0
2017-11-13 06:12:19 GMT 35.93724 -84.15281 37,000 54 550 0
2017-11-13 06:12:11 GMT 35.92474 -84.17416 37,000 54 550 0
2017-11-13 06:12:00 GMT 35.90932 -84.20059 37,000 54 549 0
2017-11-13 06:11:50 GMT 35.89359 -84.22750 37,000 54 549 0
2017-11-13 06:11:47 GMT 35.88972 -84.23407 37,000 54 548 0
2017-11-13 06:11:39 GMT 35.87787 -84.25438 37,000 54 549 0
2017-11-13 06:11:37 GMT 35.87549 -84.25844 37,000 54 549 0
2017-11-13 06:11:30 GMT 35.86454 -84.27717 37,000 54 548 0
2017-11-13 06:11:28 GMT 35.86156 -84.28226 37,000 54 548 0
2017-11-13 06:11:26 GMT 35.85919 -84.28629 37,000 54 548 0
2017-11-13 06:11:19 GMT 35.84816 -84.30502 37,000 54 548 -64
2017-11-13 06:11:17 GMT 35.84373 -84.31265 37,000 54 548 -64
2017-11-13 06:11:08 GMT 35.83126 -84.33386 37,000 54 548 -64
2017-11-13 06:11:06 GMT 35.82857 -84.33844 37,000 54 548 -64
2017-11-13 06:10:58 GMT 35.81547 -84.36064 37,000 54 548 0
2017-11-13 06:10:56 GMT 35.81459 -84.36214 37,000 54 548 0
2017-11-13 06:10:49 GMT 35.80179 -84.38387 37,000 54 548 -64
2017-11-13 06:10:46 GMT 35.79886 -84.38896 37,000 54 548 0
2017-11-13 06:10:36 GMT 35.78398 -84.41420 37,000 54 547 0
2017-11-13 06:10:34 GMT 35.78308 -84.41573 37,000 54 547 0
2017-11-13 06:10:25 GMT 35.76823 -84.44098 37,000 54 547 0
2017-11-13 06:10:15 GMT 35.75249 -84.46770 37,000 54 547 0
2017-11-13 06:10:07 GMT 35.74004 -84.48887 37,000 54 547 0
2017-11-13 06:10:04 GMT 35.73736 -84.49345 37,000 54 547 0
2017-11-13 06:09:56 GMT 35.72461 -84.51508 37,000 54 547 0
2017-11-13 06:09:54 GMT 35.72163 -84.52011 37,000 54 547 0
2017-11-13 06:09:46 GMT 35.70854 -84.54231 37,000 54 547 -64
2017-11-13 06:09:43 GMT 35.70616 -84.54632 37,000 54 547 -64
2017-11-13 06:09:35 GMT 35.69402 -84.56697 37,000 54 547 0
2017-11-13 06:09:32 GMT 35.69044 -84.57299 37,000 54 547 0
2017-11-13 06:09:26 GMT 35.67973 -84.59110 37,000 54 547 0
2017-11-13 06:09:23 GMT 35.67531 -84.59862 37,000 54 547 0
2017-11-13 06:09:21 GMT 35.67352 -84.60165 37,000 54 547 0
2017-11-13 06:09:14 GMT 35.66195 -84.62126 37,000 54 546 0
2017-11-13 06:09:12 GMT 35.65957 -84.62523 37,000 54 546 0
2017-11-13 06:09:02 GMT 35.64351 -84.65229 37,000 54 546 0
2017-11-13 06:08:53 GMT 35.63164 -84.67233 37,000 53 545 -64
2017-11-13 06:08:51 GMT 35.62898 -84.67684 37,000 53 545 -64
2017-11-13 06:08:42 GMT 35.61386 -84.70231 37,000 54 544 -64
2017-11-13 06:08:40 GMT 35.61296 -84.70385 37,000 54 544 0
2017-11-13 06:08:32 GMT 35.59992 -84.72582 37,000 54 544 0
2017-11-13 06:08:30 GMT 35.59694 -84.73080 37,000 53 544 0
2017-11-13 06:08:22 GMT 35.58513 -84.75077 37,000 53 544 0
2017-11-13 06:08:20 GMT 35.58244 -84.75526 37,000 53 544 0
2017-11-13 06:08:18 GMT 35.58037 -84.75872 37,000 53 544 0
2017-11-13 06:08:12 GMT 35.56975 -84.77669 37,000 53 544 0
2017-11-13 06:08:10 GMT 35.56796 -84.77966 37,000 53 544 0
2017-11-13 06:08:08 GMT 35.56380 -84.78664 37,000 53 544 0
2017-11-13 06:08:00 GMT 35.55050 -84.80902 37,000 53 543 0
2017-11-13 06:07:58 GMT 35.55050 -84.80902 37,000 53 543 0
2017-11-13 06:07:49 GMT 35.53626 -84.83292 37,000 53 543 0
2017-11-13 06:07:44 GMT 35.52887 -84.84535 37,000 53 543 0
2017-11-13 06:07:39 GMT 35.52145 -84.85781 37,000 53 543 0
2017-11-13 06:07:37 GMT 35.51847 -84.86278 37,000 53 543 0
2017-11-13 06:07:29 GMT 35.50635 -84.88317 37,000 53 543 0
2017-11-13 06:07:27 GMT 35.50218 -84.89010 37,000 53 543 0
2017-11-13 06:07:16 GMT 35.48705 -84.91549 37,000 53 543 0
2017-11-13 06:07:08 GMT 35.47494 -84.93587 37,000 53 543 -64
2017-11-13 06:07:06 GMT 35.47346 -84.93834 37,000 53 543 0
2017-11-13 06:06:57 GMT 35.45833 -84.96363 37,000 53 542 0
2017-11-13 06:06:47 GMT 35.44501 -84.98597 37,000 53 542 0
2017-11-13 06:06:41 GMT 35.43668 -84.99982 37,000 53 541 -64
2017-11-13 06:06:38 GMT 35.43016 -85.01069 37,000 53 541 0
2017-11-13 06:06:36 GMT 35.42723 -85.01565 37,000 53 541 0
2017-11-13 06:06:25 GMT 35.41269 -85.03984 37,000 53 541 0
2017-11-13 06:06:23 GMT 35.41001 -85.04429 37,000 53 541 0
2017-11-13 06:06:20 GMT 35.40500 -85.05266 37,000 53 541 0
2017-11-13 06:06:16 GMT 35.39845 -85.06353 37,000 53 541 0
2017-11-13 06:06:14 GMT 35.39552 -85.06846 37,000 53 541 0
2017-11-13 06:06:10 GMT 35.38957 -85.07835 37,000 53 540 0
2017-11-13 06:06:04 GMT 35.38129 -85.09214 37,000 53 540 0
2017-11-13 06:05:58 GMT 35.37300 -85.10599 37,000 53 540 -64
2017-11-13 06:05:54 GMT 35.36531 -85.11881 37,000 53 540 -64
2017-11-13 06:05:48 GMT 35.35822 -85.13060 37,000 53 540 -64
2017-11-13 06:05:44 GMT 35.35023 -85.14393 37,000 53 540 0
2017-11-13 06:05:39 GMT 35.34251 -85.15672 37,000 53 540 0
2017-11-13 06:05:34 GMT 35.33664 -85.16654 37,000 53 540 0
2017-11-13 06:05:32 GMT 35.33455 -85.17002 37,000 53 540 0
2017-11-13 06:05:28 GMT 35.32805 -85.18084 37,000 53 540 0
2017-11-13 06:05:25 GMT 35.32184 -85.19120 37,000 53 539 0
2017-11-13 06:05:23 GMT 35.31951 -85.19512 37,000 53 539 0
2017-11-13 06:05:18 GMT 35.31183 -85.20792 37,000 53 539 0
2017-11-13 06:05:14 GMT 35.30676 -85.21626 37,000 53 540 0
2017-11-13 06:05:12 GMT 35.30354 -85.22165 37,000 53 540 0
2017-11-13 06:05:09 GMT 35.30056 -85.22656 37,000 53 540 0
2017-11-13 06:05:07 GMT 35.29614 -85.23394 37,000 53 540 0
2017-11-13 06:05:05 GMT 35.29167 -85.24128 37,000 53 540 0
2017-11-13 06:05:03 GMT 35.29111 -85.24228 37,000 53 540 0
2017-11-13 06:05:01 GMT 35.28753 -85.24818 37,000 53 540 0
2017-11-13 06:04:57 GMT 35.28106 -85.25899 37,000 53 540 0
2017-11-13 06:04:52 GMT 35.27510 -85.26875 37,000 53 539 0
2017-11-13 06:04:45 GMT 35.26414 -85.28692 37,000 53 539 0
2017-11-13 06:04:42 GMT 35.25943 -85.29476 37,000 53 539 0
2017-11-13 06:04:36 GMT 35.24936 -85.31136 37,000 53 538 0
2017-11-13 06:04:32 GMT 35.24493 -85.31871 37,000 53 538 0
2017-11-13 06:04:30 GMT 35.24048 -85.32606 37,000 53 538 0
2017-11-13 06:04:25 GMT 35.23398 -85.33682 37,000 53 538 0
2017-11-13 06:04:21 GMT 35.23013 -85.34314 37,000 53 538 0
2017-11-13 06:04:19 GMT 35.22482 -85.35198 37,000 53 538 0
2017-11-13 06:04:15 GMT 35.21830 -85.36268 37,000 53 537 0
2017-11-13 06:04:12 GMT 35.21477 -85.36858 37,000 53 537 -64
2017-11-13 06:04:10 GMT 35.21123 -85.37447 37,000 53 538 -64
2017-11-13 06:04:03 GMT 35.20294 -85.38814 37,000 53 538 -64
2017-11-13 06:04:01 GMT 35.19855 -85.39544 37,000 53 538 -64
2017-11-13 06:03:58 GMT 35.19438 -85.40233 37,000 53 537 0
2017-11-13 06:03:54 GMT 35.18758 -85.41355 37,000 53 537 0
2017-11-13 06:03:50 GMT 35.18227 -85.42236 37,000 53 537 0
2017-11-13 06:03:48 GMT 35.17786 -85.42969 37,000 53 537 0
2017-11-13 06:03:42 GMT 35.16868 -85.44479 37,000 53 537 0
2017-11-13 06:03:40 GMT 35.16719 -85.44723 37,000 53 537 0
2017-11-13 06:03:33 GMT 35.15717 -85.46382 37,000 53 538 0
2017-11-13 06:03:30 GMT 35.15215 -85.47214 37,000 53 538 0
2017-11-13 06:03:27 GMT 35.14740 -85.47993 37,000 53 538 0
2017-11-13 06:03:21 GMT 35.13881 -85.49409 37,000 53 538 -64
2017-11-13 06:03:18 GMT 35.13231 -85.50480 37,000 53 538 -64
2017-11-13 06:03:10 GMT 35.12311 -85.51992 37,000 53 538 -64
2017-11-13 06:03:08 GMT 35.12105 -85.52335 37,000 53 538 -64
2017-11-13 06:02:59 GMT 35.10562 -85.54869 37,000 53 537 -64
2017-11-13 06:02:54 GMT 35.09912 -85.55939 37,000 53 537 0
2017-11-13 06:02:50 GMT 35.09229 -85.57056 37,000 53 537 0
2017-11-13 06:02:47 GMT 35.08996 -85.57446 37,000 53 537 0
2017-11-13 06:02:47 GMT 35.08996 -85.57446 37,000 53 537 0
2017-11-13 06:02:44 GMT 35.08344 -85.58521 37,000 53 537 0
2017-11-13 06:02:40 GMT 35.07898 -85.59252 37,000 53 537 0
2017-11-13 06:02:38 GMT 35.07511 -85.59883 37,000 53 537 0
2017-11-13 06:02:32 GMT 35.06831 -85.61001 37,000 53 538 0
2017-11-13 06:02:28 GMT 35.06177 -85.62072 37,000 53 538 0
2017-11-13 06:02:26 GMT 35.05849 -85.62607 37,000 53 538 0
2017-11-13 06:02:20 GMT 35.04843 -85.64261 37,000 53 538 0
2017-11-13 06:02:16 GMT 35.04485 -85.64844 37,000 53 538 0
2017-11-13 06:02:14 GMT 35.04071 -85.65525 37,000 53 538 0
2017-11-13 06:02:07 GMT 35.02913 -85.67424 37,000 53 539 0
2017-11-13 06:02:05 GMT 35.02702 -85.67762 37,000 53 539 0
2017-11-13 06:02:02 GMT 35.02171 -85.68638 37,000 53 539 -64
2017-11-13 06:01:59 GMT 35.01752 -85.69319 37,000 53 539 -64
2017-11-13 06:01:55 GMT 35.01311 -85.70053 37,000 53 539 -64
2017-11-13 06:01:52 GMT 35.00597 -85.71219 37,000 53 539 -64
2017-11-13 06:01:48 GMT 35.00212 -85.71854 37,000 53 539 -64
2017-11-13 06:01:46 GMT 34.99764 -85.72581 37,000 53 539 -64
2017-11-13 06:01:42 GMT 34.99233 -85.73461 37,000 53 539 0
2017-11-13 06:01:40 GMT 34.99080 -85.73702 37,000 53 539 0
2017-11-13 06:01:36 GMT 34.98399 -85.74823 37,000 53 539 0
2017-11-13 06:01:34 GMT 34.98252 -85.75069 37,000 53 539 0
2017-11-13 06:01:27 GMT 34.97004 -85.77112 37,000 53 538 0
2017-11-13 06:01:25 GMT 34.96706 -85.77593 37,000 53 538 0
2017-11-13 06:01:19 GMT 34.95514 -85.79538 37,000 53 538 0
2017-11-13 06:01:17 GMT 34.95459 -85.79636 37,000 53 538 0
2017-11-13 06:01:14 GMT 34.95161 -85.80122 37,000 53 538 0
2017-11-13 06:01:12 GMT 34.94655 -85.80944 37,000 53 538 0
2017-11-13 06:01:10 GMT 34.94267 -85.81575 37,000 53 538 0
2017-11-13 06:01:06 GMT 34.93676 -85.82548 37,000 53 538 0
2017-11-13 06:01:04 GMT 34.93615 -85.82645 37,000 53 537 0
2017-11-13 06:00:58 GMT 34.92696 -85.84145 37,000 53 537 0
2017-11-13 06:00:53 GMT 34.92101 -85.85115 37,000 53 537 0
2017-11-13 06:00:49 GMT 34.91386 -85.86281 37,000 53 537 0
2017-11-13 06:00:47 GMT 34.91089 -85.86763 37,000 53 537 0
2017-11-13 06:00:43 GMT 34.90408 -85.87881 37,000 53 537 0
2017-11-13 06:00:40 GMT 34.89989 -85.88556 37,000 53 537 0
2017-11-13 06:00:37 GMT 34.89453 -85.89426 37,000 53 537 -64
2017-11-13 06:00:31 GMT 34.88802 -85.90496 37,000 53 537 -64
2017-11-13 06:00:26 GMT 34.87968 -85.91846 37,000 53 537 -64
2017-11-13 06:00:21 GMT 34.87195 -85.93105 37,000 53 536 -64
2017-11-13 06:00:18 GMT 34.86781 -85.93780 37,000 53 536 -64
2017-11-13 06:00:13 GMT 34.86035 -85.94991 37,000 53 536 0
2017-11-13 06:00:10 GMT 34.85771 -85.95423 37,000 53 536 0
2017-11-13 06:00:08 GMT 34.85385 -85.96051 37,000 53 536 0
2017-11-13 06:00:04 GMT 34.84700 -85.97162 37,000 53 535 0
2017-11-13 06:00:00 GMT 34.84226 -85.97935 37,000 53 535 0
2017-11-13 05:59:57 GMT 34.83574 -85.98993 37,000 53 535 0
2017-11-13 05:59:52 GMT 34.82922 -86.00052 37,000 53 535 0
2017-11-13 05:59:50 GMT 34.82685 -86.00435 37,000 53 535 0
2017-11-13 05:59:47 GMT 34.82300 -86.01062 37,000 53 535 0
2017-11-13 05:59:42 GMT 34.81348 -86.02603 37,000 53 535 0
2017-11-13 05:59:39 GMT 34.81139 -86.02942 37,000 53 535 0
2017-11-13 05:59:36 GMT 34.80664 -86.03714 37,000 53 535 0
2017-11-13 05:59:34 GMT 34.80073 -86.04675 37,000 53 535 0
2017-11-13 05:59:30 GMT 34.79775 -86.05156 37,000 53 534 0
2017-11-13 05:59:25 GMT 34.78917 -86.06549 37,000 53 534 0
2017-11-13 05:59:20 GMT 34.78295 -86.07559 37,000 53 534 0
2017-11-13 05:59:16 GMT 34.77699 -86.08521 37,000 53 534 0
2017-11-13 05:59:12 GMT 34.76898 -86.09817 37,000 53 534 0
2017-11-13 05:59:10 GMT 34.76724 -86.10103 37,000 53 534 0
2017-11-13 05:59:06 GMT 34.76248 -86.10871 37,000 53 534 0
2017-11-13 05:59:02 GMT 34.75479 -86.12121 37,000 53 534 0
2017-11-13 05:59:00 GMT 34.75241 -86.12502 37,000 53 535 -64
2017-11-13 05:58:57 GMT 34.74733 -86.13321 37,000 53 534 -64
2017-11-13 05:58:49 GMT 34.73607 -86.15141 37,000 53 534 0
2017-11-13 05:58:46 GMT 34.73132 -86.15913 37,000 53 534 -64
2017-11-13 05:58:40 GMT 34.72394 -86.17110 37,000 53 534 0
2017-11-13 05:58:38 GMT 34.72066 -86.17636 37,000 53 534 -64
2017-11-13 05:58:28 GMT 34.70586 -86.20033 37,000 53 533 0
2017-11-13 05:58:25 GMT 34.69934 -86.21086 37,000 53 533 0
2017-11-13 05:58:19 GMT 34.69134 -86.22379 37,000 53 533 0
2017-11-13 05:58:14 GMT 34.68514 -86.23381 37,000 53 533 0
2017-11-13 05:58:12 GMT 34.68008 -86.24195 37,000 53 533 -64
2017-11-13 05:58:07 GMT 34.67180 -86.25534 37,000 53 533 -64
2017-11-13 05:58:04 GMT 34.66882 -86.26011 37,000 53 533 -64
2017-11-13 05:57:58 GMT 34.66080 -86.27300 37,000 53 533 0
2017-11-13 05:57:55 GMT 34.65605 -86.28061 37,000 53 533 0
2017-11-13 05:57:53 GMT 34.65251 -86.28633 37,000 53 533 0
2017-11-13 05:57:46 GMT 34.64180 -86.30356 37,000 53 533 0
2017-11-13 05:57:43 GMT 34.63943 -86.30733 37,000 53 533 0
2017-11-13 05:57:37 GMT 34.62904 -86.32406 37,000 53 532 0
2017-11-13 05:57:34 GMT 34.62458 -86.33120 37,000 53 532 0
2017-11-13 05:57:29 GMT 34.61778 -86.34217 37,000 53 532 0
2017-11-13 05:57:27 GMT 34.61362 -86.34884 37,000 53 532 -64
2017-11-13 05:57:23 GMT 34.60917 -86.35603 37,000 53 532 0
2017-11-13 05:57:20 GMT 34.60386 -86.36461 37,000 53 532 -64
2017-11-13 05:57:16 GMT 34.59851 -86.37320 37,000 53 532 0
2017-11-13 05:57:11 GMT 34.59260 -86.38269 37,000 53 532 0
2017-11-13 05:57:09 GMT 34.58931 -86.38796 37,000 53 532 0
2017-11-13 05:57:06 GMT 34.58310 -86.39791 37,000 53 532 0
2017-11-13 05:57:01 GMT 34.57481 -86.41125 37,000 53 532 0
2017-11-13 05:56:54 GMT 34.56743 -86.42316 37,000 53 532 0
2017-11-13 05:56:50 GMT 34.56033 -86.43454 37,000 53 532 -64
2017-11-13 05:56:45 GMT 34.55264 -86.44693 37,000 53 532 0
2017-11-13 05:56:40 GMT 34.54404 -86.46069 37,000 52 531 0
2017-11-13 05:56:34 GMT 34.53576 -86.47396 37,000 52 531 0
2017-11-13 05:56:30 GMT 34.53105 -86.48157 37,000 52 531 0
2017-11-13 05:56:28 GMT 34.52779 -86.48678 37,000 52 531 0
2017-11-13 05:56:23 GMT 34.52188 -86.49626 37,000 52 531 0
2017-11-13 05:56:18 GMT 34.51300 -86.51050 37,000 53 530 -64
2017-11-13 05:56:14 GMT 34.50590 -86.52187 37,000 53 530 0
2017-11-13 05:56:10 GMT 34.50000 -86.53129 37,000 52 529 0
2017-11-13 05:56:07 GMT 34.49643 -86.53701 37,000 52 529 0
2017-11-13 05:56:03 GMT 34.49139 -86.54503 37,000 52 529 0
2017-11-13 05:55:57 GMT 34.48283 -86.55876 37,000 52 529 0
2017-11-13 05:55:53 GMT 34.47574 -86.57014 37,000 52 529 0
2017-11-13 05:55:47 GMT 34.46571 -86.58617 37,000 52 529 0
2017-11-13 05:55:43 GMT 34.46188 -86.59235 37,000 52 529 0
2017-11-13 05:55:41 GMT 34.45802 -86.59844 37,000 52 529 0
2017-11-13 05:55:39 GMT 34.45390 -86.60506 37,000 52 529 0
2017-11-13 05:55:33 GMT 34.44707 -86.61593 37,000 52 529 0
2017-11-13 05:55:31 GMT 34.44414 -86.62062 37,000 52 529 0
2017-11-13 05:55:25 GMT 34.43376 -86.63712 37,000 52 528 0
2017-11-13 05:55:22 GMT 34.42934 -86.64419 37,000 52 528 0
2017-11-13 05:55:18 GMT 34.42226 -86.65552 37,000 52 528 0
2017-11-13 05:55:16 GMT 34.42049 -86.65833 37,000 52 528 0
2017-11-13 05:55:11 GMT 34.41337 -86.66960 37,000 52 528 0
2017-11-13 05:55:09 GMT 34.41044 -86.67435 37,000 52 528 0
2017-11-13 05:55:04 GMT 34.40305 -86.68611 37,000 52 528 0
2017-11-13 05:55:02 GMT 34.40066 -86.68986 37,000 52 528 -64
2017-11-13 05:54:59 GMT 34.39447 -86.69970 37,000 52 528 -64
2017-11-13 05:54:56 GMT 34.39154 -86.70445 37,000 52 528 0
2017-11-13 05:54:52 GMT 34.38385 -86.71663 37,000 52 527 0
2017-11-13 05:54:50 GMT 34.38032 -86.72230 37,000 52 527 0
2017-11-13 05:54:47 GMT 34.37709 -86.72742 37,000 52 526 0
2017-11-13 05:54:40 GMT 34.36854 -86.74107 37,000 52 527 0
2017-11-13 05:54:38 GMT 34.36414 -86.74810 37,000 52 527 0
2017-11-13 05:54:36 GMT 34.36235 -86.75091 37,000 52 526 0
2017-11-13 05:54:31 GMT 34.35406 -86.76402 37,000 52 526 0
2017-11-13 05:54:29 GMT 34.34994 -86.77058 37,000 52 526 0
2017-11-13 05:54:25 GMT 34.34731 -86.77477 37,000 52 526 0
2017-11-13 05:54:21 GMT 34.33873 -86.78835 37,000 52 526 0
2017-11-13 05:54:17 GMT 34.33432 -86.79537 37,000 52 526 0
2017-11-13 05:54:15 GMT 34.32990 -86.80236 37,000 52 526 0
2017-11-13 05:54:13 GMT 34.32458 -86.81083 37,000 52 526 0
2017-11-13 05:54:10 GMT 34.32315 -86.81316 37,000 52 526 0
2017-11-13 05:54:08 GMT 34.31901 -86.81969 37,000 52 526 0
2017-11-13 05:54:04 GMT 34.31634 -86.82394 37,000 52 526 0
2017-11-13 05:54:00 GMT 34.30930 -86.83515 37,000 52 526 0
2017-11-13 05:53:57 GMT 34.30369 -86.84406 37,000 52 526 0
2017-11-13 05:53:55 GMT 34.30106 -86.84827 37,000 52 526 0
2017-11-13 05:53:49 GMT 34.29282 -86.86133 37,000 52 526 0
2017-11-13 05:53:45 GMT 34.28513 -86.87349 37,000 52 526 -64
2017-11-13 05:53:42 GMT 34.28246 -86.87771 37,000 52 525 -64
2017-11-13 05:53:38 GMT 34.27660 -86.88703 37,000 52 525 0
2017-11-13 05:53:35 GMT 34.27185 -86.89447 37,000 52 525 0
2017-11-13 05:53:30 GMT 34.26478 -86.90569 37,000 52 525 0
2017-11-13 05:53:28 GMT 34.26184 -86.91032 37,000 52 525 0
2017-11-13 05:53:26 GMT 34.25709 -86.91782 37,000 52 525 0
2017-11-13 05:53:24 GMT 34.25565 -86.92013 37,000 52 525 0
2017-11-13 05:53:19 GMT 34.24855 -86.93128 37,000 52 525 0
2017-11-13 05:53:17 GMT 34.24653 -86.93459 37,000 52 525 0
2017-11-13 05:53:13 GMT 34.23912 -86.94625 37,000 52 525 0
2017-11-13 05:53:10 GMT 34.23500 -86.95275 37,000 52 525 0
2017-11-13 05:53:07 GMT 34.23207 -86.95740 37,000 52 525 0
2017-11-13 05:53:03 GMT 34.22502 -86.96856 37,000 52 525 0
2017-11-13 05:53:01 GMT 34.22353 -86.97092 37,000 52 525 0
2017-11-13 05:52:59 GMT 34.21678 -86.98162 37,000 52 525 0
2017-11-13 05:52:57 GMT 34.21678 -86.98162 37,000 52 525 0
2017-11-13 05:52:55 GMT 34.21236 -86.98860 37,000 52 525 0
2017-11-13 05:52:52 GMT 34.20850 -86.99468 37,000 52 525 0
2017-11-13 05:52:50 GMT 34.20528 -86.99976 37,000 52 525 0
2017-11-13 05:52:47 GMT 34.20174 -87.00537 37,000 52 525 0
2017-11-13 05:52:45 GMT 34.19971 -87.00864 37,000 52 525 0
2017-11-13 05:52:41 GMT 34.19380 -87.01794 37,000 52 525 0
2017-11-13 05:52:39 GMT 34.18936 -87.02494 37,000 52 525 0
2017-11-13 05:52:36 GMT 34.18199 -87.03655 37,000 52 525 0
2017-11-13 05:52:31 GMT 34.17758 -87.04353 37,000 52 525 0
2017-11-13 05:52:27 GMT 34.17082 -87.05421 37,000 52 525 0
2017-11-13 05:52:24 GMT 34.16576 -87.06213 37,000 52 525 0
2017-11-13 05:52:22 GMT 34.16520 -87.06305 37,000 52 525 0
2017-11-13 05:52:18 GMT 34.15956 -87.07186 37,000 52 525 0
2017-11-13 05:52:15 GMT 34.15514 -87.07884 37,000 52 525 0
2017-11-13 05:52:12 GMT 34.15073 -87.08582 37,000 52 525 0
2017-11-13 05:52:08 GMT 34.14509 -87.09469 37,000 52 525 0
2017-11-13 05:52:06 GMT 34.13951 -87.10348 37,000 52 525 0
2017-11-13 05:52:00 GMT 34.13094 -87.11700 37,000 52 525 0
2017-11-13 05:51:56 GMT 34.12651 -87.12399 37,000 52 525 0
2017-11-13 05:51:54 GMT 34.12381 -87.12816 37,000 52 525 0
2017-11-13 05:51:50 GMT 34.11644 -87.13980 37,000 52 525 0
2017-11-13 05:51:48 GMT 34.11232 -87.14630 37,000 52 525 0
2017-11-13 05:51:44 GMT 34.10875 -87.15191 37,000 52 525 0
2017-11-13 05:51:41 GMT 34.10225 -87.16211 37,000 52 526 0
2017-11-13 05:51:39 GMT 34.10225 -87.16211 37,000 52 525 0
2017-11-13 05:51:37 GMT 34.09844 -87.16816 37,000 52 526 0
2017-11-13 05:51:35 GMT 34.09337 -87.17606 37,000 52 526 0
2017-11-13 05:51:28 GMT 34.08394 -87.19092 37,000 52 525 0
2017-11-13 05:51:26 GMT 34.08156 -87.19468 37,000 52 525 -64
2017-11-13 05:51:24 GMT 34.07858 -87.19933 37,000 52 525 -64
2017-11-13 05:51:19 GMT 34.07149 -87.21043 37,000 52 525 -64
2017-11-13 05:51:17 GMT 34.07000 -87.21279 37,000 52 525 -64
2017-11-13 05:51:15 GMT 34.06677 -87.21788 37,000 52 525 -64
2017-11-13 05:51:13 GMT 34.06320 -87.22343 37,000 52 525 -64
2017-11-13 05:51:09 GMT 34.05701 -87.23316 37,000 52 525 -64
2017-11-13 05:51:04 GMT 34.04812 -87.24707 37,000 52 524 0
2017-11-13 05:51:00 GMT 34.04192 -87.25678 37,000 52 524 0
2017-11-13 05:50:53 GMT 34.03308 -87.27068 37,000 52 524 0
2017-11-13 05:50:47 GMT 34.02508 -87.28317 37,000 52 523 0
2017-11-13 05:50:44 GMT 34.01977 -87.29147 37,000 52 523 0
2017-11-13 05:50:42 GMT 34.01684 -87.29610 37,000 52 523 0
2017-11-13 05:50:38 GMT 34.00946 -87.30762 37,000 52 523 0
2017-11-13 05:50:35 GMT 34.00562 -87.31361 37,000 52 523 0
2017-11-13 05:50:32 GMT 34.00208 -87.31916 37,000 52 522 0
2017-11-13 05:50:27 GMT 33.99472 -87.33071 37,000 52 522 0
2017-11-13 05:50:21 GMT 33.98732 -87.34222 37,000 52 522 0
2017-11-13 05:50:16 GMT 33.97908 -87.35516 37,000 52 522 0
2017-11-13 05:50:12 GMT 33.97201 -87.36620 37,000 52 522 0
2017-11-13 05:50:07 GMT 33.96464 -87.37774 37,000 52 522 0
2017-11-13 05:50:01 GMT 33.95669 -87.39017 37,000 52 522 0
2017-11-13 05:49:53 GMT 33.94464 -87.40908 37,000 52 522 0
2017-11-13 05:49:51 GMT 33.94167 -87.41367 37,000 52 522 0
2017-11-13 05:49:46 GMT 33.93430 -87.42519 37,000 52 522 0
2017-11-13 05:49:41 GMT 33.92545 -87.43898 37,000 52 522 0
2017-11-13 05:49:29 GMT 33.91014 -87.46290 37,000 52 522 0
2017-11-13 05:49:23 GMT 33.90102 -87.47718 37,000 52 522 0
2017-11-13 05:49:19 GMT 33.89482 -87.48682 37,000 52 521 0
2017-11-13 05:49:10 GMT 33.88007 -87.50977 37,000 52 521 0
2017-11-13 05:48:59 GMT 33.86444 -87.53402 37,000 52 521 0
2017-11-13 05:48:48 GMT 33.84970 -87.55694 37,000 52 521 0
2017-11-13 05:48:39 GMT 33.83524 -87.57940 37,000 52 521 0
2017-11-13 05:48:30 GMT 33.82230 -87.59955 37,000 52 521 0
2017-11-13 05:48:27 GMT 33.81876 -87.60504 37,000 52 521 0
2017-11-13 05:48:22 GMT 33.80991 -87.61877 37,000 52 520 0
2017-11-13 05:48:20 GMT 33.80553 -87.62561 37,000 52 520 0
2017-11-13 05:48:17 GMT 33.80434 -87.62746 37,000 52 520 0
2017-11-13 05:48:11 GMT 33.79431 -87.64298 37,000 52 520 0
2017-11-13 05:48:08 GMT 33.78934 -87.65076 37,000 52 520 0
2017-11-13 05:48:00 GMT 33.77902 -87.66675 37,000 52 520 0
2017-11-13 05:47:57 GMT 33.77402 -87.67450 37,000 52 520 0
2017-11-13 05:47:46 GMT 33.75783 -87.69960 37,000 52 519 0
2017-11-13 05:47:40 GMT 33.74840 -87.71417 37,000 52 519 0
2017-11-13 05:47:37 GMT 33.74278 -87.72285 37,000 52 519 0
2017-11-13 05:47:31 GMT 33.73571 -87.73373 37,000 52 519 0
2017-11-13 05:47:25 GMT 33.72691 -87.74740 37,000 52 519 0
2017-11-13 05:47:16 GMT 33.71215 -87.77012 37,000 52 518 0
2017-11-13 05:47:05 GMT 33.69688 -87.79375 37,000 52 518 0
2017-11-13 05:46:54 GMT 33.68129 -87.81781 37,000 52 518 0
2017-11-13 05:46:45 GMT 33.66746 -87.83918 37,000 52 518 0
2017-11-13 05:46:34 GMT 33.65219 -87.86276 37,000 52 518 0
2017-11-13 05:46:23 GMT 33.63632 -87.88725 37,000 52 518 0
2017-11-13 05:46:14 GMT 33.62128 -87.91036 37,000 52 518 0
2017-11-13 05:46:02 GMT 33.60452 -87.93617 37,000 52 518 0
2017-11-13 05:45:52 GMT 33.59037 -87.95786 37,000 52 518 0
2017-11-13 05:45:44 GMT 33.57948 -87.97459 37,000 52 518 0
2017-11-13 05:45:42 GMT 33.57506 -87.98138 37,000 52 518 0
2017-11-13 05:45:35 GMT 33.56534 -87.99628 37,000 52 517 0
2017-11-13 05:45:32 GMT 33.56062 -88.00351 37,000 52 517 0
2017-11-13 05:45:25 GMT 33.54913 -88.02115 37,000 52 518 0
2017-11-13 05:45:21 GMT 33.54355 -88.02975 37,000 52 518 0
2017-11-13 05:45:15 GMT 33.53586 -88.04147 37,000 52 518 0
2017-11-13 05:45:10 GMT 33.52850 -88.05279 37,000 52 518 0
2017-11-13 05:44:59 GMT 33.51228 -88.07761 37,000 52 518 0
2017-11-13 05:44:51 GMT 33.49814 -88.09931 37,000 52 518 0
2017-11-13 05:44:04 GMT 33.43060 -88.20278 37,000 52 518 0
2017-11-13 05:43:58 GMT 33.42146 -88.21675 37,000 52 518 -64
2017-11-13 05:43:35 GMT 33.38699 -88.26949 37,000 51 517 0
2017-11-13 05:43:26 GMT 33.37486 -88.28795 37,000 51 517 0
We lost coverage of the aircraft here for a total of 11 minutes
2017-11-13 05:32:40 GMT 32.42871 -89.70130 37,000 51 497 0
2017-11-13 05:32:32 GMT 32.41745 -89.71782 37,000 51 497 0
2017-11-13 05:32:15 GMT 32.39407 -89.75202 37,000 51 497 0
2017-11-13 05:32:05 GMT 32.37848 -89.77478 37,000 51 496 0
2017-11-13 05:32:02 GMT 32.37503 -89.77983 37,000 51 496 -64
2017-11-13 05:31:23 GMT 32.31647 -89.86536 37,000 51 495 0
2017-11-13 05:29:23 GMT 32.14297 -90.11744 37,000 50 493 0
2017-11-13 05:29:10 GMT 32.12654 -90.14120 37,000 50 493 0
2017-11-13 05:28:37 GMT 32.07696 -90.21283 37,000 50 493 0
2017-11-13 05:28:28 GMT 32.06630 -90.22824 37,000 50 493 0
2017-11-13 05:28:18 GMT 32.05069 -90.25071 37,000 50 493 0
2017-11-13 05:28:09 GMT 32.03860 -90.26818 37,000 50 493 0
2017-11-13 05:28:02 GMT 32.02936 -90.28153 37,000 50 493 0
2017-11-13 05:27:59 GMT 32.02268 -90.29108 37,000 50 493 0
2017-11-13 05:27:48 GMT 32.00798 -90.31229 37,000 50 493 0
2017-11-13 05:27:38 GMT 31.99261 -90.33430 37,000 50 493 0
2017-11-13 05:27:35 GMT 31.99058 -90.33723 37,000 50 493 0
2017-11-13 05:27:26 GMT 31.97585 -90.35846 37,000 50 493 0
2017-11-13 05:27:17 GMT 31.96193 -90.37847 37,000 50 495 0
2017-11-13 05:27:03 GMT 31.94371 -90.40474 37,000 50 495 0
2017-11-13 05:26:59 GMT 31.93790 -90.41309 37,000 50 495 0
2017-11-13 05:26:55 GMT 31.93094 -90.42308 37,000 50 495 0
2017-11-13 05:26:50 GMT 31.92194 -90.43603 37,000 50 496 0
2017-11-13 05:26:43 GMT 31.91496 -90.44607 37,000 50 496 0
2017-11-13 05:26:41 GMT 31.91207 -90.45022 37,000 50 496 0
2017-11-13 05:26:34 GMT 31.90013 -90.46730 37,000 50 496 0
2017-11-13 05:26:28 GMT 31.89056 -90.48110 37,000 50 496 0
2017-11-13 05:26:22 GMT 31.88414 -90.49024 37,000 50 496 0
2017-11-13 05:26:16 GMT 31.87573 -90.50235 37,000 50 496 0
2017-11-13 05:26:09 GMT 31.86292 -90.52070 37,000 50 496 0
2017-11-13 05:26:03 GMT 31.85481 -90.53234 37,000 50 496 0
2017-11-13 05:25:58 GMT 31.84755 -90.54276 37,000 50 496 0
2017-11-13 05:25:52 GMT 31.84026 -90.55316 37,000 50 496 0
2017-11-13 05:25:47 GMT 31.83270 -90.56398 37,000 50 495 0
2017-11-13 05:25:41 GMT 31.82281 -90.57810 37,000 50 495 0
2017-11-13 05:25:37 GMT 31.81790 -90.58519 37,000 50 495 0
2017-11-13 05:25:31 GMT 31.80975 -90.59685 37,000 50 495 0
2017-11-13 05:25:27 GMT 31.80304 -90.60639 37,000 50 495 0
2017-11-13 05:25:18 GMT 31.79201 -90.62216 37,000 50 495 0
2017-11-13 05:25:16 GMT 31.78764 -90.62841 37,000 50 495 0
2017-11-13 05:25:07 GMT 31.77600 -90.64500 37,000 50 495 0
2017-11-13 05:25:05 GMT 31.77195 -90.65077 37,000 50 495 0
2017-11-13 05:25:00 GMT 31.76468 -90.66117 37,000 50 495 0
2017-11-13 05:24:55 GMT 31.75713 -90.67194 37,000 50 495 0
2017-11-13 05:24:50 GMT 31.74902 -90.68358 37,000 50 495 0
2017-11-13 05:24:45 GMT 31.74113 -90.69478 37,000 50 495 0
2017-11-13 05:24:38 GMT 31.73387 -90.70517 37,000 50 495 0
2017-11-13 05:24:32 GMT 31.72428 -90.71883 37,000 50 495 0
2017-11-13 05:24:28 GMT 31.71877 -90.72671 37,000 50 494 0
2017-11-13 05:24:24 GMT 31.71092 -90.73790 37,000 50 494 0
2017-11-13 05:24:18 GMT 31.70394 -90.74784 37,000 50 494 0
2017-11-13 05:24:13 GMT 31.69579 -90.75943 37,000 50 494 0
2017-11-13 05:24:05 GMT 31.68388 -90.77637 37,000 50 493 0
2017-11-13 05:24:03 GMT 31.68071 -90.78091 37,000 50 493 0
2017-11-13 05:23:57 GMT 31.67256 -90.79244 37,000 50 493 0
2017-11-13 05:23:51 GMT 31.66475 -90.80356 37,000 50 492 0
2017-11-13 05:23:47 GMT 31.65839 -90.81261 37,000 50 492 0
2017-11-13 05:23:41 GMT 31.64998 -90.82458 37,000 50 491 0
2017-11-13 05:23:36 GMT 31.64188 -90.83606 37,000 50 491 0
2017-11-13 05:23:31 GMT 31.63522 -90.84552 37,000 50 491 0
2017-11-13 05:23:20 GMT 31.61847 -90.86937 37,000 50 490 0
2017-11-13 05:23:15 GMT 31.61297 -90.87715 37,000 50 490 0
2017-11-13 05:23:13 GMT 31.60953 -90.88209 37,000 50 490 0
2017-11-13 05:23:10 GMT 31.60487 -90.88863 37,000 50 490 0
2017-11-13 05:23:05 GMT 31.59824 -90.89808 37,000 50 490 0
2017-11-13 05:23:03 GMT 31.59247 -90.90626 37,000 50 490 0
2017-11-13 05:23:00 GMT 31.58958 -90.91036 37,000 50 490 0
2017-11-13 05:22:53 GMT 31.57979 -90.92425 37,000 50 490 0
2017-11-13 05:22:48 GMT 31.57429 -90.93197 37,000 50 489 0
2017-11-13 05:22:43 GMT 31.56418 -90.94628 37,000 50 488 0
2017-11-13 05:22:39 GMT 31.55986 -90.95240 37,000 50 488 0
2017-11-13 05:22:30 GMT 31.54836 -90.96872 37,000 50 488 -64
2017-11-13 05:22:26 GMT 31.54142 -90.97850 37,000 50 488 0
2017-11-13 05:22:21 GMT 31.53453 -90.98828 37,000 50 488 0
2017-11-13 05:22:18 GMT 31.52932 -90.99564 37,000 50 487 0
2017-11-13 05:22:11 GMT 31.51954 -91.00948 37,000 50 487 0
2017-11-13 05:22:06 GMT 31.51350 -91.01801 37,000 50 487 0
2017-11-13 05:22:00 GMT 31.50460 -91.03063 37,000 50 487 0
2017-11-13 05:21:57 GMT 31.49827 -91.03953 37,000 50 487 0
2017-11-13 05:21:51 GMT 31.48966 -91.05172 37,000 50 487 0
2017-11-13 05:21:46 GMT 31.48361 -91.06024 37,000 50 486 0
2017-11-13 05:21:41 GMT 31.47816 -91.06798 37,000 50 486 0
2017-11-13 05:21:39 GMT 31.47501 -91.07241 37,000 50 486 0
2017-11-13 05:21:36 GMT 31.46928 -91.08054 37,000 50 486 0
2017-11-13 05:21:30 GMT 31.46037 -91.09309 37,000 50 486 0
2017-11-13 05:21:24 GMT 31.45207 -91.10483 37,000 50 485 0
2017-11-13 05:21:21 GMT 31.44804 -91.11048 37,000 50 485 0
2017-11-13 05:21:18 GMT 31.44376 -91.11654 37,000 50 485 0
2017-11-13 05:21:14 GMT 31.43747 -91.12544 37,000 50 485 0
2017-11-13 05:21:11 GMT 31.43286 -91.13187 37,000 50 485 0
2017-11-13 05:21:08 GMT 31.43002 -91.13593 37,000 50 485 0
2017-11-13 05:21:02 GMT 31.42113 -91.14845 37,000 50 485 0
2017-11-13 05:20:59 GMT 31.41481 -91.15728 37,000 50 485 0
2017-11-13 05:20:52 GMT 31.40591 -91.16982 37,000 50 485 0
2017-11-13 05:20:49 GMT 31.40363 -91.17306 37,000 50 485 0
2017-11-13 05:20:47 GMT 31.39962 -91.17867 37,000 50 485 0
2017-11-13 05:20:41 GMT 31.39128 -91.19040 37,000 50 485 0
2017-11-13 05:20:39 GMT 31.38868 -91.19399 37,000 50 485 0
2017-11-13 05:20:37 GMT 31.38327 -91.20171 37,000 50 485 0
2017-11-13 05:20:32 GMT 31.37636 -91.21135 37,000 50 485 0
2017-11-13 05:20:28 GMT 31.37323 -91.21580 37,000 50 485 0
2017-11-13 05:20:26 GMT 31.36862 -91.22228 37,000 50 485 0
2017-11-13 05:20:21 GMT 31.36178 -91.23195 37,000 50 485 0
2017-11-13 05:20:19 GMT 31.35889 -91.23602 37,000 50 485 0
2017-11-13 05:20:15 GMT 31.35402 -91.24286 37,000 50 485 0
2017-11-13 05:20:11 GMT 31.34711 -91.25255 37,000 50 485 0
2017-11-13 05:20:06 GMT 31.33910 -91.26386 37,000 50 485 0
2017-11-13 05:19:58 GMT 31.32816 -91.27921 37,000 50 486 0
2017-11-13 05:19:54 GMT 31.32384 -91.28524 37,000 50 486 0
2017-11-13 05:19:50 GMT 31.31607 -91.29612 37,000 50 486 0
2017-11-13 05:19:47 GMT 31.31319 -91.30016 37,000 50 486 0
2017-11-13 05:19:45 GMT 31.30916 -91.30581 37,000 50 486 0
2017-11-13 05:19:39 GMT 31.30140 -91.31671 37,000 50 486 0
2017-11-13 05:19:36 GMT 31.29851 -91.32072 37,000 50 486 0
2017-11-13 05:19:34 GMT 31.29419 -91.32681 37,000 50 486 0
2017-11-13 05:19:29 GMT 31.28554 -91.33888 37,000 50 486 0
2017-11-13 05:19:27 GMT 31.28352 -91.34171 37,000 50 486 -64
2017-11-13 05:19:23 GMT 31.27896 -91.34819 37,000 50 485 0
2017-11-13 05:19:17 GMT 31.27116 -91.35902 37,000 50 485 -64
2017-11-13 05:19:15 GMT 31.26828 -91.36306 37,000 50 485 0
2017-11-13 05:19:13 GMT 31.26425 -91.36871 37,000 50 485 0
2017-11-13 05:19:08 GMT 31.25648 -91.37955 37,000 50 485 0
2017-11-13 05:19:06 GMT 31.25359 -91.38362 37,000 50 485 0
2017-11-13 05:19:02 GMT 31.24786 -91.39164 37,000 50 485 0
2017-11-13 05:18:55 GMT 31.23809 -91.40532 37,000 50 485 0
2017-11-13 05:18:53 GMT 31.23348 -91.41174 37,000 50 485 0
2017-11-13 05:18:45 GMT 31.22314 -91.42624 37,000 50 485 0
2017-11-13 05:18:40 GMT 31.21710 -91.43469 37,000 50 485 0
2017-11-13 05:18:34 GMT 31.20850 -91.44675 37,000 50 485 0
2017-11-13 05:18:31 GMT 31.20447 -91.45240 37,000 50 485 0
2017-11-13 05:18:23 GMT 31.19382 -91.46728 37,000 50 486 0
2017-11-13 05:18:21 GMT 31.18749 -91.47618 37,000 50 486 0
2017-11-13 05:18:13 GMT 31.17883 -91.48826 37,000 50 486 0
2017-11-13 05:18:09 GMT 31.17279 -91.49673 37,000 50 486 0
2017-11-13 05:18:04 GMT 31.16473 -91.50798 37,000 50 486 0
2017-11-13 05:18:01 GMT 31.15983 -91.51485 37,000 50 487 0
2017-11-13 05:17:53 GMT 31.14829 -91.53095 37,000 50 487 0
2017-11-13 05:17:50 GMT 31.14480 -91.53578 37,000 50 487 0
2017-11-13 05:17:41 GMT 31.13182 -91.55392 37,000 50 487 0
2017-11-13 05:17:39 GMT 31.12976 -91.55676 37,000 50 487 0
2017-11-13 05:17:30 GMT 31.11705 -91.57451 37,000 50 487 0
2017-11-13 05:17:28 GMT 31.11300 -91.58016 37,000 50 487 0
2017-11-13 05:17:23 GMT 31.10463 -91.59183 37,000 50 487 0
2017-11-13 05:17:20 GMT 31.10175 -91.59587 37,000 50 487 0
2017-11-13 05:17:14 GMT 31.09364 -91.60713 37,000 50 487 0
2017-11-13 05:17:09 GMT 31.08465 -91.61960 37,000 50 487 0
2017-11-13 05:17:02 GMT 31.07451 -91.63373 37,000 50 487 0
2017-11-13 05:17:00 GMT 31.07190 -91.63735 37,000 50 487 0
2017-11-13 05:16:58 GMT 31.06901 -91.64136 37,000 50 487 0
2017-11-13 05:16:55 GMT 31.06407 -91.64822 37,000 50 487 0
2017-11-13 05:16:49 GMT 31.05686 -91.65828 37,000 50 487 0
2017-11-13 05:16:47 GMT 31.05363 -91.66271 37,000 50 487 0
2017-11-13 05:16:42 GMT 31.04613 -91.67315 37,000 50 487 0
2017-11-13 05:16:39 GMT 31.04122 -91.67997 37,000 50 487 0
2017-11-13 05:16:30 GMT 31.02963 -91.69607 37,000 50 487 0
2017-11-13 05:16:28 GMT 31.02669 -91.70013 37,000 50 487 0
2017-11-13 05:16:23 GMT 31.01775 -91.71258 37,000 50 487 0
2017-11-13 05:16:18 GMT 31.01166 -91.72101 37,000 50 487 0
2017-11-13 05:16:15 GMT 31.00644 -91.72826 37,000 50 487 -64
2017-11-13 05:16:08 GMT 30.99687 -91.74155 37,000 50 487 0
2017-11-13 05:16:05 GMT 30.99225 -91.74801 37,000 50 487 0
2017-11-13 05:15:57 GMT 30.98154 -91.76287 37,000 50 487 0
2017-11-13 05:15:52 GMT 30.97252 -91.77537 37,000 50 487 0
2017-11-13 05:15:47 GMT 30.96645 -91.78379 37,000 50 487 0
2017-11-13 05:15:43 GMT 30.96034 -91.79223 37,000 50 487 0
2017-11-13 05:15:35 GMT 30.95077 -91.80549 37,000 50 487 -64
2017-11-13 05:15:25 GMT 30.93594 -91.82599 37,000 50 487 0
2017-11-13 05:15:21 GMT 30.92986 -91.83439 37,000 50 487 0
2017-11-13 05:15:17 GMT 30.92177 -91.84565 37,000 49 486 0
2017-11-13 05:15:15 GMT 30.92116 -91.84647 37,000 49 486 0
2017-11-13 05:15:04 GMT 30.90552 -91.86812 37,000 49 486 0
2017-11-13 05:15:00 GMT 30.89712 -91.87974 37,000 49 486 0
2017-11-13 05:14:54 GMT 30.89076 -91.88852 37,000 49 486 0
2017-11-13 05:14:44 GMT 30.87540 -91.90970 37,000 49 486 0
2017-11-13 05:14:38 GMT 30.86497 -91.92409 37,000 49 486 0
2017-11-13 05:14:34 GMT 30.86005 -91.93090 37,000 49 486 0
2017-11-13 05:14:30 GMT 30.85515 -91.93771 37,000 49 486 0
2017-11-13 05:14:28 GMT 30.85110 -91.94326 37,000 49 486 0
2017-11-13 05:14:23 GMT 30.84558 -91.95088 37,000 49 486 0
2017-11-13 05:14:18 GMT 30.83774 -91.96166 37,000 49 486 0
2017-11-13 05:14:12 GMT 30.82993 -91.97242 37,000 50 485 0
2017-11-13 05:14:07 GMT 30.82326 -91.98160 37,000 49 485 0
2017-11-13 05:14:02 GMT 30.81491 -91.99316 37,000 49 485 0
2017-11-13 05:13:57 GMT 30.80650 -92.00473 37,000 49 484 0
2017-11-13 05:13:52 GMT 30.80040 -92.01308 37,000 49 484 0
2017-11-13 05:13:42 GMT 30.78479 -92.03457 37,000 49 484 0
2017-11-13 05:13:31 GMT 30.76977 -92.05525 37,000 49 484 0
2017-11-13 05:13:20 GMT 30.75476 -92.07599 37,000 50 485 0
2017-11-13 05:13:10 GMT 30.73970 -92.09672 37,000 49 486 0
2017-11-13 05:13:05 GMT 30.73219 -92.10711 37,000 49 486 0
2017-11-13 05:13:00 GMT 30.72409 -92.11826 37,000 49 486 0
2017-11-13 05:12:53 GMT 30.71335 -92.13305 37,000 49 486 0
2017-11-13 05:12:47 GMT 30.70637 -92.14266 37,000 49 486 0
2017-11-13 05:12:38 GMT 30.69159 -92.16301 37,000 49 486 0
2017-11-13 05:12:28 GMT 30.67909 -92.18024 37,000 49 486 0
2017-11-13 05:12:18 GMT 30.66431 -92.20060 37,000 49 486 -64
2017-11-13 05:12:10 GMT 30.65241 -92.21699 37,000 49 486 64
2017-11-13 05:12:08 GMT 30.64865 -92.22215 37,000 50 485 64
2017-11-13 05:11:56 GMT 30.63277 -92.24407 36,975 50 484 320
2017-11-13 05:11:47 GMT 30.61838 -92.26395 36,900 50 482 384
2017-11-13 05:11:40 GMT 30.60663 -92.28025 36,850 50 482 320
2017-11-13 05:11:36 GMT 30.60379 -92.28424 36,850 50 482 256
2017-11-13 05:11:34 GMT 30.60150 -92.28742 36,825 50 481 256
2017-11-13 05:11:25 GMT 30.58685 -92.30815 36,775 51 479 256
2017-11-13 05:11:15 GMT 30.57463 -92.32571 36,750 51 478 384
2017-11-13 05:11:12 GMT 30.56885 -92.33415 36,700 51 477 448
2017-11-13 05:11:04 GMT 30.55796 -92.35025 36,650 52 477 384
2017-11-13 05:10:55 GMT 30.54679 -92.36733 36,600 53 476 320
2017-11-13 05:10:52 GMT 30.54387 -92.37181 36,600 54 475 704
2017-11-13 05:10:44 GMT 30.53129 -92.39205 36,500 55 476 832
2017-11-13 05:10:42 GMT 30.53000 -92.39416 36,500 55 475 768
2017-11-13 05:10:34 GMT 30.52006 -92.41101 36,375 56 477 896
2017-11-13 05:10:32 GMT 30.51788 -92.41485 36,350 57 477 896
2017-11-13 05:10:23 GMT 30.50574 -92.43686 36,200 57 478 896
2017-11-13 05:10:15 GMT 30.49753 -92.45209 36,100 57 478 832
2017-11-13 05:10:12 GMT 30.49539 -92.45598 36,075 57 478 832
2017-11-13 05:10:10 GMT 30.49097 -92.46429 36,025 58 478 768
2017-11-13 05:10:03 GMT 30.48250 -92.47989 35,925 58 478 768
2017-11-13 05:09:58 GMT 30.47687 -92.49027 35,875 58 477 704
2017-11-13 05:09:52 GMT 30.47104 -92.50111 35,800 57 476 768
2017-11-13 05:09:50 GMT 30.46916 -92.50456 35,775 57 476 704
2017-11-13 05:09:41 GMT 30.45676 -92.52746 35,650 57 475 768
2017-11-13 05:09:31 GMT 30.44647 -92.54641 35,550 57 474 832
2017-11-13 05:09:29 GMT 30.44414 -92.55070 35,525 57 474 896
2017-11-13 05:09:20 GMT 30.43250 -92.57212 35,375 57 473 1088
2017-11-13 05:09:09 GMT 30.42064 -92.59401 35,175 58 473 1344
2017-11-13 05:08:59 GMT 30.40783 -92.61766 34,925 58 473 1600
2017-11-13 05:08:49 GMT 30.39688 -92.63790 34,675 58 476 1664
2017-11-13 05:08:33 GMT 30.37766 -92.67339 34,225 57 478 1536
2017-11-13 05:08:21 GMT 30.36467 -92.69725 33,950 57 481 1600
2017-11-13 05:08:17 GMT 30.36067 -92.70468 33,875 57 481 1600
2017-11-13 05:08:14 GMT 30.35500 -92.71513 33,725 57 481 1600
2017-11-13 05:08:08 GMT 30.34908 -92.72604 33,600 58 483 1600
2017-11-13 05:08:04 GMT 30.34526 -92.73301 33,525 58 483 1664
2017-11-13 05:07:56 GMT 30.33577 -92.75054 33,300 57 485 1664
2017-11-13 05:07:37 GMT 30.31235 -92.79355 32,850 57 485 1024
2017-11-13 05:07:30 GMT 30.30467 -92.80761 32,750 57 484 1024
2017-11-13 05:07:26 GMT 30.29750 -92.82074 32,650 57 484 1024
2017-11-13 05:07:23 GMT 30.29652 -92.82250 32,625 57 484 1024
2017-11-13 05:07:13 GMT 30.28244 -92.84826 32,425 57 483 960
2017-11-13 05:07:03 GMT 30.27095 -92.86921 32,275 57 482 1024
2017-11-13 05:06:53 GMT 30.25813 -92.89269 32,100 57 481 1088
2017-11-13 05:06:41 GMT 30.24573 -92.91525 31,900 57 480 1088
2017-11-13 05:06:32 GMT 30.23383 -92.93690 31,725 57 479 1088
2017-11-13 05:06:20 GMT 30.22078 -92.96065 31,550 57 478 832
2017-11-13 05:06:11 GMT 30.20874 -92.98263 31,425 57 476 704
2017-11-13 05:05:59 GMT 30.19541 -93.00707 31,300 57 473 640
2017-11-13 05:05:47 GMT 30.18196 -93.03179 31,175 57 469 640
2017-11-13 05:05:31 GMT 30.16365 -93.06621 31,000 61 468 640
2017-11-13 05:05:15 GMT 30.14928 -93.10165 30,825 69 473 576
2017-11-13 05:05:08 GMT 30.14314 -93.12168 30,750 73 475 576
2017-11-13 05:04:50 GMT 30.13481 -93.16326 30,600 81 479 576
2017-11-13 05:04:47 GMT 30.13358 -93.17333 30,550 82 478 512
2017-11-13 05:04:35 GMT 30.13046 -93.19950 30,450 82 474 1152
2017-11-13 05:04:25 GMT 30.12730 -93.22603 30,250 82 472 1152
2017-11-13 05:04:15 GMT 30.12401 -93.25341 30,050 82 470 1152
2017-11-13 05:04:04 GMT 30.12094 -93.27915 29,850 82 468 1088
2017-11-13 05:03:54 GMT 30.11792 -93.30387 29,675 81 466 1216
2017-11-13 05:03:42 GMT 30.11464 -93.33089 29,475 81 464 832
2017-11-13 05:03:33 GMT 30.11143 -93.35726 29,350 82 461 704
2017-11-13 05:03:21 GMT 30.10849 -93.38201 29,175 82 459 2112
2017-11-13 05:03:12 GMT 30.10556 -93.40681 28,675 82 463 4032
2017-11-13 05:03:01 GMT 30.10245 -93.43350 28,000 82 473 2752
2017-11-13 05:02:46 GMT 30.09784 -93.47157 27,575 82 475 1280
2017-11-13 05:02:06 GMT 30.08569 -93.57174 26,600 82 468 1536
2017-11-13 05:01:58 GMT 30.08354 -93.58957 26,425 82 468 1600
2017-11-13 05:01:47 GMT 30.08002 -93.61822 26,100 82 468 1856
2017-11-13 05:01:37 GMT 30.07713 -93.64197 25,800 82 467 1920
2017-11-13 05:01:27 GMT 30.07388 -93.66863 25,475 82 467 1920
We lost coverage of the aircraft here for a total of 12 minutes
2017-11-13 04:49:49 GMT 29.88350 -95.09021 6,425 80 274 1856
2017-11-13 04:49:25 GMT 29.87787 -95.12676 5,650 79 269 1792
2017-11-13 04:49:13 GMT 29.87541 -95.14219 5,325 79 266 1792
2017-11-13 04:48:28 GMT 29.86680 -95.20310 3,900 86 257 1984
2017-11-13 04:48:22 GMT 29.86679 -95.21106 3,725 97 256 1984
2017-11-13 04:48:13 GMT 29.86857 -95.22314 3,425 106 256 1984
2017-11-13 04:48:03 GMT 29.87336 -95.23617 3,100 121 255 1984
2017-11-13 04:47:52 GMT 29.88103 -95.24761 2,750 131 255 2304
2017-11-13 04:47:42 GMT 29.88954 -95.25865 2,350 131 255 1920
2017-11-13 04:47:31 GMT 29.89760 -95.26916 2,075 131 250 1088
2017-11-13 04:46:39 GMT 29.93440 -95.32030 1,600 140 186 0

Making use of Plane Finder data

You are free to use the raw flight data, aircraft information and images provided in this report for your own purposes provided the data is correctly attributed to Plane Finder. We ask that you please credit Plane Finder and link to planefinder.net in close proximity to the content.

Optionally one of the following logos (no smaller then 150x24px) can be used and must link to planefinder.net

Embedding the Plane Finder map

You are welcome to embed the Plane Finder playback map on your website to offer visitors a more interactive experience. We suggest using the following HTML code:

<iframe src="//planefinder.net/data/report/BA196-G-VIIJ-7700-squawk-2017-11-13/map" width="800" height="600" seamless="seamless"></iframe>

Where our data comes from

Plane Finder has a global network of data feeds and antenna radars that receive data broadcast directly from aircraft. The primary technologies used are ADS-B and MLAT. We also show feeds from the FAA and a FLARM glider feed.

Click here to find out more about the Plane Finder network.

How we collect our data